<?xml version="1.0" encoding="UTF-8"?>
<gpx creator="Garmin Connect" version="1.1"
  xsi:schemaLocation="http://www.topografix.com/GPX/1/1 http://www.topografix.com/GPX/11.xsd"
  xmlns="http://www.topografix.com/GPX/1/1"
  xmlns:ns3="http://www.garmin.com/xmlschemas/TrackPointExtension/v1"
  xmlns:ns2="http://www.garmin.com/xmlschemas/GpxExtensions/v3" xmlns:xsi="http://www.w3.org/2001/XMLSchema-instance">
  <metadata>
    <link href="connect.garmin.com">
      <text>Garmin Connect</text>
    </link>
    <time>2017-07-03T06:38:23.000Z</time>
  </metadata>
  <trk>
    <name>Toulenne Cyclisme 2017-49</name>
    <desc>Du plat et des côtes sur un parcours d'Odile.</desc>
    <type>cycling</type>
    <trkseg>
      <trkpt lat="44.55151009373366832733154296875" lon="-0.27111190371215343475341796875">
        <ele>31.200000762939453125</ele>
        <time>2017-07-03T06:38:28.000Z</time>
        <extensions>
          <ns3:TrackPointExtension/>
        </extensions>
      </trkpt>
      <trkpt lat="44.55207235179841518402099609375" lon="-0.27087653987109661102294921875">
        <ele>28.6000003814697265625</ele>
        <time>2017-07-03T06:38:54.000Z</time>
        <extensions>
          <ns3:TrackPointExtension/>
        </extensions>
      </trkpt>
      <trkpt lat="44.55219606868922710418701171875" lon="-0.27082323096692562103271484375">
        <ele>29</ele>
        <time>2017-07-03T06:39:02.000Z</time>
        <extensions>
          <ns3:TrackPointExtension/>
        </extensions>
      </trkpt>
      <trkpt lat="44.55221937038004398345947265625" lon="-0.2708177827298641204833984375">
        <ele>29</ele>
        <time>2017-07-03T06:39:05.000Z</time>
        <extensions>
          <ns3:TrackPointExtension/>
        </extensions>
      </trkpt>
      <trkpt lat="44.55223512835800647735595703125" lon="-0.2708275057375431060791015625">
        <ele>29.200000762939453125</ele>
        <time>2017-07-03T06:39:06.000Z</time>
        <extensions>
          <ns3:TrackPointExtension/>
        </extensions>
      </trkpt>
      <trkpt lat="44.552260525524616241455078125" lon="-0.2709777094423770904541015625">
        <ele>29</ele>
        <time>2017-07-03T06:39:11.000Z</time>
        <extensions>
          <ns3:TrackPointExtension/>
        </extensions>
      </trkpt>
      <trkpt lat="44.55227653495967388153076171875" lon="-0.2715352736413478851318359375">
        <ele>29</ele>
        <time>2017-07-03T06:39:21.000Z</time>
        <extensions>
          <ns3:TrackPointExtension/>
        </extensions>
      </trkpt>
      <trkpt lat="44.55233403481543064117431640625" lon="-0.2724435366690158843994140625">
        <ele>29.799999237060546875</ele>
        <time>2017-07-03T06:39:32.000Z</time>
        <extensions>
          <ns3:TrackPointExtension/>
        </extensions>
      </trkpt>
      <trkpt lat="44.55238097347319126129150390625" lon="-0.27319413609802722930908203125">
        <ele>29.6000003814697265625</ele>
        <time>2017-07-03T06:39:42.000Z</time>
        <extensions>
          <ns3:TrackPointExtension/>
        </extensions>
      </trkpt>
      <trkpt lat="44.55242992378771305084228515625" lon="-0.2739757485687732696533203125">
        <ele>29.200000762939453125</ele>
        <time>2017-07-03T06:39:51.000Z</time>
        <extensions>
          <ns3:TrackPointExtension/>
        </extensions>
      </trkpt>
      <trkpt lat="44.552542157471179962158203125" lon="-0.27477018535137176513671875">
        <ele>29</ele>
        <time>2017-07-03T06:40:00.000Z</time>
        <extensions>
          <ns3:TrackPointExtension/>
        </extensions>
      </trkpt>
      <trkpt lat="44.55276771448552608489990234375" lon="-0.27548926882445812225341796875">
        <ele>30</ele>
        <time>2017-07-03T06:40:09.000Z</time>
        <extensions>
          <ns3:TrackPointExtension/>
        </extensions>
      </trkpt>
      <trkpt lat="44.5530432276427745819091796875" lon="-0.2762100286781787872314453125">
        <ele>28.799999237060546875</ele>
        <time>2017-07-03T06:40:18.000Z</time>
        <extensions>
          <ns3:TrackPointExtension/>
        </extensions>
      </trkpt>
      <trkpt lat="44.55332301557064056396484375" lon="-0.27694679796695709228515625">
        <ele>27</ele>
        <time>2017-07-03T06:40:27.000Z</time>
        <extensions>
          <ns3:TrackPointExtension/>
        </extensions>
      </trkpt>
      <trkpt lat="44.55359123647212982177734375" lon="-0.27763604186475276947021484375">
        <ele>26.799999237060546875</ele>
        <time>2017-07-03T06:40:35.000Z</time>
        <extensions>
          <ns3:TrackPointExtension/>
        </extensions>
      </trkpt>
      <trkpt lat="44.55387345515191555023193359375" lon="-0.27836945839226245880126953125">
        <ele>28.3999996185302734375</ele>
        <time>2017-07-03T06:40:44.000Z</time>
        <extensions>
          <ns3:TrackPointExtension/>
        </extensions>
      </trkpt>
      <trkpt lat="44.55412633717060089111328125" lon="-0.2790421061217784881591796875">
        <ele>29.6000003814697265625</ele>
        <time>2017-07-03T06:40:53.000Z</time>
        <extensions>
          <ns3:TrackPointExtension/>
        </extensions>
      </trkpt>
      <trkpt lat="44.5543710887432098388671875" lon="-0.2797347865998744964599609375">
        <ele>29.799999237060546875</ele>
        <time>2017-07-03T06:41:03.000Z</time>
        <extensions>
          <ns3:TrackPointExtension/>
        </extensions>
      </trkpt>
      <trkpt lat="44.55447770655155181884765625" lon="-0.28051338158547878265380859375">
        <ele>29.200000762939453125</ele>
        <time>2017-07-03T06:41:14.000Z</time>
        <extensions>
          <ns3:TrackPointExtension/>
        </extensions>
      </trkpt>
      <trkpt lat="44.55437519587576389312744140625" lon="-0.28131217695772647857666015625">
        <ele>30.799999237060546875</ele>
        <time>2017-07-03T06:41:25.000Z</time>
        <extensions>
          <ns3:TrackPointExtension/>
        </extensions>
      </trkpt>
      <trkpt lat="44.55425550229847431182861328125" lon="-0.28205079026520252227783203125">
        <ele>34.200000762939453125</ele>
        <time>2017-07-03T06:41:34.000Z</time>
        <extensions>
          <ns3:TrackPointExtension/>
        </extensions>
      </trkpt>
      <trkpt lat="44.5541913807392120361328125" lon="-0.2828270383179187774658203125">
        <ele>34.200000762939453125</ele>
        <time>2017-07-03T06:41:42.000Z</time>
        <extensions>
          <ns3:TrackPointExtension/>
        </extensions>
      </trkpt>
      <trkpt lat="44.55435097217559814453125" lon="-0.28364150784909725189208984375">
        <ele>35.200000762939453125</ele>
        <time>2017-07-03T06:41:50.000Z</time>
        <extensions>
          <ns3:TrackPointExtension/>
        </extensions>
      </trkpt>
      <trkpt lat="44.55459530465304851531982421875" lon="-0.28441943228244781494140625">
        <ele>34.799999237060546875</ele>
        <time>2017-07-03T06:41:58.000Z</time>
        <extensions>
          <ns3:TrackPointExtension/>
        </extensions>
      </trkpt>
      <trkpt lat="44.5548161678016185760498046875" lon="-0.28512661345303058624267578125">
        <ele>30</ele>
        <time>2017-07-03T06:42:06.000Z</time>
        <extensions>
          <ns3:TrackPointExtension/>
        </extensions>
      </trkpt>
      <trkpt lat="44.55502948723733425140380859375" lon="-0.28584636747837066650390625">
        <ele>28.3999996185302734375</ele>
        <time>2017-07-03T06:42:15.000Z</time>
        <extensions>
          <ns3:TrackPointExtension/>
        </extensions>
      </trkpt>
      <trkpt lat="44.55499679781496524810791015625" lon="-0.2866475097835063934326171875">
        <ele>28.799999237060546875</ele>
        <time>2017-07-03T06:42:24.000Z</time>
        <extensions>
          <ns3:TrackPointExtension/>
        </extensions>
      </trkpt>
      <trkpt lat="44.55476663075387477874755859375" lon="-0.28736047446727752685546875">
        <ele>30.6000003814697265625</ele>
        <time>2017-07-03T06:42:32.000Z</time>
        <extensions>
          <ns3:TrackPointExtension/>
        </extensions>
      </trkpt>
      <trkpt lat="44.554525651037693023681640625" lon="-0.28811207972466945648193359375">
        <ele>32.200000762939453125</ele>
        <time>2017-07-03T06:42:41.000Z</time>
        <extensions>
          <ns3:TrackPointExtension/>
        </extensions>
      </trkpt>
      <trkpt lat="44.55429087392985820770263671875" lon="-0.28881967999041080474853515625">
        <ele>34.40000152587890625</ele>
        <time>2017-07-03T06:42:50.000Z</time>
        <extensions>
          <ns3:TrackPointExtension/>
        </extensions>
      </trkpt>
      <trkpt lat="44.5540695078670978546142578125" lon="-0.28952007181942462921142578125">
        <ele>35.200000762939453125</ele>
        <time>2017-07-03T06:42:59.000Z</time>
        <extensions>
          <ns3:TrackPointExtension/>
        </extensions>
      </trkpt>
      <trkpt lat="44.55387664027512073516845703125" lon="-0.29023555107414722442626953125">
        <ele>35.200000762939453125</ele>
        <time>2017-07-03T06:43:08.000Z</time>
        <extensions>
          <ns3:TrackPointExtension/>
        </extensions>
      </trkpt>
      <trkpt lat="44.55373079515993595123291015625" lon="-0.29096980579197406768798828125">
        <ele>36.40000152587890625</ele>
        <time>2017-07-03T06:43:17.000Z</time>
        <extensions>
          <ns3:TrackPointExtension/>
        </extensions>
      </trkpt>
      <trkpt lat="44.55357941798865795135498046875" lon="-0.29172367416322231292724609375">
        <ele>35.799999237060546875</ele>
        <time>2017-07-03T06:43:26.000Z</time>
        <extensions>
          <ns3:TrackPointExtension/>
        </extensions>
      </trkpt>
      <trkpt lat="44.5534331537783145904541015625" lon="-0.292493887245655059814453125">
        <ele>35</ele>
        <time>2017-07-03T06:43:35.000Z</time>
        <extensions>
          <ns3:TrackPointExtension/>
        </extensions>
      </trkpt>
      <trkpt lat="44.5533141307532787322998046875" lon="-0.29326041229069232940673828125">
        <ele>34.200000762939453125</ele>
        <time>2017-07-03T06:43:44.000Z</time>
        <extensions>
          <ns3:TrackPointExtension/>
        </extensions>
      </trkpt>
      <trkpt lat="44.5531907491385936737060546875" lon="-0.29399952851235866546630859375">
        <ele>35</ele>
        <time>2017-07-03T06:43:53.000Z</time>
        <extensions>
          <ns3:TrackPointExtension/>
        </extensions>
      </trkpt>
      <trkpt lat="44.5530113764107227325439453125" lon="-0.29475172050297260284423828125">
        <ele>35.40000152587890625</ele>
        <time>2017-07-03T06:44:02.000Z</time>
        <extensions>
          <ns3:TrackPointExtension/>
        </extensions>
      </trkpt>
      <trkpt lat="44.55280610360205173492431640625" lon="-0.2954672835767269134521484375">
        <ele>34.799999237060546875</ele>
        <time>2017-07-03T06:44:10.000Z</time>
        <extensions>
          <ns3:TrackPointExtension/>
        </extensions>
      </trkpt>
      <trkpt lat="44.552628993988037109375" lon="-0.29623213224112987518310546875">
        <ele>33.59999847412109375</ele>
        <time>2017-07-03T06:44:18.000Z</time>
        <extensions>
          <ns3:TrackPointExtension/>
        </extensions>
      </trkpt>
      <trkpt lat="44.55245532095432281494140625" lon="-0.29703578911721706390380859375">
        <ele>32.59999847412109375</ele>
        <time>2017-07-03T06:44:26.000Z</time>
        <extensions>
          <ns3:TrackPointExtension/>
        </extensions>
      </trkpt>
      <trkpt lat="44.55229170620441436767578125" lon="-0.29784346930682659149169921875">
        <ele>30.3999996185302734375</ele>
        <time>2017-07-03T06:44:34.000Z</time>
        <extensions>
          <ns3:TrackPointExtension/>
        </extensions>
      </trkpt>
      <trkpt lat="44.55204150639474391937255859375" lon="-0.298598594963550567626953125">
        <ele>28.3999996185302734375</ele>
        <time>2017-07-03T06:44:42.000Z</time>
        <extensions>
          <ns3:TrackPointExtension/>
        </extensions>
      </trkpt>
      <trkpt lat="44.55171679146587848663330078125" lon="-0.299312062561511993408203125">
        <ele>29</ele>
        <time>2017-07-03T06:44:50.000Z</time>
        <extensions>
          <ns3:TrackPointExtension/>
        </extensions>
      </trkpt>
      <trkpt lat="44.551407583057880401611328125" lon="-0.2999767474830150604248046875">
        <ele>31.3999996185302734375</ele>
        <time>2017-07-03T06:44:58.000Z</time>
        <extensions>
          <ns3:TrackPointExtension/>
        </extensions>
      </trkpt>
      <trkpt lat="44.55108697526156902313232421875" lon="-0.30068057589232921600341796875">
        <ele>34.200000762939453125</ele>
        <time>2017-07-03T06:45:07.000Z</time>
        <extensions>
          <ns3:TrackPointExtension/>
        </extensions>
      </trkpt>
      <trkpt lat="44.550813138484954833984375" lon="-0.30139069072902202606201171875">
        <ele>34.799999237060546875</ele>
        <time>2017-07-03T06:45:16.000Z</time>
        <extensions>
          <ns3:TrackPointExtension/>
        </extensions>
      </trkpt>
      <trkpt lat="44.55064407549798488616943359375" lon="-0.30215159989893436431884765625">
        <ele>36</ele>
        <time>2017-07-03T06:45:25.000Z</time>
        <extensions>
          <ns3:TrackPointExtension/>
        </extensions>
      </trkpt>
      <trkpt lat="44.55053594894707202911376953125" lon="-0.3029060550034046173095703125">
        <ele>38.59999847412109375</ele>
        <time>2017-07-03T06:45:34.000Z</time>
        <extensions>
          <ns3:TrackPointExtension/>
        </extensions>
      </trkpt>
      <trkpt lat="44.55042212270200252532958984375" lon="-0.3037003241479396820068359375">
        <ele>41.799999237060546875</ele>
        <time>2017-07-03T06:45:44.000Z</time>
        <extensions>
          <ns3:TrackPointExtension/>
        </extensions>
      </trkpt>
      <trkpt lat="44.550352804362773895263671875" lon="-0.30452703125774860382080078125">
        <ele>42.799999237060546875</ele>
        <time>2017-07-03T06:45:54.000Z</time>
        <extensions>
          <ns3:TrackPointExtension/>
        </extensions>
      </trkpt>
      <trkpt lat="44.55033511854708194732666015625" lon="-0.30534493736922740936279296875">
        <ele>43.799999237060546875</ele>
        <time>2017-07-03T06:46:04.000Z</time>
        <extensions>
          <ns3:TrackPointExtension/>
        </extensions>
      </trkpt>
      <trkpt lat="44.55033159814774990081787109375" lon="-0.30614892952144145965576171875">
        <ele>44.799999237060546875</ele>
        <time>2017-07-03T06:46:14.000Z</time>
        <extensions>
          <ns3:TrackPointExtension/>
        </extensions>
      </trkpt>
      <trkpt lat="44.5503211207687854766845703125" lon="-0.30693783424794673919677734375">
        <ele>45</ele>
        <time>2017-07-03T06:46:24.000Z</time>
        <extensions>
          <ns3:TrackPointExtension/>
        </extensions>
      </trkpt>
      <trkpt lat="44.55020285211503505706787109375" lon="-0.307677201926708221435546875">
        <ele>43.59999847412109375</ele>
        <time>2017-07-03T06:46:34.000Z</time>
        <extensions>
          <ns3:TrackPointExtension/>
        </extensions>
      </trkpt>
      <trkpt lat="44.55001777969300746917724609375" lon="-0.3083978779613971710205078125">
        <ele>42</ele>
        <time>2017-07-03T06:46:44.000Z</time>
        <extensions>
          <ns3:TrackPointExtension/>
        </extensions>
      </trkpt>
      <trkpt lat="44.5499663986265659332275390625" lon="-0.3092089109122753143310546875">
        <ele>42.40000152587890625</ele>
        <time>2017-07-03T06:46:54.000Z</time>
        <extensions>
          <ns3:TrackPointExtension/>
        </extensions>
      </trkpt>
      <trkpt lat="44.54999933950603008270263671875" lon="-0.31004433520138263702392578125">
        <ele>41.59999847412109375</ele>
        <time>2017-07-03T06:47:03.000Z</time>
        <extensions>
          <ns3:TrackPointExtension/>
        </extensions>
      </trkpt>
      <trkpt lat="44.55002163536846637725830078125" lon="-0.3108319826424121856689453125">
        <ele>39.40000152587890625</ele>
        <time>2017-07-03T06:47:11.000Z</time>
        <extensions>
          <ns3:TrackPointExtension/>
        </extensions>
      </trkpt>
      <trkpt lat="44.550040327012538909912109375" lon="-0.31159096397459506988525390625">
        <ele>41.40000152587890625</ele>
        <time>2017-07-03T06:47:19.000Z</time>
        <extensions>
          <ns3:TrackPointExtension/>
        </extensions>
      </trkpt>
      <trkpt lat="44.55002725124359130859375" lon="-0.31241155229508876800537109375">
        <ele>44.59999847412109375</ele>
        <time>2017-07-03T06:47:29.000Z</time>
        <extensions>
          <ns3:TrackPointExtension/>
        </extensions>
      </trkpt>
      <trkpt lat="44.5499536581337451934814453125" lon="-0.3131832741200923919677734375">
        <ele>47</ele>
        <time>2017-07-03T06:47:39.000Z</time>
        <extensions>
          <ns3:TrackPointExtension/>
        </extensions>
      </trkpt>
      <trkpt lat="44.5500545762479305267333984375" lon="-0.31398005783557891845703125">
        <ele>43.200000762939453125</ele>
        <time>2017-07-03T06:47:49.000Z</time>
        <extensions>
          <ns3:TrackPointExtension/>
        </extensions>
      </trkpt>
      <trkpt lat="44.55026990734040737152099609375" lon="-0.31470819376409053802490234375">
        <ele>41.40000152587890625</ele>
        <time>2017-07-03T06:47:58.000Z</time>
        <extensions>
          <ns3:TrackPointExtension/>
        </extensions>
      </trkpt>
      <trkpt lat="44.550478197634220123291015625" lon="-0.31544328667223453521728515625">
        <ele>41.799999237060546875</ele>
        <time>2017-07-03T06:48:07.000Z</time>
        <extensions>
          <ns3:TrackPointExtension/>
        </extensions>
      </trkpt>
      <trkpt lat="44.55059881322085857391357421875" lon="-0.31625716947019100189208984375">
        <ele>42.59999847412109375</ele>
        <time>2017-07-03T06:48:17.000Z</time>
        <extensions>
          <ns3:TrackPointExtension/>
        </extensions>
      </trkpt>
      <trkpt lat="44.55064675770699977874755859375" lon="-0.31667123548686504364013671875">
        <ele>43</ele>
        <time>2017-07-03T06:48:23.000Z</time>
        <extensions>
          <ns3:TrackPointExtension/>
        </extensions>
      </trkpt>
      <trkpt lat="44.55071196891367435455322265625" lon="-0.316912047564983367919921875">
        <ele>43.200000762939453125</ele>
        <time>2017-07-03T06:48:31.000Z</time>
        <extensions>
          <ns3:TrackPointExtension/>
        </extensions>
      </trkpt>
      <trkpt lat="44.55086938105523586273193359375" lon="-0.31769366003572940826416015625">
        <ele>43</ele>
        <time>2017-07-03T06:48:45.000Z</time>
        <extensions>
          <ns3:TrackPointExtension/>
        </extensions>
      </trkpt>
      <trkpt lat="44.5511066727340221405029296875" lon="-0.318448953330516815185546875">
        <ele>44.40000152587890625</ele>
        <time>2017-07-03T06:48:56.000Z</time>
        <extensions>
          <ns3:TrackPointExtension/>
        </extensions>
      </trkpt>
      <trkpt lat="44.55133616924285888671875" lon="-0.31916476786136627197265625">
        <ele>44</ele>
        <time>2017-07-03T06:49:06.000Z</time>
        <extensions>
          <ns3:TrackPointExtension/>
        </extensions>
      </trkpt>
      <trkpt lat="44.55164738930761814117431640625" lon="-0.31989189796149730682373046875">
        <ele>43</ele>
        <time>2017-07-03T06:49:15.000Z</time>
        <extensions>
          <ns3:TrackPointExtension/>
        </extensions>
      </trkpt>
      <trkpt lat="44.55205122940242290496826171875" lon="-0.32053546048700809478759765625">
        <ele>40.799999237060546875</ele>
        <time>2017-07-03T06:49:24.000Z</time>
        <extensions>
          <ns3:TrackPointExtension/>
        </extensions>
      </trkpt>
      <trkpt lat="44.5521046221256256103515625" lon="-0.32059949822723865509033203125">
        <ele>40.799999237060546875</ele>
        <time>2017-07-03T06:49:25.000Z</time>
        <extensions>
          <ns3:TrackPointExtension/>
        </extensions>
      </trkpt>
      <trkpt lat="44.55261264927685260772705078125" lon="-0.32098523341119289398193359375">
        <ele>40.799999237060546875</ele>
        <time>2017-07-03T06:49:33.000Z</time>
        <extensions>
          <ns3:TrackPointExtension/>
        </extensions>
      </trkpt>
      <trkpt lat="44.55278330482542514801025390625" lon="-0.32115094363689422607421875">
        <ele>41</ele>
        <time>2017-07-03T06:49:36.000Z</time>
        <extensions>
          <ns3:TrackPointExtension/>
        </extensions>
      </trkpt>
      <trkpt lat="44.55314724706113338470458984375" lon="-0.32177179120481014251708984375">
        <ele>39.59999847412109375</ele>
        <time>2017-07-03T06:49:44.000Z</time>
        <extensions>
          <ns3:TrackPointExtension/>
        </extensions>
      </trkpt>
      <trkpt lat="44.553525187075138092041015625" lon="-0.3224100731313228607177734375">
        <ele>38.40000152587890625</ele>
        <time>2017-07-03T06:49:52.000Z</time>
        <extensions>
          <ns3:TrackPointExtension/>
        </extensions>
      </trkpt>
      <trkpt lat="44.55391176044940948486328125" lon="-0.32301415689289569854736328125">
        <ele>37.200000762939453125</ele>
        <time>2017-07-03T06:50:00.000Z</time>
        <extensions>
          <ns3:TrackPointExtension/>
        </extensions>
      </trkpt>
      <trkpt lat="44.55424326471984386444091796875" lon="-0.32371689565479755401611328125">
        <ele>36.59999847412109375</ele>
        <time>2017-07-03T06:50:08.000Z</time>
        <extensions>
          <ns3:TrackPointExtension/>
        </extensions>
      </trkpt>
      <trkpt lat="44.5543782971799373626708984375" lon="-0.324567742645740509033203125">
        <ele>35.59999847412109375</ele>
        <time>2017-07-03T06:50:15.000Z</time>
        <extensions>
          <ns3:TrackPointExtension/>
        </extensions>
      </trkpt>
      <trkpt lat="44.55447896383702754974365234375" lon="-0.32508750446140766143798828125">
        <ele>35.59999847412109375</ele>
        <time>2017-07-03T06:50:19.000Z</time>
        <extensions>
          <ns3:TrackPointExtension/>
        </extensions>
      </trkpt>
      <trkpt lat="44.55473310314118862152099609375" lon="-0.32576945610344409942626953125">
        <ele>34.59999847412109375</ele>
        <time>2017-07-03T06:50:25.000Z</time>
        <extensions>
          <ns3:TrackPointExtension/>
        </extensions>
      </trkpt>
      <trkpt lat="44.55501959659159183502197265625" lon="-0.326484180986881256103515625">
        <ele>34</ele>
        <time>2017-07-03T06:50:32.000Z</time>
        <extensions>
          <ns3:TrackPointExtension/>
        </extensions>
      </trkpt>
      <trkpt lat="44.555142559111118316650390625" lon="-0.3268397413194179534912109375">
        <ele>33.799999237060546875</ele>
        <time>2017-07-03T06:50:36.000Z</time>
        <extensions>
          <ns3:TrackPointExtension/>
        </extensions>
      </trkpt>
      <trkpt lat="44.555201232433319091796875" lon="-0.3271973133087158203125">
        <ele>33.59999847412109375</ele>
        <time>2017-07-03T06:50:40.000Z</time>
        <extensions>
          <ns3:TrackPointExtension/>
        </extensions>
      </trkpt>
      <trkpt lat="44.55542896874248981475830078125" lon="-0.32789225690066814422607421875">
        <ele>33.59999847412109375</ele>
        <time>2017-07-03T06:50:48.000Z</time>
        <extensions>
          <ns3:TrackPointExtension/>
        </extensions>
      </trkpt>
      <trkpt lat="44.5556493289768695831298828125" lon="-0.32860614359378814697265625">
        <ele>32.799999237060546875</ele>
        <time>2017-07-03T06:50:56.000Z</time>
        <extensions>
          <ns3:TrackPointExtension/>
        </extensions>
      </trkpt>
      <trkpt lat="44.55589684657752513885498046875" lon="-0.3293764404952526092529296875">
        <ele>32.59999847412109375</ele>
        <time>2017-07-03T06:51:05.000Z</time>
        <extensions>
          <ns3:TrackPointExtension/>
        </extensions>
      </trkpt>
      <trkpt lat="44.55614595673978328704833984375" lon="-0.33013894222676753997802734375">
        <ele>32.200000762939453125</ele>
        <time>2017-07-03T06:51:14.000Z</time>
        <extensions>
          <ns3:TrackPointExtension/>
        </extensions>
      </trkpt>
      <trkpt lat="44.5563693344593048095703125" lon="-0.330847464501857757568359375">
        <ele>31.799999237060546875</ele>
        <time>2017-07-03T06:51:22.000Z</time>
        <extensions>
          <ns3:TrackPointExtension/>
        </extensions>
      </trkpt>
      <trkpt lat="44.55662238411605358123779296875" lon="-0.3316040150821208953857421875">
        <ele>31.200000762939453125</ele>
        <time>2017-07-03T06:51:30.000Z</time>
        <extensions>
          <ns3:TrackPointExtension/>
        </extensions>
      </trkpt>
      <trkpt lat="44.5567748509347438812255859375" lon="-0.33193702809512615203857421875">
        <ele>30.6000003814697265625</ele>
        <time>2017-07-03T06:51:34.000Z</time>
        <extensions>
          <ns3:TrackPointExtension/>
        </extensions>
      </trkpt>
      <trkpt lat="44.55724130384624004364013671875" lon="-0.33243591897189617156982421875">
        <ele>30</ele>
        <time>2017-07-03T06:51:42.000Z</time>
        <extensions>
          <ns3:TrackPointExtension/>
        </extensions>
      </trkpt>
      <trkpt lat="44.557679928839206695556640625" lon="-0.33298325724899768829345703125">
        <ele>29.200000762939453125</ele>
        <time>2017-07-03T06:51:50.000Z</time>
        <extensions>
          <ns3:TrackPointExtension/>
        </extensions>
      </trkpt>
      <trkpt lat="44.55799215473234653472900390625" lon="-0.33365481533110141754150390625">
        <ele>29.6000003814697265625</ele>
        <time>2017-07-03T06:51:58.000Z</time>
        <extensions>
          <ns3:TrackPointExtension/>
        </extensions>
      </trkpt>
      <trkpt lat="44.55830513499677181243896484375" lon="-0.334333665668964385986328125">
        <ele>31</ele>
        <time>2017-07-03T06:52:06.000Z</time>
        <extensions>
          <ns3:TrackPointExtension/>
        </extensions>
      </trkpt>
      <trkpt lat="44.558622054755687713623046875" lon="-0.3350017033517360687255859375">
        <ele>29.799999237060546875</ele>
        <time>2017-07-03T06:52:14.000Z</time>
        <extensions>
          <ns3:TrackPointExtension/>
        </extensions>
      </trkpt>
      <trkpt lat="44.55894769169390201568603515625" lon="-0.33568155951797962188720703125">
        <ele>27.799999237060546875</ele>
        <time>2017-07-03T06:52:22.000Z</time>
        <extensions>
          <ns3:TrackPointExtension/>
        </extensions>
      </trkpt>
      <trkpt lat="44.55924935638904571533203125" lon="-0.33631347119808197021484375">
        <ele>25.6000003814697265625</ele>
        <time>2017-07-03T06:52:29.000Z</time>
        <extensions>
          <ns3:TrackPointExtension/>
        </extensions>
      </trkpt>
      <trkpt lat="44.55955739133059978485107421875" lon="-0.3369654156267642974853515625">
        <ele>26.6000003814697265625</ele>
        <time>2017-07-03T06:52:36.000Z</time>
        <extensions>
          <ns3:TrackPointExtension/>
        </extensions>
      </trkpt>
      <trkpt lat="44.5598654262721538543701171875" lon="-0.33761258237063884735107421875">
        <ele>28.3999996185302734375</ele>
        <time>2017-07-03T06:52:43.000Z</time>
        <extensions>
          <ns3:TrackPointExtension/>
        </extensions>
      </trkpt>
      <trkpt lat="44.560169689357280731201171875" lon="-0.3382579050958156585693359375">
        <ele>26</ele>
        <time>2017-07-03T06:52:50.000Z</time>
        <extensions>
          <ns3:TrackPointExtension/>
        </extensions>
      </trkpt>
      <trkpt lat="44.56050722859799861907958984375" lon="-0.338962487876415252685546875">
        <ele>23.200000762939453125</ele>
        <time>2017-07-03T06:52:58.000Z</time>
        <extensions>
          <ns3:TrackPointExtension/>
        </extensions>
      </trkpt>
      <trkpt lat="44.5608310215175151824951171875" lon="-0.3396020270884037017822265625">
        <ele>22.200000762939453125</ele>
        <time>2017-07-03T06:53:05.000Z</time>
        <extensions>
          <ns3:TrackPointExtension/>
        </extensions>
      </trkpt>
      <trkpt lat="44.561185576021671295166015625" lon="-0.340217091143131256103515625">
        <ele>21.3999996185302734375</ele>
        <time>2017-07-03T06:53:12.000Z</time>
        <extensions>
          <ns3:TrackPointExtension/>
        </extensions>
      </trkpt>
      <trkpt lat="44.56156100146472454071044921875" lon="-0.34081312827765941619873046875">
        <ele>21</ele>
        <time>2017-07-03T06:53:19.000Z</time>
        <extensions>
          <ns3:TrackPointExtension/>
        </extensions>
      </trkpt>
      <trkpt lat="44.56192578189074993133544921875" lon="-0.3413867019116878509521484375">
        <ele>20.200000762939453125</ele>
        <time>2017-07-03T06:53:26.000Z</time>
        <extensions>
          <ns3:TrackPointExtension/>
        </extensions>
      </trkpt>
      <trkpt lat="44.56229592673480510711669921875" lon="-0.34196681343019008636474609375">
        <ele>20</ele>
        <time>2017-07-03T06:53:33.000Z</time>
        <extensions>
          <ns3:TrackPointExtension/>
        </extensions>
      </trkpt>
      <trkpt lat="44.562637992203235626220703125" lon="-0.34252814948558807373046875">
        <ele>19.3999996185302734375</ele>
        <time>2017-07-03T06:53:40.000Z</time>
        <extensions>
          <ns3:TrackPointExtension/>
        </extensions>
      </trkpt>
      <trkpt lat="44.562557525932788848876953125" lon="-0.343184955418109893798828125">
        <ele>18</ele>
        <time>2017-07-03T06:53:47.000Z</time>
        <extensions>
          <ns3:TrackPointExtension/>
        </extensions>
      </trkpt>
      <trkpt lat="44.56223457120358943939208984375" lon="-0.34387805499136447906494140625">
        <ele>17.3999996185302734375</ele>
        <time>2017-07-03T06:53:55.000Z</time>
        <extensions>
          <ns3:TrackPointExtension/>
        </extensions>
      </trkpt>
      <trkpt lat="44.5619159750640392303466796875" lon="-0.34452513791620731353759765625">
        <ele>18.3999996185302734375</ele>
        <time>2017-07-03T06:54:03.000Z</time>
        <extensions>
          <ns3:TrackPointExtension/>
        </extensions>
      </trkpt>
      <trkpt lat="44.56158380024135112762451171875" lon="-0.3451267071068286895751953125">
        <ele>19</ele>
        <time>2017-07-03T06:54:11.000Z</time>
        <extensions>
          <ns3:TrackPointExtension/>
        </extensions>
      </trkpt>
      <trkpt lat="44.56129076890647411346435546875" lon="-0.34561134874820709228515625">
        <ele>19.6000003814697265625</ele>
        <time>2017-07-03T06:54:17.000Z</time>
        <extensions>
          <ns3:TrackPointExtension/>
        </extensions>
      </trkpt>
      <trkpt lat="44.561239890754222869873046875" lon="-0.3456621430814266204833984375">
        <ele>19.6000003814697265625</ele>
        <time>2017-07-03T06:54:19.000Z</time>
        <extensions>
          <ns3:TrackPointExtension/>
        </extensions>
      </trkpt>
      <trkpt lat="44.56076019443571567535400390625" lon="-0.34601376391947269439697265625">
        <ele>19.799999237060546875</ele>
        <time>2017-07-03T06:54:27.000Z</time>
        <extensions>
          <ns3:TrackPointExtension/>
        </extensions>
      </trkpt>
      <trkpt lat="44.56027454696595668792724609375" lon="-0.34636932425200939178466796875">
        <ele>20</ele>
        <time>2017-07-03T06:54:35.000Z</time>
        <extensions>
          <ns3:TrackPointExtension/>
        </extensions>
      </trkpt>
      <trkpt lat="44.55974749289453029632568359375" lon="-0.34674751572310924530029296875">
        <ele>21</ele>
        <time>2017-07-03T06:54:44.000Z</time>
        <extensions>
          <ns3:TrackPointExtension/>
        </extensions>
      </trkpt>
      <trkpt lat="44.5592374540865421295166015625" lon="-0.34711866639554500579833984375">
        <ele>21.6000003814697265625</ele>
        <time>2017-07-03T06:54:53.000Z</time>
        <extensions>
          <ns3:TrackPointExtension/>
        </extensions>
      </trkpt>
      <trkpt lat="44.55871836282312870025634765625" lon="-0.347499288618564605712890625">
        <ele>23.3999996185302734375</ele>
        <time>2017-07-03T06:55:02.000Z</time>
        <extensions>
          <ns3:TrackPointExtension/>
        </extensions>
      </trkpt>
      <trkpt lat="44.5582557655870914459228515625" lon="-0.34788795746862888336181640625">
        <ele>22.799999237060546875</ele>
        <time>2017-07-03T06:55:10.000Z</time>
        <extensions>
          <ns3:TrackPointExtension/>
        </extensions>
      </trkpt>
      <trkpt lat="44.55779970623552799224853515625" lon="-0.34842171706259250640869140625">
        <ele>21.6000003814697265625</ele>
        <time>2017-07-03T06:55:19.000Z</time>
        <extensions>
          <ns3:TrackPointExtension/>
        </extensions>
      </trkpt>
      <trkpt lat="44.557325206696987152099609375" lon="-0.348936617374420166015625">
        <ele>22.200000762939453125</ele>
        <time>2017-07-03T06:55:28.000Z</time>
        <extensions>
          <ns3:TrackPointExtension/>
        </extensions>
      </trkpt>
      <trkpt lat="44.5568355359137058258056640625" lon="-0.34927985630929470062255859375">
        <ele>23</ele>
        <time>2017-07-03T06:55:36.000Z</time>
        <extensions>
          <ns3:TrackPointExtension/>
        </extensions>
      </trkpt>
      <trkpt lat="44.556343853473663330078125" lon="-0.34968906082212924957275390625">
        <ele>23</ele>
        <time>2017-07-03T06:55:45.000Z</time>
        <extensions>
          <ns3:TrackPointExtension/>
        </extensions>
      </trkpt>
      <trkpt lat="44.55606758594512939453125" lon="-0.34994454123079776763916015625">
        <ele>22.799999237060546875</ele>
        <time>2017-07-03T06:55:51.000Z</time>
        <extensions>
          <ns3:TrackPointExtension/>
        </extensions>
      </trkpt>
      <trkpt lat="44.5558615587651729583740234375" lon="-0.350045375525951385498046875">
        <ele>22.799999237060546875</ele>
        <time>2017-07-03T06:55:55.000Z</time>
        <extensions>
          <ns3:TrackPointExtension/>
        </extensions>
      </trkpt>
      <trkpt lat="44.5555780827999114990234375" lon="-0.35018292255699634552001953125">
        <ele>23</ele>
        <time>2017-07-03T06:56:00.000Z</time>
        <extensions>
          <ns3:TrackPointExtension/>
        </extensions>
      </trkpt>
      <trkpt lat="44.55502848140895366668701171875" lon="-0.3503727726638317108154296875">
        <ele>23.3999996185302734375</ele>
        <time>2017-07-03T06:56:09.000Z</time>
        <extensions>
          <ns3:TrackPointExtension/>
        </extensions>
      </trkpt>
      <trkpt lat="44.55446890555322170257568359375" lon="-0.3505286760628223419189453125">
        <ele>24</ele>
        <time>2017-07-03T06:56:18.000Z</time>
        <extensions>
          <ns3:TrackPointExtension/>
        </extensions>
      </trkpt>
      <trkpt lat="44.55391712486743927001953125" lon="-0.35067896358668804168701171875">
        <ele>25.6000003814697265625</ele>
        <time>2017-07-03T06:56:27.000Z</time>
        <extensions>
          <ns3:TrackPointExtension/>
        </extensions>
      </trkpt>
      <trkpt lat="44.55336987040936946868896484375" lon="-0.35082648508250713348388671875">
        <ele>26.799999237060546875</ele>
        <time>2017-07-03T06:56:36.000Z</time>
        <extensions>
          <ns3:TrackPointExtension/>
        </extensions>
      </trkpt>
      <trkpt lat="44.55281767062842845916748046875" lon="-0.350976772606372833251953125">
        <ele>27.799999237060546875</ele>
        <time>2017-07-03T06:56:45.000Z</time>
        <extensions>
          <ns3:TrackPointExtension/>
        </extensions>
      </trkpt>
      <trkpt lat="44.55230704508721828460693359375" lon="-0.3512661159038543701171875">
        <ele>27.200000762939453125</ele>
        <time>2017-07-03T06:56:54.000Z</time>
        <extensions>
          <ns3:TrackPointExtension/>
        </extensions>
      </trkpt>
      <trkpt lat="44.55177429132163524627685546875" lon="-0.3515023179352283477783203125">
        <ele>27</ele>
        <time>2017-07-03T06:57:03.000Z</time>
        <extensions>
          <ns3:TrackPointExtension/>
        </extensions>
      </trkpt>
      <trkpt lat="44.55121203325688838958740234375" lon="-0.35168923437595367431640625">
        <ele>27</ele>
        <time>2017-07-03T06:57:12.000Z</time>
        <extensions>
          <ns3:TrackPointExtension/>
        </extensions>
      </trkpt>
      <trkpt lat="44.5506339333951473236083984375" lon="-0.35188235342502593994140625">
        <ele>26.3999996185302734375</ele>
        <time>2017-07-03T06:57:21.000Z</time>
        <extensions>
          <ns3:TrackPointExtension/>
        </extensions>
      </trkpt>
      <trkpt lat="44.55008734948933124542236328125" lon="-0.35210497677326202392578125">
        <ele>26.6000003814697265625</ele>
        <time>2017-07-03T06:57:29.000Z</time>
        <extensions>
          <ns3:TrackPointExtension/>
        </extensions>
      </trkpt>
      <trkpt lat="44.54951654188334941864013671875" lon="-0.35238618962466716766357421875">
        <ele>27</ele>
        <time>2017-07-03T06:57:37.000Z</time>
        <extensions>
          <ns3:TrackPointExtension/>
        </extensions>
      </trkpt>
      <trkpt lat="44.54899049364030361175537109375" lon="-0.352723561227321624755859375">
        <ele>27.200000762939453125</ele>
        <time>2017-07-03T06:57:45.000Z</time>
        <extensions>
          <ns3:TrackPointExtension/>
        </extensions>
      </trkpt>
      <trkpt lat="44.548543654382228851318359375" lon="-0.35325489006936550140380859375">
        <ele>27</ele>
        <time>2017-07-03T06:57:54.000Z</time>
        <extensions>
          <ns3:TrackPointExtension/>
        </extensions>
      </trkpt>
      <trkpt lat="44.54818516038358211517333984375" lon="-0.35383206792175769805908203125">
        <ele>27</ele>
        <time>2017-07-03T06:58:03.000Z</time>
        <extensions>
          <ns3:TrackPointExtension/>
        </extensions>
      </trkpt>
      <trkpt lat="44.5477381534874439239501953125" lon="-0.35434084944427013397216796875">
        <ele>26.6000003814697265625</ele>
        <time>2017-07-03T06:58:12.000Z</time>
        <extensions>
          <ns3:TrackPointExtension/>
        </extensions>
      </trkpt>
      <trkpt lat="44.5472550205886363983154296875" lon="-0.35479263402521610260009765625">
        <ele>27.3999996185302734375</ele>
        <time>2017-07-03T06:58:21.000Z</time>
        <extensions>
          <ns3:TrackPointExtension/>
        </extensions>
      </trkpt>
      <trkpt lat="44.5467557944357395172119140625" lon="-0.35520485602319240570068359375">
        <ele>28.6000003814697265625</ele>
        <time>2017-07-03T06:58:30.000Z</time>
        <extensions>
          <ns3:TrackPointExtension/>
        </extensions>
      </trkpt>
      <trkpt lat="44.54623603262007236480712890625" lon="-0.35561741329729557037353515625">
        <ele>29.6000003814697265625</ele>
        <time>2017-07-03T06:58:39.000Z</time>
        <extensions>
          <ns3:TrackPointExtension/>
        </extensions>
      </trkpt>
      <trkpt lat="44.545737393200397491455078125" lon="-0.35596325062215328216552734375">
        <ele>30</ele>
        <time>2017-07-03T06:58:48.000Z</time>
        <extensions>
          <ns3:TrackPointExtension/>
        </extensions>
      </trkpt>
      <trkpt lat="44.5452247560024261474609375" lon="-0.35626734606921672821044921875">
        <ele>30</ele>
        <time>2017-07-03T06:58:57.000Z</time>
        <extensions>
          <ns3:TrackPointExtension/>
        </extensions>
      </trkpt>
      <trkpt lat="44.5447233505547046661376953125" lon="-0.35657948814332485198974609375">
        <ele>29.6000003814697265625</ele>
        <time>2017-07-03T06:59:06.000Z</time>
        <extensions>
          <ns3:TrackPointExtension/>
        </extensions>
      </trkpt>
      <trkpt lat="44.5441974699497222900390625" lon="-0.35682843066751956939697265625">
        <ele>30.200000762939453125</ele>
        <time>2017-07-03T06:59:15.000Z</time>
        <extensions>
          <ns3:TrackPointExtension/>
        </extensions>
      </trkpt>
      <trkpt lat="44.5436132512986660003662109375" lon="-0.35698835738003253936767578125">
        <ele>31.6000003814697265625</ele>
        <time>2017-07-03T06:59:24.000Z</time>
        <extensions>
          <ns3:TrackPointExtension/>
        </extensions>
      </trkpt>
      <trkpt lat="44.54307303763926029205322265625" lon="-0.35720628686249256134033203125">
        <ele>32.200000762939453125</ele>
        <time>2017-07-03T06:59:32.000Z</time>
        <extensions>
          <ns3:TrackPointExtension/>
        </extensions>
      </trkpt>
      <trkpt lat="44.54250072129070758819580078125" lon="-0.3574578277766704559326171875">
        <ele>33</ele>
        <time>2017-07-03T06:59:41.000Z</time>
        <extensions>
          <ns3:TrackPointExtension/>
        </extensions>
      </trkpt>
      <trkpt lat="44.5419412292540073394775390625" lon="-0.3576405532658100128173828125">
        <ele>33.40000152587890625</ele>
        <time>2017-07-03T06:59:50.000Z</time>
        <extensions>
          <ns3:TrackPointExtension/>
        </extensions>
      </trkpt>
      <trkpt lat="44.54137855209410190582275390625" lon="-0.3578279726207256317138671875">
        <ele>34</ele>
        <time>2017-07-03T06:59:59.000Z</time>
        <extensions>
          <ns3:TrackPointExtension/>
        </extensions>
      </trkpt>
      <trkpt lat="44.5408284477889537811279296875" lon="-0.35803995095193386077880859375">
        <ele>32.799999237060546875</ele>
        <time>2017-07-03T07:00:07.000Z</time>
        <extensions>
          <ns3:TrackPointExtension/>
        </extensions>
      </trkpt>
      <trkpt lat="44.5402759127318859100341796875" lon="-0.35832778550684452056884765625">
        <ele>30.200000762939453125</ele>
        <time>2017-07-03T07:00:15.000Z</time>
        <extensions>
          <ns3:TrackPointExtension/>
        </extensions>
      </trkpt>
      <trkpt lat="44.53973226249217987060546875" lon="-0.35858879797160625457763671875">
        <ele>30.6000003814697265625</ele>
        <time>2017-07-03T07:00:23.000Z</time>
        <extensions>
          <ns3:TrackPointExtension/>
        </extensions>
      </trkpt>
      <trkpt lat="44.53933269716799259185791015625" lon="-0.3587201423943042755126953125">
        <ele>30.799999237060546875</ele>
        <time>2017-07-03T07:00:29.000Z</time>
        <extensions>
          <ns3:TrackPointExtension/>
        </extensions>
      </trkpt>
      <trkpt lat="44.53908476047217845916748046875" lon="-0.35867236554622650146484375">
        <ele>31.6000003814697265625</ele>
        <time>2017-07-03T07:00:33.000Z</time>
        <extensions>
          <ns3:TrackPointExtension/>
        </extensions>
      </trkpt>
      <trkpt lat="44.5385391823947429656982421875" lon="-0.3584222495555877685546875">
        <ele>32.799999237060546875</ele>
        <time>2017-07-03T07:00:42.000Z</time>
        <extensions>
          <ns3:TrackPointExtension/>
        </extensions>
      </trkpt>
      <trkpt lat="44.53796829096972942352294921875" lon="-0.35815729759633541107177734375">
        <ele>32</ele>
        <time>2017-07-03T07:00:50.000Z</time>
        <extensions>
          <ns3:TrackPointExtension/>
        </extensions>
      </trkpt>
      <trkpt lat="44.53773535788059234619140625" lon="-0.35811438225209712982177734375">
        <ele>31.3999996185302734375</ele>
        <time>2017-07-03T07:00:53.000Z</time>
        <extensions>
          <ns3:TrackPointExtension/>
        </extensions>
      </trkpt>
      <trkpt lat="44.53719598241150379180908203125" lon="-0.358225442469120025634765625">
        <ele>29.799999237060546875</ele>
        <time>2017-07-03T07:01:00.000Z</time>
        <extensions>
          <ns3:TrackPointExtension/>
        </extensions>
      </trkpt>
      <trkpt lat="44.53663565218448638916015625" lon="-0.35833834670484066009521484375">
        <ele>27.3999996185302734375</ele>
        <time>2017-07-03T07:01:07.000Z</time>
        <extensions>
          <ns3:TrackPointExtension/>
        </extensions>
      </trkpt>
      <trkpt lat="44.536078087985515594482421875" lon="-0.35835611633956432342529296875">
        <ele>25.200000762939453125</ele>
        <time>2017-07-03T07:01:14.000Z</time>
        <extensions>
          <ns3:TrackPointExtension/>
        </extensions>
      </trkpt>
      <trkpt lat="44.5355317555367946624755859375" lon="-0.35830750130116939544677734375">
        <ele>24.200000762939453125</ele>
        <time>2017-07-03T07:01:21.000Z</time>
        <extensions>
          <ns3:TrackPointExtension/>
        </extensions>
      </trkpt>
      <trkpt lat="44.534977376461029052734375" lon="-0.3582618199288845062255859375">
        <ele>24.799999237060546875</ele>
        <time>2017-07-03T07:01:29.000Z</time>
        <extensions>
          <ns3:TrackPointExtension/>
        </extensions>
      </trkpt>
      <trkpt lat="44.53438804484903812408447265625" lon="-0.3582893125712871551513671875">
        <ele>23.3999996185302734375</ele>
        <time>2017-07-03T07:01:39.000Z</time>
        <extensions>
          <ns3:TrackPointExtension/>
        </extensions>
      </trkpt>
      <trkpt lat="44.53381841070950031280517578125" lon="-0.3585236705839633941650390625">
        <ele>22.6000003814697265625</ele>
        <time>2017-07-03T07:01:48.000Z</time>
        <extensions>
          <ns3:TrackPointExtension/>
        </extensions>
      </trkpt>
      <trkpt lat="44.53328289091587066650390625" lon="-0.35876666195690631866455078125">
        <ele>20.6000003814697265625</ele>
        <time>2017-07-03T07:01:56.000Z</time>
        <extensions>
          <ns3:TrackPointExtension/>
        </extensions>
      </trkpt>
      <trkpt lat="44.53272365033626556396484375" lon="-0.35899330861866474151611328125">
        <ele>19</ele>
        <time>2017-07-03T07:02:04.000Z</time>
        <extensions>
          <ns3:TrackPointExtension/>
        </extensions>
      </trkpt>
      <trkpt lat="44.5321838557720184326171875" lon="-0.35920352675020694732666015625">
        <ele>20.3999996185302734375</ele>
        <time>2017-07-03T07:02:11.000Z</time>
        <extensions>
          <ns3:TrackPointExtension/>
        </extensions>
      </trkpt>
      <trkpt lat="44.53160709701478481292724609375" lon="-0.3593833185732364654541015625">
        <ele>21.6000003814697265625</ele>
        <time>2017-07-03T07:02:19.000Z</time>
        <extensions>
          <ns3:TrackPointExtension/>
        </extensions>
      </trkpt>
      <trkpt lat="44.531064368784427642822265625" lon="-0.35942682065069675445556640625">
        <ele>24.200000762939453125</ele>
        <time>2017-07-03T07:02:28.000Z</time>
        <extensions>
          <ns3:TrackPointExtension/>
        </extensions>
      </trkpt>
      <trkpt lat="44.53047059476375579833984375" lon="-0.35945783369243144989013671875">
        <ele>24.3999996185302734375</ele>
        <time>2017-07-03T07:02:38.000Z</time>
        <extensions>
          <ns3:TrackPointExtension/>
        </extensions>
      </trkpt>
      <trkpt lat="44.5302508212625980377197265625" lon="-0.3594503737986087799072265625">
        <ele>24</ele>
        <time>2017-07-03T07:02:41.000Z</time>
        <extensions>
          <ns3:TrackPointExtension/>
        </extensions>
      </trkpt>
      <trkpt lat="44.52972904779016971588134765625" lon="-0.35966721363365650177001953125">
        <ele>23.6000003814697265625</ele>
        <time>2017-07-03T07:02:48.000Z</time>
        <extensions>
          <ns3:TrackPointExtension/>
        </extensions>
      </trkpt>
      <trkpt lat="44.52916838228702545166015625" lon="-0.3599807806313037872314453125">
        <ele>24</ele>
        <time>2017-07-03T07:02:56.000Z</time>
        <extensions>
          <ns3:TrackPointExtension/>
        </extensions>
      </trkpt>
      <trkpt lat="44.52864157967269420623779296875" lon="-0.3603291325271129608154296875">
        <ele>24.3999996185302734375</ele>
        <time>2017-07-03T07:03:06.000Z</time>
        <extensions>
          <ns3:TrackPointExtension/>
        </extensions>
      </trkpt>
      <trkpt lat="44.52811066992580890655517578125" lon="-0.3606540150940418243408203125">
        <ele>22.6000003814697265625</ele>
        <time>2017-07-03T07:03:15.000Z</time>
        <extensions>
          <ns3:TrackPointExtension/>
        </extensions>
      </trkpt>
      <trkpt lat="44.5275427959859371185302734375" lon="-0.36092986352741718292236328125">
        <ele>20.6000003814697265625</ele>
        <time>2017-07-03T07:03:24.000Z</time>
        <extensions>
          <ns3:TrackPointExtension/>
        </extensions>
      </trkpt>
      <trkpt lat="44.52695480547845363616943359375" lon="-0.36114804446697235107421875">
        <ele>20</ele>
        <time>2017-07-03T07:03:32.000Z</time>
        <extensions>
          <ns3:TrackPointExtension/>
        </extensions>
      </trkpt>
      <trkpt lat="44.5263760350644588470458984375" lon="-0.3613591007888317108154296875">
        <ele>20.6000003814697265625</ele>
        <time>2017-07-03T07:03:40.000Z</time>
        <extensions>
          <ns3:TrackPointExtension/>
        </extensions>
      </trkpt>
      <trkpt lat="44.5257896371185779571533203125" lon="-0.3615552373230457305908203125">
        <ele>20.6000003814697265625</ele>
        <time>2017-07-03T07:03:48.000Z</time>
        <extensions>
          <ns3:TrackPointExtension/>
        </extensions>
      </trkpt>
      <trkpt lat="44.5252458192408084869384765625" lon="-0.361756570637226104736328125">
        <ele>19.799999237060546875</ele>
        <time>2017-07-03T07:03:56.000Z</time>
        <extensions>
          <ns3:TrackPointExtension/>
        </extensions>
      </trkpt>
      <trkpt lat="44.52472320757806301116943359375" lon="-0.3619548864662647247314453125">
        <ele>17.799999237060546875</ele>
        <time>2017-07-03T07:04:04.000Z</time>
        <extensions>
          <ns3:TrackPointExtension/>
        </extensions>
      </trkpt>
      <trkpt lat="44.5241444371640682220458984375" lon="-0.36209830082952976226806640625">
        <ele>18.6000003814697265625</ele>
        <time>2017-07-03T07:04:13.000Z</time>
        <extensions>
          <ns3:TrackPointExtension/>
        </extensions>
      </trkpt>
      <trkpt lat="44.52353146858513355255126953125" lon="-0.362093858420848846435546875">
        <ele>21.6000003814697265625</ele>
        <time>2017-07-03T07:04:22.000Z</time>
        <extensions>
          <ns3:TrackPointExtension/>
        </extensions>
      </trkpt>
      <trkpt lat="44.522929228842258453369140625" lon="-0.36209109239280223846435546875">
        <ele>23</ele>
        <time>2017-07-03T07:04:31.000Z</time>
        <extensions>
          <ns3:TrackPointExtension/>
        </extensions>
      </trkpt>
      <trkpt lat="44.5223547331988811492919921875" lon="-0.362095534801483154296875">
        <ele>24.200000762939453125</ele>
        <time>2017-07-03T07:04:40.000Z</time>
        <extensions>
          <ns3:TrackPointExtension/>
        </extensions>
      </trkpt>
      <trkpt lat="44.5217634737491607666015625" lon="-0.36209779791533946990966796875">
        <ele>26</ele>
        <time>2017-07-03T07:04:50.000Z</time>
        <extensions>
          <ns3:TrackPointExtension/>
        </extensions>
      </trkpt>
      <trkpt lat="44.52119895257055759429931640625" lon="-0.362225957214832305908203125">
        <ele>27.799999237060546875</ele>
        <time>2017-07-03T07:05:00.000Z</time>
        <extensions>
          <ns3:TrackPointExtension/>
        </extensions>
      </trkpt>
      <trkpt lat="44.520656727254390716552734375" lon="-0.362492501735687255859375">
        <ele>25.799999237060546875</ele>
        <time>2017-07-03T07:05:09.000Z</time>
        <extensions>
          <ns3:TrackPointExtension/>
        </extensions>
      </trkpt>
      <trkpt lat="44.52014149166643619537353515625" lon="-0.36279701627790927886962890625">
        <ele>24</ele>
        <time>2017-07-03T07:05:17.000Z</time>
        <extensions>
          <ns3:TrackPointExtension/>
        </extensions>
      </trkpt>
      <trkpt lat="44.51965534128248691558837890625" lon="-0.3632081486284732818603515625">
        <ele>23.200000762939453125</ele>
        <time>2017-07-03T07:05:25.000Z</time>
        <extensions>
          <ns3:TrackPointExtension/>
        </extensions>
      </trkpt>
      <trkpt lat="44.51960437931120395660400390625" lon="-0.36326975561678409576416015625">
        <ele>23.200000762939453125</ele>
        <time>2017-07-03T07:05:26.000Z</time>
        <extensions>
          <ns3:TrackPointExtension/>
        </extensions>
      </trkpt>
      <trkpt lat="44.51919995248317718505859375" lon="-0.3637848235666751861572265625">
        <ele>25.3999996185302734375</ele>
        <time>2017-07-03T07:05:34.000Z</time>
        <extensions>
          <ns3:TrackPointExtension/>
        </extensions>
      </trkpt>
      <trkpt lat="44.5187743194401264190673828125" lon="-0.3643692098557949066162109375">
        <ele>24.6000003814697265625</ele>
        <time>2017-07-03T07:05:43.000Z</time>
        <extensions>
          <ns3:TrackPointExtension/>
        </extensions>
      </trkpt>
      <trkpt lat="44.51837341301143169403076171875" lon="-0.36477447487413883209228515625">
        <ele>24.799999237060546875</ele>
        <time>2017-07-03T07:05:51.000Z</time>
        <extensions>
          <ns3:TrackPointExtension/>
        </extensions>
      </trkpt>
      <trkpt lat="44.5178375579416751861572265625" lon="-0.365098603069782257080078125">
        <ele>27</ele>
        <time>2017-07-03T07:06:01.000Z</time>
        <extensions>
          <ns3:TrackPointExtension/>
        </extensions>
      </trkpt>
      <trkpt lat="44.517325423657894134521484375" lon="-0.365506969392299652099609375">
        <ele>25.3999996185302734375</ele>
        <time>2017-07-03T07:06:10.000Z</time>
        <extensions>
          <ns3:TrackPointExtension/>
        </extensions>
      </trkpt>
      <trkpt lat="44.51682611368596553802490234375" lon="-0.36590485833585262298583984375">
        <ele>25.799999237060546875</ele>
        <time>2017-07-03T07:06:18.000Z</time>
        <extensions>
          <ns3:TrackPointExtension/>
        </extensions>
      </trkpt>
      <trkpt lat="44.51632504351437091827392578125" lon="-0.36624130792915821075439453125">
        <ele>25.799999237060546875</ele>
        <time>2017-07-03T07:06:26.000Z</time>
        <extensions>
          <ns3:TrackPointExtension/>
        </extensions>
      </trkpt>
      <trkpt lat="44.5158205367624759674072265625" lon="-0.36665864288806915283203125">
        <ele>26</ele>
        <time>2017-07-03T07:06:35.000Z</time>
        <extensions>
          <ns3:TrackPointExtension/>
        </extensions>
      </trkpt>
      <trkpt lat="44.515339918434619903564453125" lon="-0.36716717295348644256591796875">
        <ele>25.799999237060546875</ele>
        <time>2017-07-03T07:06:44.000Z</time>
        <extensions>
          <ns3:TrackPointExtension/>
        </extensions>
      </trkpt>
      <trkpt lat="44.514865837991237640380859375" lon="-0.3676807321608066558837890625">
        <ele>24.6000003814697265625</ele>
        <time>2017-07-03T07:06:53.000Z</time>
        <extensions>
          <ns3:TrackPointExtension/>
        </extensions>
      </trkpt>
      <trkpt lat="44.51444615609943866729736328125" lon="-0.36815690807998180389404296875">
        <ele>24.3999996185302734375</ele>
        <time>2017-07-03T07:07:01.000Z</time>
        <extensions>
          <ns3:TrackPointExtension/>
        </extensions>
      </trkpt>
      <trkpt lat="44.5140663720667362213134765625" lon="-0.3687187470495700836181640625">
        <ele>27.200000762939453125</ele>
        <time>2017-07-03T07:07:09.000Z</time>
        <extensions>
          <ns3:TrackPointExtension/>
        </extensions>
      </trkpt>
      <trkpt lat="44.5136700756847858428955078125" lon="-0.36923431791365146636962890625">
        <ele>27.3999996185302734375</ele>
        <time>2017-07-03T07:07:17.000Z</time>
        <extensions>
          <ns3:TrackPointExtension/>
        </extensions>
      </trkpt>
      <trkpt lat="44.5132020302116870880126953125" lon="-0.3696306981146335601806640625">
        <ele>25</ele>
        <time>2017-07-03T07:07:26.000Z</time>
        <extensions>
          <ns3:TrackPointExtension/>
        </extensions>
      </trkpt>
      <trkpt lat="44.51275988481938838958740234375" lon="-0.36989397369325160980224609375">
        <ele>23.799999237060546875</ele>
        <time>2017-07-03T07:07:34.000Z</time>
        <extensions>
          <ns3:TrackPointExtension/>
        </extensions>
      </trkpt>
      <trkpt lat="44.512202404439449310302734375" lon="-0.3699160180985927581787109375">
        <ele>22</ele>
        <time>2017-07-03T07:07:43.000Z</time>
        <extensions>
          <ns3:TrackPointExtension/>
        </extensions>
      </trkpt>
      <trkpt lat="44.51168297789990901947021484375" lon="-0.36975265480577945709228515625">
        <ele>21.6000003814697265625</ele>
        <time>2017-07-03T07:07:51.000Z</time>
        <extensions>
          <ns3:TrackPointExtension/>
        </extensions>
      </trkpt>
      <trkpt lat="44.51142825186252593994140625" lon="-0.36985558457672595977783203125">
        <ele>21.200000762939453125</ele>
        <time>2017-07-03T07:07:55.000Z</time>
        <extensions>
          <ns3:TrackPointExtension/>
        </extensions>
      </trkpt>
      <trkpt lat="44.51111619360744953155517578125" lon="-0.37001349963247776031494140625">
        <ele>20.799999237060546875</ele>
        <time>2017-07-03T07:08:00.000Z</time>
        <extensions>
          <ns3:TrackPointExtension/>
        </extensions>
      </trkpt>
      <trkpt lat="44.510762058198451995849609375" lon="-0.3699743561446666717529296875">
        <ele>21.799999237060546875</ele>
        <time>2017-07-03T07:08:05.000Z</time>
        <extensions>
          <ns3:TrackPointExtension/>
        </extensions>
      </trkpt>
      <trkpt lat="44.5106160454452037811279296875" lon="-0.36994812078773975372314453125">
        <ele>22.200000762939453125</ele>
        <time>2017-07-03T07:08:07.000Z</time>
        <extensions>
          <ns3:TrackPointExtension/>
        </extensions>
      </trkpt>
      <trkpt lat="44.51021245680749416351318359375" lon="-0.3701181896030902862548828125">
        <ele>23</ele>
        <time>2017-07-03T07:08:14.000Z</time>
        <extensions>
          <ns3:TrackPointExtension/>
        </extensions>
      </trkpt>
      <trkpt lat="44.509736783802509307861328125" lon="-0.37054114043712615966796875">
        <ele>24.200000762939453125</ele>
        <time>2017-07-03T07:08:24.000Z</time>
        <extensions>
          <ns3:TrackPointExtension/>
        </extensions>
      </trkpt>
      <trkpt lat="44.50915801338851451873779296875" lon="-0.37071816623210906982421875">
        <ele>24</ele>
        <time>2017-07-03T07:08:34.000Z</time>
        <extensions>
          <ns3:TrackPointExtension/>
        </extensions>
      </trkpt>
      <trkpt lat="44.509037397801876068115234375" lon="-0.37071355618536472320556640625">
        <ele>23.799999237060546875</ele>
        <time>2017-07-03T07:08:36.000Z</time>
        <extensions>
          <ns3:TrackPointExtension/>
        </extensions>
      </trkpt>
      <trkpt lat="44.5085209049284458160400390625" lon="-0.37048422731459140777587890625">
        <ele>24.200000762939453125</ele>
        <time>2017-07-03T07:08:45.000Z</time>
        <extensions>
          <ns3:TrackPointExtension/>
        </extensions>
      </trkpt>
      <trkpt lat="44.5080652646720409393310546875" lon="-0.3700759448111057281494140625">
        <ele>26.3999996185302734375</ele>
        <time>2017-07-03T07:08:55.000Z</time>
        <extensions>
          <ns3:TrackPointExtension/>
        </extensions>
      </trkpt>
      <trkpt lat="44.5076416432857513427734375" lon="-0.3695502318441867828369140625">
        <ele>29</ele>
        <time>2017-07-03T07:09:06.000Z</time>
        <extensions>
          <ns3:TrackPointExtension/>
        </extensions>
      </trkpt>
      <trkpt lat="44.50719933025538921356201171875" lon="-0.369076319038867950439453125">
        <ele>29.200000762939453125</ele>
        <time>2017-07-03T07:09:17.000Z</time>
        <extensions>
          <ns3:TrackPointExtension/>
        </extensions>
      </trkpt>
      <trkpt lat="44.5068029500544071197509765625" lon="-0.3686339221894741058349609375">
        <ele>28</ele>
        <time>2017-07-03T07:09:26.000Z</time>
        <extensions>
          <ns3:TrackPointExtension/>
        </extensions>
      </trkpt>
      <trkpt lat="44.50667881406843662261962890625" lon="-0.36835086531937122344970703125">
        <ele>29.799999237060546875</ele>
        <time>2017-07-03T07:09:30.000Z</time>
        <extensions>
          <ns3:TrackPointExtension/>
        </extensions>
      </trkpt>
      <trkpt lat="44.50646239332854747772216796875" lon="-0.36760252900421619415283203125">
        <ele>32.799999237060546875</ele>
        <time>2017-07-03T07:09:41.000Z</time>
        <extensions>
          <ns3:TrackPointExtension/>
        </extensions>
      </trkpt>
      <trkpt lat="44.50627933256328105926513671875" lon="-0.3669994510710239410400390625">
        <ele>35</ele>
        <time>2017-07-03T07:09:51.000Z</time>
        <extensions>
          <ns3:TrackPointExtension/>
        </extensions>
      </trkpt>
      <trkpt lat="44.50600340031087398529052734375" lon="-0.36689476110041141510009765625">
        <ele>34.799999237060546875</ele>
        <time>2017-07-03T07:09:59.000Z</time>
        <extensions>
          <ns3:TrackPointExtension/>
        </extensions>
      </trkpt>
      <trkpt lat="44.5059275440871715545654296875" lon="-0.36695142276585102081298828125">
        <ele>34.40000152587890625</ele>
        <time>2017-07-03T07:10:01.000Z</time>
        <extensions>
          <ns3:TrackPointExtension/>
        </extensions>
      </trkpt>
      <trkpt lat="44.5054112188518047332763671875" lon="-0.36726926453411579132080078125">
        <ele>32</ele>
        <time>2017-07-03T07:10:11.000Z</time>
        <extensions>
          <ns3:TrackPointExtension/>
        </extensions>
      </trkpt>
      <trkpt lat="44.5049344561994075775146484375" lon="-0.36762599833309650421142578125">
        <ele>31</ele>
        <time>2017-07-03T07:10:19.000Z</time>
        <extensions>
          <ns3:TrackPointExtension/>
        </extensions>
      </trkpt>
      <trkpt lat="44.50444855727255344390869140625" lon="-0.36797954700887203216552734375">
        <ele>30.200000762939453125</ele>
        <time>2017-07-03T07:10:27.000Z</time>
        <extensions>
          <ns3:TrackPointExtension/>
        </extensions>
      </trkpt>
      <trkpt lat="44.50391278602182865142822265625" lon="-0.36813679151237010955810546875">
        <ele>31</ele>
        <time>2017-07-03T07:10:35.000Z</time>
        <extensions>
          <ns3:TrackPointExtension/>
        </extensions>
      </trkpt>
      <trkpt lat="44.50333024375140666961669921875" lon="-0.36828263662755489349365234375">
        <ele>30.3999996185302734375</ele>
        <time>2017-07-03T07:10:44.000Z</time>
        <extensions>
          <ns3:TrackPointExtension/>
        </extensions>
      </trkpt>
      <trkpt lat="44.50274971313774585723876953125" lon="-0.3683142364025115966796875">
        <ele>29.3999996185302734375</ele>
        <time>2017-07-03T07:10:53.000Z</time>
        <extensions>
          <ns3:TrackPointExtension/>
        </extensions>
      </trkpt>
      <trkpt lat="44.502175636589527130126953125" lon="-0.3681551478803157806396484375">
        <ele>33</ele>
        <time>2017-07-03T07:11:02.000Z</time>
        <extensions>
          <ns3:TrackPointExtension/>
        </extensions>
      </trkpt>
      <trkpt lat="44.5016138814389705657958984375" lon="-0.36784677766263484954833984375">
        <ele>36.799999237060546875</ele>
        <time>2017-07-03T07:11:11.000Z</time>
        <extensions>
          <ns3:TrackPointExtension/>
        </extensions>
      </trkpt>
      <trkpt lat="44.501082636415958404541015625" lon="-0.3674866072833538055419921875">
        <ele>40.799999237060546875</ele>
        <time>2017-07-03T07:11:20.000Z</time>
        <extensions>
          <ns3:TrackPointExtension/>
        </extensions>
      </trkpt>
      <trkpt lat="44.50052909553050994873046875" lon="-0.3672160394489765167236328125">
        <ele>39</ele>
        <time>2017-07-03T07:11:29.000Z</time>
        <extensions>
          <ns3:TrackPointExtension/>
        </extensions>
      </trkpt>
      <trkpt lat="44.5000062324106693267822265625" lon="-0.367026440799236297607421875">
        <ele>37.799999237060546875</ele>
        <time>2017-07-03T07:11:37.000Z</time>
        <extensions>
          <ns3:TrackPointExtension/>
        </extensions>
      </trkpt>
      <trkpt lat="44.4994084350764751434326171875" lon="-0.366907417774200439453125">
        <ele>36.799999237060546875</ele>
        <time>2017-07-03T07:11:46.000Z</time>
        <extensions>
          <ns3:TrackPointExtension/>
        </extensions>
      </trkpt>
      <trkpt lat="44.49883033521473407745361328125" lon="-0.36683625541627407073974609375">
        <ele>33.40000152587890625</ele>
        <time>2017-07-03T07:11:55.000Z</time>
        <extensions>
          <ns3:TrackPointExtension/>
        </extensions>
      </trkpt>
      <trkpt lat="44.498276375234127044677734375" lon="-0.3666966967284679412841796875">
        <ele>33</ele>
        <time>2017-07-03T07:12:04.000Z</time>
        <extensions>
          <ns3:TrackPointExtension/>
        </extensions>
      </trkpt>
      <trkpt lat="44.49769676662981510162353515625" lon="-0.3664982132613658905029296875">
        <ele>34.40000152587890625</ele>
        <time>2017-07-03T07:12:14.000Z</time>
        <extensions>
          <ns3:TrackPointExtension/>
        </extensions>
      </trkpt>
      <trkpt lat="44.49711405672132968902587890625" lon="-0.36645479500293731689453125">
        <ele>35.200000762939453125</ele>
        <time>2017-07-03T07:12:23.000Z</time>
        <extensions>
          <ns3:TrackPointExtension/>
        </extensions>
      </trkpt>
      <trkpt lat="44.4966957159340381622314453125" lon="-0.36656434647738933563232421875">
        <ele>36.59999847412109375</ele>
        <time>2017-07-03T07:12:29.000Z</time>
        <extensions>
          <ns3:TrackPointExtension/>
        </extensions>
      </trkpt>
      <trkpt lat="44.49618819169700145721435546875" lon="-0.3668650053441524505615234375">
        <ele>39.200000762939453125</ele>
        <time>2017-07-03T07:12:38.000Z</time>
        <extensions>
          <ns3:TrackPointExtension/>
        </extensions>
      </trkpt>
      <trkpt lat="44.49562626890838146209716796875" lon="-0.367063991725444793701171875">
        <ele>37.799999237060546875</ele>
        <time>2017-07-03T07:12:47.000Z</time>
        <extensions>
          <ns3:TrackPointExtension/>
        </extensions>
      </trkpt>
      <trkpt lat="44.49536408297717571258544921875" lon="-0.36712132394313812255859375">
        <ele>37.200000762939453125</ele>
        <time>2017-07-03T07:12:51.000Z</time>
        <extensions>
          <ns3:TrackPointExtension/>
        </extensions>
      </trkpt>
      <trkpt lat="44.4947638548910617828369140625" lon="-0.367201454937458038330078125">
        <ele>39.799999237060546875</ele>
        <time>2017-07-03T07:13:00.000Z</time>
        <extensions>
          <ns3:TrackPointExtension/>
        </extensions>
      </trkpt>
      <trkpt lat="44.4941633753478527069091796875" lon="-0.36723456345498561859130859375">
        <ele>40.40000152587890625</ele>
        <time>2017-07-03T07:13:09.000Z</time>
        <extensions>
          <ns3:TrackPointExtension/>
        </extensions>
      </trkpt>
      <trkpt lat="44.493590556085109710693359375" lon="-0.36726390011608600616455078125">
        <ele>39</ele>
        <time>2017-07-03T07:13:19.000Z</time>
        <extensions>
          <ns3:TrackPointExtension/>
        </extensions>
      </trkpt>
      <trkpt lat="44.49338369071483612060546875" lon="-0.36732257343828678131103515625">
        <ele>38.799999237060546875</ele>
        <time>2017-07-03T07:13:27.000Z</time>
        <extensions>
          <ns3:TrackPointExtension/>
        </extensions>
      </trkpt>
      <trkpt lat="44.49338679201900959014892578125" lon="-0.3675020299851894378662109375">
        <ele>39</ele>
        <time>2017-07-03T07:13:31.000Z</time>
        <extensions>
          <ns3:TrackPointExtension/>
        </extensions>
      </trkpt>
      <trkpt lat="44.49341009370982646942138671875" lon="-0.3676193766295909881591796875">
        <ele>39.200000762939453125</ele>
        <time>2017-07-03T07:13:33.000Z</time>
        <extensions>
          <ns3:TrackPointExtension/>
        </extensions>
      </trkpt>
      <trkpt lat="44.4935531727969646453857421875" lon="-0.36837668158113956451416015625">
        <ele>39</ele>
        <time>2017-07-03T07:13:44.000Z</time>
        <extensions>
          <ns3:TrackPointExtension/>
        </extensions>
      </trkpt>
      <trkpt lat="44.49359097518026828765869140625" lon="-0.3691331483423709869384765625">
        <ele>38.200000762939453125</ele>
        <time>2017-07-03T07:13:53.000Z</time>
        <extensions>
          <ns3:TrackPointExtension/>
        </extensions>
      </trkpt>
      <trkpt lat="44.49356985278427600860595703125" lon="-0.36930992268025875091552734375">
        <ele>38.200000762939453125</ele>
        <time>2017-07-03T07:13:55.000Z</time>
        <extensions>
          <ns3:TrackPointExtension/>
        </extensions>
      </trkpt>
      <trkpt lat="44.49333180673420429229736328125" lon="-0.37005742080509662628173828125">
        <ele>36.799999237060546875</ele>
        <time>2017-07-03T07:14:04.000Z</time>
        <extensions>
          <ns3:TrackPointExtension/>
        </extensions>
      </trkpt>
      <trkpt lat="44.49303776957094669342041015625" lon="-0.37077927030622959136962890625">
        <ele>33.799999237060546875</ele>
        <time>2017-07-03T07:14:14.000Z</time>
        <extensions>
          <ns3:TrackPointExtension/>
        </extensions>
      </trkpt>
      <trkpt lat="44.4929218478500843048095703125" lon="-0.371169783174991607666015625">
        <ele>32.59999847412109375</ele>
        <time>2017-07-03T07:14:19.000Z</time>
        <extensions>
          <ns3:TrackPointExtension/>
        </extensions>
      </trkpt>
      <trkpt lat="44.49290164746344089508056640625" lon="-0.3715293668210506439208984375">
        <ele>32.40000152587890625</ele>
        <time>2017-07-03T07:14:23.000Z</time>
        <extensions>
          <ns3:TrackPointExtension/>
        </extensions>
      </trkpt>
      <trkpt lat="44.49296250008046627044677734375" lon="-0.37234098650515079498291015625">
        <ele>32.799999237060546875</ele>
        <time>2017-07-03T07:14:33.000Z</time>
        <extensions>
          <ns3:TrackPointExtension/>
        </extensions>
      </trkpt>
      <trkpt lat="44.492730237543582916259765625" lon="-0.372414328157901763916015625">
        <ele>33</ele>
        <time>2017-07-03T07:14:41.000Z</time>
        <extensions>
          <ns3:TrackPointExtension/>
        </extensions>
      </trkpt>
      <trkpt lat="44.49222153984010219573974609375" lon="-0.37209036760032176971435546875">
        <ele>33</ele>
        <time>2017-07-03T07:14:50.000Z</time>
        <extensions>
          <ns3:TrackPointExtension/>
        </extensions>
      </trkpt>
      <trkpt lat="44.49171627871692180633544921875" lon="-0.37176297046244144439697265625">
        <ele>32</ele>
        <time>2017-07-03T07:14:59.000Z</time>
        <extensions>
          <ns3:TrackPointExtension/>
        </extensions>
      </trkpt>
      <trkpt lat="44.49122141115367412567138671875" lon="-0.37143222056329250335693359375">
        <ele>31.799999237060546875</ele>
        <time>2017-07-03T07:15:08.000Z</time>
        <extensions>
          <ns3:TrackPointExtension/>
        </extensions>
      </trkpt>
      <trkpt lat="44.49072620831429958343505859375" lon="-0.3711045719683170318603515625">
        <ele>32.799999237060546875</ele>
        <time>2017-07-03T07:15:17.000Z</time>
        <extensions>
          <ns3:TrackPointExtension/>
        </extensions>
      </trkpt>
      <trkpt lat="44.49019093997776508331298828125" lon="-0.370769798755645751953125">
        <ele>32.40000152587890625</ele>
        <time>2017-07-03T07:15:26.000Z</time>
        <extensions>
          <ns3:TrackPointExtension/>
        </extensions>
      </trkpt>
      <trkpt lat="44.48964963667094707489013671875" lon="-0.370403341948986053466796875">
        <ele>33.200000762939453125</ele>
        <time>2017-07-03T07:15:35.000Z</time>
        <extensions>
          <ns3:TrackPointExtension/>
        </extensions>
      </trkpt>
      <trkpt lat="44.48909207247197628021240234375" lon="-0.37009212188422679901123046875">
        <ele>34</ele>
        <time>2017-07-03T07:15:44.000Z</time>
        <extensions>
          <ns3:TrackPointExtension/>
        </extensions>
      </trkpt>
      <trkpt lat="44.4885397888720035552978515625" lon="-0.369911827147006988525390625">
        <ele>35.59999847412109375</ele>
        <time>2017-07-03T07:15:53.000Z</time>
        <extensions>
          <ns3:TrackPointExtension/>
        </extensions>
      </trkpt>
      <trkpt lat="44.487963952124118804931640625" lon="-0.36974259652197360992431640625">
        <ele>37.40000152587890625</ele>
        <time>2017-07-03T07:16:03.000Z</time>
        <extensions>
          <ns3:TrackPointExtension/>
        </extensions>
      </trkpt>
      <trkpt lat="44.4874204695224761962890625" lon="-0.369522906839847564697265625">
        <ele>36.200000762939453125</ele>
        <time>2017-07-03T07:16:10.000Z</time>
        <extensions>
          <ns3:TrackPointExtension/>
        </extensions>
      </trkpt>
      <trkpt lat="44.48736489750444889068603515625" lon="-0.3694754652678966522216796875">
        <ele>36</ele>
        <time>2017-07-03T07:16:13.000Z</time>
        <extensions>
          <ns3:TrackPointExtension/>
        </extensions>
      </trkpt>
      <trkpt lat="44.4868841953575611114501953125" lon="-0.36905645392835140228271484375">
        <ele>35.200000762939453125</ele>
        <time>2017-07-03T07:16:21.000Z</time>
        <extensions>
          <ns3:TrackPointExtension/>
        </extensions>
      </trkpt>
      <trkpt lat="44.48639452457427978515625" lon="-0.3686429746448993682861328125">
        <ele>34.59999847412109375</ele>
        <time>2017-07-03T07:16:29.000Z</time>
        <extensions>
          <ns3:TrackPointExtension/>
        </extensions>
      </trkpt>
      <trkpt lat="44.48584475554525852203369140625" lon="-0.36848112009465694427490234375">
        <ele>35</ele>
        <time>2017-07-03T07:16:37.000Z</time>
        <extensions>
          <ns3:TrackPointExtension/>
        </extensions>
      </trkpt>
      <trkpt lat="44.48529607616364955902099609375" lon="-0.36846469156444072723388671875">
        <ele>36</ele>
        <time>2017-07-03T07:16:45.000Z</time>
        <extensions>
          <ns3:TrackPointExtension/>
        </extensions>
      </trkpt>
      <trkpt lat="44.4847538508474826812744140625" lon="-0.3684548847377300262451171875">
        <ele>34.799999237060546875</ele>
        <time>2017-07-03T07:16:53.000Z</time>
        <extensions>
          <ns3:TrackPointExtension/>
        </extensions>
      </trkpt>
      <trkpt lat="44.4841480068862438201904296875" lon="-0.3684434853494167327880859375">
        <ele>33.59999847412109375</ele>
        <time>2017-07-03T07:17:02.000Z</time>
        <extensions>
          <ns3:TrackPointExtension/>
        </extensions>
      </trkpt>
      <trkpt lat="44.48401917703449726104736328125" lon="-0.36841808818280696868896484375">
        <ele>33.200000762939453125</ele>
        <time>2017-07-03T07:17:04.000Z</time>
        <extensions>
          <ns3:TrackPointExtension/>
        </extensions>
      </trkpt>
      <trkpt lat="44.4836695678532123565673828125" lon="-0.3680052794516086578369140625">
        <ele>32</ele>
        <time>2017-07-03T07:17:12.000Z</time>
        <extensions>
          <ns3:TrackPointExtension/>
        </extensions>
      </trkpt>
      <trkpt lat="44.48336270637810230255126953125" lon="-0.36736180074512958526611328125">
        <ele>32.40000152587890625</ele>
        <time>2017-07-03T07:17:22.000Z</time>
        <extensions>
          <ns3:TrackPointExtension/>
        </extensions>
      </trkpt>
      <trkpt lat="44.4832132570445537567138671875" lon="-0.3670715354382991790771484375">
        <ele>31.3999996185302734375</ele>
        <time>2017-07-03T07:17:27.000Z</time>
        <extensions>
          <ns3:TrackPointExtension/>
        </extensions>
      </trkpt>
      <trkpt lat="44.48316120542585849761962890625" lon="-0.36698025651276111602783203125">
        <ele>31.200000762939453125</ele>
        <time>2017-07-03T07:17:29.000Z</time>
        <extensions>
          <ns3:TrackPointExtension/>
        </extensions>
      </trkpt>
      <trkpt lat="44.48297311551868915557861328125" lon="-0.36697153933346271514892578125">
        <ele>30.200000762939453125</ele>
        <time>2017-07-03T07:17:34.000Z</time>
        <extensions>
          <ns3:TrackPointExtension/>
        </extensions>
      </trkpt>
      <trkpt lat="44.48238185606896877288818359375" lon="-0.36710397340357303619384765625">
        <ele>30.799999237060546875</ele>
        <time>2017-07-03T07:17:43.000Z</time>
        <extensions>
          <ns3:TrackPointExtension/>
        </extensions>
      </trkpt>
      <trkpt lat="44.48179948143661022186279296875" lon="-0.3672314621508121490478515625">
        <ele>32.40000152587890625</ele>
        <time>2017-07-03T07:17:51.000Z</time>
        <extensions>
          <ns3:TrackPointExtension/>
        </extensions>
      </trkpt>
      <trkpt lat="44.48125516064465045928955078125" lon="-0.3673273511230945587158203125">
        <ele>34</ele>
        <time>2017-07-03T07:18:01.000Z</time>
        <extensions>
          <ns3:TrackPointExtension/>
        </extensions>
      </trkpt>
      <trkpt lat="44.48120084591209888458251953125" lon="-0.36732223816215991973876953125">
        <ele>34.200000762939453125</ele>
        <time>2017-07-03T07:18:02.000Z</time>
        <extensions>
          <ns3:TrackPointExtension/>
        </extensions>
      </trkpt>
      <trkpt lat="44.480676390230655670166015625" lon="-0.3671367466449737548828125">
        <ele>35</ele>
        <time>2017-07-03T07:18:11.000Z</time>
        <extensions>
          <ns3:TrackPointExtension/>
        </extensions>
      </trkpt>
      <trkpt lat="44.48015528731048107147216796875" lon="-0.36692996509373188018798828125">
        <ele>35.40000152587890625</ele>
        <time>2017-07-03T07:18:20.000Z</time>
        <extensions>
          <ns3:TrackPointExtension/>
        </extensions>
      </trkpt>
      <trkpt lat="44.4796157442033290863037109375" lon="-0.366687476634979248046875">
        <ele>36.40000152587890625</ele>
        <time>2017-07-03T07:18:30.000Z</time>
        <extensions>
          <ns3:TrackPointExtension/>
        </extensions>
      </trkpt>
      <trkpt lat="44.47956687770783901214599609375" lon="-0.36665587686002254486083984375">
        <ele>36.59999847412109375</ele>
        <time>2017-07-03T07:18:31.000Z</time>
        <extensions>
          <ns3:TrackPointExtension/>
        </extensions>
      </trkpt>
      <trkpt lat="44.47926244698464870452880859375" lon="-0.36640307866036891937255859375">
        <ele>36.40000152587890625</ele>
        <time>2017-07-03T07:18:37.000Z</time>
        <extensions>
          <ns3:TrackPointExtension/>
        </extensions>
      </trkpt>
      <trkpt lat="44.4786809943616390228271484375" lon="-0.3663181699812412261962890625">
        <ele>36</ele>
        <time>2017-07-03T07:18:46.000Z</time>
        <extensions>
          <ns3:TrackPointExtension/>
        </extensions>
      </trkpt>
      <trkpt lat="44.47813189588487148284912109375" lon="-0.36625186912715435028076171875">
        <ele>35.59999847412109375</ele>
        <time>2017-07-03T07:18:54.000Z</time>
        <extensions>
          <ns3:TrackPointExtension/>
        </extensions>
      </trkpt>
      <trkpt lat="44.47758438996970653533935546875" lon="-0.36636167205870151519775390625">
        <ele>35</ele>
        <time>2017-07-03T07:19:02.000Z</time>
        <extensions>
          <ns3:TrackPointExtension/>
        </extensions>
      </trkpt>
      <trkpt lat="44.4770495407283306121826171875" lon="-0.36647021770477294921875">
        <ele>35</ele>
        <time>2017-07-03T07:19:10.000Z</time>
        <extensions>
          <ns3:TrackPointExtension/>
        </extensions>
      </trkpt>
      <trkpt lat="44.4764755479991436004638671875" lon="-0.3665743209421634674072265625">
        <ele>35</ele>
        <time>2017-07-03T07:19:19.000Z</time>
        <extensions>
          <ns3:TrackPointExtension/>
        </extensions>
      </trkpt>
      <trkpt lat="44.4758921675384044647216796875" lon="-0.3666836209595203399658203125">
        <ele>34</ele>
        <time>2017-07-03T07:19:28.000Z</time>
        <extensions>
          <ns3:TrackPointExtension/>
        </extensions>
      </trkpt>
      <trkpt lat="44.47533803991973400115966796875" lon="-0.36678009666502475738525390625">
        <ele>33.40000152587890625</ele>
        <time>2017-07-03T07:19:36.000Z</time>
        <extensions>
          <ns3:TrackPointExtension/>
        </extensions>
      </trkpt>
      <trkpt lat="44.47477544657886028289794921875" lon="-0.3668878041207790374755859375">
        <ele>33</ele>
        <time>2017-07-03T07:19:44.000Z</time>
        <extensions>
          <ns3:TrackPointExtension/>
        </extensions>
      </trkpt>
      <trkpt lat="44.47423045523464679718017578125" lon="-0.36698629148304462432861328125">
        <ele>32.59999847412109375</ele>
        <time>2017-07-03T07:19:52.000Z</time>
        <extensions>
          <ns3:TrackPointExtension/>
        </extensions>
      </trkpt>
      <trkpt lat="44.47368110530078411102294921875" lon="-0.36709056235849857330322265625">
        <ele>32.200000762939453125</ele>
        <time>2017-07-03T07:20:00.000Z</time>
        <extensions>
          <ns3:TrackPointExtension/>
        </extensions>
      </trkpt>
      <trkpt lat="44.47311029769480228424072265625" lon="-0.36719751544296741485595703125">
        <ele>32.59999847412109375</ele>
        <time>2017-07-03T07:20:08.000Z</time>
        <extensions>
          <ns3:TrackPointExtension/>
        </extensions>
      </trkpt>
      <trkpt lat="44.47250696830451488494873046875" lon="-0.367309413850307464599609375">
        <ele>33.59999847412109375</ele>
        <time>2017-07-03T07:20:16.000Z</time>
        <extensions>
          <ns3:TrackPointExtension/>
        </extensions>
      </trkpt>
      <trkpt lat="44.4719617255032062530517578125" lon="-0.3674125112593173980712890625">
        <ele>34.40000152587890625</ele>
        <time>2017-07-03T07:20:23.000Z</time>
        <extensions>
          <ns3:TrackPointExtension/>
        </extensions>
      </trkpt>
      <trkpt lat="44.4714055024087429046630859375" lon="-0.36751535721123218536376953125">
        <ele>35.59999847412109375</ele>
        <time>2017-07-03T07:20:30.000Z</time>
        <extensions>
          <ns3:TrackPointExtension/>
        </extensions>
      </trkpt>
      <trkpt lat="44.4708538055419921875" lon="-0.36762214265763759613037109375">
        <ele>36.200000762939453125</ele>
        <time>2017-07-03T07:20:37.000Z</time>
        <extensions>
          <ns3:TrackPointExtension/>
        </extensions>
      </trkpt>
      <trkpt lat="44.47026045061647891998291015625" lon="-0.3677268326282501220703125">
        <ele>36.799999237060546875</ele>
        <time>2017-07-03T07:20:45.000Z</time>
        <extensions>
          <ns3:TrackPointExtension/>
        </extensions>
      </trkpt>
      <trkpt lat="44.4696818478405475616455078125" lon="-0.36783571355044841766357421875">
        <ele>38.40000152587890625</ele>
        <time>2017-07-03T07:20:53.000Z</time>
        <extensions>
          <ns3:TrackPointExtension/>
        </extensions>
      </trkpt>
      <trkpt lat="44.46910877712070941925048828125" lon="-0.36794249899685382843017578125">
        <ele>38</ele>
        <time>2017-07-03T07:21:01.000Z</time>
        <extensions>
          <ns3:TrackPointExtension/>
        </extensions>
      </trkpt>
      <trkpt lat="44.46856093592941761016845703125" lon="-0.36802589893341064453125">
        <ele>37.200000762939453125</ele>
        <time>2017-07-03T07:21:09.000Z</time>
        <extensions>
          <ns3:TrackPointExtension/>
        </extensions>
      </trkpt>
      <trkpt lat="44.468002952635288238525390625" lon="-0.36812723614275455474853515625">
        <ele>38.200000762939453125</ele>
        <time>2017-07-03T07:21:18.000Z</time>
        <extensions>
          <ns3:TrackPointExtension/>
        </extensions>
      </trkpt>
      <trkpt lat="44.467444382607936859130859375" lon="-0.3682356141507625579833984375">
        <ele>37.799999237060546875</ele>
        <time>2017-07-03T07:21:27.000Z</time>
        <extensions>
          <ns3:TrackPointExtension/>
        </extensions>
      </trkpt>
      <trkpt lat="44.46689008735120296478271484375" lon="-0.3682847321033477783203125">
        <ele>36.40000152587890625</ele>
        <time>2017-07-03T07:21:36.000Z</time>
        <extensions>
          <ns3:TrackPointExtension/>
        </extensions>
      </trkpt>
      <trkpt lat="44.4663019292056560516357421875" lon="-0.3682439960539340972900390625">
        <ele>35.799999237060546875</ele>
        <time>2017-07-03T07:21:45.000Z</time>
        <extensions>
          <ns3:TrackPointExtension/>
        </extensions>
      </trkpt>
      <trkpt lat="44.46570773608982563018798828125" lon="-0.3682015836238861083984375">
        <ele>34.799999237060546875</ele>
        <time>2017-07-03T07:21:54.000Z</time>
        <extensions>
          <ns3:TrackPointExtension/>
        </extensions>
      </trkpt>
      <trkpt lat="44.46510541252791881561279296875" lon="-0.36814995110034942626953125">
        <ele>34.799999237060546875</ele>
        <time>2017-07-03T07:22:03.000Z</time>
        <extensions>
          <ns3:TrackPointExtension/>
        </extensions>
      </trkpt>
      <trkpt lat="44.46450375951826572418212890625" lon="-0.36809538491070270538330078125">
        <ele>34</ele>
        <time>2017-07-03T07:22:12.000Z</time>
        <extensions>
          <ns3:TrackPointExtension/>
        </extensions>
      </trkpt>
      <trkpt lat="44.46392021141946315765380859375" lon="-0.36805364303290843963623046875">
        <ele>35.200000762939453125</ele>
        <time>2017-07-03T07:22:21.000Z</time>
        <extensions>
          <ns3:TrackPointExtension/>
        </extensions>
      </trkpt>
      <trkpt lat="44.46335007436573505401611328125" lon="-0.3680059500038623809814453125">
        <ele>36.799999237060546875</ele>
        <time>2017-07-03T07:22:30.000Z</time>
        <extensions>
          <ns3:TrackPointExtension/>
        </extensions>
      </trkpt>
      <trkpt lat="44.46278161369264125823974609375" lon="-0.36796311847865581512451171875">
        <ele>38</ele>
        <time>2017-07-03T07:22:39.000Z</time>
        <extensions>
          <ns3:TrackPointExtension/>
        </extensions>
      </trkpt>
      <trkpt lat="44.46222270838916301727294921875" lon="-0.36793000996112823486328125">
        <ele>37.200000762939453125</ele>
        <time>2017-07-03T07:22:48.000Z</time>
        <extensions>
          <ns3:TrackPointExtension/>
        </extensions>
      </trkpt>
      <trkpt lat="44.46166933514177799224853515625" lon="-0.36788566969335079193115234375">
        <ele>36</ele>
        <time>2017-07-03T07:22:57.000Z</time>
        <extensions>
          <ns3:TrackPointExtension/>
        </extensions>
      </trkpt>
      <trkpt lat="44.4611068256199359893798828125" lon="-0.367841832339763641357421875">
        <ele>34</ele>
        <time>2017-07-03T07:23:07.000Z</time>
        <extensions>
          <ns3:TrackPointExtension/>
        </extensions>
      </trkpt>
      <trkpt lat="44.46097749285399913787841796875" lon="-0.36785767413675785064697265625">
        <ele>33</ele>
        <time>2017-07-03T07:23:09.000Z</time>
        <extensions>
          <ns3:TrackPointExtension/>
        </extensions>
      </trkpt>
      <trkpt lat="44.460775069892406463623046875" lon="-0.3679038584232330322265625">
        <ele>31.3999996185302734375</ele>
        <time>2017-07-03T07:23:12.000Z</time>
        <extensions>
          <ns3:TrackPointExtension/>
        </extensions>
      </trkpt>
      <trkpt lat="44.46050877682864665985107421875" lon="-0.36817182786762714385986328125">
        <ele>28.799999237060546875</ele>
        <time>2017-07-03T07:23:16.000Z</time>
        <extensions>
          <ns3:TrackPointExtension/>
        </extensions>
      </trkpt>
      <trkpt lat="44.46008364669978618621826171875" lon="-0.3686842136085033416748046875">
        <ele>26.799999237060546875</ele>
        <time>2017-07-03T07:23:22.000Z</time>
        <extensions>
          <ns3:TrackPointExtension/>
        </extensions>
      </trkpt>
      <trkpt lat="44.45963873527944087982177734375" lon="-0.36921151913702487945556640625">
        <ele>29</ele>
        <time>2017-07-03T07:23:28.000Z</time>
        <extensions>
          <ns3:TrackPointExtension/>
        </extensions>
      </trkpt>
      <trkpt lat="44.45924051105976104736328125" lon="-0.36974427290260791778564453125">
        <ele>31.3999996185302734375</ele>
        <time>2017-07-03T07:23:35.000Z</time>
        <extensions>
          <ns3:TrackPointExtension/>
        </extensions>
      </trkpt>
      <trkpt lat="44.45885720662772655487060546875" lon="-0.370366461575031280517578125">
        <ele>31.200000762939453125</ele>
        <time>2017-07-03T07:23:45.000Z</time>
        <extensions>
          <ns3:TrackPointExtension/>
        </extensions>
      </trkpt>
      <trkpt lat="44.458750672638416290283203125" lon="-0.37054826505482196807861328125">
        <ele>31.200000762939453125</ele>
        <time>2017-07-03T07:23:48.000Z</time>
        <extensions>
          <ns3:TrackPointExtension/>
        </extensions>
      </trkpt>
      <trkpt lat="44.4587203301489353179931640625" lon="-0.37094908766448497772216796875">
        <ele>32.200000762939453125</ele>
        <time>2017-07-03T07:23:54.000Z</time>
        <extensions>
          <ns3:TrackPointExtension/>
        </extensions>
      </trkpt>
      <trkpt lat="44.45870683528482913970947265625" lon="-0.37113885395228862762451171875">
        <ele>32.59999847412109375</ele>
        <time>2017-07-03T07:23:57.000Z</time>
        <extensions>
          <ns3:TrackPointExtension/>
        </extensions>
      </trkpt>
      <trkpt lat="44.4587267003953456878662109375" lon="-0.3713221661746501922607421875">
        <ele>33.200000762939453125</ele>
        <time>2017-07-03T07:24:00.000Z</time>
        <extensions>
          <ns3:TrackPointExtension/>
        </extensions>
      </trkpt>
      <trkpt lat="44.4585101120173931121826171875" lon="-0.3713781572878360748291015625">
        <ele>33.200000762939453125</ele>
        <time>2017-07-03T07:24:06.000Z</time>
        <extensions>
          <ns3:TrackPointExtension/>
        </extensions>
      </trkpt>
      <trkpt lat="44.458465017378330230712890625" lon="-0.37136047147214412689208984375">
        <ele>33.200000762939453125</ele>
        <time>2017-07-03T07:24:07.000Z</time>
        <extensions>
          <ns3:TrackPointExtension/>
        </extensions>
      </trkpt>
      <trkpt lat="44.457881636917591094970703125" lon="-0.37130246870219707489013671875">
        <ele>33</ele>
        <time>2017-07-03T07:24:19.000Z</time>
        <extensions>
          <ns3:TrackPointExtension/>
        </extensions>
      </trkpt>
      <trkpt lat="44.45733756758272647857666015625" lon="-0.37125871516764163970947265625">
        <ele>34.200000762939453125</ele>
        <time>2017-07-03T07:24:29.000Z</time>
        <extensions>
          <ns3:TrackPointExtension/>
        </extensions>
      </trkpt>
      <trkpt lat="44.4570070691406726837158203125" lon="-0.37129794247448444366455078125">
        <ele>35</ele>
        <time>2017-07-03T07:24:35.000Z</time>
        <extensions>
          <ns3:TrackPointExtension/>
        </extensions>
      </trkpt>
      <trkpt lat="44.4565058313310146331787109375" lon="-0.3715991042554378509521484375">
        <ele>34.40000152587890625</ele>
        <time>2017-07-03T07:24:45.000Z</time>
        <extensions>
          <ns3:TrackPointExtension/>
        </extensions>
      </trkpt>
      <trkpt lat="44.45600316859781742095947265625" lon="-0.371951647102832794189453125">
        <ele>33.799999237060546875</ele>
        <time>2017-07-03T07:24:55.000Z</time>
        <extensions>
          <ns3:TrackPointExtension/>
        </extensions>
      </trkpt>
      <trkpt lat="44.4555211253464221954345703125" lon="-0.37229740060865879058837890625">
        <ele>33</ele>
        <time>2017-07-03T07:25:04.000Z</time>
        <extensions>
          <ns3:TrackPointExtension/>
        </extensions>
      </trkpt>
      <trkpt lat="44.45499599911272525787353515625" lon="-0.37268900312483310699462890625">
        <ele>33.59999847412109375</ele>
        <time>2017-07-03T07:25:14.000Z</time>
        <extensions>
          <ns3:TrackPointExtension/>
        </extensions>
      </trkpt>
      <trkpt lat="44.4549025408923625946044921875" lon="-0.3727910108864307403564453125">
        <ele>33.799999237060546875</ele>
        <time>2017-07-03T07:25:16.000Z</time>
        <extensions>
          <ns3:TrackPointExtension/>
        </extensions>
      </trkpt>
      <trkpt lat="44.4547982700169086456298828125" lon="-0.37310088984668254852294921875">
        <ele>33.799999237060546875</ele>
        <time>2017-07-03T07:25:20.000Z</time>
        <extensions>
          <ns3:TrackPointExtension/>
        </extensions>
      </trkpt>
      <trkpt lat="44.45477790199220180511474609375" lon="-0.37331412546336650848388671875">
        <ele>33.59999847412109375</ele>
        <time>2017-07-03T07:25:23.000Z</time>
        <extensions>
          <ns3:TrackPointExtension/>
        </extensions>
      </trkpt>
      <trkpt lat="44.45459081791341304779052734375" lon="-0.3737886250019073486328125">
        <ele>33.799999237060546875</ele>
        <time>2017-07-03T07:25:32.000Z</time>
        <extensions>
          <ns3:TrackPointExtension/>
        </extensions>
      </trkpt>
      <trkpt lat="44.45455863140523433685302734375" lon="-0.37384168244898319244384765625">
        <ele>33.799999237060546875</ele>
        <time>2017-07-03T07:25:34.000Z</time>
        <extensions>
          <ns3:TrackPointExtension/>
        </extensions>
      </trkpt>
      <trkpt lat="44.4545473158359527587890625" lon="-0.374019630253314971923828125">
        <ele>34.200000762939453125</ele>
        <time>2017-07-03T07:25:39.000Z</time>
        <extensions>
          <ns3:TrackPointExtension/>
        </extensions>
      </trkpt>
      <trkpt lat="44.4545159675180912017822265625" lon="-0.3747890889644622802734375">
        <ele>35</ele>
        <time>2017-07-03T07:25:51.000Z</time>
        <extensions>
          <ns3:TrackPointExtension/>
        </extensions>
      </trkpt>
      <trkpt lat="44.4544676877558231353759765625" lon="-0.37554253824055194854736328125">
        <ele>35</ele>
        <time>2017-07-03T07:26:00.000Z</time>
        <extensions>
          <ns3:TrackPointExtension/>
        </extensions>
      </trkpt>
      <trkpt lat="44.4544227607548236846923828125" lon="-0.3762986697256565093994140625">
        <ele>34.200000762939453125</ele>
        <time>2017-07-03T07:26:09.000Z</time>
        <extensions>
          <ns3:TrackPointExtension/>
        </extensions>
      </trkpt>
      <trkpt lat="44.4543885625898838043212890625" lon="-0.3770573996007442474365234375">
        <ele>34.40000152587890625</ele>
        <time>2017-07-03T07:26:21.000Z</time>
        <extensions>
          <ns3:TrackPointExtension/>
        </extensions>
      </trkpt>
      <trkpt lat="44.45437506772577762603759765625" lon="-0.3772169910371303558349609375">
        <ele>34.40000152587890625</ele>
        <time>2017-07-03T07:26:24.000Z</time>
        <extensions>
          <ns3:TrackPointExtension/>
        </extensions>
      </trkpt>
      <trkpt lat="44.45429828949272632598876953125" lon="-0.3779921494424343109130859375">
        <ele>36.200000762939453125</ele>
        <time>2017-07-03T07:26:35.000Z</time>
        <extensions>
          <ns3:TrackPointExtension/>
        </extensions>
      </trkpt>
      <trkpt lat="44.45422838442027568817138671875" lon="-0.37880846299231052398681640625">
        <ele>38.40000152587890625</ele>
        <time>2017-07-03T07:26:45.000Z</time>
        <extensions>
          <ns3:TrackPointExtension/>
        </extensions>
      </trkpt>
      <trkpt lat="44.45415370166301727294921875" lon="-0.37958378903567790985107421875">
        <ele>40.200000762939453125</ele>
        <time>2017-07-03T07:26:54.000Z</time>
        <extensions>
          <ns3:TrackPointExtension/>
        </extensions>
      </trkpt>
      <trkpt lat="44.45406611077487468719482421875" lon="-0.38037403486669063568115234375">
        <ele>40.200000762939453125</ele>
        <time>2017-07-03T07:27:03.000Z</time>
        <extensions>
          <ns3:TrackPointExtension/>
        </extensions>
      </trkpt>
      <trkpt lat="44.45398983545601367950439453125" lon="-0.38112170062959194183349609375">
        <ele>39</ele>
        <time>2017-07-03T07:27:12.000Z</time>
        <extensions>
          <ns3:TrackPointExtension/>
        </extensions>
      </trkpt>
      <trkpt lat="44.45389344356954097747802734375" lon="-0.3819494135677814483642578125">
        <ele>39</ele>
        <time>2017-07-03T07:27:21.000Z</time>
        <extensions>
          <ns3:TrackPointExtension/>
        </extensions>
      </trkpt>
      <trkpt lat="44.4538377039134502410888671875" lon="-0.38275399245321750640869140625">
        <ele>39.200000762939453125</ele>
        <time>2017-07-03T07:27:29.000Z</time>
        <extensions>
          <ns3:TrackPointExtension/>
        </extensions>
      </trkpt>
      <trkpt lat="44.45376805029809474945068359375" lon="-0.38351691327989101409912109375">
        <ele>37.799999237060546875</ele>
        <time>2017-07-03T07:27:37.000Z</time>
        <extensions>
          <ns3:TrackPointExtension/>
        </extensions>
      </trkpt>
      <trkpt lat="44.453696049749851226806640625" lon="-0.38427061401307582855224609375">
        <ele>37</ele>
        <time>2017-07-03T07:27:45.000Z</time>
        <extensions>
          <ns3:TrackPointExtension/>
        </extensions>
      </trkpt>
      <trkpt lat="44.453610889613628387451171875" lon="-0.38504359312355518341064453125">
        <ele>38.40000152587890625</ele>
        <time>2017-07-03T07:27:53.000Z</time>
        <extensions>
          <ns3:TrackPointExtension/>
        </extensions>
      </trkpt>
      <trkpt lat="44.45353754796087741851806640625" lon="-0.38584926165640354156494140625">
        <ele>39.799999237060546875</ele>
        <time>2017-07-03T07:28:01.000Z</time>
        <extensions>
          <ns3:TrackPointExtension/>
        </extensions>
      </trkpt>
      <trkpt lat="44.4534689001739025115966796875" lon="-0.38662844337522983551025390625">
        <ele>39.200000762939453125</ele>
        <time>2017-07-03T07:28:09.000Z</time>
        <extensions>
          <ns3:TrackPointExtension/>
        </extensions>
      </trkpt>
      <trkpt lat="44.45338885299861431121826171875" lon="-0.387438051402568817138671875">
        <ele>38.59999847412109375</ele>
        <time>2017-07-03T07:28:18.000Z</time>
        <extensions>
          <ns3:TrackPointExtension/>
        </extensions>
      </trkpt>
      <trkpt lat="44.45328332483768463134765625" lon="-0.38824933581054210662841796875">
        <ele>41.200000762939453125</ele>
        <time>2017-07-03T07:28:27.000Z</time>
        <extensions>
          <ns3:TrackPointExtension/>
        </extensions>
      </trkpt>
      <trkpt lat="44.45322255603969097137451171875" lon="-0.3890042938292026519775390625">
        <ele>45.799999237060546875</ele>
        <time>2017-07-03T07:28:35.000Z</time>
        <extensions>
          <ns3:TrackPointExtension/>
        </extensions>
      </trkpt>
      <trkpt lat="44.45319204591214656829833984375" lon="-0.38976361043751239776611328125">
        <ele>47.200000762939453125</ele>
        <time>2017-07-03T07:28:43.000Z</time>
        <extensions>
          <ns3:TrackPointExtension/>
        </extensions>
      </trkpt>
      <trkpt lat="44.453195817768573760986328125" lon="-0.39058419875800609588623046875">
        <ele>47</ele>
        <time>2017-07-03T07:28:51.000Z</time>
        <extensions>
          <ns3:TrackPointExtension/>
        </extensions>
      </trkpt>
      <trkpt lat="44.4532218016684055328369140625" lon="-0.3913624584674835205078125">
        <ele>46</ele>
        <time>2017-07-03T07:28:58.000Z</time>
        <extensions>
          <ns3:TrackPointExtension/>
        </extensions>
      </trkpt>
      <trkpt lat="44.4532935507595539093017578125" lon="-0.39215035736560821533203125">
        <ele>43.40000152587890625</ele>
        <time>2017-07-03T07:29:05.000Z</time>
        <extensions>
          <ns3:TrackPointExtension/>
        </extensions>
      </trkpt>
      <trkpt lat="44.4534038566052913665771484375" lon="-0.39293498732149600982666015625">
        <ele>40.200000762939453125</ele>
        <time>2017-07-03T07:29:12.000Z</time>
        <extensions>
          <ns3:TrackPointExtension/>
        </extensions>
      </trkpt>
      <trkpt lat="44.45355950854718685150146484375" lon="-0.39372942410409450531005859375">
        <ele>39.200000762939453125</ele>
        <time>2017-07-03T07:29:19.000Z</time>
        <extensions>
          <ns3:TrackPointExtension/>
        </extensions>
      </trkpt>
      <trkpt lat="44.45372127927839756011962890625" lon="-0.39452520199120044708251953125">
        <ele>37.59999847412109375</ele>
        <time>2017-07-03T07:29:26.000Z</time>
        <extensions>
          <ns3:TrackPointExtension/>
        </extensions>
      </trkpt>
      <trkpt lat="44.45386511273682117462158203125" lon="-0.395263731479644775390625">
        <ele>39.200000762939453125</ele>
        <time>2017-07-03T07:29:33.000Z</time>
        <extensions>
          <ns3:TrackPointExtension/>
        </extensions>
      </trkpt>
      <trkpt lat="44.453987069427967071533203125" lon="-0.39606026373803615570068359375">
        <ele>39.799999237060546875</ele>
        <time>2017-07-03T07:29:41.000Z</time>
        <extensions>
          <ns3:TrackPointExtension/>
        </extensions>
      </trkpt>
      <trkpt lat="44.45405571721494197845458984375" lon="-0.396835841238498687744140625">
        <ele>39.799999237060546875</ele>
        <time>2017-07-03T07:29:49.000Z</time>
        <extensions>
          <ns3:TrackPointExtension/>
        </extensions>
      </trkpt>
      <trkpt lat="44.454070217907428741455078125" lon="-0.39759658277034759521484375">
        <ele>39.40000152587890625</ele>
        <time>2017-07-03T07:29:57.000Z</time>
        <extensions>
          <ns3:TrackPointExtension/>
        </extensions>
      </trkpt>
      <trkpt lat="44.45403560064733028411865234375" lon="-0.3983484394848346710205078125">
        <ele>40.799999237060546875</ele>
        <time>2017-07-03T07:30:05.000Z</time>
        <extensions>
          <ns3:TrackPointExtension/>
        </extensions>
      </trkpt>
      <trkpt lat="44.4539295695722103118896484375" lon="-0.3991329856216907501220703125">
        <ele>43.59999847412109375</ele>
        <time>2017-07-03T07:30:13.000Z</time>
        <extensions>
          <ns3:TrackPointExtension/>
        </extensions>
      </trkpt>
      <trkpt lat="44.4537641108036041259765625" lon="-0.39992867968976497650146484375">
        <ele>46.59999847412109375</ele>
        <time>2017-07-03T07:30:21.000Z</time>
        <extensions>
          <ns3:TrackPointExtension/>
        </extensions>
      </trkpt>
      <trkpt lat="44.45359789766371250152587890625" lon="-0.4006933607161045074462890625">
        <ele>48.200000762939453125</ele>
        <time>2017-07-03T07:30:29.000Z</time>
        <extensions>
          <ns3:TrackPointExtension/>
        </extensions>
      </trkpt>
      <trkpt lat="44.453438557684421539306640625" lon="-0.40145167149603366851806640625">
        <ele>48.40000152587890625</ele>
        <time>2017-07-03T07:30:37.000Z</time>
        <extensions>
          <ns3:TrackPointExtension/>
        </extensions>
      </trkpt>
      <trkpt lat="44.4532737694680690765380859375" lon="-0.40221937000751495361328125">
        <ele>48.40000152587890625</ele>
        <time>2017-07-03T07:30:45.000Z</time>
        <extensions>
          <ns3:TrackPointExtension/>
        </extensions>
      </trkpt>
      <trkpt lat="44.4531074725091457366943359375" lon="-0.4029910080134868621826171875">
        <ele>48.59999847412109375</ele>
        <time>2017-07-03T07:30:53.000Z</time>
        <extensions>
          <ns3:TrackPointExtension/>
        </extensions>
      </trkpt>
      <trkpt lat="44.4529441930353641510009765625" lon="-0.403750240802764892578125">
        <ele>46.200000762939453125</ele>
        <time>2017-07-03T07:31:01.000Z</time>
        <extensions>
          <ns3:TrackPointExtension/>
        </extensions>
      </trkpt>
      <trkpt lat="44.45279373787343502044677734375" lon="-0.40447670035064220428466796875">
        <ele>45.799999237060546875</ele>
        <time>2017-07-03T07:31:09.000Z</time>
        <extensions>
          <ns3:TrackPointExtension/>
        </extensions>
      </trkpt>
      <trkpt lat="44.4526303745806217193603515625" lon="-0.405233837664127349853515625">
        <ele>45</ele>
        <time>2017-07-03T07:31:17.000Z</time>
        <extensions>
          <ns3:TrackPointExtension/>
        </extensions>
      </trkpt>
      <trkpt lat="44.45246952585875988006591796875" lon="-0.406008660793304443359375">
        <ele>45</ele>
        <time>2017-07-03T07:31:25.000Z</time>
        <extensions>
          <ns3:TrackPointExtension/>
        </extensions>
      </trkpt>
      <trkpt lat="44.4523018039762973785400390625" lon="-0.40677233599126338958740234375">
        <ele>46.59999847412109375</ele>
        <time>2017-07-03T07:31:33.000Z</time>
        <extensions>
          <ns3:TrackPointExtension/>
        </extensions>
      </trkpt>
      <trkpt lat="44.452142380177974700927734375" lon="-0.40753006003797054290771484375">
        <ele>47.799999237060546875</ele>
        <time>2017-07-03T07:31:41.000Z</time>
        <extensions>
          <ns3:TrackPointExtension/>
        </extensions>
      </trkpt>
      <trkpt lat="44.45197465829551219940185546875" lon="-0.40829063393175601959228515625">
        <ele>47.200000762939453125</ele>
        <time>2017-07-03T07:31:49.000Z</time>
        <extensions>
          <ns3:TrackPointExtension/>
        </extensions>
      </trkpt>
      <trkpt lat="44.451809786260128021240234375" lon="-0.4090719111263751983642578125">
        <ele>43.40000152587890625</ele>
        <time>2017-07-03T07:31:57.000Z</time>
        <extensions>
          <ns3:TrackPointExtension/>
        </extensions>
      </trkpt>
      <trkpt lat="44.45164776407182216644287109375" lon="-0.40980977006256580352783203125">
        <ele>41.200000762939453125</ele>
        <time>2017-07-03T07:32:05.000Z</time>
        <extensions>
          <ns3:TrackPointExtension/>
        </extensions>
      </trkpt>
      <trkpt lat="44.451478533446788787841796875" lon="-0.4105488024652004241943359375">
        <ele>40.59999847412109375</ele>
        <time>2017-07-03T07:32:13.000Z</time>
        <extensions>
          <ns3:TrackPointExtension/>
        </extensions>
      </trkpt>
      <trkpt lat="44.45131902582943439483642578125" lon="-0.41129638440907001495361328125">
        <ele>41.59999847412109375</ele>
        <time>2017-07-03T07:32:21.000Z</time>
        <extensions>
          <ns3:TrackPointExtension/>
        </extensions>
      </trkpt>
      <trkpt lat="44.45115943439304828643798828125" lon="-0.4120434634387493133544921875">
        <ele>42.799999237060546875</ele>
        <time>2017-07-03T07:32:29.000Z</time>
        <extensions>
          <ns3:TrackPointExtension/>
        </extensions>
      </trkpt>
      <trkpt lat="44.4509992562234401702880859375" lon="-0.412782914936542510986328125">
        <ele>42.799999237060546875</ele>
        <time>2017-07-03T07:32:37.000Z</time>
        <extensions>
          <ns3:TrackPointExtension/>
        </extensions>
      </trkpt>
      <trkpt lat="44.450841844081878662109375" lon="-0.41352848522365093231201171875">
        <ele>43.40000152587890625</ele>
        <time>2017-07-03T07:32:45.000Z</time>
        <extensions>
          <ns3:TrackPointExtension/>
        </extensions>
      </trkpt>
      <trkpt lat="44.450665824115276336669921875" lon="-0.41433817707002162933349609375">
        <ele>44.200000762939453125</ele>
        <time>2017-07-03T07:32:54.000Z</time>
        <extensions>
          <ns3:TrackPointExtension/>
        </extensions>
      </trkpt>
      <trkpt lat="44.4505010358989238739013671875" lon="-0.415097661316394805908203125">
        <ele>45</ele>
        <time>2017-07-03T07:33:02.000Z</time>
        <extensions>
          <ns3:TrackPointExtension/>
        </extensions>
      </trkpt>
      <trkpt lat="44.45032484829425811767578125" lon="-0.41586779057979583740234375">
        <ele>45</ele>
        <time>2017-07-03T07:33:10.000Z</time>
        <extensions>
          <ns3:TrackPointExtension/>
        </extensions>
      </trkpt>
      <trkpt lat="44.45013650692999362945556640625" lon="-0.41663297452032566070556640625">
        <ele>45</ele>
        <time>2017-07-03T07:33:18.000Z</time>
        <extensions>
          <ns3:TrackPointExtension/>
        </extensions>
      </trkpt>
      <trkpt lat="44.44991069845855236053466796875" lon="-0.41737292893230915069580078125">
        <ele>46.40000152587890625</ele>
        <time>2017-07-03T07:33:26.000Z</time>
        <extensions>
          <ns3:TrackPointExtension/>
        </extensions>
      </trkpt>
      <trkpt lat="44.4496762566268444061279296875" lon="-0.41810802184045314788818359375">
        <ele>47.200000762939453125</ele>
        <time>2017-07-03T07:33:34.000Z</time>
        <extensions>
          <ns3:TrackPointExtension/>
        </extensions>
      </trkpt>
      <trkpt lat="44.4494377076625823974609375" lon="-0.41880019940435886383056640625">
        <ele>47</ele>
        <time>2017-07-03T07:33:42.000Z</time>
        <extensions>
          <ns3:TrackPointExtension/>
        </extensions>
      </trkpt>
      <trkpt lat="44.44917812012135982513427734375" lon="-0.41947695426642894744873046875">
        <ele>45.799999237060546875</ele>
        <time>2017-07-03T07:33:50.000Z</time>
        <extensions>
          <ns3:TrackPointExtension/>
        </extensions>
      </trkpt>
      <trkpt lat="44.4488866813480854034423828125" lon="-0.42021699249744415283203125">
        <ele>46.40000152587890625</ele>
        <time>2017-07-03T07:33:59.000Z</time>
        <extensions>
          <ns3:TrackPointExtension/>
        </extensions>
      </trkpt>
      <trkpt lat="44.44859675131738185882568359375" lon="-0.4209661670029163360595703125">
        <ele>49.40000152587890625</ele>
        <time>2017-07-03T07:34:08.000Z</time>
        <extensions>
          <ns3:TrackPointExtension/>
        </extensions>
      </trkpt>
      <trkpt lat="44.4483321346342563629150390625" lon="-0.421643592417240142822265625">
        <ele>51</ele>
        <time>2017-07-03T07:34:16.000Z</time>
        <extensions>
          <ns3:TrackPointExtension/>
        </extensions>
      </trkpt>
      <trkpt lat="44.448068439960479736328125" lon="-0.422324873507022857666015625">
        <ele>50</ele>
        <time>2017-07-03T07:34:24.000Z</time>
        <extensions>
          <ns3:TrackPointExtension/>
        </extensions>
      </trkpt>
      <trkpt lat="44.4478084333240985870361328125" lon="-0.42300087399780750274658203125">
        <ele>50</ele>
        <time>2017-07-03T07:34:32.000Z</time>
        <extensions>
          <ns3:TrackPointExtension/>
        </extensions>
      </trkpt>
      <trkpt lat="44.44752168841660022735595703125" lon="-0.42373127304017543792724609375">
        <ele>48.799999237060546875</ele>
        <time>2017-07-03T07:34:41.000Z</time>
        <extensions>
          <ns3:TrackPointExtension/>
        </extensions>
      </trkpt>
      <trkpt lat="44.44723670370876789093017578125" lon="-0.42444339953362941741943359375">
        <ele>47</ele>
        <time>2017-07-03T07:34:50.000Z</time>
        <extensions>
          <ns3:TrackPointExtension/>
        </extensions>
      </trkpt>
      <trkpt lat="44.44696596823632717132568359375" lon="-0.425151921808719635009765625">
        <ele>47.799999237060546875</ele>
        <time>2017-07-03T07:34:59.000Z</time>
        <extensions>
          <ns3:TrackPointExtension/>
        </extensions>
      </trkpt>
      <trkpt lat="44.44668115116655826568603515625" lon="-0.4258769564330577850341796875">
        <ele>48.200000762939453125</ele>
        <time>2017-07-03T07:35:08.000Z</time>
        <extensions>
          <ns3:TrackPointExtension/>
        </extensions>
      </trkpt>
      <trkpt lat="44.4464190490543842315673828125" lon="-0.42654692195355892181396484375">
        <ele>47.799999237060546875</ele>
        <time>2017-07-03T07:35:16.000Z</time>
        <extensions>
          <ns3:TrackPointExtension/>
        </extensions>
      </trkpt>
      <trkpt lat="44.44614755921065807342529296875" lon="-0.4272358305752277374267578125">
        <ele>48</ele>
        <time>2017-07-03T07:35:24.000Z</time>
        <extensions>
          <ns3:TrackPointExtension/>
        </extensions>
      </trkpt>
      <trkpt lat="44.44587481208145618438720703125" lon="-0.42793504893779754638671875">
        <ele>48.59999847412109375</ele>
        <time>2017-07-03T07:35:32.000Z</time>
        <extensions>
          <ns3:TrackPointExtension/>
        </extensions>
      </trkpt>
      <trkpt lat="44.44559686817228794097900390625" lon="-0.4286392964422702789306640625">
        <ele>49.59999847412109375</ele>
        <time>2017-07-03T07:35:40.000Z</time>
        <extensions>
          <ns3:TrackPointExtension/>
        </extensions>
      </trkpt>
      <trkpt lat="44.445341639220714569091796875" lon="-0.42933046817779541015625">
        <ele>50.59999847412109375</ele>
        <time>2017-07-03T07:35:48.000Z</time>
        <extensions>
          <ns3:TrackPointExtension/>
        </extensions>
      </trkpt>
      <trkpt lat="44.4450722448527812957763671875" lon="-0.43002155609428882598876953125">
        <ele>51.40000152587890625</ele>
        <time>2017-07-03T07:35:56.000Z</time>
        <extensions>
          <ns3:TrackPointExtension/>
        </extensions>
      </trkpt>
      <trkpt lat="44.44479639641940593719482421875" lon="-0.4307337664067745208740234375">
        <ele>51.59999847412109375</ele>
        <time>2017-07-03T07:36:04.000Z</time>
        <extensions>
          <ns3:TrackPointExtension/>
        </extensions>
      </trkpt>
      <trkpt lat="44.444515518844127655029296875" lon="-0.43144111521542072296142578125">
        <ele>52</ele>
        <time>2017-07-03T07:36:12.000Z</time>
        <extensions>
          <ns3:TrackPointExtension/>
        </extensions>
      </trkpt>
      <trkpt lat="44.4442481361329555511474609375" lon="-0.43213144876062870025634765625">
        <ele>52.799999237060546875</ele>
        <time>2017-07-03T07:36:20.000Z</time>
        <extensions>
          <ns3:TrackPointExtension/>
        </extensions>
      </trkpt>
      <trkpt lat="44.4439849443733692169189453125" lon="-0.432803593575954437255859375">
        <ele>54.200000762939453125</ele>
        <time>2017-07-03T07:36:28.000Z</time>
        <extensions>
          <ns3:TrackPointExtension/>
        </extensions>
      </trkpt>
      <trkpt lat="44.4437180645763874053955078125" lon="-0.43348864652216434478759765625">
        <ele>55.59999847412109375</ele>
        <time>2017-07-03T07:36:36.000Z</time>
        <extensions>
          <ns3:TrackPointExtension/>
        </extensions>
      </trkpt>
      <trkpt lat="44.44345629774034023284912109375" lon="-0.4341519065201282501220703125">
        <ele>56</ele>
        <time>2017-07-03T07:36:44.000Z</time>
        <extensions>
          <ns3:TrackPointExtension/>
        </extensions>
      </trkpt>
      <trkpt lat="44.44317315705120563507080078125" lon="-0.43487585149705410003662109375">
        <ele>56.200000762939453125</ele>
        <time>2017-07-03T07:36:53.000Z</time>
        <extensions>
          <ns3:TrackPointExtension/>
        </extensions>
      </trkpt>
      <trkpt lat="44.4428916089236736297607421875" lon="-0.43560356833040714263916015625">
        <ele>56.40000152587890625</ele>
        <time>2017-07-03T07:37:02.000Z</time>
        <extensions>
          <ns3:TrackPointExtension/>
        </extensions>
      </trkpt>
      <trkpt lat="44.44261877797544002532958984375" lon="-0.43631603009998798370361328125">
        <ele>55.799999237060546875</ele>
        <time>2017-07-03T07:37:11.000Z</time>
        <extensions>
          <ns3:TrackPointExtension/>
        </extensions>
      </trkpt>
      <trkpt lat="44.44233899004757404327392578125" lon="-0.43701390735805034637451171875">
        <ele>54.200000762939453125</ele>
        <time>2017-07-03T07:37:20.000Z</time>
        <extensions>
          <ns3:TrackPointExtension/>
        </extensions>
      </trkpt>
      <trkpt lat="44.442068003118038177490234375" lon="-0.43770901858806610107421875">
        <ele>55.40000152587890625</ele>
        <time>2017-07-03T07:37:29.000Z</time>
        <extensions>
          <ns3:TrackPointExtension/>
        </extensions>
      </trkpt>
      <trkpt lat="44.44180623628199100494384765625" lon="-0.43839298188686370849609375">
        <ele>57.40000152587890625</ele>
        <time>2017-07-03T07:37:38.000Z</time>
        <extensions>
          <ns3:TrackPointExtension/>
        </extensions>
      </trkpt>
      <trkpt lat="44.44155075587332248687744140625" lon="-0.43904953636229038238525390625">
        <ele>58.59999847412109375</ele>
        <time>2017-07-03T07:37:47.000Z</time>
        <extensions>
          <ns3:TrackPointExtension/>
        </extensions>
      </trkpt>
      <trkpt lat="44.4412650167942047119140625" lon="-0.4397583939135074615478515625">
        <ele>57.40000152587890625</ele>
        <time>2017-07-03T07:37:56.000Z</time>
        <extensions>
          <ns3:TrackPointExtension/>
        </extensions>
      </trkpt>
      <trkpt lat="44.44101783446967601776123046875" lon="-0.44044026173651218414306640625">
        <ele>56.40000152587890625</ele>
        <time>2017-07-03T07:38:04.000Z</time>
        <extensions>
          <ns3:TrackPointExtension/>
        </extensions>
      </trkpt>
      <trkpt lat="44.44075514562427997589111328125" lon="-0.4411256499588489532470703125">
        <ele>56.40000152587890625</ele>
        <time>2017-07-03T07:38:12.000Z</time>
        <extensions>
          <ns3:TrackPointExtension/>
        </extensions>
      </trkpt>
      <trkpt lat="44.440481476485729217529296875" lon="-0.44181019999086856842041015625">
        <ele>56.200000762939453125</ele>
        <time>2017-07-03T07:38:20.000Z</time>
        <extensions>
          <ns3:TrackPointExtension/>
        </extensions>
      </trkpt>
      <trkpt lat="44.440215937793254852294921875" lon="-0.44248276390135288238525390625">
        <ele>56.59999847412109375</ele>
        <time>2017-07-03T07:38:28.000Z</time>
        <extensions>
          <ns3:TrackPointExtension/>
        </extensions>
      </trkpt>
      <trkpt lat="44.43995752371847629547119140625" lon="-0.44314644299447536468505859375">
        <ele>56.799999237060546875</ele>
        <time>2017-07-03T07:38:36.000Z</time>
        <extensions>
          <ns3:TrackPointExtension/>
        </extensions>
      </trkpt>
      <trkpt lat="44.43968913517892360687255859375" lon="-0.4438621737062931060791015625">
        <ele>55.799999237060546875</ele>
        <time>2017-07-03T07:38:45.000Z</time>
        <extensions>
          <ns3:TrackPointExtension/>
        </extensions>
      </trkpt>
      <trkpt lat="44.43942409940063953399658203125" lon="-0.44453767128288745880126953125">
        <ele>55.59999847412109375</ele>
        <time>2017-07-03T07:38:53.000Z</time>
        <extensions>
          <ns3:TrackPointExtension/>
        </extensions>
      </trkpt>
      <trkpt lat="44.43911681883037090301513671875" lon="-0.44526203535497188568115234375">
        <ele>55.200000762939453125</ele>
        <time>2017-07-03T07:39:02.000Z</time>
        <extensions>
          <ns3:TrackPointExtension/>
        </extensions>
      </trkpt>
      <trkpt lat="44.438840635120868682861328125" lon="-0.44598757289350032806396484375">
        <ele>54.40000152587890625</ele>
        <time>2017-07-03T07:39:11.000Z</time>
        <extensions>
          <ns3:TrackPointExtension/>
        </extensions>
      </trkpt>
      <trkpt lat="44.438559003174304962158203125" lon="-0.44672015123069286346435546875">
        <ele>54.799999237060546875</ele>
        <time>2017-07-03T07:39:20.000Z</time>
        <extensions>
          <ns3:TrackPointExtension/>
        </extensions>
      </trkpt>
      <trkpt lat="44.4382882677018642425537109375" lon="-0.44746161438524723052978515625">
        <ele>55.40000152587890625</ele>
        <time>2017-07-03T07:39:29.000Z</time>
        <extensions>
          <ns3:TrackPointExtension/>
        </extensions>
      </trkpt>
      <trkpt lat="44.43800889886915683746337890625" lon="-0.44818715192377567291259765625">
        <ele>57</ele>
        <time>2017-07-03T07:39:37.000Z</time>
        <extensions>
          <ns3:TrackPointExtension/>
        </extensions>
      </trkpt>
      <trkpt lat="44.437744282186031341552734375" lon="-0.44885954819619655609130859375">
        <ele>60.200000762939453125</ele>
        <time>2017-07-03T07:39:45.000Z</time>
        <extensions>
          <ns3:TrackPointExtension/>
        </extensions>
      </trkpt>
      <trkpt lat="44.43747614510357379913330078125" lon="-0.449552647769451141357421875">
        <ele>62.59999847412109375</ele>
        <time>2017-07-03T07:39:53.000Z</time>
        <extensions>
          <ns3:TrackPointExtension/>
        </extensions>
      </trkpt>
      <trkpt lat="44.4372066669166088104248046875" lon="-0.45025111176073551177978515625">
        <ele>62.200000762939453125</ele>
        <time>2017-07-03T07:40:01.000Z</time>
        <extensions>
          <ns3:TrackPointExtension/>
        </extensions>
      </trkpt>
      <trkpt lat="44.4369439780712127685546875" lon="-0.4509354941546916961669921875">
        <ele>61</ele>
        <time>2017-07-03T07:40:09.000Z</time>
        <extensions>
          <ns3:TrackPointExtension/>
        </extensions>
      </trkpt>
      <trkpt lat="44.436677433550357818603515625" lon="-0.4516013525426387786865234375">
        <ele>61.799999237060546875</ele>
        <time>2017-07-03T07:40:17.000Z</time>
        <extensions>
          <ns3:TrackPointExtension/>
        </extensions>
      </trkpt>
      <trkpt lat="44.43640946410596370697021484375" lon="-0.45228146016597747802734375">
        <ele>63.200000762939453125</ele>
        <time>2017-07-03T07:40:25.000Z</time>
        <extensions>
          <ns3:TrackPointExtension/>
        </extensions>
      </trkpt>
      <trkpt lat="44.4361285865306854248046875" lon="-0.45297824777662754058837890625">
        <ele>61</ele>
        <time>2017-07-03T07:40:33.000Z</time>
        <extensions>
          <ns3:TrackPointExtension/>
        </extensions>
      </trkpt>
      <trkpt lat="44.43585122935473918914794921875" lon="-0.45369858853518962860107421875">
        <ele>59.200000762939453125</ele>
        <time>2017-07-03T07:40:41.000Z</time>
        <extensions>
          <ns3:TrackPointExtension/>
        </extensions>
      </trkpt>
      <trkpt lat="44.43557445891201496124267578125" lon="-0.4544173367321491241455078125">
        <ele>58</ele>
        <time>2017-07-03T07:40:49.000Z</time>
        <extensions>
          <ns3:TrackPointExtension/>
        </extensions>
      </trkpt>
      <trkpt lat="44.43528436124324798583984375" lon="-0.4551603086292743682861328125">
        <ele>57.59999847412109375</ele>
        <time>2017-07-03T07:40:57.000Z</time>
        <extensions>
          <ns3:TrackPointExtension/>
        </extensions>
      </trkpt>
      <trkpt lat="44.4350018911063671112060546875" lon="-0.45588475652039051055908203125">
        <ele>58</ele>
        <time>2017-07-03T07:41:05.000Z</time>
        <extensions>
          <ns3:TrackPointExtension/>
        </extensions>
      </trkpt>
      <trkpt lat="44.43474247120320796966552734375" lon="-0.45655296184122562408447265625">
        <ele>58.59999847412109375</ele>
        <time>2017-07-03T07:41:12.000Z</time>
        <extensions>
          <ns3:TrackPointExtension/>
        </extensions>
      </trkpt>
      <trkpt lat="44.43445262499153614044189453125" lon="-0.457307584583759307861328125">
        <ele>58.59999847412109375</ele>
        <time>2017-07-03T07:41:20.000Z</time>
        <extensions>
          <ns3:TrackPointExtension/>
        </extensions>
      </trkpt>
      <trkpt lat="44.43415959365665912628173828125" lon="-0.45805089175701141357421875">
        <ele>58</ele>
        <time>2017-07-03T07:41:28.000Z</time>
        <extensions>
          <ns3:TrackPointExtension/>
        </extensions>
      </trkpt>
      <trkpt lat="44.43386555649340152740478515625" lon="-0.45876746065914630889892578125">
        <ele>58.799999237060546875</ele>
        <time>2017-07-03T07:41:36.000Z</time>
        <extensions>
          <ns3:TrackPointExtension/>
        </extensions>
      </trkpt>
      <trkpt lat="44.43359649740159511566162109375" lon="-0.459488220512866973876953125">
        <ele>59.59999847412109375</ele>
        <time>2017-07-03T07:41:44.000Z</time>
        <extensions>
          <ns3:TrackPointExtension/>
        </extensions>
      </trkpt>
      <trkpt lat="44.433306567370891571044921875" lon="-0.46022138558328151702880859375">
        <ele>58</ele>
        <time>2017-07-03T07:41:52.000Z</time>
        <extensions>
          <ns3:TrackPointExtension/>
        </extensions>
      </trkpt>
      <trkpt lat="44.43303801119327545166015625" lon="-0.4609247110784053802490234375">
        <ele>55.799999237060546875</ele>
        <time>2017-07-03T07:42:00.000Z</time>
        <extensions>
          <ns3:TrackPointExtension/>
        </extensions>
      </trkpt>
      <trkpt lat="44.43277892656624317169189453125" lon="-0.4616103507578372955322265625">
        <ele>55</ele>
        <time>2017-07-03T07:42:08.000Z</time>
        <extensions>
          <ns3:TrackPointExtension/>
        </extensions>
      </trkpt>
      <trkpt lat="44.43250835873186588287353515625" lon="-0.4622862674295902252197265625">
        <ele>57</ele>
        <time>2017-07-03T07:42:16.000Z</time>
        <extensions>
          <ns3:TrackPointExtension/>
        </extensions>
      </trkpt>
      <trkpt lat="44.43223075009882450103759765625" lon="-0.4629913531243801116943359375">
        <ele>62</ele>
        <time>2017-07-03T07:42:24.000Z</time>
        <extensions>
          <ns3:TrackPointExtension/>
        </extensions>
      </trkpt>
      <trkpt lat="44.43196378648281097412109375" lon="-0.46366265974938869476318359375">
        <ele>61.200000762939453125</ele>
        <time>2017-07-03T07:42:32.000Z</time>
        <extensions>
          <ns3:TrackPointExtension/>
        </extensions>
      </trkpt>
      <trkpt lat="44.43171702325344085693359375" lon="-0.4644028656184673309326171875">
        <ele>60.59999847412109375</ele>
        <time>2017-07-03T07:42:41.000Z</time>
        <extensions>
          <ns3:TrackPointExtension/>
        </extensions>
      </trkpt>
      <trkpt lat="44.431502111256122589111328125" lon="-0.46516737900674343109130859375">
        <ele>57.799999237060546875</ele>
        <time>2017-07-03T07:42:51.000Z</time>
        <extensions>
          <ns3:TrackPointExtension/>
        </extensions>
      </trkpt>
      <trkpt lat="44.4313837587833404541015625" lon="-0.46580457128584384918212890625">
        <ele>57.200000762939453125</ele>
        <time>2017-07-03T07:43:01.000Z</time>
        <extensions>
          <ns3:TrackPointExtension/>
        </extensions>
      </trkpt>
      <trkpt lat="44.43122006021440029144287109375" lon="-0.46655022539198398590087890625">
        <ele>57</ele>
        <time>2017-07-03T07:43:12.000Z</time>
        <extensions>
          <ns3:TrackPointExtension/>
        </extensions>
      </trkpt>
      <trkpt lat="44.431101121008396148681640625" lon="-0.46731314621865749359130859375">
        <ele>57.200000762939453125</ele>
        <time>2017-07-03T07:43:22.000Z</time>
        <extensions>
          <ns3:TrackPointExtension/>
        </extensions>
      </trkpt>
      <trkpt lat="44.43097245879471302032470703125" lon="-0.46808327548205852508544921875">
        <ele>57.59999847412109375</ele>
        <time>2017-07-03T07:43:31.000Z</time>
        <extensions>
          <ns3:TrackPointExtension/>
        </extensions>
      </trkpt>
      <trkpt lat="44.43085335195064544677734375" lon="-0.46885290183126926422119140625">
        <ele>61</ele>
        <time>2017-07-03T07:43:40.000Z</time>
        <extensions>
          <ns3:TrackPointExtension/>
        </extensions>
      </trkpt>
      <trkpt lat="44.4307418726384639739990234375" lon="-0.4696388728916645050048828125">
        <ele>62</ele>
        <time>2017-07-03T07:43:49.000Z</time>
        <extensions>
          <ns3:TrackPointExtension/>
        </extensions>
      </trkpt>
      <trkpt lat="44.43062762729823589324951171875" lon="-0.4704069904983043670654296875">
        <ele>63.200000762939453125</ele>
        <time>2017-07-03T07:43:58.000Z</time>
        <extensions>
          <ns3:TrackPointExtension/>
        </extensions>
      </trkpt>
      <trkpt lat="44.43058152683079242706298828125" lon="-0.47066959552466869354248046875">
        <ele>63.200000762939453125</ele>
        <time>2017-07-03T07:44:01.000Z</time>
        <extensions>
          <ns3:TrackPointExtension/>
        </extensions>
      </trkpt>
      <trkpt lat="44.4304575584828853607177734375" lon="-0.47150216996669769287109375">
        <ele>64.8000030517578125</ele>
        <time>2017-07-03T07:44:10.000Z</time>
        <extensions>
          <ns3:TrackPointExtension/>
        </extensions>
      </trkpt>
      <trkpt lat="44.43034213967621326446533203125" lon="-0.4723049886524677276611328125">
        <ele>67</ele>
        <time>2017-07-03T07:44:19.000Z</time>
        <extensions>
          <ns3:TrackPointExtension/>
        </extensions>
      </trkpt>
      <trkpt lat="44.4302097894251346588134765625" lon="-0.473060868680477142333984375">
        <ele>66.59999847412109375</ele>
        <time>2017-07-03T07:44:28.000Z</time>
        <extensions>
          <ns3:TrackPointExtension/>
        </extensions>
      </trkpt>
      <trkpt lat="44.43009286187589168548583984375" lon="-0.47388221137225627899169921875">
        <ele>63.799999237060546875</ele>
        <time>2017-07-03T07:44:37.000Z</time>
        <extensions>
          <ns3:TrackPointExtension/>
        </extensions>
      </trkpt>
      <trkpt lat="44.42998339422047138214111328125" lon="-0.47468637116253376007080078125">
        <ele>59.799999237060546875</ele>
        <time>2017-07-03T07:44:46.000Z</time>
        <extensions>
          <ns3:TrackPointExtension/>
        </extensions>
      </trkpt>
      <trkpt lat="44.42985028959810733795166015625" lon="-0.4754820652306079864501953125">
        <ele>61.200000762939453125</ele>
        <time>2017-07-03T07:44:55.000Z</time>
        <extensions>
          <ns3:TrackPointExtension/>
        </extensions>
      </trkpt>
      <trkpt lat="44.4297380559146404266357421875" lon="-0.4763085208833217620849609375">
        <ele>63.799999237060546875</ele>
        <time>2017-07-03T07:45:04.000Z</time>
        <extensions>
          <ns3:TrackPointExtension/>
        </extensions>
      </trkpt>
      <trkpt lat="44.42964258603751659393310546875" lon="-0.477082841098308563232421875">
        <ele>64.40000152587890625</ele>
        <time>2017-07-03T07:45:12.000Z</time>
        <extensions>
          <ns3:TrackPointExtension/>
        </extensions>
      </trkpt>
      <trkpt lat="44.4295164383947849273681640625" lon="-0.47790301032364368438720703125">
        <ele>64</ele>
        <time>2017-07-03T07:45:21.000Z</time>
        <extensions>
          <ns3:TrackPointExtension/>
        </extensions>
      </trkpt>
      <trkpt lat="44.4294031150639057159423828125" lon="-0.47869996167719364166259765625">
        <ele>61.200000762939453125</ele>
        <time>2017-07-03T07:45:30.000Z</time>
        <extensions>
          <ns3:TrackPointExtension/>
        </extensions>
      </trkpt>
      <trkpt lat="44.4292874448001384735107421875" lon="-0.47950713895261287689208984375">
        <ele>61.59999847412109375</ele>
        <time>2017-07-03T07:45:39.000Z</time>
        <extensions>
          <ns3:TrackPointExtension/>
        </extensions>
      </trkpt>
      <trkpt lat="44.42916129715740680694580078125" lon="-0.48028766177594661712646484375">
        <ele>62.200000762939453125</ele>
        <time>2017-07-03T07:45:48.000Z</time>
        <extensions>
          <ns3:TrackPointExtension/>
        </extensions>
      </trkpt>
      <trkpt lat="44.4290976785123348236083984375" lon="-0.4806832037866115570068359375">
        <ele>62</ele>
        <time>2017-07-03T07:45:53.000Z</time>
        <extensions>
          <ns3:TrackPointExtension/>
        </extensions>
      </trkpt>
      <trkpt lat="44.4289568625390529632568359375" lon="-0.48144235275685787200927734375">
        <ele>60.59999847412109375</ele>
        <time>2017-07-03T07:46:04.000Z</time>
        <extensions>
          <ns3:TrackPointExtension/>
        </extensions>
      </trkpt>
      <trkpt lat="44.428936578333377838134765625" lon="-0.48157126642763614654541015625">
        <ele>60.200000762939453125</ele>
        <time>2017-07-03T07:46:06.000Z</time>
        <extensions>
          <ns3:TrackPointExtension/>
        </extensions>
      </trkpt>
      <trkpt lat="44.42869484424591064453125" lon="-0.48226126469671726226806640625">
        <ele>58.799999237060546875</ele>
        <time>2017-07-03T07:46:21.000Z</time>
        <extensions>
          <ns3:TrackPointExtension/>
        </extensions>
      </trkpt>
      <trkpt lat="44.42870666272938251495361328125" lon="-0.48231549561023712158203125">
        <ele>58.799999237060546875</ele>
        <time>2017-07-03T07:46:23.000Z</time>
        <extensions>
          <ns3:TrackPointExtension/>
        </extensions>
      </trkpt>
      <trkpt lat="44.42876064218580722808837890625" lon="-0.4823589138686656951904296875">
        <ele>58.59999847412109375</ele>
        <time>2017-07-03T07:46:27.000Z</time>
        <extensions>
          <ns3:TrackPointExtension/>
        </extensions>
      </trkpt>
      <trkpt lat="44.42876215092837810516357421875" lon="-0.48235975205898284912109375">
        <ele>58.59999847412109375</ele>
        <time>2017-07-03T07:46:29.000Z</time>
        <extensions>
          <ns3:TrackPointExtension/>
        </extensions>
      </trkpt>
      <trkpt lat="44.42881260998547077178955078125" lon="-0.48230501823127269744873046875">
        <ele>58.59999847412109375</ele>
        <time>2017-07-03T07:52:00.000Z</time>
        <extensions>
          <ns3:TrackPointExtension/>
        </extensions>
      </trkpt>
      <trkpt lat="44.42888570018112659454345703125" lon="-0.48218113370239734649658203125">
        <ele>58.799999237060546875</ele>
        <time>2017-07-03T07:52:06.000Z</time>
        <extensions>
          <ns3:TrackPointExtension/>
        </extensions>
      </trkpt>
      <trkpt lat="44.42926271818578243255615234375" lon="-0.48161602579057216644287109375">
        <ele>59</ele>
        <time>2017-07-03T07:52:25.000Z</time>
        <extensions>
          <ns3:TrackPointExtension/>
        </extensions>
      </trkpt>
      <trkpt lat="44.42929373122751712799072265625" lon="-0.48160932026803493499755859375">
        <ele>58.799999237060546875</ele>
        <time>2017-07-03T07:52:27.000Z</time>
        <extensions>
          <ns3:TrackPointExtension/>
        </extensions>
      </trkpt>
      <trkpt lat="44.42929926328361034393310546875" lon="-0.481614768505096435546875">
        <ele>58.799999237060546875</ele>
        <time>2017-07-03T07:52:29.000Z</time>
        <extensions>
          <ns3:TrackPointExtension/>
        </extensions>
      </trkpt>
      <trkpt lat="44.42933329381048679351806640625" lon="-0.48163346014916896820068359375">
        <ele>58.799999237060546875</ele>
        <time>2017-07-03T07:52:32.000Z</time>
        <extensions>
          <ns3:TrackPointExtension/>
        </extensions>
      </trkpt>
      <trkpt lat="44.42936162464320659637451171875" lon="-0.4817936383187770843505859375">
        <ele>58.59999847412109375</ele>
        <time>2017-07-03T07:52:37.000Z</time>
        <extensions>
          <ns3:TrackPointExtension/>
        </extensions>
      </trkpt>
      <trkpt lat="44.42924863658845424652099609375" lon="-0.48256033100187778472900390625">
        <ele>58.200000762939453125</ele>
        <time>2017-07-03T07:52:51.000Z</time>
        <extensions>
          <ns3:TrackPointExtension/>
        </extensions>
      </trkpt>
      <trkpt lat="44.42912274040281772613525390625" lon="-0.48333607614040374755859375">
        <ele>58.59999847412109375</ele>
        <time>2017-07-03T07:53:02.000Z</time>
        <extensions>
          <ns3:TrackPointExtension/>
        </extensions>
      </trkpt>
      <trkpt lat="44.42906674928963184356689453125" lon="-0.4841281659901142120361328125">
        <ele>58.59999847412109375</ele>
        <time>2017-07-03T07:53:15.000Z</time>
        <extensions>
          <ns3:TrackPointExtension/>
        </extensions>
      </trkpt>
      <trkpt lat="44.4287768192589282989501953125" lon="-0.48393110744655132293701171875">
        <ele>58.200000762939453125</ele>
        <time>2017-07-03T07:53:27.000Z</time>
        <extensions>
          <ns3:TrackPointExtension/>
        </extensions>
      </trkpt>
      <trkpt lat="44.42877489142119884490966796875" lon="-0.48378928564488887786865234375">
        <ele>58.200000762939453125</ele>
        <time>2017-07-03T07:53:30.000Z</time>
        <extensions>
          <ns3:TrackPointExtension/>
        </extensions>
      </trkpt>
      <trkpt lat="44.4285287149250507354736328125" lon="-0.48324890434741973876953125">
        <ele>57.799999237060546875</ele>
        <time>2017-07-03T07:53:46.000Z</time>
        <extensions>
          <ns3:TrackPointExtension/>
        </extensions>
      </trkpt>
      <trkpt lat="44.42821749486029148101806640625" lon="-0.48312795348465442657470703125">
        <ele>57.799999237060546875</ele>
        <time>2017-07-03T07:54:05.000Z</time>
        <extensions>
          <ns3:TrackPointExtension/>
        </extensions>
      </trkpt>
      <trkpt lat="44.4279289059340953826904296875" lon="-0.4837955720722675323486328125">
        <ele>57.200000762939453125</ele>
        <time>2017-07-03T07:54:17.000Z</time>
        <extensions>
          <ns3:TrackPointExtension/>
        </extensions>
      </trkpt>
      <trkpt lat="44.42791423760354518890380859375" lon="-0.4838539101183414459228515625">
        <ele>57.200000762939453125</ele>
        <time>2017-07-03T07:54:18.000Z</time>
        <extensions>
          <ns3:TrackPointExtension/>
        </extensions>
      </trkpt>
      <trkpt lat="44.42760745994746685028076171875" lon="-0.48453276045620441436767578125">
        <ele>57.200000762939453125</ele>
        <time>2017-07-03T07:54:31.000Z</time>
        <extensions>
          <ns3:TrackPointExtension/>
        </extensions>
      </trkpt>
      <trkpt lat="44.4272737763822078704833984375" lon="-0.485115386545658111572265625">
        <ele>57.200000762939453125</ele>
        <time>2017-07-03T07:54:44.000Z</time>
        <extensions>
          <ns3:TrackPointExtension/>
        </extensions>
      </trkpt>
      <trkpt lat="44.42704855464398860931396484375" lon="-0.48553724773228168487548828125">
        <ele>57.200000762939453125</ele>
        <time>2017-07-03T07:54:52.000Z</time>
        <extensions>
          <ns3:TrackPointExtension/>
        </extensions>
      </trkpt>
      <trkpt lat="44.42695065401494503021240234375" lon="-0.485861711204051971435546875">
        <ele>57.40000152587890625</ele>
        <time>2017-07-03T07:54:57.000Z</time>
        <extensions>
          <ns3:TrackPointExtension/>
        </extensions>
      </trkpt>
      <trkpt lat="44.4265777431428432464599609375" lon="-0.48640863038599491119384765625">
        <ele>58.40000152587890625</ele>
        <time>2017-07-03T07:55:08.000Z</time>
        <extensions>
          <ns3:TrackPointExtension/>
        </extensions>
      </trkpt>
      <trkpt lat="44.42628177814185619354248046875" lon="-0.48700399696826934814453125">
        <ele>58</ele>
        <time>2017-07-03T07:55:24.000Z</time>
        <extensions>
          <ns3:TrackPointExtension/>
        </extensions>
      </trkpt>
      <trkpt lat="44.4262763299047946929931640625" lon="-0.487703047692775726318359375">
        <ele>57.40000152587890625</ele>
        <time>2017-07-03T07:55:49.000Z</time>
        <extensions>
          <ns3:TrackPointExtension/>
        </extensions>
      </trkpt>
      <trkpt lat="44.42575807683169841766357421875" lon="-0.48792961053550243377685546875">
        <ele>58.59999847412109375</ele>
        <time>2017-07-03T07:56:02.000Z</time>
        <extensions>
          <ns3:TrackPointExtension/>
        </extensions>
      </trkpt>
      <trkpt lat="44.42520193755626678466796875" lon="-0.48820026218891143798828125">
        <ele>59.40000152587890625</ele>
        <time>2017-07-03T07:56:13.000Z</time>
        <extensions>
          <ns3:TrackPointExtension/>
        </extensions>
      </trkpt>
      <trkpt lat="44.42470145411789417266845703125" lon="-0.48850963823497295379638671875">
        <ele>59.200000762939453125</ele>
        <time>2017-07-03T07:56:23.000Z</time>
        <extensions>
          <ns3:TrackPointExtension/>
        </extensions>
      </trkpt>
      <trkpt lat="44.424209855496883392333984375" lon="-0.48885698430240154266357421875">
        <ele>58.799999237060546875</ele>
        <time>2017-07-03T07:56:33.000Z</time>
        <extensions>
          <ns3:TrackPointExtension/>
        </extensions>
      </trkpt>
      <trkpt lat="44.423684813082218170166015625" lon="-0.4891754128038883209228515625">
        <ele>59.200000762939453125</ele>
        <time>2017-07-03T07:56:43.000Z</time>
        <extensions>
          <ns3:TrackPointExtension/>
        </extensions>
      </trkpt>
      <trkpt lat="44.42314912565052509307861328125" lon="-0.48942812718451023101806640625">
        <ele>61.799999237060546875</ele>
        <time>2017-07-03T07:56:53.000Z</time>
        <extensions>
          <ns3:TrackPointExtension/>
        </extensions>
      </trkpt>
      <trkpt lat="44.422977380454540252685546875" lon="-0.48951680772006511688232421875">
        <ele>62.59999847412109375</ele>
        <time>2017-07-03T07:56:56.000Z</time>
        <extensions>
          <ns3:TrackPointExtension/>
        </extensions>
      </trkpt>
      <trkpt lat="44.4224922358989715576171875" lon="-0.4896830208599567413330078125">
        <ele>63.799999237060546875</ele>
        <time>2017-07-03T07:57:04.000Z</time>
        <extensions>
          <ns3:TrackPointExtension/>
        </extensions>
      </trkpt>
      <trkpt lat="44.42194045521318912506103515625" lon="-0.489840768277645111083984375">
        <ele>64.8000030517578125</ele>
        <time>2017-07-03T07:57:13.000Z</time>
        <extensions>
          <ns3:TrackPointExtension/>
        </extensions>
      </trkpt>
      <trkpt lat="44.42169922403991222381591796875" lon="-0.489933975040912628173828125">
        <ele>65</ele>
        <time>2017-07-03T07:57:17.000Z</time>
        <extensions>
          <ns3:TrackPointExtension/>
        </extensions>
      </trkpt>
      <trkpt lat="44.42142538726329803466796875" lon="-0.49014947377145290374755859375">
        <ele>65</ele>
        <time>2017-07-03T07:57:22.000Z</time>
        <extensions>
          <ns3:TrackPointExtension/>
        </extensions>
      </trkpt>
      <trkpt lat="44.421170912683010101318359375" lon="-0.49058767966926097869873046875">
        <ele>65</ele>
        <time>2017-07-03T07:57:29.000Z</time>
        <extensions>
          <ns3:TrackPointExtension/>
        </extensions>
      </trkpt>
      <trkpt lat="44.421015344560146331787109375" lon="-0.49131120555102825164794921875">
        <ele>65.40000152587890625</ele>
        <time>2017-07-03T07:57:40.000Z</time>
        <extensions>
          <ns3:TrackPointExtension/>
        </extensions>
      </trkpt>
      <trkpt lat="44.42099095322191715240478515625" lon="-0.4915427975356578826904296875">
        <ele>65.40000152587890625</ele>
        <time>2017-07-03T07:57:46.000Z</time>
        <extensions>
          <ns3:TrackPointExtension/>
        </extensions>
      </trkpt>
      <trkpt lat="44.42080470733344554901123046875" lon="-0.49162276089191436767578125">
        <ele>64.8000030517578125</ele>
        <time>2017-07-03T07:57:51.000Z</time>
        <extensions>
          <ns3:TrackPointExtension/>
        </extensions>
      </trkpt>
      <trkpt lat="44.42026340402662754058837890625" lon="-0.49179098568856716156005859375">
        <ele>63</ele>
        <time>2017-07-03T07:58:01.000Z</time>
        <extensions>
          <ns3:TrackPointExtension/>
        </extensions>
      </trkpt>
      <trkpt lat="44.41969779320061206817626953125" lon="-0.4919585399329662322998046875">
        <ele>63</ele>
        <time>2017-07-03T07:58:10.000Z</time>
        <extensions>
          <ns3:TrackPointExtension/>
        </extensions>
      </trkpt>
      <trkpt lat="44.41911776550114154815673828125" lon="-0.49212592653930187225341796875">
        <ele>65.1999969482421875</ele>
        <time>2017-07-03T07:58:19.000Z</time>
        <extensions>
          <ns3:TrackPointExtension/>
        </extensions>
      </trkpt>
      <trkpt lat="44.418561793863773345947265625" lon="-0.4922921396791934967041015625">
        <ele>68.1999969482421875</ele>
        <time>2017-07-03T07:58:28.000Z</time>
        <extensions>
          <ns3:TrackPointExtension/>
        </extensions>
      </trkpt>
      <trkpt lat="44.41802300512790679931640625" lon="-0.49247260205447673797607421875">
        <ele>68</ele>
        <time>2017-07-03T07:58:37.000Z</time>
        <extensions>
          <ns3:TrackPointExtension/>
        </extensions>
      </trkpt>
      <trkpt lat="44.4174518622457981109619140625" lon="-0.4926743544638156890869140625">
        <ele>67.59999847412109375</ele>
        <time>2017-07-03T07:58:47.000Z</time>
        <extensions>
          <ns3:TrackPointExtension/>
        </extensions>
      </trkpt>
      <trkpt lat="44.41691148094832897186279296875" lon="-0.492818020284175872802734375">
        <ele>67.40000152587890625</ele>
        <time>2017-07-03T07:58:55.000Z</time>
        <extensions>
          <ns3:TrackPointExtension/>
        </extensions>
      </trkpt>
      <trkpt lat="44.41632944159209728240966796875" lon="-0.4930082894861698150634765625">
        <ele>65.40000152587890625</ele>
        <time>2017-07-03T07:59:04.000Z</time>
        <extensions>
          <ns3:TrackPointExtension/>
        </extensions>
      </trkpt>
      <trkpt lat="44.4157929159700870513916015625" lon="-0.49316209740936756134033203125">
        <ele>66</ele>
        <time>2017-07-03T07:59:12.000Z</time>
        <extensions>
          <ns3:TrackPointExtension/>
        </extensions>
      </trkpt>
      <trkpt lat="44.415222108364105224609375" lon="-0.49331188201904296875">
        <ele>67.1999969482421875</ele>
        <time>2017-07-03T07:59:21.000Z</time>
        <extensions>
          <ns3:TrackPointExtension/>
        </extensions>
      </trkpt>
      <trkpt lat="44.41468491218984127044677734375" lon="-0.49347340129315853118896484375">
        <ele>67.8000030517578125</ele>
        <time>2017-07-03T07:59:30.000Z</time>
        <extensions>
          <ns3:TrackPointExtension/>
        </extensions>
      </trkpt>
      <trkpt lat="44.4141074828803539276123046875" lon="-0.493650846183300018310546875">
        <ele>69.1999969482421875</ele>
        <time>2017-07-03T07:59:40.000Z</time>
        <extensions>
          <ns3:TrackPointExtension/>
        </extensions>
      </trkpt>
      <trkpt lat="44.413551427423954010009765625" lon="-0.4938364215195178985595703125">
        <ele>71</ele>
        <time>2017-07-03T07:59:50.000Z</time>
        <extensions>
          <ns3:TrackPointExtension/>
        </extensions>
      </trkpt>
      <trkpt lat="44.41298791207373142242431640625" lon="-0.494006574153900146484375">
        <ele>71.59999847412109375</ele>
        <time>2017-07-03T08:00:00.000Z</time>
        <extensions>
          <ns3:TrackPointExtension/>
        </extensions>
      </trkpt>
      <trkpt lat="44.412416853010654449462890625" lon="-0.49417999573051929473876953125">
        <ele>71</ele>
        <time>2017-07-03T08:00:10.000Z</time>
        <extensions>
          <ns3:TrackPointExtension/>
        </extensions>
      </trkpt>
      <trkpt lat="44.41187764517962932586669921875" lon="-0.494360625743865966796875">
        <ele>70.8000030517578125</ele>
        <time>2017-07-03T08:00:19.000Z</time>
        <extensions>
          <ns3:TrackPointExtension/>
        </extensions>
      </trkpt>
      <trkpt lat="44.411331228911876678466796875" lon="-0.4945311136543750762939453125">
        <ele>71.59999847412109375</ele>
        <time>2017-07-03T08:00:28.000Z</time>
        <extensions>
          <ns3:TrackPointExtension/>
        </extensions>
      </trkpt>
      <trkpt lat="44.41078112460672855377197265625" lon="-0.494745858013629913330078125">
        <ele>72.59999847412109375</ele>
        <time>2017-07-03T08:00:37.000Z</time>
        <extensions>
          <ns3:TrackPointExtension/>
        </extensions>
      </trkpt>
      <trkpt lat="44.41026161424815654754638671875" lon="-0.4949964769184589385986328125">
        <ele>73</ele>
        <time>2017-07-03T08:00:45.000Z</time>
        <extensions>
          <ns3:TrackPointExtension/>
        </extensions>
      </trkpt>
      <trkpt lat="44.40973640419542789459228515625" lon="-0.4952760972082614898681640625">
        <ele>68.8000030517578125</ele>
        <time>2017-07-03T08:00:53.000Z</time>
        <extensions>
          <ns3:TrackPointExtension/>
        </extensions>
      </trkpt>
      <trkpt lat="44.4091692008078098297119140625" lon="-0.4955765046179294586181640625">
        <ele>67.8000030517578125</ele>
        <time>2017-07-03T08:01:01.000Z</time>
        <extensions>
          <ns3:TrackPointExtension/>
        </extensions>
      </trkpt>
      <trkpt lat="44.40861046314239501953125" lon="-0.49588604830205440521240234375">
        <ele>69.59999847412109375</ele>
        <time>2017-07-03T08:01:09.000Z</time>
        <extensions>
          <ns3:TrackPointExtension/>
        </extensions>
      </trkpt>
      <trkpt lat="44.40809556283056735992431640625" lon="-0.496179163455963134765625">
        <ele>70.40000152587890625</ele>
        <time>2017-07-03T08:01:17.000Z</time>
        <extensions>
          <ns3:TrackPointExtension/>
        </extensions>
      </trkpt>
      <trkpt lat="44.4075481407344341278076171875" lon="-0.49650304019451141357421875">
        <ele>71.40000152587890625</ele>
        <time>2017-07-03T08:01:26.000Z</time>
        <extensions>
          <ns3:TrackPointExtension/>
        </extensions>
      </trkpt>
      <trkpt lat="44.4070415385067462921142578125" lon="-0.4967895336449146270751953125">
        <ele>72</ele>
        <time>2017-07-03T08:01:35.000Z</time>
        <extensions>
          <ns3:TrackPointExtension/>
        </extensions>
      </trkpt>
      <trkpt lat="44.406538121402263641357421875" lon="-0.49708398990333080291748046875">
        <ele>72.8000030517578125</ele>
        <time>2017-07-03T08:01:44.000Z</time>
        <extensions>
          <ns3:TrackPointExtension/>
        </extensions>
      </trkpt>
      <trkpt lat="44.40598248504102230072021484375" lon="-0.4973967187106609344482421875">
        <ele>73.8000030517578125</ele>
        <time>2017-07-03T08:01:54.000Z</time>
        <extensions>
          <ns3:TrackPointExtension/>
        </extensions>
      </trkpt>
      <trkpt lat="44.40567947924137115478515625" lon="-0.49757265485823154449462890625">
        <ele>74.40000152587890625</ele>
        <time>2017-07-03T08:02:00.000Z</time>
        <extensions>
          <ns3:TrackPointExtension/>
        </extensions>
      </trkpt>
      <trkpt lat="44.40548828803002834320068359375" lon="-0.49732706509530544281005859375">
        <ele>73.59999847412109375</ele>
        <time>2017-07-03T08:02:06.000Z</time>
        <extensions>
          <ns3:TrackPointExtension/>
        </extensions>
      </trkpt>
      <trkpt lat="44.4051908142864704132080078125" lon="-0.496624410152435302734375">
        <ele>74.40000152587890625</ele>
        <time>2017-07-03T08:02:15.000Z</time>
        <extensions>
          <ns3:TrackPointExtension/>
        </extensions>
      </trkpt>
      <trkpt lat="44.40488462336361408233642578125" lon="-0.49595042131841182708740234375">
        <ele>76.1999969482421875</ele>
        <time>2017-07-03T08:02:24.000Z</time>
        <extensions>
          <ns3:TrackPointExtension/>
        </extensions>
      </trkpt>
      <trkpt lat="44.40457046963274478912353515625" lon="-0.4952864907681941986083984375">
        <ele>75.1999969482421875</ele>
        <time>2017-07-03T08:02:33.000Z</time>
        <extensions>
          <ns3:TrackPointExtension/>
        </extensions>
      </trkpt>
      <trkpt lat="44.404256902635097503662109375" lon="-0.4946088977158069610595703125">
        <ele>73.59999847412109375</ele>
        <time>2017-07-03T08:02:42.000Z</time>
        <extensions>
          <ns3:TrackPointExtension/>
        </extensions>
      </trkpt>
      <trkpt lat="44.4039340317249298095703125" lon="-0.4939113557338714599609375">
        <ele>72.1999969482421875</ele>
        <time>2017-07-03T08:02:51.000Z</time>
        <extensions>
          <ns3:TrackPointExtension/>
        </extensions>
      </trkpt>
      <trkpt lat="44.4036106579005718231201171875" lon="-0.4932054318487644195556640625">
        <ele>72.59999847412109375</ele>
        <time>2017-07-03T08:03:00.000Z</time>
        <extensions>
          <ns3:TrackPointExtension/>
        </extensions>
      </trkpt>
      <trkpt lat="44.40327798016369342803955078125" lon="-0.4924978315830230712890625">
        <ele>74.8000030517578125</ele>
        <time>2017-07-03T08:03:09.000Z</time>
        <extensions>
          <ns3:TrackPointExtension/>
        </extensions>
      </trkpt>
      <trkpt lat="44.40297841094434261322021484375" lon="-0.49186885356903076171875">
        <ele>75</ele>
        <time>2017-07-03T08:03:17.000Z</time>
        <extensions>
          <ns3:TrackPointExtension/>
        </extensions>
      </trkpt>
      <trkpt lat="44.40267649479210376739501953125" lon="-0.49122453667223453521728515625">
        <ele>74.59999847412109375</ele>
        <time>2017-07-03T08:03:25.000Z</time>
        <extensions>
          <ns3:TrackPointExtension/>
        </extensions>
      </trkpt>
      <trkpt lat="44.40236737020313739776611328125" lon="-0.49057711847126483917236328125">
        <ele>75.59999847412109375</ele>
        <time>2017-07-03T08:03:33.000Z</time>
        <extensions>
          <ns3:TrackPointExtension/>
        </extensions>
      </trkpt>
      <trkpt lat="44.40207920037209987640380859375" lon="-0.48990187235176563262939453125">
        <ele>74.59999847412109375</ele>
        <time>2017-07-03T08:03:41.000Z</time>
        <extensions>
          <ns3:TrackPointExtension/>
        </extensions>
      </trkpt>
      <trkpt lat="44.401785247027873992919921875" lon="-0.4892201721668243408203125">
        <ele>74.1999969482421875</ele>
        <time>2017-07-03T08:03:49.000Z</time>
        <extensions>
          <ns3:TrackPointExtension/>
        </extensions>
      </trkpt>
      <trkpt lat="44.40149431116878986358642578125" lon="-0.48856906592845916748046875">
        <ele>75</ele>
        <time>2017-07-03T08:03:57.000Z</time>
        <extensions>
          <ns3:TrackPointExtension/>
        </extensions>
      </trkpt>
      <trkpt lat="44.40115735866129398345947265625" lon="-0.4878768883645534515380859375">
        <ele>75</ele>
        <time>2017-07-03T08:04:06.000Z</time>
        <extensions>
          <ns3:TrackPointExtension/>
        </extensions>
      </trkpt>
      <trkpt lat="44.40076676197350025177001953125" lon="-0.4872338287532329559326171875">
        <ele>75.40000152587890625</ele>
        <time>2017-07-03T08:04:15.000Z</time>
        <extensions>
          <ns3:TrackPointExtension/>
        </extensions>
      </trkpt>
      <trkpt lat="44.4003289751708507537841796875" lon="-0.48678078688681125640869140625">
        <ele>76</ele>
        <time>2017-07-03T08:04:23.000Z</time>
        <extensions>
          <ns3:TrackPointExtension/>
        </extensions>
      </trkpt>
      <trkpt lat="44.400027729570865631103515625" lon="-0.486575849354267120361328125">
        <ele>76.1999969482421875</ele>
        <time>2017-07-03T08:04:28.000Z</time>
        <extensions>
          <ns3:TrackPointExtension/>
        </extensions>
      </trkpt>
      <trkpt lat="44.39949170686304569244384765625" lon="-0.48637099564075469970703125">
        <ele>76</ele>
        <time>2017-07-03T08:04:36.000Z</time>
        <extensions>
          <ns3:TrackPointExtension/>
        </extensions>
      </trkpt>
      <trkpt lat="44.39896230585873126983642578125" lon="-0.486222468316555023193359375">
        <ele>72.40000152587890625</ele>
        <time>2017-07-03T08:04:44.000Z</time>
        <extensions>
          <ns3:TrackPointExtension/>
        </extensions>
      </trkpt>
      <trkpt lat="44.39837372861802577972412109375" lon="-0.486052818596363067626953125">
        <ele>70.59999847412109375</ele>
        <time>2017-07-03T08:04:53.000Z</time>
        <extensions>
          <ns3:TrackPointExtension/>
        </extensions>
      </trkpt>
      <trkpt lat="44.39782672561705112457275390625" lon="-0.48593287356197834014892578125">
        <ele>72</ele>
        <time>2017-07-03T08:05:01.000Z</time>
        <extensions>
          <ns3:TrackPointExtension/>
        </extensions>
      </trkpt>
      <trkpt lat="44.3972714245319366455078125" lon="-0.48578065820038318634033203125">
        <ele>75.59999847412109375</ele>
        <time>2017-07-03T08:05:09.000Z</time>
        <extensions>
          <ns3:TrackPointExtension/>
        </extensions>
      </trkpt>
      <trkpt lat="44.3967421911656856536865234375" lon="-0.48561285249888896942138671875">
        <ele>77.8000030517578125</ele>
        <time>2017-07-03T08:05:17.000Z</time>
        <extensions>
          <ns3:TrackPointExtension/>
        </extensions>
      </trkpt>
      <trkpt lat="44.39619921147823333740234375" lon="-0.48546097241342067718505859375">
        <ele>78</ele>
        <time>2017-07-03T08:05:25.000Z</time>
        <extensions>
          <ns3:TrackPointExtension/>
        </extensions>
      </trkpt>
      <trkpt lat="44.39564256928861141204833984375" lon="-0.48530691303312778472900390625">
        <ele>78.59999847412109375</ele>
        <time>2017-07-03T08:05:33.000Z</time>
        <extensions>
          <ns3:TrackPointExtension/>
        </extensions>
      </trkpt>
      <trkpt lat="44.3950872682034969329833984375" lon="-0.48514698632061481475830078125">
        <ele>76.8000030517578125</ele>
        <time>2017-07-03T08:05:41.000Z</time>
        <extensions>
          <ns3:TrackPointExtension/>
        </extensions>
      </trkpt>
      <trkpt lat="44.3945380859076976776123046875" lon="-0.48499636352062225341796875">
        <ele>73.59999847412109375</ele>
        <time>2017-07-03T08:05:49.000Z</time>
        <extensions>
          <ns3:TrackPointExtension/>
        </extensions>
      </trkpt>
      <trkpt lat="44.3939875625073909759521484375" lon="-0.48483677208423614501953125">
        <ele>72</ele>
        <time>2017-07-03T08:05:57.000Z</time>
        <extensions>
          <ns3:TrackPointExtension/>
        </extensions>
      </trkpt>
      <trkpt lat="44.3934424035251140594482421875" lon="-0.484609119594097137451171875">
        <ele>70.59999847412109375</ele>
        <time>2017-07-03T08:06:05.000Z</time>
        <extensions>
          <ns3:TrackPointExtension/>
        </extensions>
      </trkpt>
      <trkpt lat="44.3929026089608669281005859375" lon="-0.4843769408762454986572265625">
        <ele>69.59999847412109375</ele>
        <time>2017-07-03T08:06:13.000Z</time>
        <extensions>
          <ns3:TrackPointExtension/>
        </extensions>
      </trkpt>
      <trkpt lat="44.3923685140907764434814453125" lon="-0.48413411714136600494384765625">
        <ele>69</ele>
        <time>2017-07-03T08:06:21.000Z</time>
        <extensions>
          <ns3:TrackPointExtension/>
        </extensions>
      </trkpt>
      <trkpt lat="44.39184607006609439849853515625" lon="-0.483898334205150604248046875">
        <ele>69.40000152587890625</ele>
        <time>2017-07-03T08:06:29.000Z</time>
        <extensions>
          <ns3:TrackPointExtension/>
        </extensions>
      </trkpt>
      <trkpt lat="44.39129353500902652740478515625" lon="-0.4836044646799564361572265625">
        <ele>71.1999969482421875</ele>
        <time>2017-07-03T08:06:38.000Z</time>
        <extensions>
          <ns3:TrackPointExtension/>
        </extensions>
      </trkpt>
      <trkpt lat="44.3907843343913555145263671875" lon="-0.48320188187062740325927734375">
        <ele>74.59999847412109375</ele>
        <time>2017-07-03T08:06:47.000Z</time>
        <extensions>
          <ns3:TrackPointExtension/>
        </extensions>
      </trkpt>
      <trkpt lat="44.39039893448352813720703125" lon="-0.48267181031405925750732421875">
        <ele>78.1999969482421875</ele>
        <time>2017-07-03T08:06:55.000Z</time>
        <extensions>
          <ns3:TrackPointExtension/>
        </extensions>
      </trkpt>
      <trkpt lat="44.39005536027252674102783203125" lon="-0.4820625297725200653076171875">
        <ele>79.8000030517578125</ele>
        <time>2017-07-03T08:07:03.000Z</time>
        <extensions>
          <ns3:TrackPointExtension/>
        </extensions>
      </trkpt>
      <trkpt lat="44.38969560898840427398681640625" lon="-0.48149365000426769256591796875">
        <ele>79</ele>
        <time>2017-07-03T08:07:11.000Z</time>
        <extensions>
          <ns3:TrackPointExtension/>
        </extensions>
      </trkpt>
      <trkpt lat="44.38933569006621837615966796875" lon="-0.48092518933117389678955078125">
        <ele>79.40000152587890625</ele>
        <time>2017-07-03T08:07:19.000Z</time>
        <extensions>
          <ns3:TrackPointExtension/>
        </extensions>
      </trkpt>
      <trkpt lat="44.38898616470396518707275390625" lon="-0.48034968785941600799560546875">
        <ele>78.8000030517578125</ele>
        <time>2017-07-03T08:07:27.000Z</time>
        <extensions>
          <ns3:TrackPointExtension/>
        </extensions>
      </trkpt>
      <trkpt lat="44.3886311911046504974365234375" lon="-0.4797749407589435577392578125">
        <ele>78.8000030517578125</ele>
        <time>2017-07-03T08:07:35.000Z</time>
        <extensions>
          <ns3:TrackPointExtension/>
        </extensions>
      </trkpt>
      <trkpt lat="44.38827035017311573028564453125" lon="-0.479190051555633544921875">
        <ele>78.1999969482421875</ele>
        <time>2017-07-03T08:07:43.000Z</time>
        <extensions>
          <ns3:TrackPointExtension/>
        </extensions>
      </trkpt>
      <trkpt lat="44.3878917396068572998046875" lon="-0.4786041565239429473876953125">
        <ele>79</ele>
        <time>2017-07-03T08:07:51.000Z</time>
        <extensions>
          <ns3:TrackPointExtension/>
        </extensions>
      </trkpt>
      <trkpt lat="44.3874567188322544097900390625" lon="-0.47812764532864093780517578125">
        <ele>77.8000030517578125</ele>
        <time>2017-07-03T08:07:59.000Z</time>
        <extensions>
          <ns3:TrackPointExtension/>
        </extensions>
      </trkpt>
      <trkpt lat="44.38694424927234649658203125" lon="-0.47787132672965526580810546875">
        <ele>75.59999847412109375</ele>
        <time>2017-07-03T08:08:06.000Z</time>
        <extensions>
          <ns3:TrackPointExtension/>
        </extensions>
      </trkpt>
      <trkpt lat="44.38638769090175628662109375" lon="-0.477725900709629058837890625">
        <ele>74</ele>
        <time>2017-07-03T08:08:14.000Z</time>
        <extensions>
          <ns3:TrackPointExtension/>
        </extensions>
      </trkpt>
      <trkpt lat="44.385838843882083892822265625" lon="-0.47764040529727935791015625">
        <ele>73.59999847412109375</ele>
        <time>2017-07-03T08:08:22.000Z</time>
        <extensions>
          <ns3:TrackPointExtension/>
        </extensions>
      </trkpt>
      <trkpt lat="44.38528672792017459869384765625" lon="-0.47755398787558078765869140625">
        <ele>73</ele>
        <time>2017-07-03T08:08:30.000Z</time>
        <extensions>
          <ns3:TrackPointExtension/>
        </extensions>
      </trkpt>
      <trkpt lat="44.38473922200500965118408203125" lon="-0.4774658940732479095458984375">
        <ele>73.40000152587890625</ele>
        <time>2017-07-03T08:08:38.000Z</time>
        <extensions>
          <ns3:TrackPointExtension/>
        </extensions>
      </trkpt>
      <trkpt lat="44.38420965336263179779052734375" lon="-0.47728777863085269927978515625">
        <ele>74.40000152587890625</ele>
        <time>2017-07-03T08:08:46.000Z</time>
        <extensions>
          <ns3:TrackPointExtension/>
        </extensions>
      </trkpt>
      <trkpt lat="44.38369232229888439178466796875" lon="-0.47697731293737888336181640625">
        <ele>74.8000030517578125</ele>
        <time>2017-07-03T08:08:54.000Z</time>
        <extensions>
          <ns3:TrackPointExtension/>
        </extensions>
      </trkpt>
      <trkpt lat="44.383176080882549285888671875" lon="-0.4766411148011684417724609375">
        <ele>75</ele>
        <time>2017-07-03T08:09:02.000Z</time>
        <extensions>
          <ns3:TrackPointExtension/>
        </extensions>
      </trkpt>
      <trkpt lat="44.38267123885452747344970703125" lon="-0.47632067464292049407958984375">
        <ele>75.1999969482421875</ele>
        <time>2017-07-03T08:09:10.000Z</time>
        <extensions>
          <ns3:TrackPointExtension/>
        </extensions>
      </trkpt>
      <trkpt lat="44.3821761198341846466064453125" lon="-0.47599612735211849212646484375">
        <ele>76.40000152587890625</ele>
        <time>2017-07-03T08:09:18.000Z</time>
        <extensions>
          <ns3:TrackPointExtension/>
        </extensions>
      </trkpt>
      <trkpt lat="44.38167370855808258056640625" lon="-0.475671328604221343994140625">
        <ele>75.8000030517578125</ele>
        <time>2017-07-03T08:09:26.000Z</time>
        <extensions>
          <ns3:TrackPointExtension/>
        </extensions>
      </trkpt>
      <trkpt lat="44.3811676092445850372314453125" lon="-0.47534602694213390350341796875">
        <ele>75.1999969482421875</ele>
        <time>2017-07-03T08:09:34.000Z</time>
        <extensions>
          <ns3:TrackPointExtension/>
        </extensions>
      </trkpt>
      <trkpt lat="44.3806620128452777862548828125" lon="-0.47501343302428722381591796875">
        <ele>75</ele>
        <time>2017-07-03T08:09:42.000Z</time>
        <extensions>
          <ns3:TrackPointExtension/>
        </extensions>
      </trkpt>
      <trkpt lat="44.38015029765665531158447265625" lon="-0.47469207085669040679931640625">
        <ele>75</ele>
        <time>2017-07-03T08:09:50.000Z</time>
        <extensions>
          <ns3:TrackPointExtension/>
        </extensions>
      </trkpt>
      <trkpt lat="44.37965040095150470733642578125" lon="-0.47438076697289943695068359375">
        <ele>75.40000152587890625</ele>
        <time>2017-07-03T08:09:58.000Z</time>
        <extensions>
          <ns3:TrackPointExtension/>
        </extensions>
      </trkpt>
      <trkpt lat="44.379163496196269989013671875" lon="-0.47405563294887542724609375">
        <ele>76.40000152587890625</ele>
        <time>2017-07-03T08:10:06.000Z</time>
        <extensions>
          <ns3:TrackPointExtension/>
        </extensions>
      </trkpt>
      <trkpt lat="44.37861272133886814117431640625" lon="-0.473691858351230621337890625">
        <ele>77</ele>
        <time>2017-07-03T08:10:15.000Z</time>
        <extensions>
          <ns3:TrackPointExtension/>
        </extensions>
      </trkpt>
      <trkpt lat="44.37810729257762432098388671875" lon="-0.47336622141301631927490234375">
        <ele>76.8000030517578125</ele>
        <time>2017-07-03T08:10:23.000Z</time>
        <extensions>
          <ns3:TrackPointExtension/>
        </extensions>
      </trkpt>
      <trkpt lat="44.37758191488683223724365234375" lon="-0.47303530387580394744873046875">
        <ele>76</ele>
        <time>2017-07-03T08:10:31.000Z</time>
        <extensions>
          <ns3:TrackPointExtension/>
        </extensions>
      </trkpt>
      <trkpt lat="44.3770775757730007171630859375" lon="-0.4726982675492763519287109375">
        <ele>76.59999847412109375</ele>
        <time>2017-07-03T08:10:39.000Z</time>
        <extensions>
          <ns3:TrackPointExtension/>
        </extensions>
      </trkpt>
      <trkpt lat="44.37657675705850124359130859375" lon="-0.472361147403717041015625">
        <ele>77.1999969482421875</ele>
        <time>2017-07-03T08:10:47.000Z</time>
        <extensions>
          <ns3:TrackPointExtension/>
        </extensions>
      </trkpt>
      <trkpt lat="44.37608222477138042449951171875" lon="-0.472034253180027008056640625">
        <ele>76.40000152587890625</ele>
        <time>2017-07-03T08:10:55.000Z</time>
        <extensions>
          <ns3:TrackPointExtension/>
        </extensions>
      </trkpt>
      <trkpt lat="44.3755483813583850860595703125" lon="-0.4716964624822139739990234375">
        <ele>77.40000152587890625</ele>
        <time>2017-07-03T08:11:04.000Z</time>
        <extensions>
          <ns3:TrackPointExtension/>
        </extensions>
      </trkpt>
      <trkpt lat="44.37503264285624027252197265625" lon="-0.471278540790081024169921875">
        <ele>77.59999847412109375</ele>
        <time>2017-07-03T08:11:13.000Z</time>
        <extensions>
          <ns3:TrackPointExtension/>
        </extensions>
      </trkpt>
      <trkpt lat="44.37461656518280506134033203125" lon="-0.47078979201614856719970703125">
        <ele>79.59999847412109375</ele>
        <time>2017-07-03T08:11:21.000Z</time>
        <extensions>
          <ns3:TrackPointExtension/>
        </extensions>
      </trkpt>
      <trkpt lat="44.374236278235912322998046875" lon="-0.47019727528095245361328125">
        <ele>80.59999847412109375</ele>
        <time>2017-07-03T08:11:29.000Z</time>
        <extensions>
          <ns3:TrackPointExtension/>
        </extensions>
      </trkpt>
      <trkpt lat="44.373978786170482635498046875" lon="-0.46952630393207073211669921875">
        <ele>80.1999969482421875</ele>
        <time>2017-07-03T08:11:37.000Z</time>
        <extensions>
          <ns3:TrackPointExtension/>
        </extensions>
      </trkpt>
      <trkpt lat="44.37367192469537258148193359375" lon="-0.4688167758285999298095703125">
        <ele>82</ele>
        <time>2017-07-03T08:11:46.000Z</time>
        <extensions>
          <ns3:TrackPointExtension/>
        </extensions>
      </trkpt>
      <trkpt lat="44.3733836710453033447265625" lon="-0.46807355247437953948974609375">
        <ele>85.40000152587890625</ele>
        <time>2017-07-03T08:11:55.000Z</time>
        <extensions>
          <ns3:TrackPointExtension/>
        </extensions>
      </trkpt>
      <trkpt lat="44.37312425114214420318603515625" lon="-0.4673978872597217559814453125">
        <ele>86</ele>
        <time>2017-07-03T08:12:03.000Z</time>
        <extensions>
          <ns3:TrackPointExtension/>
        </extensions>
      </trkpt>
      <trkpt lat="44.37286122702062129974365234375" lon="-0.46667687594890594482421875">
        <ele>85.8000030517578125</ele>
        <time>2017-07-03T08:12:11.000Z</time>
        <extensions>
          <ns3:TrackPointExtension/>
        </extensions>
      </trkpt>
      <trkpt lat="44.37257557176053524017333984375" lon="-0.46594463288784027099609375">
        <ele>85.1999969482421875</ele>
        <time>2017-07-03T08:12:19.000Z</time>
        <extensions>
          <ns3:TrackPointExtension/>
        </extensions>
      </trkpt>
      <trkpt lat="44.3723065964877605438232421875" lon="-0.46523393131792545318603515625">
        <ele>85.1999969482421875</ele>
        <time>2017-07-03T08:12:27.000Z</time>
        <extensions>
          <ns3:TrackPointExtension/>
        </extensions>
      </trkpt>
      <trkpt lat="44.37202940694987773895263671875" lon="-0.46449682675302028656005859375">
        <ele>86.8000030517578125</ele>
        <time>2017-07-03T08:12:35.000Z</time>
        <extensions>
          <ns3:TrackPointExtension/>
        </extensions>
      </trkpt>
      <trkpt lat="44.37174894846975803375244140625" lon="-0.46377279795706272125244140625">
        <ele>86.1999969482421875</ele>
        <time>2017-07-03T08:12:43.000Z</time>
        <extensions>
          <ns3:TrackPointExtension/>
        </extensions>
      </trkpt>
      <trkpt lat="44.37146631069481372833251953125" lon="-0.463046841323375701904296875">
        <ele>84.1999969482421875</ele>
        <time>2017-07-03T08:12:51.000Z</time>
        <extensions>
          <ns3:TrackPointExtension/>
        </extensions>
      </trkpt>
      <trkpt lat="44.37118266709148883819580078125" lon="-0.462302528321743011474609375">
        <ele>83.1999969482421875</ele>
        <time>2017-07-03T08:12:59.000Z</time>
        <extensions>
          <ns3:TrackPointExtension/>
        </extensions>
      </trkpt>
      <trkpt lat="44.37092207372188568115234375" lon="-0.46162921003997325897216796875">
        <ele>82.40000152587890625</ele>
        <time>2017-07-03T08:13:06.000Z</time>
        <extensions>
          <ns3:TrackPointExtension/>
        </extensions>
      </trkpt>
      <trkpt lat="44.37065561302006244659423828125" lon="-0.4609401337802410125732421875">
        <ele>83.59999847412109375</ele>
        <time>2017-07-03T08:13:13.000Z</time>
        <extensions>
          <ns3:TrackPointExtension/>
        </extensions>
      </trkpt>
      <trkpt lat="44.37036928720772266387939453125" lon="-0.46018735505640506744384765625">
        <ele>85.1999969482421875</ele>
        <time>2017-07-03T08:13:21.000Z</time>
        <extensions>
          <ns3:TrackPointExtension/>
        </extensions>
      </trkpt>
      <trkpt lat="44.37008027918636798858642578125" lon="-0.459448993206024169921875">
        <ele>87.40000152587890625</ele>
        <time>2017-07-03T08:13:29.000Z</time>
        <extensions>
          <ns3:TrackPointExtension/>
        </extensions>
      </trkpt>
      <trkpt lat="44.36979814432561397552490234375" lon="-0.4586917720735073089599609375">
        <ele>88</ele>
        <time>2017-07-03T08:13:37.000Z</time>
        <extensions>
          <ns3:TrackPointExtension/>
        </extensions>
      </trkpt>
      <trkpt lat="44.36952439136803150177001953125" lon="-0.45800638385117053985595703125">
        <ele>88.8000030517578125</ele>
        <time>2017-07-03T08:13:44.000Z</time>
        <extensions>
          <ns3:TrackPointExtension/>
        </extensions>
      </trkpt>
      <trkpt lat="44.36923571862280368804931640625" lon="-0.45726877637207508087158203125">
        <ele>88.8000030517578125</ele>
        <time>2017-07-03T08:13:52.000Z</time>
        <extensions>
          <ns3:TrackPointExtension/>
        </extensions>
      </trkpt>
      <trkpt lat="44.3689746223390102386474609375" lon="-0.45658917166292667388916015625">
        <ele>87</ele>
        <time>2017-07-03T08:14:01.000Z</time>
        <extensions>
          <ns3:TrackPointExtension/>
        </extensions>
      </trkpt>
      <trkpt lat="44.36871989630162715911865234375" lon="-0.45589867047965526580810546875">
        <ele>85.40000152587890625</ele>
        <time>2017-07-03T08:14:11.000Z</time>
        <extensions>
          <ns3:TrackPointExtension/>
        </extensions>
      </trkpt>
      <trkpt lat="44.3684484064579010009765625" lon="-0.4552213288843631744384765625">
        <ele>84.1999969482421875</ele>
        <time>2017-07-03T08:14:22.000Z</time>
        <extensions>
          <ns3:TrackPointExtension/>
        </extensions>
      </trkpt>
      <trkpt lat="44.36818479560315608978271484375" lon="-0.45453627593815326690673828125">
        <ele>83.8000030517578125</ele>
        <time>2017-07-03T08:14:34.000Z</time>
        <extensions>
          <ns3:TrackPointExtension/>
        </extensions>
      </trkpt>
      <trkpt lat="44.3679361045360565185546875" lon="-0.45391450636088848114013671875">
        <ele>82.1999969482421875</ele>
        <time>2017-07-03T08:14:52.000Z</time>
        <extensions>
          <ns3:TrackPointExtension/>
        </extensions>
      </trkpt>
      <trkpt lat="44.36791841872036457061767578125" lon="-0.453873015940189361572265625">
        <ele>82</ele>
        <time>2017-07-03T08:15:05.000Z</time>
        <extensions>
          <ns3:TrackPointExtension/>
        </extensions>
      </trkpt>
      <trkpt lat="44.367827139794826507568359375" lon="-0.45310799963772296905517578125">
        <ele>82</ele>
        <time>2017-07-03T08:15:22.000Z</time>
        <extensions>
          <ns3:TrackPointExtension/>
        </extensions>
      </trkpt>
      <trkpt lat="44.36770367436110973358154296875" lon="-0.45230157673358917236328125">
        <ele>81.59999847412109375</ele>
        <time>2017-07-03T08:15:33.000Z</time>
        <extensions>
          <ns3:TrackPointExtension/>
        </extensions>
      </trkpt>
      <trkpt lat="44.36762404628098011016845703125" lon="-0.451511330902576446533203125">
        <ele>82</ele>
        <time>2017-07-03T08:15:44.000Z</time>
        <extensions>
          <ns3:TrackPointExtension/>
        </extensions>
      </trkpt>
      <trkpt lat="44.36758314259350299835205078125" lon="-0.4507269524037837982177734375">
        <ele>83.8000030517578125</ele>
        <time>2017-07-03T08:15:54.000Z</time>
        <extensions>
          <ns3:TrackPointExtension/>
        </extensions>
      </trkpt>
      <trkpt lat="44.36752631328999996185302734375" lon="-0.44995975680649280548095703125">
        <ele>84.1999969482421875</ele>
        <time>2017-07-03T08:16:03.000Z</time>
        <extensions>
          <ns3:TrackPointExtension/>
        </extensions>
      </trkpt>
      <trkpt lat="44.36747543513774871826171875" lon="-0.449167750775814056396484375">
        <ele>84.59999847412109375</ele>
        <time>2017-07-03T08:16:12.000Z</time>
        <extensions>
          <ns3:TrackPointExtension/>
        </extensions>
      </trkpt>
      <trkpt lat="44.3674229644238948822021484375" lon="-0.4483481682837009429931640625">
        <ele>83.8000030517578125</ele>
        <time>2017-07-03T08:16:21.000Z</time>
        <extensions>
          <ns3:TrackPointExtension/>
        </extensions>
      </trkpt>
      <trkpt lat="44.3673612736165523529052734375" lon="-0.44752196408808231353759765625">
        <ele>86</ele>
        <time>2017-07-03T08:16:30.000Z</time>
        <extensions>
          <ns3:TrackPointExtension/>
        </extensions>
      </trkpt>
      <trkpt lat="44.36735515482723712921142578125" lon="-0.4472504742443561553955078125">
        <ele>87.8000030517578125</ele>
        <time>2017-07-03T08:16:33.000Z</time>
        <extensions>
          <ns3:TrackPointExtension/>
        </extensions>
      </trkpt>
      <trkpt lat="44.3673072941601276397705078125" lon="-0.4464045725762844085693359375">
        <ele>90.40000152587890625</ele>
        <time>2017-07-03T08:16:42.000Z</time>
        <extensions>
          <ns3:TrackPointExtension/>
        </extensions>
      </trkpt>
      <trkpt lat="44.3672521412372589111328125" lon="-0.44564433395862579345703125">
        <ele>92</ele>
        <time>2017-07-03T08:16:50.000Z</time>
        <extensions>
          <ns3:TrackPointExtension/>
        </extensions>
      </trkpt>
      <trkpt lat="44.36719690449535846710205078125" lon="-0.44487177394330501556396484375">
        <ele>92.40000152587890625</ele>
        <time>2017-07-03T08:16:58.000Z</time>
        <extensions>
          <ns3:TrackPointExtension/>
        </extensions>
      </trkpt>
      <trkpt lat="44.36712582595646381378173828125" lon="-0.44403442181646823883056640625">
        <ele>91.8000030517578125</ele>
        <time>2017-07-03T08:17:07.000Z</time>
        <extensions>
          <ns3:TrackPointExtension/>
        </extensions>
      </trkpt>
      <trkpt lat="44.36704535968601703643798828125" lon="-0.4432127438485622406005859375">
        <ele>90.40000152587890625</ele>
        <time>2017-07-03T08:17:16.000Z</time>
        <extensions>
          <ns3:TrackPointExtension/>
        </extensions>
      </trkpt>
      <trkpt lat="44.36700914986431598663330078125" lon="-0.4425425268709659576416015625">
        <ele>90</ele>
        <time>2017-07-03T08:17:23.000Z</time>
        <extensions>
          <ns3:TrackPointExtension/>
        </extensions>
      </trkpt>
      <trkpt lat="44.3669800646603107452392578125" lon="-0.44173861853778362274169921875">
        <ele>89.40000152587890625</ele>
        <time>2017-07-03T08:17:31.000Z</time>
        <extensions>
          <ns3:TrackPointExtension/>
        </extensions>
      </trkpt>
      <trkpt lat="44.36692734248936176300048828125" lon="-0.44097251258790493011474609375">
        <ele>88.40000152587890625</ele>
        <time>2017-07-03T08:17:39.000Z</time>
        <extensions>
          <ns3:TrackPointExtension/>
        </extensions>
      </trkpt>
      <trkpt lat="44.36689582653343677520751953125" lon="-0.4401805065572261810302734375">
        <ele>87.8000030517578125</ele>
        <time>2017-07-03T08:17:47.000Z</time>
        <extensions>
          <ns3:TrackPointExtension/>
        </extensions>
      </trkpt>
      <trkpt lat="44.36684637330472469329833984375" lon="-0.439407862722873687744140625">
        <ele>87.59999847412109375</ele>
        <time>2017-07-03T08:17:55.000Z</time>
        <extensions>
          <ns3:TrackPointExtension/>
        </extensions>
      </trkpt>
      <trkpt lat="44.36679222621023654937744140625" lon="-0.438649468123912811279296875">
        <ele>89.1999969482421875</ele>
        <time>2017-07-03T08:18:03.000Z</time>
        <extensions>
          <ns3:TrackPointExtension/>
        </extensions>
      </trkpt>
      <trkpt lat="44.36673757620155811309814453125" lon="-0.437897779047489166259765625">
        <ele>90.40000152587890625</ele>
        <time>2017-07-03T08:18:11.000Z</time>
        <extensions>
          <ns3:TrackPointExtension/>
        </extensions>
      </trkpt>
      <trkpt lat="44.36669281683862209320068359375" lon="-0.43714583851397037506103515625">
        <ele>90</ele>
        <time>2017-07-03T08:18:19.000Z</time>
        <extensions>
          <ns3:TrackPointExtension/>
        </extensions>
      </trkpt>
      <trkpt lat="44.3666593730449676513671875" lon="-0.4363841749727725982666015625">
        <ele>89</ele>
        <time>2017-07-03T08:18:27.000Z</time>
        <extensions>
          <ns3:TrackPointExtension/>
        </extensions>
      </trkpt>
      <trkpt lat="44.36661302112042903900146484375" lon="-0.4355436377227306365966796875">
        <ele>87.59999847412109375</ele>
        <time>2017-07-03T08:18:36.000Z</time>
        <extensions>
          <ns3:TrackPointExtension/>
        </extensions>
      </trkpt>
      <trkpt lat="44.36656507663428783416748046875" lon="-0.43477912433445453643798828125">
        <ele>88.59999847412109375</ele>
        <time>2017-07-03T08:18:44.000Z</time>
        <extensions>
          <ns3:TrackPointExtension/>
        </extensions>
      </trkpt>
      <trkpt lat="44.3665183894336223602294921875" lon="-0.434011928737163543701171875">
        <ele>90</ele>
        <time>2017-07-03T08:18:52.000Z</time>
        <extensions>
          <ns3:TrackPointExtension/>
        </extensions>
      </trkpt>
      <trkpt lat="44.3664716184139251708984375" lon="-0.4332426376640796661376953125">
        <ele>89.40000152587890625</ele>
        <time>2017-07-03T08:19:00.000Z</time>
        <extensions>
          <ns3:TrackPointExtension/>
        </extensions>
      </trkpt>
      <trkpt lat="44.36641554348170757293701171875" lon="-0.4324131645262241363525390625">
        <ele>89.40000152587890625</ele>
        <time>2017-07-03T08:19:09.000Z</time>
        <extensions>
          <ns3:TrackPointExtension/>
        </extensions>
      </trkpt>
      <trkpt lat="44.36636843718588352203369140625" lon="-0.43165066279470920562744140625">
        <ele>89.59999847412109375</ele>
        <time>2017-07-03T08:19:17.000Z</time>
        <extensions>
          <ns3:TrackPointExtension/>
        </extensions>
      </trkpt>
      <trkpt lat="44.366322420537471771240234375" lon="-0.43087265454232692718505859375">
        <ele>89.40000152587890625</ele>
        <time>2017-07-03T08:19:25.000Z</time>
        <extensions>
          <ns3:TrackPointExtension/>
        </extensions>
      </trkpt>
      <trkpt lat="44.36627380549907684326171875" lon="-0.43009690940380096435546875">
        <ele>89.59999847412109375</ele>
        <time>2017-07-03T08:19:33.000Z</time>
        <extensions>
          <ns3:TrackPointExtension/>
        </extensions>
      </trkpt>
      <trkpt lat="44.3662347458302974700927734375" lon="-0.42931278236210346221923828125">
        <ele>87.40000152587890625</ele>
        <time>2017-07-03T08:19:41.000Z</time>
        <extensions>
          <ns3:TrackPointExtension/>
        </extensions>
      </trkpt>
      <trkpt lat="44.3661884777247905731201171875" lon="-0.4285269789397716522216796875">
        <ele>84.8000030517578125</ele>
        <time>2017-07-03T08:19:49.000Z</time>
        <extensions>
          <ns3:TrackPointExtension/>
        </extensions>
      </trkpt>
      <trkpt lat="44.36613391153514385223388671875" lon="-0.42776196263730525970458984375">
        <ele>84.1999969482421875</ele>
        <time>2017-07-03T08:19:57.000Z</time>
        <extensions>
          <ns3:TrackPointExtension/>
        </extensions>
      </trkpt>
      <trkpt lat="44.36608496122062206268310546875" lon="-0.42697750031948089599609375">
        <ele>85.8000030517578125</ele>
        <time>2017-07-03T08:20:05.000Z</time>
        <extensions>
          <ns3:TrackPointExtension/>
        </extensions>
      </trkpt>
      <trkpt lat="44.366033412516117095947265625" lon="-0.4262259788811206817626953125">
        <ele>89.1999969482421875</ele>
        <time>2017-07-03T08:20:13.000Z</time>
        <extensions>
          <ns3:TrackPointExtension/>
        </extensions>
      </trkpt>
      <trkpt lat="44.36597867868840694427490234375" lon="-0.42546565644443035125732421875">
        <ele>91</ele>
        <time>2017-07-03T08:20:21.000Z</time>
        <extensions>
          <ns3:TrackPointExtension/>
        </extensions>
      </trkpt>
      <trkpt lat="44.36592989601194858551025390625" lon="-0.42471312917768955230712890625">
        <ele>89.40000152587890625</ele>
        <time>2017-07-03T08:20:29.000Z</time>
        <extensions>
          <ns3:TrackPointExtension/>
        </extensions>
      </trkpt>
      <trkpt lat="44.365877844393253326416015625" lon="-0.42388298548758029937744140625">
        <ele>88</ele>
        <time>2017-07-03T08:20:38.000Z</time>
        <extensions>
          <ns3:TrackPointExtension/>
        </extensions>
      </trkpt>
      <trkpt lat="44.3658220209181308746337890625" lon="-0.42306105606257915496826171875">
        <ele>88</ele>
        <time>2017-07-03T08:20:47.000Z</time>
        <extensions>
          <ns3:TrackPointExtension/>
        </extensions>
      </trkpt>
      <trkpt lat="44.36577030457556247711181640625" lon="-0.422255806624889373779296875">
        <ele>85.59999847412109375</ele>
        <time>2017-07-03T08:20:56.000Z</time>
        <extensions>
          <ns3:TrackPointExtension/>
        </extensions>
      </trkpt>
      <trkpt lat="44.36572420410811901092529296875" lon="-0.42143077589571475982666015625">
        <ele>85.40000152587890625</ele>
        <time>2017-07-03T08:21:05.000Z</time>
        <extensions>
          <ns3:TrackPointExtension/>
        </extensions>
      </trkpt>
      <trkpt lat="44.365666620433330535888671875" lon="-0.4205946810543537139892578125">
        <ele>86.1999969482421875</ele>
        <time>2017-07-03T08:21:14.000Z</time>
        <extensions>
          <ns3:TrackPointExtension/>
        </extensions>
      </trkpt>
      <trkpt lat="44.36561808921396732330322265625" lon="-0.419774092733860015869140625">
        <ele>87</ele>
        <time>2017-07-03T08:21:23.000Z</time>
        <extensions>
          <ns3:TrackPointExtension/>
        </extensions>
      </trkpt>
      <trkpt lat="44.3655623495578765869140625" lon="-0.4189410991966724395751953125">
        <ele>86.59999847412109375</ele>
        <time>2017-07-03T08:21:32.000Z</time>
        <extensions>
          <ns3:TrackPointExtension/>
        </extensions>
      </trkpt>
      <trkpt lat="44.365510381758213043212890625" lon="-0.41810735128819942474365234375">
        <ele>85.59999847412109375</ele>
        <time>2017-07-03T08:21:41.000Z</time>
        <extensions>
          <ns3:TrackPointExtension/>
        </extensions>
      </trkpt>
      <trkpt lat="44.3654572404921054840087890625" lon="-0.4172720946371555328369140625">
        <ele>86.8000030517578125</ele>
        <time>2017-07-03T08:21:50.000Z</time>
        <extensions>
          <ns3:TrackPointExtension/>
        </extensions>
      </trkpt>
      <trkpt lat="44.36530376784503459930419921875" lon="-0.4165135324001312255859375">
        <ele>88.59999847412109375</ele>
        <time>2017-07-03T08:21:59.000Z</time>
        <extensions>
          <ns3:TrackPointExtension/>
        </extensions>
      </trkpt>
      <trkpt lat="44.36522346921265125274658203125" lon="-0.4163621552288532257080078125">
        <ele>88.8000030517578125</ele>
        <time>2017-07-03T08:22:01.000Z</time>
        <extensions>
          <ns3:TrackPointExtension/>
        </extensions>
      </trkpt>
      <trkpt lat="44.36513110063970088958740234375" lon="-0.4162233509123325347900390625">
        <ele>88.8000030517578125</ele>
        <time>2017-07-03T08:22:03.000Z</time>
        <extensions>
          <ns3:TrackPointExtension/>
        </extensions>
      </trkpt>
      <trkpt lat="44.36472189612686634063720703125" lon="-0.41593073867261409759521484375">
        <ele>88.59999847412109375</ele>
        <time>2017-07-03T08:22:10.000Z</time>
        <extensions>
          <ns3:TrackPointExtension/>
        </extensions>
      </trkpt>
      <trkpt lat="44.36414035968482494354248046875" lon="-0.4158032499253749847412109375">
        <ele>89.1999969482421875</ele>
        <time>2017-07-03T08:22:19.000Z</time>
        <extensions>
          <ns3:TrackPointExtension/>
        </extensions>
      </trkpt>
      <trkpt lat="44.36355429701507091522216796875" lon="-0.41568137705326080322265625">
        <ele>89</ele>
        <time>2017-07-03T08:22:28.000Z</time>
        <extensions>
          <ns3:TrackPointExtension/>
        </extensions>
      </trkpt>
      <trkpt lat="44.362956918776035308837890625" lon="-0.4155652038753032684326171875">
        <ele>89.8000030517578125</ele>
        <time>2017-07-03T08:22:37.000Z</time>
        <extensions>
          <ns3:TrackPointExtension/>
        </extensions>
      </trkpt>
      <trkpt lat="44.36241921968758106231689453125" lon="-0.41546319611370563507080078125">
        <ele>90</ele>
        <time>2017-07-03T08:22:45.000Z</time>
        <extensions>
          <ns3:TrackPointExtension/>
        </extensions>
      </trkpt>
      <trkpt lat="44.36205376870930194854736328125" lon="-0.41527234017848968505859375">
        <ele>90.40000152587890625</ele>
        <time>2017-07-03T08:22:51.000Z</time>
        <extensions>
          <ns3:TrackPointExtension/>
        </extensions>
      </trkpt>
      <trkpt lat="44.36169669963419437408447265625" lon="-0.41470429860055446624755859375">
        <ele>92.1999969482421875</ele>
        <time>2017-07-03T08:22:59.000Z</time>
        <extensions>
          <ns3:TrackPointExtension/>
        </extensions>
      </trkpt>
      <trkpt lat="44.36136108823120594024658203125" lon="-0.4141054116189479827880859375">
        <ele>94</ele>
        <time>2017-07-03T08:23:07.000Z</time>
        <extensions>
          <ns3:TrackPointExtension/>
        </extensions>
      </trkpt>
      <trkpt lat="44.36100267805159091949462890625" lon="-0.41346930898725986480712890625">
        <ele>95.59999847412109375</ele>
        <time>2017-07-03T08:23:16.000Z</time>
        <extensions>
          <ns3:TrackPointExtension/>
        </extensions>
      </trkpt>
      <trkpt lat="44.36064829118549823760986328125" lon="-0.4128441028296947479248046875">
        <ele>96.8000030517578125</ele>
        <time>2017-07-03T08:23:25.000Z</time>
        <extensions>
          <ns3:TrackPointExtension/>
        </extensions>
      </trkpt>
      <trkpt lat="44.36029784381389617919921875" lon="-0.41222778148949146270751953125">
        <ele>97.8000030517578125</ele>
        <time>2017-07-03T08:23:34.000Z</time>
        <extensions>
          <ns3:TrackPointExtension/>
        </extensions>
      </trkpt>
      <trkpt lat="44.35993247665464878082275390625" lon="-0.411584638059139251708984375">
        <ele>96</ele>
        <time>2017-07-03T08:23:43.000Z</time>
        <extensions>
          <ns3:TrackPointExtension/>
        </extensions>
      </trkpt>
      <trkpt lat="44.35959820635616779327392578125" lon="-0.4109903611242771148681640625">
        <ele>95</ele>
        <time>2017-07-03T08:23:51.000Z</time>
        <extensions>
          <ns3:TrackPointExtension/>
        </extensions>
      </trkpt>
      <trkpt lat="44.3592512793838977813720703125" lon="-0.41036867536604404449462890625">
        <ele>93</ele>
        <time>2017-07-03T08:23:59.000Z</time>
        <extensions>
          <ns3:TrackPointExtension/>
        </extensions>
      </trkpt>
      <trkpt lat="44.35889831744134426116943359375" lon="-0.40975310839712619781494140625">
        <ele>93.59999847412109375</ele>
        <time>2017-07-03T08:24:07.000Z</time>
        <extensions>
          <ns3:TrackPointExtension/>
        </extensions>
      </trkpt>
      <trkpt lat="44.3585545755922794342041015625" lon="-0.409155897796154022216796875">
        <ele>94.40000152587890625</ele>
        <time>2017-07-03T08:24:15.000Z</time>
        <extensions>
          <ns3:TrackPointExtension/>
        </extensions>
      </trkpt>
      <trkpt lat="44.35821888037025928497314453125" lon="-0.40856271050870418548583984375">
        <ele>95.59999847412109375</ele>
        <time>2017-07-03T08:24:23.000Z</time>
        <extensions>
          <ns3:TrackPointExtension/>
        </extensions>
      </trkpt>
      <trkpt lat="44.3578483164310455322265625" lon="-0.4079034738242626190185546875">
        <ele>95.1999969482421875</ele>
        <time>2017-07-03T08:24:32.000Z</time>
        <extensions>
          <ns3:TrackPointExtension/>
        </extensions>
      </trkpt>
      <trkpt lat="44.35755620710551738739013671875" lon="-0.40717416442930698394775390625">
        <ele>97.59999847412109375</ele>
        <time>2017-07-03T08:24:41.000Z</time>
        <extensions>
          <ns3:TrackPointExtension/>
        </extensions>
      </trkpt>
      <trkpt lat="44.35731631703674793243408203125" lon="-0.4063987545669078826904296875">
        <ele>96.1999969482421875</ele>
        <time>2017-07-03T08:24:50.000Z</time>
        <extensions>
          <ns3:TrackPointExtension/>
        </extensions>
      </trkpt>
      <trkpt lat="44.357098639011383056640625" lon="-0.40570548735558986663818359375">
        <ele>96.1999969482421875</ele>
        <time>2017-07-03T08:24:58.000Z</time>
        <extensions>
          <ns3:TrackPointExtension/>
        </extensions>
      </trkpt>
      <trkpt lat="44.356826730072498321533203125" lon="-0.40504063479602336883544921875">
        <ele>97</ele>
        <time>2017-07-03T08:25:06.000Z</time>
        <extensions>
          <ns3:TrackPointExtension/>
        </extensions>
      </trkpt>
      <trkpt lat="44.35643822886049747467041015625" lon="-0.4044474475085735321044921875">
        <ele>97.1999969482421875</ele>
        <time>2017-07-03T08:25:15.000Z</time>
        <extensions>
          <ns3:TrackPointExtension/>
        </extensions>
      </trkpt>
      <trkpt lat="44.3560229055583477020263671875" lon="-0.4038479737937450408935546875">
        <ele>97.1999969482421875</ele>
        <time>2017-07-03T08:25:25.000Z</time>
        <extensions>
          <ns3:TrackPointExtension/>
        </extensions>
      </trkpt>
      <trkpt lat="44.35564295388758182525634765625" lon="-0.40330306626856327056884765625">
        <ele>97.40000152587890625</ele>
        <time>2017-07-03T08:25:34.000Z</time>
        <extensions>
          <ns3:TrackPointExtension/>
        </extensions>
      </trkpt>
      <trkpt lat="44.35526375658810138702392578125" lon="-0.40275715291500091552734375">
        <ele>96.8000030517578125</ele>
        <time>2017-07-03T08:25:43.000Z</time>
        <extensions>
          <ns3:TrackPointExtension/>
        </extensions>
      </trkpt>
      <trkpt lat="44.3550469167530536651611328125" lon="-0.4024307616055011749267578125">
        <ele>97</ele>
        <time>2017-07-03T08:25:49.000Z</time>
        <extensions>
          <ns3:TrackPointExtension/>
        </extensions>
      </trkpt>
      <trkpt lat="44.35485522262752056121826171875" lon="-0.40217268280684947967529296875">
        <ele>96</ele>
        <time>2017-07-03T08:25:55.000Z</time>
        <extensions>
          <ns3:TrackPointExtension/>
        </extensions>
      </trkpt>
      <trkpt lat="44.3544883467257022857666015625" lon="-0.401588045060634613037109375">
        <ele>94.59999847412109375</ele>
        <time>2017-07-03T08:26:12.000Z</time>
        <extensions>
          <ns3:TrackPointExtension/>
        </extensions>
      </trkpt>
      <trkpt lat="44.35408391989767551422119140625" lon="-0.400988571345806121826171875">
        <ele>95.40000152587890625</ele>
        <time>2017-07-03T08:26:23.000Z</time>
        <extensions>
          <ns3:TrackPointExtension/>
        </extensions>
      </trkpt>
      <trkpt lat="44.3536977656185626983642578125" lon="-0.400411896407604217529296875">
        <ele>97</ele>
        <time>2017-07-03T08:26:32.000Z</time>
        <extensions>
          <ns3:TrackPointExtension/>
        </extensions>
      </trkpt>
      <trkpt lat="44.353300966322422027587890625" lon="-0.39984033443033695220947265625">
        <ele>96.59999847412109375</ele>
        <time>2017-07-03T08:26:41.000Z</time>
        <extensions>
          <ns3:TrackPointExtension/>
        </extensions>
      </trkpt>
      <trkpt lat="44.35290634632110595703125" lon="-0.3992560319602489471435546875">
        <ele>95.8000030517578125</ele>
        <time>2017-07-03T08:26:50.000Z</time>
        <extensions>
          <ns3:TrackPointExtension/>
        </extensions>
      </trkpt>
      <trkpt lat="44.35246671549975872039794921875" lon="-0.39875152520835399627685546875">
        <ele>96.40000152587890625</ele>
        <time>2017-07-03T08:26:59.000Z</time>
        <extensions>
          <ns3:TrackPointExtension/>
        </extensions>
      </trkpt>
      <trkpt lat="44.35198433697223663330078125" lon="-0.3983182646334171295166015625">
        <ele>97</ele>
        <time>2017-07-03T08:27:08.000Z</time>
        <extensions>
          <ns3:TrackPointExtension/>
        </extensions>
      </trkpt>
      <trkpt lat="44.35149558819830417633056640625" lon="-0.3978723473846912384033203125">
        <ele>98.8000030517578125</ele>
        <time>2017-07-03T08:27:17.000Z</time>
        <extensions>
          <ns3:TrackPointExtension/>
        </extensions>
      </trkpt>
      <trkpt lat="44.351004324853420257568359375" lon="-0.39742031134665012359619140625">
        <ele>100.59999847412109375</ele>
        <time>2017-07-03T08:27:26.000Z</time>
        <extensions>
          <ns3:TrackPointExtension/>
        </extensions>
      </trkpt>
      <trkpt lat="44.35054675675928592681884765625" lon="-0.397015549242496490478515625">
        <ele>100.1999969482421875</ele>
        <time>2017-07-03T08:27:34.000Z</time>
        <extensions>
          <ns3:TrackPointExtension/>
        </extensions>
      </trkpt>
      <trkpt lat="44.3500372208654880523681640625" lon="-0.396557562053203582763671875">
        <ele>100.59999847412109375</ele>
        <time>2017-07-03T08:27:43.000Z</time>
        <extensions>
          <ns3:TrackPointExtension/>
        </extensions>
      </trkpt>
      <trkpt lat="44.349547885358333587646484375" lon="-0.39610988460481166839599609375">
        <ele>100</ele>
        <time>2017-07-03T08:27:52.000Z</time>
        <extensions>
          <ns3:TrackPointExtension/>
        </extensions>
      </trkpt>
      <trkpt lat="44.34906299225986003875732421875" lon="-0.39567436091601848602294921875">
        <ele>99.59999847412109375</ele>
        <time>2017-07-03T08:28:01.000Z</time>
        <extensions>
          <ns3:TrackPointExtension/>
        </extensions>
      </trkpt>
      <trkpt lat="44.34858421795070171356201171875" lon="-0.39523783139884471893310546875">
        <ele>98.8000030517578125</ele>
        <time>2017-07-03T08:28:10.000Z</time>
        <extensions>
          <ns3:TrackPointExtension/>
        </extensions>
      </trkpt>
      <trkpt lat="44.34810049831867218017578125" lon="-0.39480331353843212127685546875">
        <ele>99.1999969482421875</ele>
        <time>2017-07-03T08:28:19.000Z</time>
        <extensions>
          <ns3:TrackPointExtension/>
        </extensions>
      </trkpt>
      <trkpt lat="44.34762449003756046295166015625" lon="-0.3943727351725101470947265625">
        <ele>100.8000030517578125</ele>
        <time>2017-07-03T08:28:28.000Z</time>
        <extensions>
          <ns3:TrackPointExtension/>
        </extensions>
      </trkpt>
      <trkpt lat="44.34714638628065586090087890625" lon="-0.39393980987370014190673828125">
        <ele>103</ele>
        <time>2017-07-03T08:28:37.000Z</time>
        <extensions>
          <ns3:TrackPointExtension/>
        </extensions>
      </trkpt>
      <trkpt lat="44.3466720543801784515380859375" lon="-0.39351602084934711456298828125">
        <ele>105</ele>
        <time>2017-07-03T08:28:46.000Z</time>
        <extensions>
          <ns3:TrackPointExtension/>
        </extensions>
      </trkpt>
      <trkpt lat="44.34619353152811527252197265625" lon="-0.39309625513851642608642578125">
        <ele>106.8000030517578125</ele>
        <time>2017-07-03T08:28:55.000Z</time>
        <extensions>
          <ns3:TrackPointExtension/>
        </extensions>
      </trkpt>
      <trkpt lat="44.34571676887571811676025390625" lon="-0.39266760461032390594482421875">
        <ele>106.8000030517578125</ele>
        <time>2017-07-03T08:29:04.000Z</time>
        <extensions>
          <ns3:TrackPointExtension/>
        </extensions>
      </trkpt>
      <trkpt lat="44.3452380783855915069580078125" lon="-0.39223476313054561614990234375">
        <ele>106</ele>
        <time>2017-07-03T08:29:13.000Z</time>
        <extensions>
          <ns3:TrackPointExtension/>
        </extensions>
      </trkpt>
      <trkpt lat="44.34475578367710113525390625" lon="-0.39181097410619258880615234375">
        <ele>105.40000152587890625</ele>
        <time>2017-07-03T08:29:22.000Z</time>
        <extensions>
          <ns3:TrackPointExtension/>
        </extensions>
      </trkpt>
      <trkpt lat="44.344264604151248931884765625" lon="-0.3913653083145618438720703125">
        <ele>106</ele>
        <time>2017-07-03T08:29:31.000Z</time>
        <extensions>
          <ns3:TrackPointExtension/>
        </extensions>
      </trkpt>
      <trkpt lat="44.34416008181869983673095703125" lon="-0.3912563435733318328857421875">
        <ele>106</ele>
        <time>2017-07-03T08:29:33.000Z</time>
        <extensions>
          <ns3:TrackPointExtension/>
        </extensions>
      </trkpt>
      <trkpt lat="44.34384240768849849700927734375" lon="-0.390546061098575592041015625">
        <ele>107.8000030517578125</ele>
        <time>2017-07-03T08:29:42.000Z</time>
        <extensions>
          <ns3:TrackPointExtension/>
        </extensions>
      </trkpt>
      <trkpt lat="44.3436478637158870697021484375" lon="-0.38981013000011444091796875">
        <ele>109.8000030517578125</ele>
        <time>2017-07-03T08:29:50.000Z</time>
        <extensions>
          <ns3:TrackPointExtension/>
        </extensions>
      </trkpt>
      <trkpt lat="44.3434529006481170654296875" lon="-0.38909439928829669952392578125">
        <ele>109.40000152587890625</ele>
        <time>2017-07-03T08:29:58.000Z</time>
        <extensions>
          <ns3:TrackPointExtension/>
        </extensions>
      </trkpt>
      <trkpt lat="44.34326137416064739227294921875" lon="-0.38837757892906665802001953125">
        <ele>109.40000152587890625</ele>
        <time>2017-07-03T08:30:06.000Z</time>
        <extensions>
          <ns3:TrackPointExtension/>
        </extensions>
      </trkpt>
      <trkpt lat="44.34306423179805278778076171875" lon="-0.38766176439821720123291015625">
        <ele>108.59999847412109375</ele>
        <time>2017-07-03T08:30:14.000Z</time>
        <extensions>
          <ns3:TrackPointExtension/>
        </extensions>
      </trkpt>
      <trkpt lat="44.3428480625152587890625" lon="-0.38687403313815593719482421875">
        <ele>106.59999847412109375</ele>
        <time>2017-07-03T08:30:23.000Z</time>
        <extensions>
          <ns3:TrackPointExtension/>
        </extensions>
      </trkpt>
      <trkpt lat="44.342633821070194244384765625" lon="-0.38608445785939693450927734375">
        <ele>107.40000152587890625</ele>
        <time>2017-07-03T08:30:32.000Z</time>
        <extensions>
          <ns3:TrackPointExtension/>
        </extensions>
      </trkpt>
      <trkpt lat="44.34243173338472843170166015625" lon="-0.3853631950914859771728515625">
        <ele>108</ele>
        <time>2017-07-03T08:30:40.000Z</time>
        <extensions>
          <ns3:TrackPointExtension/>
        </extensions>
      </trkpt>
      <trkpt lat="44.34223207645118236541748046875" lon="-0.3846467100083827972412109375">
        <ele>105</ele>
        <time>2017-07-03T08:30:48.000Z</time>
        <extensions>
          <ns3:TrackPointExtension/>
        </extensions>
      </trkpt>
      <trkpt lat="44.34201297350227832794189453125" lon="-0.383933745324611663818359375">
        <ele>104</ele>
        <time>2017-07-03T08:30:56.000Z</time>
        <extensions>
          <ns3:TrackPointExtension/>
        </extensions>
      </trkpt>
      <trkpt lat="44.34173251502215862274169921875" lon="-0.3832871653139591217041015625">
        <ele>105.8000030517578125</ele>
        <time>2017-07-03T08:31:04.000Z</time>
        <extensions>
          <ns3:TrackPointExtension/>
        </extensions>
      </trkpt>
      <trkpt lat="44.3414273299276828765869140625" lon="-0.3825782239437103271484375">
        <ele>105.40000152587890625</ele>
        <time>2017-07-03T08:31:13.000Z</time>
        <extensions>
          <ns3:TrackPointExtension/>
        </extensions>
      </trkpt>
      <trkpt lat="44.34123530052602291107177734375" lon="-0.38186014629900455474853515625">
        <ele>103.59999847412109375</ele>
        <time>2017-07-03T08:31:22.000Z</time>
        <extensions>
          <ns3:TrackPointExtension/>
        </extensions>
      </trkpt>
      <trkpt lat="44.341155923902988433837890625" lon="-0.38110359571874141693115234375">
        <ele>103.1999969482421875</ele>
        <time>2017-07-03T08:31:31.000Z</time>
        <extensions>
          <ns3:TrackPointExtension/>
        </extensions>
      </trkpt>
      <trkpt lat="44.3411406688392162322998046875" lon="-0.3806827403604984283447265625">
        <ele>103.8000030517578125</ele>
        <time>2017-07-03T08:31:36.000Z</time>
        <extensions>
          <ns3:TrackPointExtension/>
        </extensions>
      </trkpt>
      <trkpt lat="44.3414122425019741058349609375" lon="-0.3800856135785579681396484375">
        <ele>104.40000152587890625</ele>
        <time>2017-07-03T08:31:45.000Z</time>
        <extensions>
          <ns3:TrackPointExtension/>
        </extensions>
      </trkpt>
      <trkpt lat="44.341499246656894683837890625" lon="-0.38000506348907947540283203125">
        <ele>104.59999847412109375</ele>
        <time>2017-07-03T08:31:47.000Z</time>
        <extensions>
          <ns3:TrackPointExtension/>
        </extensions>
      </trkpt>
      <trkpt lat="44.34180879034101963043212890625" lon="-0.3797466494143009185791015625">
        <ele>104.8000030517578125</ele>
        <time>2017-07-03T08:31:54.000Z</time>
        <extensions>
          <ns3:TrackPointExtension/>
        </extensions>
      </trkpt>
      <trkpt lat="44.34184684418141841888427734375" lon="-0.3793198429048061370849609375">
        <ele>104.1999969482421875</ele>
        <time>2017-07-03T08:32:00.000Z</time>
        <extensions>
          <ns3:TrackPointExtension/>
        </extensions>
      </trkpt>
      <trkpt lat="44.34160443954169750213623046875" lon="-0.3786432556807994842529296875">
        <ele>103.59999847412109375</ele>
        <time>2017-07-03T08:32:09.000Z</time>
        <extensions>
          <ns3:TrackPointExtension/>
        </extensions>
      </trkpt>
      <trkpt lat="44.34137628413736820220947265625" lon="-0.3779406845569610595703125">
        <ele>105.40000152587890625</ele>
        <time>2017-07-03T08:32:17.000Z</time>
        <extensions>
          <ns3:TrackPointExtension/>
        </extensions>
      </trkpt>
      <trkpt lat="44.3410979211330413818359375" lon="-0.377210117876529693603515625">
        <ele>105.40000152587890625</ele>
        <time>2017-07-03T08:32:25.000Z</time>
        <extensions>
          <ns3:TrackPointExtension/>
        </extensions>
      </trkpt>
      <trkpt lat="44.34100831858813762664794921875" lon="-0.37705781869590282440185546875">
        <ele>104.8000030517578125</ele>
        <time>2017-07-03T08:32:27.000Z</time>
        <extensions>
          <ns3:TrackPointExtension/>
        </extensions>
      </trkpt>
      <trkpt lat="44.34059190563857555389404296875" lon="-0.37654618732631206512451171875">
        <ele>103.8000030517578125</ele>
        <time>2017-07-03T08:32:35.000Z</time>
        <extensions>
          <ns3:TrackPointExtension/>
        </extensions>
      </trkpt>
      <trkpt lat="44.340194351971149444580078125" lon="-0.37603070028126239776611328125">
        <ele>104.1999969482421875</ele>
        <time>2017-07-03T08:32:43.000Z</time>
        <extensions>
          <ns3:TrackPointExtension/>
        </extensions>
      </trkpt>
      <trkpt lat="44.3399078585207462310791015625" lon="-0.37536383606493473052978515625">
        <ele>103.1999969482421875</ele>
        <time>2017-07-03T08:32:51.000Z</time>
        <extensions>
          <ns3:TrackPointExtension/>
        </extensions>
      </trkpt>
      <trkpt lat="44.3396667949855327606201171875" lon="-0.37463444285094738006591796875">
        <ele>101.1999969482421875</ele>
        <time>2017-07-03T08:32:59.000Z</time>
        <extensions>
          <ns3:TrackPointExtension/>
        </extensions>
      </trkpt>
      <trkpt lat="44.33937929570674896240234375" lon="-0.373923070728778839111328125">
        <ele>102</ele>
        <time>2017-07-03T08:33:07.000Z</time>
        <extensions>
          <ns3:TrackPointExtension/>
        </extensions>
      </trkpt>
      <trkpt lat="44.33906950056552886962890625" lon="-0.37323583848774433135986328125">
        <ele>103.8000030517578125</ele>
        <time>2017-07-03T08:33:15.000Z</time>
        <extensions>
          <ns3:TrackPointExtension/>
        </extensions>
      </trkpt>
      <trkpt lat="44.33876506984233856201171875" lon="-0.37254701368510723114013671875">
        <ele>102</ele>
        <time>2017-07-03T08:33:23.000Z</time>
        <extensions>
          <ns3:TrackPointExtension/>
        </extensions>
      </trkpt>
      <trkpt lat="44.3384631536900997161865234375" lon="-0.3718589432537555694580078125">
        <ele>102.1999969482421875</ele>
        <time>2017-07-03T08:33:31.000Z</time>
        <extensions>
          <ns3:TrackPointExtension/>
        </extensions>
      </trkpt>
      <trkpt lat="44.33816266246140003204345703125" lon="-0.371163748204708099365234375">
        <ele>103.8000030517578125</ele>
        <time>2017-07-03T08:33:39.000Z</time>
        <extensions>
          <ns3:TrackPointExtension/>
        </extensions>
      </trkpt>
      <trkpt lat="44.33785052038729190826416015625" lon="-0.3704628534615039825439453125">
        <ele>106</ele>
        <time>2017-07-03T08:33:47.000Z</time>
        <extensions>
          <ns3:TrackPointExtension/>
        </extensions>
      </trkpt>
      <trkpt lat="44.33754106052219867706298828125" lon="-0.369769670069217681884765625">
        <ele>107</ele>
        <time>2017-07-03T08:33:55.000Z</time>
        <extensions>
          <ns3:TrackPointExtension/>
        </extensions>
      </trkpt>
      <trkpt lat="44.337235204875469207763671875" lon="-0.36908796988427639007568359375">
        <ele>109.8000030517578125</ele>
        <time>2017-07-03T08:34:03.000Z</time>
        <extensions>
          <ns3:TrackPointExtension/>
        </extensions>
      </trkpt>
      <trkpt lat="44.33701400645077228546142578125" lon="-0.368384309113025665283203125">
        <ele>109.8000030517578125</ele>
        <time>2017-07-03T08:34:11.000Z</time>
        <extensions>
          <ns3:TrackPointExtension/>
        </extensions>
      </trkpt>
      <trkpt lat="44.3369544111192226409912109375" lon="-0.367576964199542999267578125">
        <ele>108</ele>
        <time>2017-07-03T08:34:19.000Z</time>
        <extensions>
          <ns3:TrackPointExtension/>
        </extensions>
      </trkpt>
      <trkpt lat="44.33690537698566913604736328125" lon="-0.3667818568646907806396484375">
        <ele>105.1999969482421875</ele>
        <time>2017-07-03T08:34:27.000Z</time>
        <extensions>
          <ns3:TrackPointExtension/>
        </extensions>
      </trkpt>
      <trkpt lat="44.3368477933108806610107421875" lon="-0.36597191356122493743896484375">
        <ele>102.8000030517578125</ele>
        <time>2017-07-03T08:34:35.000Z</time>
        <extensions>
          <ns3:TrackPointExtension/>
        </extensions>
      </trkpt>
      <trkpt lat="44.3367767147719860076904296875" lon="-0.36535718478262424468994140625">
        <ele>101.8000030517578125</ele>
        <time>2017-07-03T08:34:41.000Z</time>
        <extensions>
          <ns3:TrackPointExtension/>
        </extensions>
      </trkpt>
      <trkpt lat="44.33656297624111175537109375" lon="-0.36493800580501556396484375">
        <ele>102.40000152587890625</ele>
        <time>2017-07-03T08:34:46.000Z</time>
        <extensions>
          <ns3:TrackPointExtension/>
        </extensions>
      </trkpt>
      <trkpt lat="44.33607213199138641357421875" lon="-0.36448680795729160308837890625">
        <ele>103.1999969482421875</ele>
        <time>2017-07-03T08:34:54.000Z</time>
        <extensions>
          <ns3:TrackPointExtension/>
        </extensions>
      </trkpt>
      <trkpt lat="44.33557449840009212493896484375" lon="-0.36407458595931529998779296875">
        <ele>102.59999847412109375</ele>
        <time>2017-07-03T08:35:02.000Z</time>
        <extensions>
          <ns3:TrackPointExtension/>
        </extensions>
      </trkpt>
      <trkpt lat="44.33510343544185161590576171875" lon="-0.36361995153129100799560546875">
        <ele>102</ele>
        <time>2017-07-03T08:35:10.000Z</time>
        <extensions>
          <ns3:TrackPointExtension/>
        </extensions>
      </trkpt>
      <trkpt lat="44.3347861804068088531494140625" lon="-0.3629771433770656585693359375">
        <ele>103.8000030517578125</ele>
        <time>2017-07-03T08:35:18.000Z</time>
        <extensions>
          <ns3:TrackPointExtension/>
        </extensions>
      </trkpt>
      <trkpt lat="44.334533214569091796875" lon="-0.3622658550739288330078125">
        <ele>105.8000030517578125</ele>
        <time>2017-07-03T08:35:26.000Z</time>
        <extensions>
          <ns3:TrackPointExtension/>
        </extensions>
      </trkpt>
      <trkpt lat="44.33438837528228759765625" lon="-0.36150620318949222564697265625">
        <ele>104.59999847412109375</ele>
        <time>2017-07-03T08:35:34.000Z</time>
        <extensions>
          <ns3:TrackPointExtension/>
        </extensions>
      </trkpt>
      <trkpt lat="44.3342483974993228912353515625" lon="-0.36073272116482257843017578125">
        <ele>103.1999969482421875</ele>
        <time>2017-07-03T08:35:42.000Z</time>
        <extensions>
          <ns3:TrackPointExtension/>
        </extensions>
      </trkpt>
      <trkpt lat="44.3341156281530857086181640625" lon="-0.35996091552078723907470703125">
        <ele>105</ele>
        <time>2017-07-03T08:35:50.000Z</time>
        <extensions>
          <ns3:TrackPointExtension/>
        </extensions>
      </trkpt>
      <trkpt lat="44.3339791707694530487060546875" lon="-0.359196402132511138916015625">
        <ele>107</ele>
        <time>2017-07-03T08:35:58.000Z</time>
        <extensions>
          <ns3:TrackPointExtension/>
        </extensions>
      </trkpt>
      <trkpt lat="44.3338383547961711883544921875" lon="-0.358421243727207183837890625">
        <ele>106.59999847412109375</ele>
        <time>2017-07-03T08:36:06.000Z</time>
        <extensions>
          <ns3:TrackPointExtension/>
        </extensions>
      </trkpt>
      <trkpt lat="44.33369225822389125823974609375" lon="-0.35762152634561061859130859375">
        <ele>105.1999969482421875</ele>
        <time>2017-07-03T08:36:14.000Z</time>
        <extensions>
          <ns3:TrackPointExtension/>
        </extensions>
      </trkpt>
      <trkpt lat="44.33355278335511684417724609375" lon="-0.3568379022181034088134765625">
        <ele>103.59999847412109375</ele>
        <time>2017-07-03T08:36:22.000Z</time>
        <extensions>
          <ns3:TrackPointExtension/>
        </extensions>
      </trkpt>
      <trkpt lat="44.3334118835628032684326171875" lon="-0.35605796612799167633056640625">
        <ele>102.40000152587890625</ele>
        <time>2017-07-03T08:36:30.000Z</time>
        <extensions>
          <ns3:TrackPointExtension/>
        </extensions>
      </trkpt>
      <trkpt lat="44.3332737497985363006591796875" lon="-0.3552882559597492218017578125">
        <ele>106.59999847412109375</ele>
        <time>2017-07-03T08:36:38.000Z</time>
        <extensions>
          <ns3:TrackPointExtension/>
        </extensions>
      </trkpt>
      <trkpt lat="44.33313955552875995635986328125" lon="-0.35452701151371002197265625">
        <ele>109.8000030517578125</ele>
        <time>2017-07-03T08:36:46.000Z</time>
        <extensions>
          <ns3:TrackPointExtension/>
        </extensions>
      </trkpt>
      <trkpt lat="44.33299941010773181915283203125" lon="-0.35375730134546756744384765625">
        <ele>107</ele>
        <time>2017-07-03T08:36:54.000Z</time>
        <extensions>
          <ns3:TrackPointExtension/>
        </extensions>
      </trkpt>
      <trkpt lat="44.33286152780055999755859375" lon="-0.35298750735819339752197265625">
        <ele>102.1999969482421875</ele>
        <time>2017-07-03T08:37:02.000Z</time>
        <extensions>
          <ns3:TrackPointExtension/>
        </extensions>
      </trkpt>
      <trkpt lat="44.33272783644497394561767578125" lon="-0.35222324542701244354248046875">
        <ele>102.8000030517578125</ele>
        <time>2017-07-03T08:37:10.000Z</time>
        <extensions>
          <ns3:TrackPointExtension/>
        </extensions>
      </trkpt>
      <trkpt lat="44.3325912952423095703125" lon="-0.3514577262103557586669921875">
        <ele>103.1999969482421875</ele>
        <time>2017-07-03T08:37:18.000Z</time>
        <extensions>
          <ns3:TrackPointExtension/>
        </extensions>
      </trkpt>
      <trkpt lat="44.33245190419256687164306640625" lon="-0.3506731800734996795654296875">
        <ele>104.1999969482421875</ele>
        <time>2017-07-03T08:37:26.000Z</time>
        <extensions>
          <ns3:TrackPointExtension/>
        </extensions>
      </trkpt>
      <trkpt lat="44.33229935355484485626220703125" lon="-0.34986172802746295928955078125">
        <ele>103.1999969482421875</ele>
        <time>2017-07-03T08:37:34.000Z</time>
        <extensions>
          <ns3:TrackPointExtension/>
        </extensions>
      </trkpt>
      <trkpt lat="44.33215719647705554962158203125" lon="-0.3490551374852657318115234375">
        <ele>103.1999969482421875</ele>
        <time>2017-07-03T08:37:42.000Z</time>
        <extensions>
          <ns3:TrackPointExtension/>
        </extensions>
      </trkpt>
      <trkpt lat="44.33201302774250507354736328125" lon="-0.3482736088335514068603515625">
        <ele>105</ele>
        <time>2017-07-03T08:37:50.000Z</time>
        <extensions>
          <ns3:TrackPointExtension/>
        </extensions>
      </trkpt>
      <trkpt lat="44.3318702839314937591552734375" lon="-0.347476489841938018798828125">
        <ele>102.8000030517578125</ele>
        <time>2017-07-03T08:37:58.000Z</time>
        <extensions>
          <ns3:TrackPointExtension/>
        </extensions>
      </trkpt>
      <trkpt lat="44.33172217570245265960693359375" lon="-0.3466500341892242431640625">
        <ele>100.40000152587890625</ele>
        <time>2017-07-03T08:38:06.000Z</time>
        <extensions>
          <ns3:TrackPointExtension/>
        </extensions>
      </trkpt>
      <trkpt lat="44.33158077299594879150390625" lon="-0.34587177447974681854248046875">
        <ele>104</ele>
        <time>2017-07-03T08:38:14.000Z</time>
        <extensions>
          <ns3:TrackPointExtension/>
        </extensions>
      </trkpt>
      <trkpt lat="44.3314558826386928558349609375" lon="-0.34510910511016845703125">
        <ele>103.59999847412109375</ele>
        <time>2017-07-03T08:38:22.000Z</time>
        <extensions>
          <ns3:TrackPointExtension/>
        </extensions>
      </trkpt>
      <trkpt lat="44.33143601752817630767822265625" lon="-0.3448207676410675048828125">
        <ele>103.1999969482421875</ele>
        <time>2017-07-03T08:38:25.000Z</time>
        <extensions>
          <ns3:TrackPointExtension/>
        </extensions>
      </trkpt>
      <trkpt lat="44.33146812021732330322265625" lon="-0.34400738775730133056640625">
        <ele>102.59999847412109375</ele>
        <time>2017-07-03T08:38:33.000Z</time>
        <extensions>
          <ns3:TrackPointExtension/>
        </extensions>
      </trkpt>
      <trkpt lat="44.3315090239048004150390625" lon="-0.343176238238811492919921875">
        <ele>102.1999969482421875</ele>
        <time>2017-07-03T08:38:41.000Z</time>
        <extensions>
          <ns3:TrackPointExtension/>
        </extensions>
      </trkpt>
      <trkpt lat="44.33155797421932220458984375" lon="-0.342358835041522979736328125">
        <ele>101</ele>
        <time>2017-07-03T08:38:49.000Z</time>
        <extensions>
          <ns3:TrackPointExtension/>
        </extensions>
      </trkpt>
      <trkpt lat="44.3316094391047954559326171875" lon="-0.34206806682050228118896484375">
        <ele>101</ele>
        <time>2017-07-03T08:38:52.000Z</time>
        <extensions>
          <ns3:TrackPointExtension/>
        </extensions>
      </trkpt>
      <trkpt lat="44.3318925797939300537109375" lon="-0.3413618914783000946044921875">
        <ele>101</ele>
        <time>2017-07-03T08:39:00.000Z</time>
        <extensions>
          <ns3:TrackPointExtension/>
        </extensions>
      </trkpt>
      <trkpt lat="44.3321978487074375152587890625" lon="-0.340636856853961944580078125">
        <ele>101.8000030517578125</ele>
        <time>2017-07-03T08:39:08.000Z</time>
        <extensions>
          <ns3:TrackPointExtension/>
        </extensions>
      </trkpt>
      <trkpt lat="44.3324895389378070831298828125" lon="-0.34000243060290813446044921875">
        <ele>102.8000030517578125</ele>
        <time>2017-07-03T08:39:15.000Z</time>
        <extensions>
          <ns3:TrackPointExtension/>
        </extensions>
      </trkpt>
      <trkpt lat="44.332802854478359222412109375" lon="-0.3392778150737285614013671875">
        <ele>104</ele>
        <time>2017-07-03T08:39:23.000Z</time>
        <extensions>
          <ns3:TrackPointExtension/>
        </extensions>
      </trkpt>
      <trkpt lat="44.3331104703247547149658203125" lon="-0.33855051733553409576416015625">
        <ele>103</ele>
        <time>2017-07-03T08:39:31.000Z</time>
        <extensions>
          <ns3:TrackPointExtension/>
        </extensions>
      </trkpt>
      <trkpt lat="44.3334256298840045928955078125" lon="-0.33782565034925937652587890625">
        <ele>102.40000152587890625</ele>
        <time>2017-07-03T08:39:39.000Z</time>
        <extensions>
          <ns3:TrackPointExtension/>
        </extensions>
      </trkpt>
      <trkpt lat="44.33372997678816318511962890625" lon="-0.337145961821079254150390625">
        <ele>101.40000152587890625</ele>
        <time>2017-07-03T08:39:47.000Z</time>
        <extensions>
          <ns3:TrackPointExtension/>
        </extensions>
      </trkpt>
      <trkpt lat="44.3340341560542583465576171875" lon="-0.33646727912127971649169921875">
        <ele>103.40000152587890625</ele>
        <time>2017-07-03T08:39:55.000Z</time>
        <extensions>
          <ns3:TrackPointExtension/>
        </extensions>
      </trkpt>
      <trkpt lat="44.33433732949197292327880859375" lon="-0.3357788734138011932373046875">
        <ele>103.40000152587890625</ele>
        <time>2017-07-03T08:40:03.000Z</time>
        <extensions>
          <ns3:TrackPointExtension/>
        </extensions>
      </trkpt>
      <trkpt lat="44.3346426822245121002197265625" lon="-0.3350761346518993377685546875">
        <ele>102.59999847412109375</ele>
        <time>2017-07-03T08:40:11.000Z</time>
        <extensions>
          <ns3:TrackPointExtension/>
        </extensions>
      </trkpt>
      <trkpt lat="44.33494870550930500030517578125" lon="-0.33437029458582401275634765625">
        <ele>101.8000030517578125</ele>
        <time>2017-07-03T08:40:19.000Z</time>
        <extensions>
          <ns3:TrackPointExtension/>
        </extensions>
      </trkpt>
      <trkpt lat="44.335256405174732208251953125" lon="-0.33366789110004901885986328125">
        <ele>101</ele>
        <time>2017-07-03T08:40:27.000Z</time>
        <extensions>
          <ns3:TrackPointExtension/>
        </extensions>
      </trkpt>
      <trkpt lat="44.33557148091495037078857421875" lon="-0.332936234772205352783203125">
        <ele>100.59999847412109375</ele>
        <time>2017-07-03T08:40:35.000Z</time>
        <extensions>
          <ns3:TrackPointExtension/>
        </extensions>
      </trkpt>
      <trkpt lat="44.3358899094164371490478515625" lon="-0.3322058357298374176025390625">
        <ele>100.59999847412109375</ele>
        <time>2017-07-03T08:40:43.000Z</time>
        <extensions>
          <ns3:TrackPointExtension/>
        </extensions>
      </trkpt>
      <trkpt lat="44.336206577718257904052734375" lon="-0.33147250302135944366455078125">
        <ele>100.59999847412109375</ele>
        <time>2017-07-03T08:40:51.000Z</time>
        <extensions>
          <ns3:TrackPointExtension/>
        </extensions>
      </trkpt>
      <trkpt lat="44.33651042170822620391845703125" lon="-0.3307611308991909027099609375">
        <ele>99.1999969482421875</ele>
        <time>2017-07-03T08:40:59.000Z</time>
        <extensions>
          <ns3:TrackPointExtension/>
        </extensions>
      </trkpt>
      <trkpt lat="44.3368251621723175048828125" lon="-0.3300382755696773529052734375">
        <ele>98.59999847412109375</ele>
        <time>2017-07-03T08:41:07.000Z</time>
        <extensions>
          <ns3:TrackPointExtension/>
        </extensions>
      </trkpt>
      <trkpt lat="44.3371418304741382598876953125" lon="-0.329319275915622711181640625">
        <ele>98</ele>
        <time>2017-07-03T08:41:15.000Z</time>
        <extensions>
          <ns3:TrackPointExtension/>
        </extensions>
      </trkpt>
      <trkpt lat="44.33746277354657649993896484375" lon="-0.3286016173660755157470703125">
        <ele>96.40000152587890625</ele>
        <time>2017-07-03T08:41:23.000Z</time>
        <extensions>
          <ns3:TrackPointExtension/>
        </extensions>
      </trkpt>
      <trkpt lat="44.3377506919205188751220703125" lon="-0.32795109786093235015869140625">
        <ele>95.8000030517578125</ele>
        <time>2017-07-03T08:41:30.000Z</time>
        <extensions>
          <ns3:TrackPointExtension/>
        </extensions>
      </trkpt>
      <trkpt lat="44.3380306474864482879638671875" lon="-0.32729177735745906829833984375">
        <ele>95</ele>
        <time>2017-07-03T08:41:37.000Z</time>
        <extensions>
          <ns3:TrackPointExtension/>
        </extensions>
      </trkpt>
      <trkpt lat="44.33814723975956439971923828125" lon="-0.32682783901691436767578125">
        <ele>93.40000152587890625</ele>
        <time>2017-07-03T08:41:41.000Z</time>
        <extensions>
          <ns3:TrackPointExtension/>
        </extensions>
      </trkpt>
      <trkpt lat="44.338215887546539306640625" lon="-0.32600716687738895416259765625">
        <ele>92</ele>
        <time>2017-07-03T08:41:47.000Z</time>
        <extensions>
          <ns3:TrackPointExtension/>
        </extensions>
      </trkpt>
      <trkpt lat="44.3382733874022960662841796875" lon="-0.32521541230380535125732421875">
        <ele>90.59999847412109375</ele>
        <time>2017-07-03T08:41:54.000Z</time>
        <extensions>
          <ns3:TrackPointExtension/>
        </extensions>
      </trkpt>
      <trkpt lat="44.33833591639995574951171875" lon="-0.324448049068450927734375">
        <ele>89.40000152587890625</ele>
        <time>2017-07-03T08:42:01.000Z</time>
        <extensions>
          <ns3:TrackPointExtension/>
        </extensions>
      </trkpt>
      <trkpt lat="44.33839819394052028656005859375" lon="-0.32369929365813732147216796875">
        <ele>87.8000030517578125</ele>
        <time>2017-07-03T08:42:09.000Z</time>
        <extensions>
          <ns3:TrackPointExtension/>
        </extensions>
      </trkpt>
      <trkpt lat="44.33847011066973209381103515625" lon="-0.3229468502104282379150390625">
        <ele>87.59999847412109375</ele>
        <time>2017-07-03T08:42:17.000Z</time>
        <extensions>
          <ns3:TrackPointExtension/>
        </extensions>
      </trkpt>
      <trkpt lat="44.33851453475654125213623046875" lon="-0.322163812816143035888671875">
        <ele>88.1999969482421875</ele>
        <time>2017-07-03T08:42:25.000Z</time>
        <extensions>
          <ns3:TrackPointExtension/>
        </extensions>
      </trkpt>
      <trkpt lat="44.338565580546855926513671875" lon="-0.32140265218913555145263671875">
        <ele>89</ele>
        <time>2017-07-03T08:42:33.000Z</time>
        <extensions>
          <ns3:TrackPointExtension/>
        </extensions>
      </trkpt>
      <trkpt lat="44.33862626552581787109375" lon="-0.32064132392406463623046875">
        <ele>89.8000030517578125</ele>
        <time>2017-07-03T08:42:41.000Z</time>
        <extensions>
          <ns3:TrackPointExtension/>
        </extensions>
      </trkpt>
      <trkpt lat="44.33869122527539730072021484375" lon="-0.31984579749405384063720703125">
        <ele>90</ele>
        <time>2017-07-03T08:42:49.000Z</time>
        <extensions>
          <ns3:TrackPointExtension/>
        </extensions>
      </trkpt>
      <trkpt lat="44.338758699595928192138671875" lon="-0.3190274722874164581298828125">
        <ele>90</ele>
        <time>2017-07-03T08:42:57.000Z</time>
        <extensions>
          <ns3:TrackPointExtension/>
        </extensions>
      </trkpt>
      <trkpt lat="44.338760711252689361572265625" lon="-0.3182244859635829925537109375">
        <ele>90.59999847412109375</ele>
        <time>2017-07-03T08:43:05.000Z</time>
        <extensions>
          <ns3:TrackPointExtension/>
        </extensions>
      </trkpt>
      <trkpt lat="44.3386224098503589630126953125" lon="-0.31746718101203441619873046875">
        <ele>91.59999847412109375</ele>
        <time>2017-07-03T08:43:13.000Z</time>
        <extensions>
          <ns3:TrackPointExtension/>
        </extensions>
      </trkpt>
      <trkpt lat="44.338488467037677764892578125" lon="-0.31673728488385677337646484375">
        <ele>90.59999847412109375</ele>
        <time>2017-07-03T08:43:21.000Z</time>
        <extensions>
          <ns3:TrackPointExtension/>
        </extensions>
      </trkpt>
      <trkpt lat="44.33834530413150787353515625" lon="-0.31591569073498249053955078125">
        <ele>88.59999847412109375</ele>
        <time>2017-07-03T08:43:30.000Z</time>
        <extensions>
          <ns3:TrackPointExtension/>
        </extensions>
      </trkpt>
      <trkpt lat="44.33831579983234405517578125" lon="-0.3155382536351680755615234375">
        <ele>87.40000152587890625</ele>
        <time>2017-07-03T08:43:34.000Z</time>
        <extensions>
          <ns3:TrackPointExtension/>
        </extensions>
      </trkpt>
      <trkpt lat="44.3386043049395084381103515625" lon="-0.31506576575338840484619140625">
        <ele>85.59999847412109375</ele>
        <time>2017-07-03T08:43:41.000Z</time>
        <extensions>
          <ns3:TrackPointExtension/>
        </extensions>
      </trkpt>
      <trkpt lat="44.33901627548038959503173828125" lon="-0.314672403037548065185546875">
        <ele>85.40000152587890625</ele>
        <time>2017-07-03T08:43:48.000Z</time>
        <extensions>
          <ns3:TrackPointExtension/>
        </extensions>
      </trkpt>
      <trkpt lat="44.33928164653480052947998046875" lon="-0.31393538229167461395263671875">
        <ele>89</ele>
        <time>2017-07-03T08:43:56.000Z</time>
        <extensions>
          <ns3:TrackPointExtension/>
        </extensions>
      </trkpt>
      <trkpt lat="44.33950192295014858245849609375" lon="-0.3131587989628314971923828125">
        <ele>90.8000030517578125</ele>
        <time>2017-07-03T08:44:04.000Z</time>
        <extensions>
          <ns3:TrackPointExtension/>
        </extensions>
      </trkpt>
      <trkpt lat="44.33972974307835102081298828125" lon="-0.31236159615218639373779296875">
        <ele>90</ele>
        <time>2017-07-03T08:44:12.000Z</time>
        <extensions>
          <ns3:TrackPointExtension/>
        </extensions>
      </trkpt>
      <trkpt lat="44.33994658291339874267578125" lon="-0.311612002551555633544921875">
        <ele>89.40000152587890625</ele>
        <time>2017-07-03T08:44:20.000Z</time>
        <extensions>
          <ns3:TrackPointExtension/>
        </extensions>
      </trkpt>
      <trkpt lat="44.3402025662362575531005859375" lon="-0.3108514286577701568603515625">
        <ele>87</ele>
        <time>2017-07-03T08:44:28.000Z</time>
        <extensions>
          <ns3:TrackPointExtension/>
        </extensions>
      </trkpt>
      <trkpt lat="44.34048746712505817413330078125" lon="-0.3101693093776702880859375">
        <ele>84</ele>
        <time>2017-07-03T08:44:35.000Z</time>
        <extensions>
          <ns3:TrackPointExtension/>
        </extensions>
      </trkpt>
      <trkpt lat="44.34079340659081935882568359375" lon="-0.30946766026318073272705078125">
        <ele>82.40000152587890625</ele>
        <time>2017-07-03T08:44:43.000Z</time>
        <extensions>
          <ns3:TrackPointExtension/>
        </extensions>
      </trkpt>
      <trkpt lat="44.34109683148562908172607421875" lon="-0.3088280372321605682373046875">
        <ele>82</ele>
        <time>2017-07-03T08:44:52.000Z</time>
        <extensions>
          <ns3:TrackPointExtension/>
        </extensions>
      </trkpt>
      <trkpt lat="44.341506622731685638427734375" lon="-0.30830408446490764617919921875">
        <ele>81.59999847412109375</ele>
        <time>2017-07-03T08:45:07.000Z</time>
        <extensions>
          <ns3:TrackPointExtension/>
        </extensions>
      </trkpt>
      <trkpt lat="44.34202923439443111419677734375" lon="-0.30809604562819004058837890625">
        <ele>82.1999969482421875</ele>
        <time>2017-07-03T08:45:25.000Z</time>
        <extensions>
          <ns3:TrackPointExtension/>
        </extensions>
      </trkpt>
      <trkpt lat="44.34229527600109577178955078125" lon="-0.30804960988461971282958984375">
        <ele>82</ele>
        <time>2017-07-03T08:45:39.000Z</time>
        <extensions>
          <ns3:TrackPointExtension/>
        </extensions>
      </trkpt>
      <trkpt lat="44.34241178445518016815185546875" lon="-0.30808900482952594757080078125">
        <ele>82.1999969482421875</ele>
        <time>2017-07-03T08:57:08.000Z</time>
        <extensions>
          <ns3:TrackPointExtension/>
        </extensions>
      </trkpt>
      <trkpt lat="44.34278410859405994415283203125" lon="-0.30800149776041507720947265625">
        <ele>82</ele>
        <time>2017-07-03T08:57:23.000Z</time>
        <extensions>
          <ns3:TrackPointExtension/>
        </extensions>
      </trkpt>
      <trkpt lat="44.3427877128124237060546875" lon="-0.3078170120716094970703125">
        <ele>81.8000030517578125</ele>
        <time>2017-07-03T08:57:27.000Z</time>
        <extensions>
          <ns3:TrackPointExtension/>
        </extensions>
      </trkpt>
      <trkpt lat="44.3428016267716884613037109375" lon="-0.30754418112337589263916015625">
        <ele>81.40000152587890625</ele>
        <time>2017-07-03T08:57:32.000Z</time>
        <extensions>
          <ns3:TrackPointExtension/>
        </extensions>
      </trkpt>
      <trkpt lat="44.34289290569722652435302734375" lon="-0.307280905544757843017578125">
        <ele>81</ele>
        <time>2017-07-03T08:57:36.000Z</time>
        <extensions>
          <ns3:TrackPointExtension/>
        </extensions>
      </trkpt>
      <trkpt lat="44.343237318098545074462890625" lon="-0.306571461260318756103515625">
        <ele>79.1999969482421875</ele>
        <time>2017-07-03T08:57:44.000Z</time>
        <extensions>
          <ns3:TrackPointExtension/>
        </extensions>
      </trkpt>
      <trkpt lat="44.3433008529245853424072265625" lon="-0.306484289467334747314453125">
        <ele>79</ele>
        <time>2017-07-03T08:57:45.000Z</time>
        <extensions>
          <ns3:TrackPointExtension/>
        </extensions>
      </trkpt>
      <trkpt lat="44.34377283789217472076416015625" lon="-0.3060489334166049957275390625">
        <ele>79.40000152587890625</ele>
        <time>2017-07-03T08:57:53.000Z</time>
        <extensions>
          <ns3:TrackPointExtension/>
        </extensions>
      </trkpt>
      <trkpt lat="44.3442939408123493194580078125" lon="-0.305703096091747283935546875">
        <ele>81.8000030517578125</ele>
        <time>2017-07-03T08:58:06.000Z</time>
        <extensions>
          <ns3:TrackPointExtension/>
        </extensions>
      </trkpt>
      <trkpt lat="44.344406761229038238525390625" lon="-0.30561852268874645233154296875">
        <ele>82.40000152587890625</ele>
        <time>2017-07-03T08:58:09.000Z</time>
        <extensions>
          <ns3:TrackPointExtension/>
        </extensions>
      </trkpt>
      <trkpt lat="44.3448880501091480255126953125" lon="-0.30523697845637798309326171875">
        <ele>84.59999847412109375</ele>
        <time>2017-07-03T08:58:20.000Z</time>
        <extensions>
          <ns3:TrackPointExtension/>
        </extensions>
      </trkpt>
      <trkpt lat="44.34533036313951015472412109375" lon="-0.3047592937946319580078125">
        <ele>86.8000030517578125</ele>
        <time>2017-07-03T08:58:30.000Z</time>
        <extensions>
          <ns3:TrackPointExtension/>
        </extensions>
      </trkpt>
      <trkpt lat="44.3457269109785556793212890625" lon="-0.30415152199566364288330078125">
        <ele>87.40000152587890625</ele>
        <time>2017-07-03T08:58:40.000Z</time>
        <extensions>
          <ns3:TrackPointExtension/>
        </extensions>
      </trkpt>
      <trkpt lat="44.34612681157886981964111328125" lon="-0.3035283274948596954345703125">
        <ele>88</ele>
        <time>2017-07-03T08:58:50.000Z</time>
        <extensions>
          <ns3:TrackPointExtension/>
        </extensions>
      </trkpt>
      <trkpt lat="44.34648580849170684814453125" lon="-0.30295793898403644561767578125">
        <ele>88</ele>
        <time>2017-07-03T08:58:59.000Z</time>
        <extensions>
          <ns3:TrackPointExtension/>
        </extensions>
      </trkpt>
      <trkpt lat="44.346857964992523193359375" lon="-0.3023815155029296875">
        <ele>88</ele>
        <time>2017-07-03T08:59:08.000Z</time>
        <extensions>
          <ns3:TrackPointExtension/>
        </extensions>
      </trkpt>
      <trkpt lat="44.34725283645093441009521484375" lon="-0.3017842210829257965087890625">
        <ele>88.40000152587890625</ele>
        <time>2017-07-03T08:59:17.000Z</time>
        <extensions>
          <ns3:TrackPointExtension/>
        </extensions>
      </trkpt>
      <trkpt lat="44.3476554192602634429931640625" lon="-0.30117594636976718902587890625">
        <ele>88.8000030517578125</ele>
        <time>2017-07-03T08:59:26.000Z</time>
        <extensions>
          <ns3:TrackPointExtension/>
        </extensions>
      </trkpt>
      <trkpt lat="44.34806588105857372283935546875" lon="-0.30057705938816070556640625">
        <ele>88.1999969482421875</ele>
        <time>2017-07-03T08:59:35.000Z</time>
        <extensions>
          <ns3:TrackPointExtension/>
        </extensions>
      </trkpt>
      <trkpt lat="44.34847223572432994842529296875" lon="-0.29996945522725582122802734375">
        <ele>86.1999969482421875</ele>
        <time>2017-07-03T08:59:44.000Z</time>
        <extensions>
          <ns3:TrackPointExtension/>
        </extensions>
      </trkpt>
      <trkpt lat="44.34886098839342594146728515625" lon="-0.29933787882328033447265625">
        <ele>84.1999969482421875</ele>
        <time>2017-07-03T08:59:53.000Z</time>
        <extensions>
          <ns3:TrackPointExtension/>
        </extensions>
      </trkpt>
      <trkpt lat="44.34926885180175304412841796875" lon="-0.298725664615631103515625">
        <ele>82.40000152587890625</ele>
        <time>2017-07-03T09:00:02.000Z</time>
        <extensions>
          <ns3:TrackPointExtension/>
        </extensions>
      </trkpt>
      <trkpt lat="44.3496338836848735809326171875" lon="-0.29815929941833019256591796875">
        <ele>81.8000030517578125</ele>
        <time>2017-07-03T09:00:10.000Z</time>
        <extensions>
          <ns3:TrackPointExtension/>
        </extensions>
      </trkpt>
      <trkpt lat="44.350008554756641387939453125" lon="-0.2975932694971561431884765625">
        <ele>81.8000030517578125</ele>
        <time>2017-07-03T09:00:18.000Z</time>
        <extensions>
          <ns3:TrackPointExtension/>
        </extensions>
      </trkpt>
      <trkpt lat="44.35027635656297206878662109375" lon="-0.29731155373156070709228515625">
        <ele>81.8000030517578125</ele>
        <time>2017-07-03T09:00:23.000Z</time>
        <extensions>
          <ns3:TrackPointExtension/>
        </extensions>
      </trkpt>
      <trkpt lat="44.3508418835699558258056640625" lon="-0.2970085479319095611572265625">
        <ele>80.8000030517578125</ele>
        <time>2017-07-03T09:00:32.000Z</time>
        <extensions>
          <ns3:TrackPointExtension/>
        </extensions>
      </trkpt>
      <trkpt lat="44.35136114247143268585205078125" lon="-0.2967456914484500885009765625">
        <ele>79.8000030517578125</ele>
        <time>2017-07-03T09:00:40.000Z</time>
        <extensions>
          <ns3:TrackPointExtension/>
        </extensions>
      </trkpt>
      <trkpt lat="44.35189356096088886260986328125" lon="-0.29647051356732845306396484375">
        <ele>78.8000030517578125</ele>
        <time>2017-07-03T09:00:48.000Z</time>
        <extensions>
          <ns3:TrackPointExtension/>
        </extensions>
      </trkpt>
      <trkpt lat="44.3524069525301456451416015625" lon="-0.29618225991725921630859375">
        <ele>80</ele>
        <time>2017-07-03T09:00:56.000Z</time>
        <extensions>
          <ns3:TrackPointExtension/>
        </extensions>
      </trkpt>
      <trkpt lat="44.35246520675718784332275390625" lon="-0.2961334772408008575439453125">
        <ele>80.40000152587890625</ele>
        <time>2017-07-03T09:00:57.000Z</time>
        <extensions>
          <ns3:TrackPointExtension/>
        </extensions>
      </trkpt>
      <trkpt lat="44.3529209308326244354248046875" lon="-0.29564674012362957000732421875">
        <ele>82.8000030517578125</ele>
        <time>2017-07-03T09:01:05.000Z</time>
        <extensions>
          <ns3:TrackPointExtension/>
        </extensions>
      </trkpt>
      <trkpt lat="44.35335067100822925567626953125" lon="-0.29511608183383941650390625">
        <ele>82.1999969482421875</ele>
        <time>2017-07-03T09:01:13.000Z</time>
        <extensions>
          <ns3:TrackPointExtension/>
        </extensions>
      </trkpt>
      <trkpt lat="44.35378946363925933837890625" lon="-0.294573269784450531005859375">
        <ele>81.59999847412109375</ele>
        <time>2017-07-03T09:01:21.000Z</time>
        <extensions>
          <ns3:TrackPointExtension/>
        </extensions>
      </trkpt>
      <trkpt lat="44.35415164567530155181884765625" lon="-0.2939178049564361572265625">
        <ele>80.59999847412109375</ele>
        <time>2017-07-03T09:01:29.000Z</time>
        <extensions>
          <ns3:TrackPointExtension/>
        </extensions>
      </trkpt>
      <trkpt lat="44.35440930537879467010498046875" lon="-0.293193943798542022705078125">
        <ele>79.40000152587890625</ele>
        <time>2017-07-03T09:01:37.000Z</time>
        <extensions>
          <ns3:TrackPointExtension/>
        </extensions>
      </trkpt>
      <trkpt lat="44.35472412966191768646240234375" lon="-0.29255163855850696563720703125">
        <ele>78.8000030517578125</ele>
        <time>2017-07-03T09:01:45.000Z</time>
        <extensions>
          <ns3:TrackPointExtension/>
        </extensions>
      </trkpt>
      <trkpt lat="44.35509259812533855438232421875" lon="-0.29197521507740020751953125">
        <ele>78.59999847412109375</ele>
        <time>2017-07-03T09:01:53.000Z</time>
        <extensions>
          <ns3:TrackPointExtension/>
        </extensions>
      </trkpt>
      <trkpt lat="44.35546022839844226837158203125" lon="-0.2913990430533885955810546875">
        <ele>79.40000152587890625</ele>
        <time>2017-07-03T09:02:01.000Z</time>
        <extensions>
          <ns3:TrackPointExtension/>
        </extensions>
      </trkpt>
      <trkpt lat="44.35575929470360279083251953125" lon="-0.29074600897729396820068359375">
        <ele>79.40000152587890625</ele>
        <time>2017-07-03T09:02:09.000Z</time>
        <extensions>
          <ns3:TrackPointExtension/>
        </extensions>
      </trkpt>
      <trkpt lat="44.356012679636478424072265625" lon="-0.2900569327175617218017578125">
        <ele>79.8000030517578125</ele>
        <time>2017-07-03T09:02:17.000Z</time>
        <extensions>
          <ns3:TrackPointExtension/>
        </extensions>
      </trkpt>
      <trkpt lat="44.35626983642578125" lon="-0.2893491648137569427490234375">
        <ele>79.40000152587890625</ele>
        <time>2017-07-03T09:02:25.000Z</time>
        <extensions>
          <ns3:TrackPointExtension/>
        </extensions>
      </trkpt>
      <trkpt lat="44.3565432541072368621826171875" lon="-0.28863544575870037078857421875">
        <ele>77.59999847412109375</ele>
        <time>2017-07-03T09:02:33.000Z</time>
        <extensions>
          <ns3:TrackPointExtension/>
        </extensions>
      </trkpt>
      <trkpt lat="44.35682228766381740570068359375" lon="-0.2878964133560657501220703125">
        <ele>76.1999969482421875</ele>
        <time>2017-07-03T09:02:41.000Z</time>
        <extensions>
          <ns3:TrackPointExtension/>
        </extensions>
      </trkpt>
      <trkpt lat="44.35710643418133258819580078125" lon="-0.28714983724057674407958984375">
        <ele>76.59999847412109375</ele>
        <time>2017-07-03T09:02:49.000Z</time>
        <extensions>
          <ns3:TrackPointExtension/>
        </extensions>
      </trkpt>
      <trkpt lat="44.35738840140402317047119140625" lon="-0.286435447633266448974609375">
        <ele>74.40000152587890625</ele>
        <time>2017-07-03T09:02:57.000Z</time>
        <extensions>
          <ns3:TrackPointExtension/>
        </extensions>
      </trkpt>
      <trkpt lat="44.3576637469232082366943359375" lon="-0.2857211418449878692626953125">
        <ele>74</ele>
        <time>2017-07-03T09:03:06.000Z</time>
        <extensions>
          <ns3:TrackPointExtension/>
        </extensions>
      </trkpt>
      <trkpt lat="44.35780867002904415130615234375" lon="-0.28534051962196826934814453125">
        <ele>74</ele>
        <time>2017-07-03T09:03:12.000Z</time>
        <extensions>
          <ns3:TrackPointExtension/>
        </extensions>
      </trkpt>
      <trkpt lat="44.3580684252083301544189453125" lon="-0.28465412557125091552734375">
        <ele>74.59999847412109375</ele>
        <time>2017-07-03T09:03:22.000Z</time>
        <extensions>
          <ns3:TrackPointExtension/>
        </extensions>
      </trkpt>
      <trkpt lat="44.3583212234079837799072265625" lon="-0.28392682783305644989013671875">
        <ele>75.59999847412109375</ele>
        <time>2017-07-03T09:03:31.000Z</time>
        <extensions>
          <ns3:TrackPointExtension/>
        </extensions>
      </trkpt>
      <trkpt lat="44.358604364097118377685546875" lon="-0.28319760225713253021240234375">
        <ele>78.1999969482421875</ele>
        <time>2017-07-03T09:03:40.000Z</time>
        <extensions>
          <ns3:TrackPointExtension/>
        </extensions>
      </trkpt>
      <trkpt lat="44.35886411927640438079833984375" lon="-0.2825323306024074554443359375">
        <ele>78.40000152587890625</ele>
        <time>2017-07-03T09:03:48.000Z</time>
        <extensions>
          <ns3:TrackPointExtension/>
        </extensions>
      </trkpt>
      <trkpt lat="44.35912429355084896087646484375" lon="-0.28184744529426097869873046875">
        <ele>77</ele>
        <time>2017-07-03T09:03:56.000Z</time>
        <extensions>
          <ns3:TrackPointExtension/>
        </extensions>
      </trkpt>
      <trkpt lat="44.35938128270208835601806640625" lon="-0.2811613865196704864501953125">
        <ele>74.40000152587890625</ele>
        <time>2017-07-03T09:04:04.000Z</time>
        <extensions>
          <ns3:TrackPointExtension/>
        </extensions>
      </trkpt>
      <trkpt lat="44.35963575728237628936767578125" lon="-0.28046526946127414703369140625">
        <ele>73.40000152587890625</ele>
        <time>2017-07-03T09:04:12.000Z</time>
        <extensions>
          <ns3:TrackPointExtension/>
        </extensions>
      </trkpt>
      <trkpt lat="44.359897859394550323486328125" lon="-0.27975934557616710662841796875">
        <ele>73</ele>
        <time>2017-07-03T09:04:20.000Z</time>
        <extensions>
          <ns3:TrackPointExtension/>
        </extensions>
      </trkpt>
      <trkpt lat="44.36017739586532115936279296875" lon="-0.2790315449237823486328125">
        <ele>73.8000030517578125</ele>
        <time>2017-07-03T09:04:28.000Z</time>
        <extensions>
          <ns3:TrackPointExtension/>
        </extensions>
      </trkpt>
      <trkpt lat="44.36042801477015018463134765625" lon="-0.278359316289424896240234375">
        <ele>72.59999847412109375</ele>
        <time>2017-07-03T09:04:35.000Z</time>
        <extensions>
          <ns3:TrackPointExtension/>
        </extensions>
      </trkpt>
      <trkpt lat="44.360680393874645233154296875" lon="-0.27767962776124477386474609375">
        <ele>71.59999847412109375</ele>
        <time>2017-07-03T09:04:42.000Z</time>
        <extensions>
          <ns3:TrackPointExtension/>
        </extensions>
      </trkpt>
      <trkpt lat="44.360963366925716400146484375" lon="-0.27691519819200038909912109375">
        <ele>71.8000030517578125</ele>
        <time>2017-07-03T09:04:50.000Z</time>
        <extensions>
          <ns3:TrackPointExtension/>
        </extensions>
      </trkpt>
      <trkpt lat="44.361239969730377197265625" lon="-0.276186056435108184814453125">
        <ele>73.8000030517578125</ele>
        <time>2017-07-03T09:04:58.000Z</time>
        <extensions>
          <ns3:TrackPointExtension/>
        </extensions>
      </trkpt>
      <trkpt lat="44.36150894500315189361572265625" lon="-0.275473259389400482177734375">
        <ele>71.40000152587890625</ele>
        <time>2017-07-03T09:05:06.000Z</time>
        <extensions>
          <ns3:TrackPointExtension/>
        </extensions>
      </trkpt>
      <trkpt lat="44.36178336851298809051513671875" lon="-0.274722240865230560302734375">
        <ele>72.8000030517578125</ele>
        <time>2017-07-03T09:05:14.000Z</time>
        <extensions>
          <ns3:TrackPointExtension/>
        </extensions>
      </trkpt>
      <trkpt lat="44.3620431236922740936279296875" lon="-0.2739925123751163482666015625">
        <ele>72.8000030517578125</ele>
        <time>2017-07-03T09:05:21.000Z</time>
        <extensions>
          <ns3:TrackPointExtension/>
        </extensions>
      </trkpt>
      <trkpt lat="44.36232031323015689849853515625" lon="-0.27322011999785900115966796875">
        <ele>68.59999847412109375</ele>
        <time>2017-07-03T09:05:28.000Z</time>
        <extensions>
          <ns3:TrackPointExtension/>
        </extensions>
      </trkpt>
      <trkpt lat="44.3626073934137821197509765625" lon="-0.27247421443462371826171875">
        <ele>66.1999969482421875</ele>
        <time>2017-07-03T09:05:35.000Z</time>
        <extensions>
          <ns3:TrackPointExtension/>
        </extensions>
      </trkpt>
      <trkpt lat="44.36286740005016326904296875" lon="-0.271764434874057769775390625">
        <ele>66.1999969482421875</ele>
        <time>2017-07-03T09:05:43.000Z</time>
        <extensions>
          <ns3:TrackPointExtension/>
        </extensions>
      </trkpt>
      <trkpt lat="44.36309681273996829986572265625" lon="-0.27106446214020252227783203125">
        <ele>69</ele>
        <time>2017-07-03T09:05:52.000Z</time>
        <extensions>
          <ns3:TrackPointExtension/>
        </extensions>
      </trkpt>
      <trkpt lat="44.363314323127269744873046875" lon="-0.270297266542911529541015625">
        <ele>73.40000152587890625</ele>
        <time>2017-07-03T09:06:02.000Z</time>
        <extensions>
          <ns3:TrackPointExtension/>
        </extensions>
      </trkpt>
      <trkpt lat="44.36353434808552265167236328125" lon="-0.26954398490488529205322265625">
        <ele>75</ele>
        <time>2017-07-03T09:06:12.000Z</time>
        <extensions>
          <ns3:TrackPointExtension/>
        </extensions>
      </trkpt>
      <trkpt lat="44.3637480027973651885986328125" lon="-0.26880419813096523284912109375">
        <ele>73</ele>
        <time>2017-07-03T09:06:21.000Z</time>
        <extensions>
          <ns3:TrackPointExtension/>
        </extensions>
      </trkpt>
      <trkpt lat="44.36397003941237926483154296875" lon="-0.26801898144185543060302734375">
        <ele>72</ele>
        <time>2017-07-03T09:06:30.000Z</time>
        <extensions>
          <ns3:TrackPointExtension/>
        </extensions>
      </trkpt>
      <trkpt lat="44.364177323877811431884765625" lon="-0.2673000656068325042724609375">
        <ele>70.59999847412109375</ele>
        <time>2017-07-03T09:06:38.000Z</time>
        <extensions>
          <ns3:TrackPointExtension/>
        </extensions>
      </trkpt>
      <trkpt lat="44.36439667828381061553955078125" lon="-0.2665725164115428924560546875">
        <ele>69.40000152587890625</ele>
        <time>2017-07-03T09:06:46.000Z</time>
        <extensions>
          <ns3:TrackPointExtension/>
        </extensions>
      </trkpt>
      <trkpt lat="44.3646106682717800140380859375" lon="-0.26585309766232967376708984375">
        <ele>71</ele>
        <time>2017-07-03T09:06:54.000Z</time>
        <extensions>
          <ns3:TrackPointExtension/>
        </extensions>
      </trkpt>
      <trkpt lat="44.36481845565140247344970703125" lon="-0.2651321701705455780029296875">
        <ele>72</ele>
        <time>2017-07-03T09:07:02.000Z</time>
        <extensions>
          <ns3:TrackPointExtension/>
        </extensions>
      </trkpt>
      <trkpt lat="44.3650267459452152252197265625" lon="-0.26438324712216854095458984375">
        <ele>73</ele>
        <time>2017-07-03T09:07:10.000Z</time>
        <extensions>
          <ns3:TrackPointExtension/>
        </extensions>
      </trkpt>
      <trkpt lat="44.365234784781932830810546875" lon="-0.26366609148681163787841796875">
        <ele>73.59999847412109375</ele>
        <time>2017-07-03T09:07:18.000Z</time>
        <extensions>
          <ns3:TrackPointExtension/>
        </extensions>
      </trkpt>
      <trkpt lat="44.365442655980587005615234375" lon="-0.26295505464076995849609375">
        <ele>71.40000152587890625</ele>
        <time>2017-07-03T09:07:26.000Z</time>
        <extensions>
          <ns3:TrackPointExtension/>
        </extensions>
      </trkpt>
      <trkpt lat="44.365670643746852874755859375" lon="-0.26223999448120594024658203125">
        <ele>72.1999969482421875</ele>
        <time>2017-07-03T09:07:34.000Z</time>
        <extensions>
          <ns3:TrackPointExtension/>
        </extensions>
      </trkpt>
      <trkpt lat="44.36589217744767665863037109375" lon="-0.26152049191296100616455078125">
        <ele>72.40000152587890625</ele>
        <time>2017-07-03T09:07:42.000Z</time>
        <extensions>
          <ns3:TrackPointExtension/>
        </extensions>
      </trkpt>
      <trkpt lat="44.36610541306436061859130859375" lon="-0.26082445867359638214111328125">
        <ele>70.8000030517578125</ele>
        <time>2017-07-03T09:07:50.000Z</time>
        <extensions>
          <ns3:TrackPointExtension/>
        </extensions>
      </trkpt>
      <trkpt lat="44.3663024716079235076904296875" lon="-0.260112583637237548828125">
        <ele>68.8000030517578125</ele>
        <time>2017-07-03T09:07:58.000Z</time>
        <extensions>
          <ns3:TrackPointExtension/>
        </extensions>
      </trkpt>
      <trkpt lat="44.36655166558921337127685546875" lon="-0.2593597210943698883056640625">
        <ele>69.1999969482421875</ele>
        <time>2017-07-03T09:08:07.000Z</time>
        <extensions>
          <ns3:TrackPointExtension/>
        </extensions>
      </trkpt>
      <trkpt lat="44.366770349442958831787109375" lon="-0.2586180903017520904541015625">
        <ele>70.1999969482421875</ele>
        <time>2017-07-03T09:08:16.000Z</time>
        <extensions>
          <ns3:TrackPointExtension/>
        </extensions>
      </trkpt>
      <trkpt lat="44.36697327531874179840087890625" lon="-0.2578918822109699249267578125">
        <ele>72.1999969482421875</ele>
        <time>2017-07-03T09:08:25.000Z</time>
        <extensions>
          <ns3:TrackPointExtension/>
        </extensions>
      </trkpt>
      <trkpt lat="44.3671852536499500274658203125" lon="-0.25715871714055538177490234375">
        <ele>74.1999969482421875</ele>
        <time>2017-07-03T09:08:34.000Z</time>
        <extensions>
          <ns3:TrackPointExtension/>
        </extensions>
      </trkpt>
      <trkpt lat="44.36740159057080745697021484375" lon="-0.25639311410486698150634765625">
        <ele>75.40000152587890625</ele>
        <time>2017-07-03T09:08:43.000Z</time>
        <extensions>
          <ns3:TrackPointExtension/>
        </extensions>
      </trkpt>
      <trkpt lat="44.36760661192238330841064453125" lon="-0.25569104589521884918212890625">
        <ele>76</ele>
        <time>2017-07-03T09:08:51.000Z</time>
        <extensions>
          <ns3:TrackPointExtension/>
        </extensions>
      </trkpt>
      <trkpt lat="44.36781498603522777557373046875" lon="-0.25498864240944385528564453125">
        <ele>75.40000152587890625</ele>
        <time>2017-07-03T09:08:59.000Z</time>
        <extensions>
          <ns3:TrackPointExtension/>
        </extensions>
      </trkpt>
      <trkpt lat="44.36803601682186126708984375" lon="-0.2542035095393657684326171875">
        <ele>74.40000152587890625</ele>
        <time>2017-07-03T09:09:08.000Z</time>
        <extensions>
          <ns3:TrackPointExtension/>
        </extensions>
      </trkpt>
      <trkpt lat="44.36824950389564037322998046875" lon="-0.2534920535981655120849609375">
        <ele>74</ele>
        <time>2017-07-03T09:09:16.000Z</time>
        <extensions>
          <ns3:TrackPointExtension/>
        </extensions>
      </trkpt>
      <trkpt lat="44.3684720434248447418212890625" lon="-0.2527566254138946533203125">
        <ele>73.40000152587890625</ele>
        <time>2017-07-03T09:09:24.000Z</time>
        <extensions>
          <ns3:TrackPointExtension/>
        </extensions>
      </trkpt>
      <trkpt lat="44.368676729500293731689453125" lon="-0.25205564685165882110595703125">
        <ele>70.8000030517578125</ele>
        <time>2017-07-03T09:09:32.000Z</time>
        <extensions>
          <ns3:TrackPointExtension/>
        </extensions>
      </trkpt>
      <trkpt lat="44.36890765093266963958740234375" lon="-0.251279063522815704345703125">
        <ele>68.1999969482421875</ele>
        <time>2017-07-03T09:09:41.000Z</time>
        <extensions>
          <ns3:TrackPointExtension/>
        </extensions>
      </trkpt>
      <trkpt lat="44.3691404163837432861328125" lon="-0.25051404722034931182861328125">
        <ele>67.40000152587890625</ele>
        <time>2017-07-03T09:09:50.000Z</time>
        <extensions>
          <ns3:TrackPointExtension/>
        </extensions>
      </trkpt>
      <trkpt lat="44.3693578429520130157470703125" lon="-0.2497570775449275970458984375">
        <ele>67.1999969482421875</ele>
        <time>2017-07-03T09:09:59.000Z</time>
        <extensions>
          <ns3:TrackPointExtension/>
        </extensions>
      </trkpt>
      <trkpt lat="44.36957401223480701446533203125" lon="-0.249003209173679351806640625">
        <ele>67</ele>
        <time>2017-07-03T09:10:09.000Z</time>
        <extensions>
          <ns3:TrackPointExtension/>
        </extensions>
      </trkpt>
      <trkpt lat="44.36977216042578220367431640625" lon="-0.2482899092137813568115234375">
        <ele>67.40000152587890625</ele>
        <time>2017-07-03T09:10:19.000Z</time>
        <extensions>
          <ns3:TrackPointExtension/>
        </extensions>
      </trkpt>
      <trkpt lat="44.36983452178537845611572265625" lon="-0.24807809852063655853271484375">
        <ele>67.40000152587890625</ele>
        <time>2017-07-03T09:10:22.000Z</time>
        <extensions>
          <ns3:TrackPointExtension/>
        </extensions>
      </trkpt>
      <trkpt lat="44.37004742212593555450439453125" lon="-0.247370414435863494873046875">
        <ele>67.59999847412109375</ele>
        <time>2017-07-03T09:10:32.000Z</time>
        <extensions>
          <ns3:TrackPointExtension/>
        </extensions>
      </trkpt>
      <trkpt lat="44.37027155421674251556396484375" lon="-0.24664848111569881439208984375">
        <ele>68</ele>
        <time>2017-07-03T09:10:42.000Z</time>
        <extensions>
          <ns3:TrackPointExtension/>
        </extensions>
      </trkpt>
      <trkpt lat="44.3704816885292530059814453125" lon="-0.24589561857283115386962890625">
        <ele>68</ele>
        <time>2017-07-03T09:10:52.000Z</time>
        <extensions>
          <ns3:TrackPointExtension/>
        </extensions>
      </trkpt>
      <trkpt lat="44.37054296024143695831298828125" lon="-0.24568162858486175537109375">
        <ele>67.8000030517578125</ele>
        <time>2017-07-03T09:10:55.000Z</time>
        <extensions>
          <ns3:TrackPointExtension/>
        </extensions>
      </trkpt>
      <trkpt lat="44.37076038680970668792724609375" lon="-0.2449478767812252044677734375">
        <ele>67</ele>
        <time>2017-07-03T09:11:06.000Z</time>
        <extensions>
          <ns3:TrackPointExtension/>
        </extensions>
      </trkpt>
      <trkpt lat="44.37097982503473758697509765625" lon="-0.24422074668109416961669921875">
        <ele>66</ele>
        <time>2017-07-03T09:11:18.000Z</time>
        <extensions>
          <ns3:TrackPointExtension/>
        </extensions>
      </trkpt>
      <trkpt lat="44.37102525494992733001708984375" lon="-0.24409241974353790283203125">
        <ele>65.8000030517578125</ele>
        <time>2017-07-03T09:11:20.000Z</time>
        <extensions>
          <ns3:TrackPointExtension/>
        </extensions>
      </trkpt>
      <trkpt lat="44.3711944855749607086181640625" lon="-0.24362747557461261749267578125">
        <ele>64.40000152587890625</ele>
        <time>2017-07-03T09:11:34.000Z</time>
        <extensions>
          <ns3:TrackPointExtension/>
        </extensions>
      </trkpt>
      <trkpt lat="44.37136891297996044158935546875" lon="-0.243633091449737548828125">
        <ele>64.59999847412109375</ele>
        <time>2017-07-03T09:11:38.000Z</time>
        <extensions>
          <ns3:TrackPointExtension/>
        </extensions>
      </trkpt>
      <trkpt lat="44.3719528801739215850830078125" lon="-0.24363485164940357208251953125">
        <ele>63.799999237060546875</ele>
        <time>2017-07-03T09:11:49.000Z</time>
        <extensions>
          <ns3:TrackPointExtension/>
        </extensions>
      </trkpt>
      <trkpt lat="44.37243022955954074859619140625" lon="-0.243523456156253814697265625">
        <ele>65.1999969482421875</ele>
        <time>2017-07-03T09:11:58.000Z</time>
        <extensions>
          <ns3:TrackPointExtension/>
        </extensions>
      </trkpt>
      <trkpt lat="44.3728282861411571502685546875" lon="-0.2429690770804882049560546875">
        <ele>67</ele>
        <time>2017-07-03T09:12:11.000Z</time>
        <extensions>
          <ns3:TrackPointExtension/>
        </extensions>
      </trkpt>
      <trkpt lat="44.3731944076716899871826171875" lon="-0.2423872053623199462890625">
        <ele>70.1999969482421875</ele>
        <time>2017-07-03T09:12:25.000Z</time>
        <extensions>
          <ns3:TrackPointExtension/>
        </extensions>
      </trkpt>
      <trkpt lat="44.373706877231597900390625" lon="-0.242076404392719268798828125">
        <ele>73.40000152587890625</ele>
        <time>2017-07-03T09:12:40.000Z</time>
        <extensions>
          <ns3:TrackPointExtension/>
        </extensions>
      </trkpt>
      <trkpt lat="44.3742230348289012908935546875" lon="-0.24207271635532379150390625">
        <ele>76.40000152587890625</ele>
        <time>2017-07-03T09:12:54.000Z</time>
        <extensions>
          <ns3:TrackPointExtension/>
        </extensions>
      </trkpt>
      <trkpt lat="44.37446317635476589202880859375" lon="-0.242816023528575897216796875">
        <ele>76.1999969482421875</ele>
        <time>2017-07-03T09:13:07.000Z</time>
        <extensions>
          <ns3:TrackPointExtension/>
        </extensions>
      </trkpt>
      <trkpt lat="44.37468965537846088409423828125" lon="-0.2435517869889736175537109375">
        <ele>73.1999969482421875</ele>
        <time>2017-07-03T09:13:18.000Z</time>
        <extensions>
          <ns3:TrackPointExtension/>
        </extensions>
      </trkpt>
      <trkpt lat="44.37487137503921985626220703125" lon="-0.2443272806704044342041015625">
        <ele>72.8000030517578125</ele>
        <time>2017-07-03T09:13:28.000Z</time>
        <extensions>
          <ns3:TrackPointExtension/>
        </extensions>
      </trkpt>
      <trkpt lat="44.37502291984856128692626953125" lon="-0.24508726783096790313720703125">
        <ele>73</ele>
        <time>2017-07-03T09:13:37.000Z</time>
        <extensions>
          <ns3:TrackPointExtension/>
        </extensions>
      </trkpt>
      <trkpt lat="44.3751856125891208648681640625" lon="-0.24585588835179805755615234375">
        <ele>72.1999969482421875</ele>
        <time>2017-07-03T09:13:46.000Z</time>
        <extensions>
          <ns3:TrackPointExtension/>
        </extensions>
      </trkpt>
      <trkpt lat="44.37533321790397167205810546875" lon="-0.2466390095651149749755859375">
        <ele>71.8000030517578125</ele>
        <time>2017-07-03T09:13:55.000Z</time>
        <extensions>
          <ns3:TrackPointExtension/>
        </extensions>
      </trkpt>
      <trkpt lat="44.37541670165956020355224609375" lon="-0.24706774391233921051025390625">
        <ele>72</ele>
        <time>2017-07-03T09:14:00.000Z</time>
        <extensions>
          <ns3:TrackPointExtension/>
        </extensions>
      </trkpt>
      <trkpt lat="44.37552516348659992218017578125" lon="-0.24784793145954608917236328125">
        <ele>73</ele>
        <time>2017-07-03T09:14:09.000Z</time>
        <extensions>
          <ns3:TrackPointExtension/>
        </extensions>
      </trkpt>
      <trkpt lat="44.37563681043684482574462890625" lon="-0.2486084215342998504638671875">
        <ele>72.8000030517578125</ele>
        <time>2017-07-03T09:14:18.000Z</time>
        <extensions>
          <ns3:TrackPointExtension/>
        </extensions>
      </trkpt>
      <trkpt lat="44.37577393837273120880126953125" lon="-0.249403528869152069091796875">
        <ele>72.8000030517578125</ele>
        <time>2017-07-03T09:14:27.000Z</time>
        <extensions>
          <ns3:TrackPointExtension/>
        </extensions>
      </trkpt>
      <trkpt lat="44.37594224698841571807861328125" lon="-0.25011993013322353363037109375">
        <ele>74.59999847412109375</ele>
        <time>2017-07-03T09:14:35.000Z</time>
        <extensions>
          <ns3:TrackPointExtension/>
        </extensions>
      </trkpt>
      <trkpt lat="44.376141317188739776611328125" lon="-0.25084077380597591400146484375">
        <ele>77</ele>
        <time>2017-07-03T09:14:44.000Z</time>
        <extensions>
          <ns3:TrackPointExtension/>
        </extensions>
      </trkpt>
      <trkpt lat="44.37633736990392208099365234375" lon="-0.25156446732580661773681640625">
        <ele>77.1999969482421875</ele>
        <time>2017-07-03T09:14:54.000Z</time>
        <extensions>
          <ns3:TrackPointExtension/>
        </extensions>
      </trkpt>
      <trkpt lat="44.376464188098907470703125" lon="-0.25234834291040897369384765625">
        <ele>75.40000152587890625</ele>
        <time>2017-07-03T09:15:04.000Z</time>
        <extensions>
          <ns3:TrackPointExtension/>
        </extensions>
      </trkpt>
      <trkpt lat="44.3765969574451446533203125" lon="-0.253119729459285736083984375">
        <ele>74.59999847412109375</ele>
        <time>2017-07-03T09:15:14.000Z</time>
        <extensions>
          <ns3:TrackPointExtension/>
        </extensions>
      </trkpt>
      <trkpt lat="44.37673576176166534423828125" lon="-0.25388424284756183624267578125">
        <ele>75</ele>
        <time>2017-07-03T09:15:23.000Z</time>
        <extensions>
          <ns3:TrackPointExtension/>
        </extensions>
      </trkpt>
      <trkpt lat="44.37686584889888763427734375" lon="-0.25468437932431697845458984375">
        <ele>74.1999969482421875</ele>
        <time>2017-07-03T09:15:32.000Z</time>
        <extensions>
          <ns3:TrackPointExtension/>
        </extensions>
      </trkpt>
      <trkpt lat="44.377042539417743682861328125" lon="-0.25542735122144222259521484375">
        <ele>73.59999847412109375</ele>
        <time>2017-07-03T09:15:40.000Z</time>
        <extensions>
          <ns3:TrackPointExtension/>
        </extensions>
      </trkpt>
      <trkpt lat="44.37719584442675113677978515625" lon="-0.256241150200366973876953125">
        <ele>75.8000030517578125</ele>
        <time>2017-07-03T09:15:48.000Z</time>
        <extensions>
          <ns3:TrackPointExtension/>
        </extensions>
      </trkpt>
      <trkpt lat="44.37723088078200817108154296875" lon="-0.25701622478663921356201171875">
        <ele>76.1999969482421875</ele>
        <time>2017-07-03T09:15:56.000Z</time>
        <extensions>
          <ns3:TrackPointExtension/>
        </extensions>
      </trkpt>
      <trkpt lat="44.37727681361138820648193359375" lon="-0.25778937153518199920654296875">
        <ele>74.40000152587890625</ele>
        <time>2017-07-03T09:16:04.000Z</time>
        <extensions>
          <ns3:TrackPointExtension/>
        </extensions>
      </trkpt>
      <trkpt lat="44.37731017358601093292236328125" lon="-0.257934294641017913818359375">
        <ele>73.8000030517578125</ele>
        <time>2017-07-03T09:16:06.000Z</time>
        <extensions>
          <ns3:TrackPointExtension/>
        </extensions>
      </trkpt>
      <trkpt lat="44.37744495458900928497314453125" lon="-0.25814845226705074310302734375">
        <ele>73.59999847412109375</ele>
        <time>2017-07-03T09:16:10.000Z</time>
        <extensions>
          <ns3:TrackPointExtension/>
        </extensions>
      </trkpt>
      <trkpt lat="44.377864301204681396484375" lon="-0.25865253992378711700439453125">
        <ele>76.40000152587890625</ele>
        <time>2017-07-03T09:16:19.000Z</time>
        <extensions>
          <ns3:TrackPointExtension/>
        </extensions>
      </trkpt>
      <trkpt lat="44.37797368504106998443603515625" lon="-0.25913961231708526611328125">
        <ele>78.1999969482421875</ele>
        <time>2017-07-03T09:16:25.000Z</time>
        <extensions>
          <ns3:TrackPointExtension/>
        </extensions>
      </trkpt>
      <trkpt lat="44.3779737688601016998291015625" lon="-0.25921010412275791168212890625">
        <ele>78.59999847412109375</ele>
        <time>2017-07-03T09:16:26.000Z</time>
        <extensions>
          <ns3:TrackPointExtension/>
        </extensions>
      </trkpt>
      <trkpt lat="44.3780106492340564727783203125" lon="-0.259968079626560211181640625">
        <ele>80.59999847412109375</ele>
        <time>2017-07-03T09:16:39.000Z</time>
        <extensions>
          <ns3:TrackPointExtension/>
        </extensions>
      </trkpt>
      <trkpt lat="44.3780535645782947540283203125" lon="-0.2607202716171741485595703125">
        <ele>81</ele>
        <time>2017-07-03T09:16:52.000Z</time>
        <extensions>
          <ns3:TrackPointExtension/>
        </extensions>
      </trkpt>
      <trkpt lat="44.3780917860567569732666015625" lon="-0.26089645922183990478515625">
        <ele>80.59999847412109375</ele>
        <time>2017-07-03T09:16:55.000Z</time>
        <extensions>
          <ns3:TrackPointExtension/>
        </extensions>
      </trkpt>
      <trkpt lat="44.37822631560266017913818359375" lon="-0.26116208173334598541259765625">
        <ele>80.8000030517578125</ele>
        <time>2017-07-03T09:17:01.000Z</time>
        <extensions>
          <ns3:TrackPointExtension/>
        </extensions>
      </trkpt>
      <trkpt lat="44.37860718928277492523193359375" lon="-0.26170120574533939361572265625">
        <ele>82.40000152587890625</ele>
        <time>2017-07-03T09:17:19.000Z</time>
        <extensions>
          <ns3:TrackPointExtension/>
        </extensions>
      </trkpt>
      <trkpt lat="44.378969371318817138671875" lon="-0.262266062200069427490234375">
        <ele>84.8000030517578125</ele>
        <time>2017-07-03T09:17:39.000Z</time>
        <extensions>
          <ns3:TrackPointExtension/>
        </extensions>
      </trkpt>
      <trkpt lat="44.37919207848608493804931640625" lon="-0.26295346207916736602783203125">
        <ele>87.1999969482421875</ele>
        <time>2017-07-03T09:17:58.000Z</time>
        <extensions>
          <ns3:TrackPointExtension/>
        </extensions>
      </trkpt>
      <trkpt lat="44.37940967269241809844970703125" lon="-0.26365167461335659027099609375">
        <ele>89.40000152587890625</ele>
        <time>2017-07-03T09:18:17.000Z</time>
        <extensions>
          <ns3:TrackPointExtension/>
        </extensions>
      </trkpt>
      <trkpt lat="44.37940866686403751373291015625" lon="-0.26365066878497600555419921875">
        <ele>89.40000152587890625</ele>
        <time>2017-07-03T09:18:19.000Z</time>
        <extensions>
          <ns3:TrackPointExtension/>
        </extensions>
      </trkpt>
      <trkpt lat="44.3794235028326511383056640625" lon="-0.263693667948246002197265625">
        <ele>89.40000152587890625</ele>
        <time>2017-07-03T09:20:43.000Z</time>
        <extensions>
          <ns3:TrackPointExtension/>
        </extensions>
      </trkpt>
      <trkpt lat="44.37944755889475345611572265625" lon="-0.26377203874289989471435546875">
        <ele>89.59999847412109375</ele>
        <time>2017-07-03T09:20:47.000Z</time>
        <extensions>
          <ns3:TrackPointExtension/>
        </extensions>
      </trkpt>
      <trkpt lat="44.37983572483062744140625" lon="-0.2642819099128246307373046875">
        <ele>91.1999969482421875</ele>
        <time>2017-07-03T09:21:03.000Z</time>
        <extensions>
          <ns3:TrackPointExtension/>
        </extensions>
      </trkpt>
      <trkpt lat="44.38031123019754886627197265625" lon="-0.2647402323782444000244140625">
        <ele>93.40000152587890625</ele>
        <time>2017-07-03T09:21:16.000Z</time>
        <extensions>
          <ns3:TrackPointExtension/>
        </extensions>
      </trkpt>
      <trkpt lat="44.3803438358008861541748046875" lon="-0.26477837003767490386962890625">
        <ele>93.40000152587890625</ele>
        <time>2017-07-03T09:21:17.000Z</time>
        <extensions>
          <ns3:TrackPointExtension/>
        </extensions>
      </trkpt>
      <trkpt lat="44.380822442471981048583984375" lon="-0.26523518376052379608154296875">
        <ele>93.59999847412109375</ele>
        <time>2017-07-03T09:21:31.000Z</time>
        <extensions>
          <ns3:TrackPointExtension/>
        </extensions>
      </trkpt>
      <trkpt lat="44.38128671608865261077880859375" lon="-0.265688560903072357177734375">
        <ele>96.8000030517578125</ele>
        <time>2017-07-03T09:21:44.000Z</time>
        <extensions>
          <ns3:TrackPointExtension/>
        </extensions>
      </trkpt>
      <trkpt lat="44.381753169000148773193359375" lon="-0.26613615453243255615234375">
        <ele>98</ele>
        <time>2017-07-03T09:21:57.000Z</time>
        <extensions>
          <ns3:TrackPointExtension/>
        </extensions>
      </trkpt>
      <trkpt lat="44.38220000825822353363037109375" lon="-0.266572348773479461669921875">
        <ele>98.8000030517578125</ele>
        <time>2017-07-03T09:22:09.000Z</time>
        <extensions>
          <ns3:TrackPointExtension/>
        </extensions>
      </trkpt>
      <trkpt lat="44.382387511432170867919921875" lon="-0.2667072974145412445068359375">
        <ele>99.40000152587890625</ele>
        <time>2017-07-03T09:22:14.000Z</time>
        <extensions>
          <ns3:TrackPointExtension/>
        </extensions>
      </trkpt>
      <trkpt lat="44.382467977702617645263671875" lon="-0.2667109854519367218017578125">
        <ele>99.59999847412109375</ele>
        <time>2017-07-03T09:22:16.000Z</time>
        <extensions>
          <ns3:TrackPointExtension/>
        </extensions>
      </trkpt>
      <trkpt lat="44.3826388008892536163330078125" lon="-0.26661199517548084259033203125">
        <ele>100.40000152587890625</ele>
        <time>2017-07-03T09:22:20.000Z</time>
        <extensions>
          <ns3:TrackPointExtension/>
        </extensions>
      </trkpt>
      <trkpt lat="44.38315453939139842987060546875" lon="-0.26633254252374172210693359375">
        <ele>101.8000030517578125</ele>
        <time>2017-07-03T09:22:32.000Z</time>
        <extensions>
          <ns3:TrackPointExtension/>
        </extensions>
      </trkpt>
      <trkpt lat="44.3836392648518085479736328125" lon="-0.265964157879352569580078125">
        <ele>103.1999969482421875</ele>
        <time>2017-07-03T09:22:44.000Z</time>
        <extensions>
          <ns3:TrackPointExtension/>
        </extensions>
      </trkpt>
      <trkpt lat="44.3837478943169116973876953125" lon="-0.26583348400890827178955078125">
        <ele>103.59999847412109375</ele>
        <time>2017-07-03T09:22:47.000Z</time>
        <extensions>
          <ns3:TrackPointExtension/>
        </extensions>
      </trkpt>
      <trkpt lat="44.38413522206246852874755859375" lon="-0.2652441523969173431396484375">
        <ele>105</ele>
        <time>2017-07-03T09:22:59.000Z</time>
        <extensions>
          <ns3:TrackPointExtension/>
        </extensions>
      </trkpt>
      <trkpt lat="44.384531266987323760986328125" lon="-0.2646815590560436248779296875">
        <ele>105.1999969482421875</ele>
        <time>2017-07-03T09:23:11.000Z</time>
        <extensions>
          <ns3:TrackPointExtension/>
        </extensions>
      </trkpt>
      <trkpt lat="44.38499738462269306182861328125" lon="-0.26422047056257724761962890625">
        <ele>108.40000152587890625</ele>
        <time>2017-07-03T09:23:23.000Z</time>
        <extensions>
          <ns3:TrackPointExtension/>
        </extensions>
      </trkpt>
      <trkpt lat="44.38506645150482654571533203125" lon="-0.26412776671350002288818359375">
        <ele>109</ele>
        <time>2017-07-03T09:23:25.000Z</time>
        <extensions>
          <ns3:TrackPointExtension/>
        </extensions>
      </trkpt>
      <trkpt lat="44.3853397853672504425048828125" lon="-0.2638906426727771759033203125">
        <ele>110.8000030517578125</ele>
        <time>2017-07-03T09:23:32.000Z</time>
        <extensions>
          <ns3:TrackPointExtension/>
        </extensions>
      </trkpt>
      <trkpt lat="44.3853920884430408477783203125" lon="-0.2638770639896392822265625">
        <ele>110.8000030517578125</ele>
        <time>2017-07-03T09:23:33.000Z</time>
        <extensions>
          <ns3:TrackPointExtension/>
        </extensions>
      </trkpt>
      <trkpt lat="44.3855528533458709716796875" lon="-0.26387505233287811279296875">
        <ele>110.59999847412109375</ele>
        <time>2017-07-03T09:23:36.000Z</time>
        <extensions>
          <ns3:TrackPointExtension/>
        </extensions>
      </trkpt>
      <trkpt lat="44.3861441127955913543701171875" lon="-0.2639690972864627838134765625">
        <ele>109.8000030517578125</ele>
        <time>2017-07-03T09:23:46.000Z</time>
        <extensions>
          <ns3:TrackPointExtension/>
        </extensions>
      </trkpt>
      <trkpt lat="44.38673629425466060638427734375" lon="-0.26403875090181827545166015625">
        <ele>109</ele>
        <time>2017-07-03T09:23:56.000Z</time>
        <extensions>
          <ns3:TrackPointExtension/>
        </extensions>
      </trkpt>
      <trkpt lat="44.38728681765496730804443359375" lon="-0.26409574784338474273681640625">
        <ele>109</ele>
        <time>2017-07-03T09:24:05.000Z</time>
        <extensions>
          <ns3:TrackPointExtension/>
        </extensions>
      </trkpt>
      <trkpt lat="44.38783113844692707061767578125" lon="-0.26415131986141204833984375">
        <ele>108.8000030517578125</ele>
        <time>2017-07-03T09:24:14.000Z</time>
        <extensions>
          <ns3:TrackPointExtension/>
        </extensions>
      </trkpt>
      <trkpt lat="44.38841384835541248321533203125" lon="-0.26421996764838695526123046875">
        <ele>110.59999847412109375</ele>
        <time>2017-07-03T09:24:24.000Z</time>
        <extensions>
          <ns3:TrackPointExtension/>
        </extensions>
      </trkpt>
      <trkpt lat="44.388941489160060882568359375" lon="-0.264460779726505279541015625">
        <ele>112.40000152587890625</ele>
        <time>2017-07-03T09:24:34.000Z</time>
        <extensions>
          <ns3:TrackPointExtension/>
        </extensions>
      </trkpt>
      <trkpt lat="44.3894693814218044281005859375" lon="-0.264827907085418701171875">
        <ele>111.40000152587890625</ele>
        <time>2017-07-03T09:24:45.000Z</time>
        <extensions>
          <ns3:TrackPointExtension/>
        </extensions>
      </trkpt>
      <trkpt lat="44.3899541907012462615966796875" lon="-0.26516712270677089691162109375">
        <ele>108.40000152587890625</ele>
        <time>2017-07-03T09:24:54.000Z</time>
        <extensions>
          <ns3:TrackPointExtension/>
        </extensions>
      </trkpt>
      <trkpt lat="44.39046339131891727447509765625" lon="-0.26552972383797168731689453125">
        <ele>108</ele>
        <time>2017-07-03T09:25:04.000Z</time>
        <extensions>
          <ns3:TrackPointExtension/>
        </extensions>
      </trkpt>
      <trkpt lat="44.39099438488483428955078125" lon="-0.26590506546199321746826171875">
        <ele>107.59999847412109375</ele>
        <time>2017-07-03T09:25:14.000Z</time>
        <extensions>
          <ns3:TrackPointExtension/>
        </extensions>
      </trkpt>
      <trkpt lat="44.3910961411893367767333984375" lon="-0.26599441654980182647705078125">
        <ele>107.1999969482421875</ele>
        <time>2017-07-03T09:25:16.000Z</time>
        <extensions>
          <ns3:TrackPointExtension/>
        </extensions>
      </trkpt>
      <trkpt lat="44.3913043476641178131103515625" lon="-0.26641854085028171539306640625">
        <ele>106.8000030517578125</ele>
        <time>2017-07-03T09:25:22.000Z</time>
        <extensions>
          <ns3:TrackPointExtension/>
        </extensions>
      </trkpt>
      <trkpt lat="44.39153023995459079742431640625" lon="-0.267184562981128692626953125">
        <ele>106</ele>
        <time>2017-07-03T09:25:31.000Z</time>
        <extensions>
          <ns3:TrackPointExtension/>
        </extensions>
      </trkpt>
      <trkpt lat="44.39169469289481639862060546875" lon="-0.2679914049804210662841796875">
        <ele>106.1999969482421875</ele>
        <time>2017-07-03T09:25:40.000Z</time>
        <extensions>
          <ns3:TrackPointExtension/>
        </extensions>
      </trkpt>
      <trkpt lat="44.39189652912318706512451171875" lon="-0.26877821423113346099853515625">
        <ele>105.8000030517578125</ele>
        <time>2017-07-03T09:25:49.000Z</time>
        <extensions>
          <ns3:TrackPointExtension/>
        </extensions>
      </trkpt>
      <trkpt lat="44.3922008760273456573486328125" lon="-0.26940652169287204742431640625">
        <ele>106.59999847412109375</ele>
        <time>2017-07-03T09:25:58.000Z</time>
        <extensions>
          <ns3:TrackPointExtension/>
        </extensions>
      </trkpt>
      <trkpt lat="44.39252031035721302032470703125" lon="-0.270105488598346710205078125">
        <ele>106.59999847412109375</ele>
        <time>2017-07-03T09:26:08.000Z</time>
        <extensions>
          <ns3:TrackPointExtension/>
        </extensions>
      </trkpt>
      <trkpt lat="44.3927560932934284210205078125" lon="-0.27084602974355220794677734375">
        <ele>107</ele>
        <time>2017-07-03T09:26:17.000Z</time>
        <extensions>
          <ns3:TrackPointExtension/>
        </extensions>
      </trkpt>
      <trkpt lat="44.39291694201529026031494140625" lon="-0.2716009877622127532958984375">
        <ele>107</ele>
        <time>2017-07-03T09:26:26.000Z</time>
        <extensions>
          <ns3:TrackPointExtension/>
        </extensions>
      </trkpt>
      <trkpt lat="44.39300394617021083831787109375" lon="-0.27200642041862010955810546875">
        <ele>106.8000030517578125</ele>
        <time>2017-07-03T09:26:31.000Z</time>
        <extensions>
          <ns3:TrackPointExtension/>
        </extensions>
      </trkpt>
      <trkpt lat="44.39338498748838901519775390625" lon="-0.2725219912827014923095703125">
        <ele>104.59999847412109375</ele>
        <time>2017-07-03T09:26:40.000Z</time>
        <extensions>
          <ns3:TrackPointExtension/>
        </extensions>
      </trkpt>
      <trkpt lat="44.3936365284025669097900390625" lon="-0.2731127478182315826416015625">
        <ele>104.40000152587890625</ele>
        <time>2017-07-03T09:26:48.000Z</time>
        <extensions>
          <ns3:TrackPointExtension/>
        </extensions>
      </trkpt>
      <trkpt lat="44.393711127340793609619140625" lon="-0.27345280162990093231201171875">
        <ele>105.8000030517578125</ele>
        <time>2017-07-03T09:26:52.000Z</time>
        <extensions>
          <ns3:TrackPointExtension/>
        </extensions>
      </trkpt>
      <trkpt lat="44.39376787282526493072509765625" lon="-0.27421873994171619415283203125">
        <ele>107.40000152587890625</ele>
        <time>2017-07-03T09:27:00.000Z</time>
        <extensions>
          <ns3:TrackPointExtension/>
        </extensions>
      </trkpt>
      <trkpt lat="44.39382067881524562835693359375" lon="-0.274510346353054046630859375">
        <ele>107.59999847412109375</ele>
        <time>2017-07-03T09:27:03.000Z</time>
        <extensions>
          <ns3:TrackPointExtension/>
        </extensions>
      </trkpt>
      <trkpt lat="44.39413416199386119842529296875" lon="-0.2751559205353260040283203125">
        <ele>108.40000152587890625</ele>
        <time>2017-07-03T09:27:10.000Z</time>
        <extensions>
          <ns3:TrackPointExtension/>
        </extensions>
      </trkpt>
      <trkpt lat="44.3941887281835079193115234375" lon="-0.27521149255335330963134765625">
        <ele>108.8000030517578125</ele>
        <time>2017-07-03T09:27:12.000Z</time>
        <extensions>
          <ns3:TrackPointExtension/>
        </extensions>
      </trkpt>
      <trkpt lat="44.3943640775978565216064453125" lon="-0.27533688582479953765869140625">
        <ele>109.40000152587890625</ele>
        <time>2017-07-03T09:27:15.000Z</time>
        <extensions>
          <ns3:TrackPointExtension/>
        </extensions>
      </trkpt>
      <trkpt lat="44.39490395598113536834716796875" lon="-0.27561717666685581207275390625">
        <ele>108.8000030517578125</ele>
        <time>2017-07-03T09:27:24.000Z</time>
        <extensions>
          <ns3:TrackPointExtension/>
        </extensions>
      </trkpt>
      <trkpt lat="44.39529689960181713104248046875" lon="-0.275891013443470001220703125">
        <ele>108</ele>
        <time>2017-07-03T09:27:31.000Z</time>
        <extensions>
          <ns3:TrackPointExtension/>
        </extensions>
      </trkpt>
      <trkpt lat="44.395736195147037506103515625" lon="-0.27640809305012226104736328125">
        <ele>108.59999847412109375</ele>
        <time>2017-07-03T09:27:40.000Z</time>
        <extensions>
          <ns3:TrackPointExtension/>
        </extensions>
      </trkpt>
      <trkpt lat="44.39616962336003780364990234375" lon="-0.2769620530307292938232421875">
        <ele>110.40000152587890625</ele>
        <time>2017-07-03T09:27:49.000Z</time>
        <extensions>
          <ns3:TrackPointExtension/>
        </extensions>
      </trkpt>
      <trkpt lat="44.39627163112163543701171875" lon="-0.27706825174391269683837890625">
        <ele>110.8000030517578125</ele>
        <time>2017-07-03T09:27:51.000Z</time>
        <extensions>
          <ns3:TrackPointExtension/>
        </extensions>
      </trkpt>
      <trkpt lat="44.3963889777660369873046875" lon="-0.27715575881302356719970703125">
        <ele>110.59999847412109375</ele>
        <time>2017-07-03T09:27:53.000Z</time>
        <extensions>
          <ns3:TrackPointExtension/>
        </extensions>
      </trkpt>
      <trkpt lat="44.3967043049633502960205078125" lon="-0.27724460698664188385009765625">
        <ele>110.1999969482421875</ele>
        <time>2017-07-03T09:27:58.000Z</time>
        <extensions>
          <ns3:TrackPointExtension/>
        </extensions>
      </trkpt>
      <trkpt lat="44.3973010964691638946533203125" lon="-0.27729456312954425811767578125">
        <ele>108.1999969482421875</ele>
        <time>2017-07-03T09:28:07.000Z</time>
        <extensions>
          <ns3:TrackPointExtension/>
        </extensions>
      </trkpt>
      <trkpt lat="44.3977134861052036285400390625" lon="-0.27735927142202854156494140625">
        <ele>106.8000030517578125</ele>
        <time>2017-07-03T09:28:13.000Z</time>
        <extensions>
          <ns3:TrackPointExtension/>
        </extensions>
      </trkpt>
      <trkpt lat="44.39823006279766559600830078125" lon="-0.2777157537639141082763671875">
        <ele>103.8000030517578125</ele>
        <time>2017-07-03T09:28:21.000Z</time>
        <extensions>
          <ns3:TrackPointExtension/>
        </extensions>
      </trkpt>
      <trkpt lat="44.398728199303150177001953125" lon="-0.27813141234219074249267578125">
        <ele>101</ele>
        <time>2017-07-03T09:28:29.000Z</time>
        <extensions>
          <ns3:TrackPointExtension/>
        </extensions>
      </trkpt>
      <trkpt lat="44.399226419627666473388671875" lon="-0.27852251194417476654052734375">
        <ele>100.59999847412109375</ele>
        <time>2017-07-03T09:28:37.000Z</time>
        <extensions>
          <ns3:TrackPointExtension/>
        </extensions>
      </trkpt>
      <trkpt lat="44.399687759578227996826171875" lon="-0.27892400510609149932861328125">
        <ele>99.8000030517578125</ele>
        <time>2017-07-03T09:28:45.000Z</time>
        <extensions>
          <ns3:TrackPointExtension/>
        </extensions>
      </trkpt>
      <trkpt lat="44.39981021918356418609619140625" lon="-0.279048644006252288818359375">
        <ele>100.40000152587890625</ele>
        <time>2017-07-03T09:28:47.000Z</time>
        <extensions>
          <ns3:TrackPointExtension/>
        </extensions>
      </trkpt>
      <trkpt lat="44.39997534267604351043701171875" lon="-0.27934745885431766510009765625">
        <ele>101.59999847412109375</ele>
        <time>2017-07-03T09:28:51.000Z</time>
        <extensions>
          <ns3:TrackPointExtension/>
        </extensions>
      </trkpt>
      <trkpt lat="44.400310032069683074951171875" lon="-0.27996436692774295806884765625">
        <ele>103.8000030517578125</ele>
        <time>2017-07-03T09:28:58.000Z</time>
        <extensions>
          <ns3:TrackPointExtension/>
        </extensions>
      </trkpt>
      <trkpt lat="44.4006015546619892120361328125" lon="-0.28049804270267486572265625">
        <ele>103.40000152587890625</ele>
        <time>2017-07-03T09:29:04.000Z</time>
        <extensions>
          <ns3:TrackPointExtension/>
        </extensions>
      </trkpt>
      <trkpt lat="44.40072133205831050872802734375" lon="-0.28101436793804168701171875">
        <ele>100.8000030517578125</ele>
        <time>2017-07-03T09:29:09.000Z</time>
        <extensions>
          <ns3:TrackPointExtension/>
        </extensions>
      </trkpt>
      <trkpt lat="44.40079710446298122406005859375" lon="-0.28179380111396312713623046875">
        <ele>98.8000030517578125</ele>
        <time>2017-07-03T09:29:16.000Z</time>
        <extensions>
          <ns3:TrackPointExtension/>
        </extensions>
      </trkpt>
      <trkpt lat="44.400888048112392425537109375" lon="-0.28260223567485809326171875">
        <ele>98.59999847412109375</ele>
        <time>2017-07-03T09:29:23.000Z</time>
        <extensions>
          <ns3:TrackPointExtension/>
        </extensions>
      </trkpt>
      <trkpt lat="44.40090053714811801910400390625" lon="-0.282815136015415191650390625">
        <ele>98</ele>
        <time>2017-07-03T09:29:25.000Z</time>
        <extensions>
          <ns3:TrackPointExtension/>
        </extensions>
      </trkpt>
      <trkpt lat="44.4008483178913593292236328125" lon="-0.28357210569083690643310546875">
        <ele>95.8000030517578125</ele>
        <time>2017-07-03T09:29:33.000Z</time>
        <extensions>
          <ns3:TrackPointExtension/>
        </extensions>
      </trkpt>
      <trkpt lat="44.40084102563560009002685546875" lon="-0.284327566623687744140625">
        <ele>93.1999969482421875</ele>
        <time>2017-07-03T09:29:40.000Z</time>
        <extensions>
          <ns3:TrackPointExtension/>
        </extensions>
      </trkpt>
      <trkpt lat="44.40090104006230831146240234375" lon="-0.28509023599326610565185546875">
        <ele>92</ele>
        <time>2017-07-03T09:29:46.000Z</time>
        <extensions>
          <ns3:TrackPointExtension/>
        </extensions>
      </trkpt>
      <trkpt lat="44.40097547136247158050537109375" lon="-0.28594686649739742279052734375">
        <ele>90</ele>
        <time>2017-07-03T09:29:52.000Z</time>
        <extensions>
          <ns3:TrackPointExtension/>
        </extensions>
      </trkpt>
      <trkpt lat="44.40095476806163787841796875" lon="-0.2867866493761539459228515625">
        <ele>87.8000030517578125</ele>
        <time>2017-07-03T09:29:58.000Z</time>
        <extensions>
          <ns3:TrackPointExtension/>
        </extensions>
      </trkpt>
      <trkpt lat="44.4011902995407581329345703125" lon="-0.287219993770122528076171875">
        <ele>85.59999847412109375</ele>
        <time>2017-07-03T09:30:03.000Z</time>
        <extensions>
          <ns3:TrackPointExtension/>
        </extensions>
      </trkpt>
      <trkpt lat="44.4015064649283885955810546875" lon="-0.2876307070255279541015625">
        <ele>84.59999847412109375</ele>
        <time>2017-07-03T09:30:11.000Z</time>
        <extensions>
          <ns3:TrackPointExtension/>
        </extensions>
      </trkpt>
      <trkpt lat="44.40169162116944789886474609375" lon="-0.28839069418609142303466796875">
        <ele>86.40000152587890625</ele>
        <time>2017-07-03T09:30:24.000Z</time>
        <extensions>
          <ns3:TrackPointExtension/>
        </extensions>
      </trkpt>
      <trkpt lat="44.40183394588530063629150390625" lon="-0.2891649305820465087890625">
        <ele>91</ele>
        <time>2017-07-03T09:30:39.000Z</time>
        <extensions>
          <ns3:TrackPointExtension/>
        </extensions>
      </trkpt>
      <trkpt lat="44.4023327529430389404296875" lon="-0.2893813513219356536865234375">
        <ele>95.59999847412109375</ele>
        <time>2017-07-03T09:30:55.000Z</time>
        <extensions>
          <ns3:TrackPointExtension/>
        </extensions>
      </trkpt>
      <trkpt lat="44.402871541678905487060546875" lon="-0.2895902283489704132080078125">
        <ele>97</ele>
        <time>2017-07-03T09:31:09.000Z</time>
        <extensions>
          <ns3:TrackPointExtension/>
        </extensions>
      </trkpt>
      <trkpt lat="44.40337906591594219207763671875" lon="-0.2898628078401088714599609375">
        <ele>96</ele>
        <time>2017-07-03T09:31:23.000Z</time>
        <extensions>
          <ns3:TrackPointExtension/>
        </extensions>
      </trkpt>
      <trkpt lat="44.4034431874752044677734375" lon="-0.289931707084178924560546875">
        <ele>96.1999969482421875</ele>
        <time>2017-07-03T09:31:25.000Z</time>
        <extensions>
          <ns3:TrackPointExtension/>
        </extensions>
      </trkpt>
      <trkpt lat="44.4035006873309612274169921875" lon="-0.29039539396762847900390625">
        <ele>96.8000030517578125</ele>
        <time>2017-07-03T09:31:33.000Z</time>
        <extensions>
          <ns3:TrackPointExtension/>
        </extensions>
      </trkpt>
      <trkpt lat="44.40350898541510105133056640625" lon="-0.29072773642838001251220703125">
        <ele>97</ele>
        <time>2017-07-03T09:31:38.000Z</time>
        <extensions>
          <ns3:TrackPointExtension/>
        </extensions>
      </trkpt>
      <trkpt lat="44.40373194403946399688720703125" lon="-0.2914251945912837982177734375">
        <ele>97.59999847412109375</ele>
        <time>2017-07-03T09:31:52.000Z</time>
        <extensions>
          <ns3:TrackPointExtension/>
        </extensions>
      </trkpt>
      <trkpt lat="44.403768740594387054443359375" lon="-0.29145763255655765533447265625">
        <ele>97.40000152587890625</ele>
        <time>2017-07-03T09:31:53.000Z</time>
        <extensions>
          <ns3:TrackPointExtension/>
        </extensions>
      </trkpt>
      <trkpt lat="44.40425732173025608062744140625" lon="-0.29187656007707118988037109375">
        <ele>96.8000030517578125</ele>
        <time>2017-07-03T09:32:05.000Z</time>
        <extensions>
          <ns3:TrackPointExtension/>
        </extensions>
      </trkpt>
      <trkpt lat="44.40474808216094970703125" lon="-0.29229716397821903228759765625">
        <ele>98.59999847412109375</ele>
        <time>2017-07-03T09:32:16.000Z</time>
        <extensions>
          <ns3:TrackPointExtension/>
        </extensions>
      </trkpt>
      <trkpt lat="44.404985792934894561767578125" lon="-0.29246161691844463348388671875">
        <ele>99.8000030517578125</ele>
        <time>2017-07-03T09:32:21.000Z</time>
        <extensions>
          <ns3:TrackPointExtension/>
        </extensions>
      </trkpt>
      <trkpt lat="44.4055596180260181427001953125" lon="-0.29247217811644077301025390625">
        <ele>103.59999847412109375</ele>
        <time>2017-07-03T09:32:31.000Z</time>
        <extensions>
          <ns3:TrackPointExtension/>
        </extensions>
      </trkpt>
      <trkpt lat="44.406147859990596771240234375" lon="-0.29241115786135196685791015625">
        <ele>105.59999847412109375</ele>
        <time>2017-07-03T09:32:41.000Z</time>
        <extensions>
          <ns3:TrackPointExtension/>
        </extensions>
      </trkpt>
      <trkpt lat="44.406687319278717041015625" lon="-0.29237863607704639434814453125">
        <ele>103.59999847412109375</ele>
        <time>2017-07-03T09:32:50.000Z</time>
        <extensions>
          <ns3:TrackPointExtension/>
        </extensions>
      </trkpt>
      <trkpt lat="44.4072304666042327880859375" lon="-0.29246932826936244964599609375">
        <ele>103</ele>
        <time>2017-07-03T09:32:59.000Z</time>
        <extensions>
          <ns3:TrackPointExtension/>
        </extensions>
      </trkpt>
      <trkpt lat="44.40783061087131500244140625" lon="-0.29249128885567188262939453125">
        <ele>101.40000152587890625</ele>
        <time>2017-07-03T09:33:08.000Z</time>
        <extensions>
          <ns3:TrackPointExtension/>
        </extensions>
      </trkpt>
      <trkpt lat="44.40839731134474277496337890625" lon="-0.29231660999357700347900390625">
        <ele>104</ele>
        <time>2017-07-03T09:33:17.000Z</time>
        <extensions>
          <ns3:TrackPointExtension/>
        </extensions>
      </trkpt>
      <trkpt lat="44.40892838872969150543212890625" lon="-0.292145200073719024658203125">
        <ele>106.59999847412109375</ele>
        <time>2017-07-03T09:33:26.000Z</time>
        <extensions>
          <ns3:TrackPointExtension/>
        </extensions>
      </trkpt>
      <trkpt lat="44.40947907976806163787841796875" lon="-0.291982591152191162109375">
        <ele>109.1999969482421875</ele>
        <time>2017-07-03T09:33:36.000Z</time>
        <extensions>
          <ns3:TrackPointExtension/>
        </extensions>
      </trkpt>
      <trkpt lat="44.41003345884382724761962890625" lon="-0.2918060682713985443115234375">
        <ele>108.59999847412109375</ele>
        <time>2017-07-03T09:33:46.000Z</time>
        <extensions>
          <ns3:TrackPointExtension/>
        </extensions>
      </trkpt>
      <trkpt lat="44.410433359444141387939453125" lon="-0.2916890569031238555908203125">
        <ele>107.59999847412109375</ele>
        <time>2017-07-03T09:33:54.000Z</time>
        <extensions>
          <ns3:TrackPointExtension/>
        </extensions>
      </trkpt>
      <trkpt lat="44.4106752611696720123291015625" lon="-0.291574895381927490234375">
        <ele>106.8000030517578125</ele>
        <time>2017-07-03T09:34:00.000Z</time>
        <extensions>
          <ns3:TrackPointExtension/>
        </extensions>
      </trkpt>
      <trkpt lat="44.41084004938602447509765625" lon="-0.291801877319812774658203125">
        <ele>106.8000030517578125</ele>
        <time>2017-07-03T09:34:07.000Z</time>
        <extensions>
          <ns3:TrackPointExtension/>
        </extensions>
      </trkpt>
      <trkpt lat="44.410878606140613555908203125" lon="-0.29207906685769557952880859375">
        <ele>107</ele>
        <time>2017-07-03T09:34:11.000Z</time>
        <extensions>
          <ns3:TrackPointExtension/>
        </extensions>
      </trkpt>
      <trkpt lat="44.410946331918239593505859375" lon="-0.29282840900123119354248046875">
        <ele>106.1999969482421875</ele>
        <time>2017-07-03T09:34:20.000Z</time>
        <extensions>
          <ns3:TrackPointExtension/>
        </extensions>
      </trkpt>
      <trkpt lat="44.41101615317165851593017578125" lon="-0.2936225943267345428466796875">
        <ele>106</ele>
        <time>2017-07-03T09:34:29.000Z</time>
        <extensions>
          <ns3:TrackPointExtension/>
        </extensions>
      </trkpt>
      <trkpt lat="44.4110767543315887451171875" lon="-0.29443924315273761749267578125">
        <ele>106.59999847412109375</ele>
        <time>2017-07-03T09:34:38.000Z</time>
        <extensions>
          <ns3:TrackPointExtension/>
        </extensions>
      </trkpt>
      <trkpt lat="44.4111486710608005523681640625" lon="-0.29521708376705646514892578125">
        <ele>104.8000030517578125</ele>
        <time>2017-07-03T09:34:47.000Z</time>
        <extensions>
          <ns3:TrackPointExtension/>
        </extensions>
      </trkpt>
      <trkpt lat="44.4112083502113819122314453125" lon="-0.29597966931760311126708984375">
        <ele>104</ele>
        <time>2017-07-03T09:34:55.000Z</time>
        <extensions>
          <ns3:TrackPointExtension/>
        </extensions>
      </trkpt>
      <trkpt lat="44.4112767465412616729736328125" lon="-0.296801514923572540283203125">
        <ele>105</ele>
        <time>2017-07-03T09:35:03.000Z</time>
        <extensions>
          <ns3:TrackPointExtension/>
        </extensions>
      </trkpt>
      <trkpt lat="44.41134790889918804168701171875" lon="-0.29759955592453479766845703125">
        <ele>104.1999969482421875</ele>
        <time>2017-07-03T09:35:11.000Z</time>
        <extensions>
          <ns3:TrackPointExtension/>
        </extensions>
      </trkpt>
      <trkpt lat="44.41142317838966846466064453125" lon="-0.29837094247341156005859375">
        <ele>103.59999847412109375</ele>
        <time>2017-07-03T09:35:19.000Z</time>
        <extensions>
          <ns3:TrackPointExtension/>
        </extensions>
      </trkpt>
      <trkpt lat="44.41149316728115081787109375" lon="-0.299139060080051422119140625">
        <ele>103.59999847412109375</ele>
        <time>2017-07-03T09:35:27.000Z</time>
        <extensions>
          <ns3:TrackPointExtension/>
        </extensions>
      </trkpt>
      <trkpt lat="44.41156935878098011016845703125" lon="-0.29990122653543949127197265625">
        <ele>103</ele>
        <time>2017-07-03T09:35:35.000Z</time>
        <extensions>
          <ns3:TrackPointExtension/>
        </extensions>
      </trkpt>
      <trkpt lat="44.41164395771920680999755859375" lon="-0.30067755840718746185302734375">
        <ele>99.8000030517578125</ele>
        <time>2017-07-03T09:35:43.000Z</time>
        <extensions>
          <ns3:TrackPointExtension/>
        </extensions>
      </trkpt>
      <trkpt lat="44.41171604208648204803466796875" lon="-0.30145439319312572479248046875">
        <ele>96.59999847412109375</ele>
        <time>2017-07-03T09:35:51.000Z</time>
        <extensions>
          <ns3:TrackPointExtension/>
        </extensions>
      </trkpt>
      <trkpt lat="44.41179265268146991729736328125" lon="-0.30226358212530612945556640625">
        <ele>94.59999847412109375</ele>
        <time>2017-07-03T09:35:59.000Z</time>
        <extensions>
          <ns3:TrackPointExtension/>
        </extensions>
      </trkpt>
      <trkpt lat="44.41186842508614063262939453125" lon="-0.3030814044177532196044921875">
        <ele>93</ele>
        <time>2017-07-03T09:36:07.000Z</time>
        <extensions>
          <ns3:TrackPointExtension/>
        </extensions>
      </trkpt>
      <trkpt lat="44.41194905899465084075927734375" lon="-0.30391263775527477264404296875">
        <ele>93</ele>
        <time>2017-07-03T09:36:15.000Z</time>
        <extensions>
          <ns3:TrackPointExtension/>
        </extensions>
      </trkpt>
      <trkpt lat="44.41207679919898509979248046875" lon="-0.304732136428356170654296875">
        <ele>94.1999969482421875</ele>
        <time>2017-07-03T09:36:23.000Z</time>
        <extensions>
          <ns3:TrackPointExtension/>
        </extensions>
      </trkpt>
      <trkpt lat="44.41226623021066188812255859375" lon="-0.30545867979526519775390625">
        <ele>95.59999847412109375</ele>
        <time>2017-07-03T09:36:31.000Z</time>
        <extensions>
          <ns3:TrackPointExtension/>
        </extensions>
      </trkpt>
      <trkpt lat="44.4124743528664112091064453125" lon="-0.30618463642895221710205078125">
        <ele>94.59999847412109375</ele>
        <time>2017-07-03T09:36:39.000Z</time>
        <extensions>
          <ns3:TrackPointExtension/>
        </extensions>
      </trkpt>
      <trkpt lat="44.4126869179308414459228515625" lon="-0.306927524507045745849609375">
        <ele>93</ele>
        <time>2017-07-03T09:36:47.000Z</time>
        <extensions>
          <ns3:TrackPointExtension/>
        </extensions>
      </trkpt>
      <trkpt lat="44.41289939917623996734619140625" lon="-0.30766722746193408966064453125">
        <ele>92.8000030517578125</ele>
        <time>2017-07-03T09:36:55.000Z</time>
        <extensions>
          <ns3:TrackPointExtension/>
        </extensions>
      </trkpt>
      <trkpt lat="44.41310995258390903472900390625" lon="-0.30842428095638751983642578125">
        <ele>93.40000152587890625</ele>
        <time>2017-07-03T09:37:03.000Z</time>
        <extensions>
          <ns3:TrackPointExtension/>
        </extensions>
      </trkpt>
      <trkpt lat="44.41332804970443248748779296875" lon="-0.30919625423848628997802734375">
        <ele>94</ele>
        <time>2017-07-03T09:37:11.000Z</time>
        <extensions>
          <ns3:TrackPointExtension/>
        </extensions>
      </trkpt>
      <trkpt lat="44.41353843547403812408447265625" lon="-0.30997443012893199920654296875">
        <ele>93.1999969482421875</ele>
        <time>2017-07-03T09:37:19.000Z</time>
        <extensions>
          <ns3:TrackPointExtension/>
        </extensions>
      </trkpt>
      <trkpt lat="44.41375401802361011505126953125" lon="-0.3107379376888275146484375">
        <ele>92.40000152587890625</ele>
        <time>2017-07-03T09:37:27.000Z</time>
        <extensions>
          <ns3:TrackPointExtension/>
        </extensions>
      </trkpt>
      <trkpt lat="44.41396976821124553680419921875" lon="-0.3114911355078220367431640625">
        <ele>89</ele>
        <time>2017-07-03T09:37:35.000Z</time>
        <extensions>
          <ns3:TrackPointExtension/>
        </extensions>
      </trkpt>
      <trkpt lat="44.4141772203147411346435546875" lon="-0.31223930418491363525390625">
        <ele>89</ele>
        <time>2017-07-03T09:37:43.000Z</time>
        <extensions>
          <ns3:TrackPointExtension/>
        </extensions>
      </trkpt>
      <trkpt lat="44.41438416950404644012451171875" lon="-0.31301043927669525146484375">
        <ele>89.8000030517578125</ele>
        <time>2017-07-03T09:37:51.000Z</time>
        <extensions>
          <ns3:TrackPointExtension/>
        </extensions>
      </trkpt>
      <trkpt lat="44.4146025180816650390625" lon="-0.3137777186930179595947265625">
        <ele>91.40000152587890625</ele>
        <time>2017-07-03T09:37:59.000Z</time>
        <extensions>
          <ns3:TrackPointExtension/>
        </extensions>
      </trkpt>
      <trkpt lat="44.414820782840251922607421875" lon="-0.3145418129861354827880859375">
        <ele>91.8000030517578125</ele>
        <time>2017-07-03T09:38:07.000Z</time>
        <extensions>
          <ns3:TrackPointExtension/>
        </extensions>
      </trkpt>
      <trkpt lat="44.41504600457847118377685546875" lon="-0.3153206594288349151611328125">
        <ele>89.59999847412109375</ele>
        <time>2017-07-03T09:38:15.000Z</time>
        <extensions>
          <ns3:TrackPointExtension/>
        </extensions>
      </trkpt>
      <trkpt lat="44.4152698852121829986572265625" lon="-0.31611367128789424896240234375">
        <ele>87.40000152587890625</ele>
        <time>2017-07-03T09:38:23.000Z</time>
        <extensions>
          <ns3:TrackPointExtension/>
        </extensions>
      </trkpt>
      <trkpt lat="44.41550038754940032958984375" lon="-0.31683803535997867584228515625">
        <ele>87.59999847412109375</ele>
        <time>2017-07-03T09:38:31.000Z</time>
        <extensions>
          <ns3:TrackPointExtension/>
        </extensions>
      </trkpt>
      <trkpt lat="44.41574312746524810791015625" lon="-0.3172246925532817840576171875">
        <ele>87</ele>
        <time>2017-07-03T09:38:36.000Z</time>
        <extensions>
          <ns3:TrackPointExtension/>
        </extensions>
      </trkpt>
      <trkpt lat="44.416241012513637542724609375" lon="-0.31760246492922306060791015625">
        <ele>88</ele>
        <time>2017-07-03T09:38:43.000Z</time>
        <extensions>
          <ns3:TrackPointExtension/>
        </extensions>
      </trkpt>
      <trkpt lat="44.4168124906718730926513671875" lon="-0.31788459978997707366943359375">
        <ele>85.8000030517578125</ele>
        <time>2017-07-03T09:38:50.000Z</time>
        <extensions>
          <ns3:TrackPointExtension/>
        </extensions>
      </trkpt>
      <trkpt lat="44.41736645065248012542724609375" lon="-0.31818576157093048095703125">
        <ele>82.1999969482421875</ele>
        <time>2017-07-03T09:38:57.000Z</time>
        <extensions>
          <ns3:TrackPointExtension/>
        </extensions>
      </trkpt>
      <trkpt lat="44.41795402206480503082275390625" lon="-0.31849195249378681182861328125">
        <ele>81</ele>
        <time>2017-07-03T09:39:04.000Z</time>
        <extensions>
          <ns3:TrackPointExtension/>
        </extensions>
      </trkpt>
      <trkpt lat="44.4184721074998378753662109375" lon="-0.31874525360763072967529296875">
        <ele>78.8000030517578125</ele>
        <time>2017-07-03T09:39:10.000Z</time>
        <extensions>
          <ns3:TrackPointExtension/>
        </extensions>
      </trkpt>
      <trkpt lat="44.41903361119329929351806640625" lon="-0.3190402127802371978759765625">
        <ele>75.8000030517578125</ele>
        <time>2017-07-03T09:39:17.000Z</time>
        <extensions>
          <ns3:TrackPointExtension/>
        </extensions>
      </trkpt>
      <trkpt lat="44.41957340575754642486572265625" lon="-0.31932176090776920318603515625">
        <ele>71.59999847412109375</ele>
        <time>2017-07-03T09:39:24.000Z</time>
        <extensions>
          <ns3:TrackPointExtension/>
        </extensions>
      </trkpt>
      <trkpt lat="44.4200908206403255462646484375" lon="-0.31958051025867462158203125">
        <ele>69.8000030517578125</ele>
        <time>2017-07-03T09:39:31.000Z</time>
        <extensions>
          <ns3:TrackPointExtension/>
        </extensions>
      </trkpt>
      <trkpt lat="44.4206232391297817230224609375" lon="-0.31986415386199951171875">
        <ele>71</ele>
        <time>2017-07-03T09:39:39.000Z</time>
        <extensions>
          <ns3:TrackPointExtension/>
        </extensions>
      </trkpt>
      <trkpt lat="44.42117468453943729400634765625" lon="-0.32015986740589141845703125">
        <ele>73.59999847412109375</ele>
        <time>2017-07-03T09:39:47.000Z</time>
        <extensions>
          <ns3:TrackPointExtension/>
        </extensions>
      </trkpt>
      <trkpt lat="44.42170944996178150177001953125" lon="-0.320441834628582000732421875">
        <ele>72.59999847412109375</ele>
        <time>2017-07-03T09:39:55.000Z</time>
        <extensions>
          <ns3:TrackPointExtension/>
        </extensions>
      </trkpt>
      <trkpt lat="44.422251842916011810302734375" lon="-0.320746935904026031494140625">
        <ele>72</ele>
        <time>2017-07-03T09:40:03.000Z</time>
        <extensions>
          <ns3:TrackPointExtension/>
        </extensions>
      </trkpt>
      <trkpt lat="44.42283664830029010772705078125" lon="-0.321037955582141876220703125">
        <ele>71.8000030517578125</ele>
        <time>2017-07-03T09:40:11.000Z</time>
        <extensions>
          <ns3:TrackPointExtension/>
        </extensions>
      </trkpt>
      <trkpt lat="44.4233963079750537872314453125" lon="-0.32132453285157680511474609375">
        <ele>73.8000030517578125</ele>
        <time>2017-07-03T09:40:19.000Z</time>
        <extensions>
          <ns3:TrackPointExtension/>
        </extensions>
      </trkpt>
      <trkpt lat="44.42390299402177333831787109375" lon="-0.321591831743717193603515625">
        <ele>74</ele>
        <time>2017-07-03T09:40:26.000Z</time>
        <extensions>
          <ns3:TrackPointExtension/>
        </extensions>
      </trkpt>
      <trkpt lat="44.424407668411731719970703125" lon="-0.32198569737374782562255859375">
        <ele>72.40000152587890625</ele>
        <time>2017-07-03T09:40:33.000Z</time>
        <extensions>
          <ns3:TrackPointExtension/>
        </extensions>
      </trkpt>
      <trkpt lat="44.4247766397893428802490234375" lon="-0.3225572593510150909423828125">
        <ele>72.59999847412109375</ele>
        <time>2017-07-03T09:40:40.000Z</time>
        <extensions>
          <ns3:TrackPointExtension/>
        </extensions>
      </trkpt>
      <trkpt lat="44.42515826784074306488037109375" lon="-0.323203168809413909912109375">
        <ele>73.59999847412109375</ele>
        <time>2017-07-03T09:40:48.000Z</time>
        <extensions>
          <ns3:TrackPointExtension/>
        </extensions>
      </trkpt>
      <trkpt lat="44.42543017677962779998779296875" lon="-0.32371555455029010772705078125">
        <ele>72.40000152587890625</ele>
        <time>2017-07-03T09:40:54.000Z</time>
        <extensions>
          <ns3:TrackPointExtension/>
        </extensions>
      </trkpt>
      <trkpt lat="44.42560695111751556396484375" lon="-0.32450580038130283355712890625">
        <ele>67.59999847412109375</ele>
        <time>2017-07-03T09:41:02.000Z</time>
        <extensions>
          <ns3:TrackPointExtension/>
        </extensions>
      </trkpt>
      <trkpt lat="44.42578808404505252838134765625" lon="-0.3252418152987957000732421875">
        <ele>64.59999847412109375</ele>
        <time>2017-07-03T09:41:10.000Z</time>
        <extensions>
          <ns3:TrackPointExtension/>
        </extensions>
      </trkpt>
      <trkpt lat="44.42610475234687328338623046875" lon="-0.325945727527141571044921875">
        <ele>64.8000030517578125</ele>
        <time>2017-07-03T09:41:18.000Z</time>
        <extensions>
          <ns3:TrackPointExtension/>
        </extensions>
      </trkpt>
      <trkpt lat="44.4263172335922718048095703125" lon="-0.32663782127201557159423828125">
        <ele>63.799999237060546875</ele>
        <time>2017-07-03T09:41:25.000Z</time>
        <extensions>
          <ns3:TrackPointExtension/>
        </extensions>
      </trkpt>
      <trkpt lat="44.42649233154952526092529296875" lon="-0.327370651066303253173828125">
        <ele>62.59999847412109375</ele>
        <time>2017-07-03T09:41:32.000Z</time>
        <extensions>
          <ns3:TrackPointExtension/>
        </extensions>
      </trkpt>
      <trkpt lat="44.4266040623188018798828125" lon="-0.32818243838846683502197265625">
        <ele>62</ele>
        <time>2017-07-03T09:41:40.000Z</time>
        <extensions>
          <ns3:TrackPointExtension/>
        </extensions>
      </trkpt>
      <trkpt lat="44.42670456133782863616943359375" lon="-0.32898207195103168487548828125">
        <ele>60.59999847412109375</ele>
        <time>2017-07-03T09:41:49.000Z</time>
        <extensions>
          <ns3:TrackPointExtension/>
        </extensions>
      </trkpt>
      <trkpt lat="44.4268094189465045928955078125" lon="-0.32973133027553558349609375">
        <ele>61.40000152587890625</ele>
        <time>2017-07-03T09:41:57.000Z</time>
        <extensions>
          <ns3:TrackPointExtension/>
        </extensions>
      </trkpt>
      <trkpt lat="44.42689751274883747100830078125" lon="-0.3304067440330982208251953125">
        <ele>60.799999237060546875</ele>
        <time>2017-07-03T09:42:06.000Z</time>
        <extensions>
          <ns3:TrackPointExtension/>
        </extensions>
      </trkpt>
      <trkpt lat="44.42716372199356555938720703125" lon="-0.330366678535938262939453125">
        <ele>61.200000762939453125</ele>
        <time>2017-07-03T09:42:12.000Z</time>
        <extensions>
          <ns3:TrackPointExtension/>
        </extensions>
      </trkpt>
      <trkpt lat="44.42765490151941776275634765625" lon="-0.32999695278704166412353515625">
        <ele>62.200000762939453125</ele>
        <time>2017-07-03T09:42:21.000Z</time>
        <extensions>
          <ns3:TrackPointExtension/>
        </extensions>
      </trkpt>
      <trkpt lat="44.428130574524402618408203125" lon="-0.329621694982051849365234375">
        <ele>62</ele>
        <time>2017-07-03T09:42:29.000Z</time>
        <extensions>
          <ns3:TrackPointExtension/>
        </extensions>
      </trkpt>
      <trkpt lat="44.4286130368709564208984375" lon="-0.329245515167713165283203125">
        <ele>61</ele>
        <time>2017-07-03T09:42:37.000Z</time>
        <extensions>
          <ns3:TrackPointExtension/>
        </extensions>
      </trkpt>
      <trkpt lat="44.42909072153270244598388671875" lon="-0.3288845904171466827392578125">
        <ele>59.799999237060546875</ele>
        <time>2017-07-03T09:42:45.000Z</time>
        <extensions>
          <ns3:TrackPointExtension/>
        </extensions>
      </trkpt>
      <trkpt lat="44.429608471691608428955078125" lon="-0.328483767807483673095703125">
        <ele>58.200000762939453125</ele>
        <time>2017-07-03T09:42:54.000Z</time>
        <extensions>
          <ns3:TrackPointExtension/>
        </extensions>
      </trkpt>
      <trkpt lat="44.4301226176321506500244140625" lon="-0.32808537594974040985107421875">
        <ele>58.200000762939453125</ele>
        <time>2017-07-03T09:43:02.000Z</time>
        <extensions>
          <ns3:TrackPointExtension/>
        </extensions>
      </trkpt>
      <trkpt lat="44.43066559731960296630859375" lon="-0.32777071930468082427978515625">
        <ele>58.200000762939453125</ele>
        <time>2017-07-03T09:43:09.000Z</time>
        <extensions>
          <ns3:TrackPointExtension/>
        </extensions>
      </trkpt>
      <trkpt lat="44.4312209822237491607666015625" lon="-0.32759436406195163726806640625">
        <ele>58.59999847412109375</ele>
        <time>2017-07-03T09:43:16.000Z</time>
        <extensions>
          <ns3:TrackPointExtension/>
        </extensions>
      </trkpt>
      <trkpt lat="44.4317906163632869720458984375" lon="-0.32742588780820369720458984375">
        <ele>60.799999237060546875</ele>
        <time>2017-07-03T09:43:25.000Z</time>
        <extensions>
          <ns3:TrackPointExtension/>
        </extensions>
      </trkpt>
      <trkpt lat="44.4323743321001529693603515625" lon="-0.327257327735424041748046875">
        <ele>60.40000152587890625</ele>
        <time>2017-07-03T09:43:35.000Z</time>
        <extensions>
          <ns3:TrackPointExtension/>
        </extensions>
      </trkpt>
      <trkpt lat="44.43296466954052448272705078125" lon="-0.3270865045487880706787109375">
        <ele>59.200000762939453125</ele>
        <time>2017-07-03T09:43:44.000Z</time>
        <extensions>
          <ns3:TrackPointExtension/>
        </extensions>
      </trkpt>
      <trkpt lat="44.43351142108440399169921875" lon="-0.3269383125007152557373046875">
        <ele>59.59999847412109375</ele>
        <time>2017-07-03T09:43:53.000Z</time>
        <extensions>
          <ns3:TrackPointExtension/>
        </extensions>
      </trkpt>
      <trkpt lat="44.43409672938287258148193359375" lon="-0.32677687704563140869140625">
        <ele>61.40000152587890625</ele>
        <time>2017-07-03T09:44:03.000Z</time>
        <extensions>
          <ns3:TrackPointExtension/>
        </extensions>
      </trkpt>
      <trkpt lat="44.43468086421489715576171875" lon="-0.32662533223628997802734375">
        <ele>62.59999847412109375</ele>
        <time>2017-07-03T09:44:13.000Z</time>
        <extensions>
          <ns3:TrackPointExtension/>
        </extensions>
      </trkpt>
      <trkpt lat="44.43521688692271709442138671875" lon="-0.326476134359836578369140625">
        <ele>64.40000152587890625</ele>
        <time>2017-07-03T09:44:22.000Z</time>
        <extensions>
          <ns3:TrackPointExtension/>
        </extensions>
      </trkpt>
      <trkpt lat="44.435771517455577850341796875" lon="-0.326321907341480255126953125">
        <ele>65.40000152587890625</ele>
        <time>2017-07-03T09:44:31.000Z</time>
        <extensions>
          <ns3:TrackPointExtension/>
        </extensions>
      </trkpt>
      <trkpt lat="44.4363396428525447845458984375" lon="-0.32615032978355884552001953125">
        <ele>65.8000030517578125</ele>
        <time>2017-07-03T09:44:40.000Z</time>
        <extensions>
          <ns3:TrackPointExtension/>
        </extensions>
      </trkpt>
      <trkpt lat="44.4369106180965900421142578125" lon="-0.3259680233895778656005859375">
        <ele>65</ele>
        <time>2017-07-03T09:44:49.000Z</time>
        <extensions>
          <ns3:TrackPointExtension/>
        </extensions>
      </trkpt>
      <trkpt lat="44.43747631274163722991943359375" lon="-0.3258023969829082489013671875">
        <ele>64.40000152587890625</ele>
        <time>2017-07-03T09:44:58.000Z</time>
        <extensions>
          <ns3:TrackPointExtension/>
        </extensions>
      </trkpt>
      <trkpt lat="44.43800621666014194488525390625" lon="-0.32564808614552021026611328125">
        <ele>63.200000762939453125</ele>
        <time>2017-07-03T09:45:07.000Z</time>
        <extensions>
          <ns3:TrackPointExtension/>
        </extensions>
      </trkpt>
      <trkpt lat="44.43857668898999691009521484375" lon="-0.325488746166229248046875">
        <ele>61.200000762939453125</ele>
        <time>2017-07-03T09:45:17.000Z</time>
        <extensions>
          <ns3:TrackPointExtension/>
        </extensions>
      </trkpt>
      <trkpt lat="44.43915269337594509124755859375" lon="-0.32532437704503536224365234375">
        <ele>62.40000152587890625</ele>
        <time>2017-07-03T09:45:28.000Z</time>
        <extensions>
          <ns3:TrackPointExtension/>
        </extensions>
      </trkpt>
      <trkpt lat="44.43970288150012493133544921875" lon="-0.32515975646674633026123046875">
        <ele>63.799999237060546875</ele>
        <time>2017-07-03T09:45:39.000Z</time>
        <extensions>
          <ns3:TrackPointExtension/>
        </extensions>
      </trkpt>
      <trkpt lat="44.44027033634483814239501953125" lon="-0.324935205280780792236328125">
        <ele>65.8000030517578125</ele>
        <time>2017-07-03T09:45:50.000Z</time>
        <extensions>
          <ns3:TrackPointExtension/>
        </extensions>
      </trkpt>
      <trkpt lat="44.44031610153615474700927734375" lon="-0.32489572651684284210205078125">
        <ele>66</ele>
        <time>2017-07-03T09:45:51.000Z</time>
        <extensions>
          <ns3:TrackPointExtension/>
        </extensions>
      </trkpt>
      <trkpt lat="44.44068498909473419189453125" lon="-0.32431351952254772186279296875">
        <ele>67.1999969482421875</ele>
        <time>2017-07-03T09:46:02.000Z</time>
        <extensions>
          <ns3:TrackPointExtension/>
        </extensions>
      </trkpt>
      <trkpt lat="44.44071717560291290283203125" lon="-0.3242675028741359710693359375">
        <ele>67.40000152587890625</ele>
        <time>2017-07-03T09:46:03.000Z</time>
        <extensions>
          <ns3:TrackPointExtension/>
        </extensions>
      </trkpt>
      <trkpt lat="44.44088439457118511199951171875" lon="-0.32416851259768009185791015625">
        <ele>67.8000030517578125</ele>
        <time>2017-07-03T09:46:07.000Z</time>
        <extensions>
          <ns3:TrackPointExtension/>
        </extensions>
      </trkpt>
      <trkpt lat="44.44143039174377918243408203125" lon="-0.32394907437264919281005859375">
        <ele>69.59999847412109375</ele>
        <time>2017-07-03T09:46:20.000Z</time>
        <extensions>
          <ns3:TrackPointExtension/>
        </extensions>
      </trkpt>
      <trkpt lat="44.44176365621387958526611328125" lon="-0.32334608025848865509033203125">
        <ele>70.59999847412109375</ele>
        <time>2017-07-03T09:46:34.000Z</time>
        <extensions>
          <ns3:TrackPointExtension/>
        </extensions>
      </trkpt>
      <trkpt lat="44.4419900514185428619384765625" lon="-0.3232707269489765167236328125">
        <ele>71.40000152587890625</ele>
        <time>2017-07-03T09:46:39.000Z</time>
        <extensions>
          <ns3:TrackPointExtension/>
        </extensions>
      </trkpt>
      <trkpt lat="44.44238073192536830902099609375" lon="-0.32319352962076663970947265625">
        <ele>69.8000030517578125</ele>
        <time>2017-07-03T09:46:46.000Z</time>
        <extensions>
          <ns3:TrackPointExtension/>
        </extensions>
      </trkpt>
      <trkpt lat="44.44290627725422382354736328125" lon="-0.32285070978105068206787109375">
        <ele>68.40000152587890625</ele>
        <time>2017-07-03T09:46:57.000Z</time>
        <extensions>
          <ns3:TrackPointExtension/>
        </extensions>
      </trkpt>
      <trkpt lat="44.443422518670558929443359375" lon="-0.322531275451183319091796875">
        <ele>70.40000152587890625</ele>
        <time>2017-07-03T09:47:10.000Z</time>
        <extensions>
          <ns3:TrackPointExtension/>
        </extensions>
      </trkpt>
      <trkpt lat="44.443910680711269378662109375" lon="-0.3221921436488628387451171875">
        <ele>72.8000030517578125</ele>
        <time>2017-07-03T09:47:22.000Z</time>
        <extensions>
          <ns3:TrackPointExtension/>
        </extensions>
      </trkpt>
      <trkpt lat="44.444067589938640594482421875" lon="-0.32209315337240695953369140625">
        <ele>73.59999847412109375</ele>
        <time>2017-07-03T09:47:26.000Z</time>
        <extensions>
          <ns3:TrackPointExtension/>
        </extensions>
      </trkpt>
      <trkpt lat="44.44456002674996852874755859375" lon="-0.3217629902064800262451171875">
        <ele>75.59999847412109375</ele>
        <time>2017-07-03T09:47:41.000Z</time>
        <extensions>
          <ns3:TrackPointExtension/>
        </extensions>
      </trkpt>
      <trkpt lat="44.444852806627750396728515625" lon="-0.32155989669263362884521484375">
        <ele>77</ele>
        <time>2017-07-03T09:47:57.000Z</time>
        <extensions>
          <ns3:TrackPointExtension/>
        </extensions>
      </trkpt>
      <trkpt lat="44.444997310638427734375" lon="-0.3214753232896327972412109375">
        <ele>77.59999847412109375</ele>
        <time>2017-07-03T09:56:51.000Z</time>
        <extensions>
          <ns3:TrackPointExtension/>
        </extensions>
      </trkpt>
      <trkpt lat="44.4450464285910129547119140625" lon="-0.32144003547728061676025390625">
        <ele>77.8000030517578125</ele>
        <time>2017-07-03T09:56:55.000Z</time>
        <extensions>
          <ns3:TrackPointExtension/>
        </extensions>
      </trkpt>
      <trkpt lat="44.445380531251430511474609375" lon="-0.321239791810512542724609375">
        <ele>78.8000030517578125</ele>
        <time>2017-07-03T09:57:07.000Z</time>
        <extensions>
          <ns3:TrackPointExtension/>
        </extensions>
      </trkpt>
      <trkpt lat="44.4457702897489070892333984375" lon="-0.32099143601953983306884765625">
        <ele>78</ele>
        <time>2017-07-03T09:57:16.000Z</time>
        <extensions>
          <ns3:TrackPointExtension/>
        </extensions>
      </trkpt>
      <trkpt lat="44.44590213708579540252685546875" lon="-0.3208874166011810302734375">
        <ele>77.8000030517578125</ele>
        <time>2017-07-03T09:57:19.000Z</time>
        <extensions>
          <ns3:TrackPointExtension/>
        </extensions>
      </trkpt>
      <trkpt lat="44.44642567075788974761962890625" lon="-0.3205405734479427337646484375">
        <ele>78.40000152587890625</ele>
        <time>2017-07-03T09:57:30.000Z</time>
        <extensions>
          <ns3:TrackPointExtension/>
        </extensions>
      </trkpt>
      <trkpt lat="44.44694769568741321563720703125" lon="-0.320190377533435821533203125">
        <ele>80.8000030517578125</ele>
        <time>2017-07-03T09:57:41.000Z</time>
        <extensions>
          <ns3:TrackPointExtension/>
        </extensions>
      </trkpt>
      <trkpt lat="44.44747634232044219970703125" lon="-0.319845043122768402099609375">
        <ele>81.59999847412109375</ele>
        <time>2017-07-03T09:57:52.000Z</time>
        <extensions>
          <ns3:TrackPointExtension/>
        </extensions>
      </trkpt>
      <trkpt lat="44.44778823293745517730712890625" lon="-0.31964329071342945098876953125">
        <ele>82</ele>
        <time>2017-07-03T09:57:59.000Z</time>
        <extensions>
          <ns3:TrackPointExtension/>
        </extensions>
      </trkpt>
      <trkpt lat="44.44828779436647891998291015625" lon="-0.31930424273014068603515625">
        <ele>82.8000030517578125</ele>
        <time>2017-07-03T09:58:10.000Z</time>
        <extensions>
          <ns3:TrackPointExtension/>
        </extensions>
      </trkpt>
      <trkpt lat="44.44879339076578617095947265625" lon="-0.318950526416301727294921875">
        <ele>82.8000030517578125</ele>
        <time>2017-07-03T09:58:20.000Z</time>
        <extensions>
          <ns3:TrackPointExtension/>
        </extensions>
      </trkpt>
      <trkpt lat="44.44930150173604488372802734375" lon="-0.31859488226473331451416015625">
        <ele>81.40000152587890625</ele>
        <time>2017-07-03T09:58:30.000Z</time>
        <extensions>
          <ns3:TrackPointExtension/>
        </extensions>
      </trkpt>
      <trkpt lat="44.449822604656219482421875" lon="-0.3182392381131649017333984375">
        <ele>81</ele>
        <time>2017-07-03T09:58:40.000Z</time>
        <extensions>
          <ns3:TrackPointExtension/>
        </extensions>
      </trkpt>
      <trkpt lat="44.4503548555076122283935546875" lon="-0.31786850653588771820068359375">
        <ele>81.1999969482421875</ele>
        <time>2017-07-03T09:58:50.000Z</time>
        <extensions>
          <ns3:TrackPointExtension/>
        </extensions>
      </trkpt>
      <trkpt lat="44.4508738629519939422607421875" lon="-0.3175024688243865966796875">
        <ele>82.8000030517578125</ele>
        <time>2017-07-03T09:59:00.000Z</time>
        <extensions>
          <ns3:TrackPointExtension/>
        </extensions>
      </trkpt>
      <trkpt lat="44.45134836249053478240966796875" lon="-0.3171355091035366058349609375">
        <ele>85</ele>
        <time>2017-07-03T09:59:09.000Z</time>
        <extensions>
          <ns3:TrackPointExtension/>
        </extensions>
      </trkpt>
      <trkpt lat="44.451396726071834564208984375" lon="-0.31708278693258762359619140625">
        <ele>85.1999969482421875</ele>
        <time>2017-07-03T09:59:10.000Z</time>
        <extensions>
          <ns3:TrackPointExtension/>
        </extensions>
      </trkpt>
      <trkpt lat="44.45153452455997467041015625" lon="-0.31691431067883968353271484375">
        <ele>86</ele>
        <time>2017-07-03T09:59:13.000Z</time>
        <extensions>
          <ns3:TrackPointExtension/>
        </extensions>
      </trkpt>
      <trkpt lat="44.45194867439568042755126953125" lon="-0.3163375519216060638427734375">
        <ele>88.8000030517578125</ele>
        <time>2017-07-03T09:59:23.000Z</time>
        <extensions>
          <ns3:TrackPointExtension/>
        </extensions>
      </trkpt>
      <trkpt lat="44.452345557510852813720703125" lon="-0.3158128447830677032470703125">
        <ele>88.8000030517578125</ele>
        <time>2017-07-03T09:59:32.000Z</time>
        <extensions>
          <ns3:TrackPointExtension/>
        </extensions>
      </trkpt>
      <trkpt lat="44.45276624523103237152099609375" lon="-0.31522066332399845123291015625">
        <ele>88.59999847412109375</ele>
        <time>2017-07-03T09:59:42.000Z</time>
        <extensions>
          <ns3:TrackPointExtension/>
        </extensions>
      </trkpt>
      <trkpt lat="44.453170001506805419921875" lon="-0.31469729728996753692626953125">
        <ele>88.40000152587890625</ele>
        <time>2017-07-03T09:59:51.000Z</time>
        <extensions>
          <ns3:TrackPointExtension/>
        </extensions>
      </trkpt>
      <trkpt lat="44.45356671698391437530517578125" lon="-0.3141502104699611663818359375">
        <ele>87.8000030517578125</ele>
        <time>2017-07-03T10:00:00.000Z</time>
        <extensions>
          <ns3:TrackPointExtension/>
        </extensions>
      </trkpt>
      <trkpt lat="44.4539677910506725311279296875" lon="-0.3135936520993709564208984375">
        <ele>87.59999847412109375</ele>
        <time>2017-07-03T10:00:09.000Z</time>
        <extensions>
          <ns3:TrackPointExtension/>
        </extensions>
      </trkpt>
      <trkpt lat="44.45435822010040283203125" lon="-0.31304262578487396240234375">
        <ele>87.8000030517578125</ele>
        <time>2017-07-03T10:00:18.000Z</time>
        <extensions>
          <ns3:TrackPointExtension/>
        </extensions>
      </trkpt>
      <trkpt lat="44.4547664187848567962646484375" lon="-0.3125194273889064788818359375">
        <ele>88</ele>
        <time>2017-07-03T10:00:27.000Z</time>
        <extensions>
          <ns3:TrackPointExtension/>
        </extensions>
      </trkpt>
      <trkpt lat="44.45519976317882537841796875" lon="-0.31195633113384246826171875">
        <ele>88.1999969482421875</ele>
        <time>2017-07-03T10:00:37.000Z</time>
        <extensions>
          <ns3:TrackPointExtension/>
        </extensions>
      </trkpt>
      <trkpt lat="44.4556428305804729461669921875" lon="-0.31140513718128204345703125">
        <ele>88.8000030517578125</ele>
        <time>2017-07-03T10:00:47.000Z</time>
        <extensions>
          <ns3:TrackPointExtension/>
        </extensions>
      </trkpt>
      <trkpt lat="44.45606209337711334228515625" lon="-0.31087942421436309814453125">
        <ele>89.59999847412109375</ele>
        <time>2017-07-03T10:00:56.000Z</time>
        <extensions>
          <ns3:TrackPointExtension/>
        </extensions>
      </trkpt>
      <trkpt lat="44.45645864121615886688232421875" lon="-0.3103277273476123809814453125">
        <ele>89.8000030517578125</ele>
        <time>2017-07-03T10:01:05.000Z</time>
        <extensions>
          <ns3:TrackPointExtension/>
        </extensions>
      </trkpt>
      <trkpt lat="44.45686030201613903045654296875" lon="-0.3097889386117458343505859375">
        <ele>90</ele>
        <time>2017-07-03T10:01:14.000Z</time>
        <extensions>
          <ns3:TrackPointExtension/>
        </extensions>
      </trkpt>
      <trkpt lat="44.45729096420109272003173828125" lon="-0.30924889259040355682373046875">
        <ele>90</ele>
        <time>2017-07-03T10:01:23.000Z</time>
        <extensions>
          <ns3:TrackPointExtension/>
        </extensions>
      </trkpt>
      <trkpt lat="44.45770720951259136199951171875" lon="-0.30872049741446971893310546875">
        <ele>90</ele>
        <time>2017-07-03T10:01:32.000Z</time>
        <extensions>
          <ns3:TrackPointExtension/>
        </extensions>
      </trkpt>
      <trkpt lat="44.45812873542308807373046875" lon="-0.30815740115940570831298828125">
        <ele>90</ele>
        <time>2017-07-03T10:01:42.000Z</time>
        <extensions>
          <ns3:TrackPointExtension/>
        </extensions>
      </trkpt>
      <trkpt lat="44.45855663157999515533447265625" lon="-0.30759464018046855926513671875">
        <ele>92</ele>
        <time>2017-07-03T10:01:52.000Z</time>
        <extensions>
          <ns3:TrackPointExtension/>
        </extensions>
      </trkpt>
      <trkpt lat="44.4589644111692905426025390625" lon="-0.30707211233675479888916015625">
        <ele>93.59999847412109375</ele>
        <time>2017-07-03T10:02:01.000Z</time>
        <extensions>
          <ns3:TrackPointExtension/>
        </extensions>
      </trkpt>
      <trkpt lat="44.45938359014689922332763671875" lon="-0.3065404482185840606689453125">
        <ele>95.1999969482421875</ele>
        <time>2017-07-03T10:02:10.000Z</time>
        <extensions>
          <ns3:TrackPointExtension/>
        </extensions>
      </trkpt>
      <trkpt lat="44.45977753959596157073974609375" lon="-0.30600643716752529144287109375">
        <ele>96.8000030517578125</ele>
        <time>2017-07-03T10:02:19.000Z</time>
        <extensions>
          <ns3:TrackPointExtension/>
        </extensions>
      </trkpt>
      <trkpt lat="44.4601834751665592193603515625" lon="-0.3054766170680522918701171875">
        <ele>98</ele>
        <time>2017-07-03T10:02:28.000Z</time>
        <extensions>
          <ns3:TrackPointExtension/>
        </extensions>
      </trkpt>
      <trkpt lat="44.46059309877455234527587890625" lon="-0.304933302104473114013671875">
        <ele>97</ele>
        <time>2017-07-03T10:02:37.000Z</time>
        <extensions>
          <ns3:TrackPointExtension/>
        </extensions>
      </trkpt>
      <trkpt lat="44.4609940052032470703125" lon="-0.3043752349913120269775390625">
        <ele>95.8000030517578125</ele>
        <time>2017-07-03T10:02:46.000Z</time>
        <extensions>
          <ns3:TrackPointExtension/>
        </extensions>
      </trkpt>
      <trkpt lat="44.461385272443294525146484375" lon="-0.30385069549083709716796875">
        <ele>95</ele>
        <time>2017-07-03T10:02:55.000Z</time>
        <extensions>
          <ns3:TrackPointExtension/>
        </extensions>
      </trkpt>
      <trkpt lat="44.461845271289348602294921875" lon="-0.3034059517085552215576171875">
        <ele>95</ele>
        <time>2017-07-03T10:03:05.000Z</time>
        <extensions>
          <ns3:TrackPointExtension/>
        </extensions>
      </trkpt>
      <trkpt lat="44.46233536116778850555419921875" lon="-0.3030614554882049560546875">
        <ele>95.40000152587890625</ele>
        <time>2017-07-03T10:03:17.000Z</time>
        <extensions>
          <ns3:TrackPointExtension/>
        </extensions>
      </trkpt>
      <trkpt lat="44.462682791054248809814453125" lon="-0.30272257514297962188720703125">
        <ele>96.8000030517578125</ele>
        <time>2017-07-03T10:03:29.000Z</time>
        <extensions>
          <ns3:TrackPointExtension/>
        </extensions>
      </trkpt>
      <trkpt lat="44.4627037458121776580810546875" lon="-0.30190735124051570892333984375">
        <ele>98.59999847412109375</ele>
        <time>2017-07-03T10:03:41.000Z</time>
        <extensions>
          <ns3:TrackPointExtension/>
        </extensions>
      </trkpt>
      <trkpt lat="44.46274481713771820068359375" lon="-0.3011347912251949310302734375">
        <ele>98</ele>
        <time>2017-07-03T10:03:51.000Z</time>
        <extensions>
          <ns3:TrackPointExtension/>
        </extensions>
      </trkpt>
      <trkpt lat="44.4627530314028263092041015625" lon="-0.30031445436179637908935546875">
        <ele>98.59999847412109375</ele>
        <time>2017-07-03T10:04:01.000Z</time>
        <extensions>
          <ns3:TrackPointExtension/>
        </extensions>
      </trkpt>
      <trkpt lat="44.46275261230766773223876953125" lon="-0.29950912110507488250732421875">
        <ele>101.40000152587890625</ele>
        <time>2017-07-03T10:04:11.000Z</time>
        <extensions>
          <ns3:TrackPointExtension/>
        </extensions>
      </trkpt>
      <trkpt lat="44.4627614133059978485107421875" lon="-0.29871384613215923309326171875">
        <ele>102.40000152587890625</ele>
        <time>2017-07-03T10:04:21.000Z</time>
        <extensions>
          <ns3:TrackPointExtension/>
        </extensions>
      </trkpt>
      <trkpt lat="44.462761245667934417724609375" lon="-0.29794313013553619384765625">
        <ele>104</ele>
        <time>2017-07-03T10:04:31.000Z</time>
        <extensions>
          <ns3:TrackPointExtension/>
        </extensions>
      </trkpt>
      <trkpt lat="44.4627547077834606170654296875" lon="-0.29718917794525623321533203125">
        <ele>103</ele>
        <time>2017-07-03T10:04:41.000Z</time>
        <extensions>
          <ns3:TrackPointExtension/>
        </extensions>
      </trkpt>
      <trkpt lat="44.4627463258802890777587890625" lon="-0.2964275144040584564208984375">
        <ele>103</ele>
        <time>2017-07-03T10:04:51.000Z</time>
        <extensions>
          <ns3:TrackPointExtension/>
        </extensions>
      </trkpt>
      <trkpt lat="44.462751187384128570556640625" lon="-0.29566668905317783355712890625">
        <ele>102.8000030517578125</ele>
        <time>2017-07-03T10:05:01.000Z</time>
        <extensions>
          <ns3:TrackPointExtension/>
        </extensions>
      </trkpt>
      <trkpt lat="44.46273501031100749969482421875" lon="-0.29484928585588932037353515625">
        <ele>103.59999847412109375</ele>
        <time>2017-07-03T10:05:12.000Z</time>
        <extensions>
          <ns3:TrackPointExtension/>
        </extensions>
      </trkpt>
      <trkpt lat="44.46269159205257892608642578125" lon="-0.294032804667949676513671875">
        <ele>105</ele>
        <time>2017-07-03T10:05:23.000Z</time>
        <extensions>
          <ns3:TrackPointExtension/>
        </extensions>
      </trkpt>
      <trkpt lat="44.46263845078647136688232421875" lon="-0.29328010976314544677734375">
        <ele>105.1999969482421875</ele>
        <time>2017-07-03T10:05:33.000Z</time>
        <extensions>
          <ns3:TrackPointExtension/>
        </extensions>
      </trkpt>
      <trkpt lat="44.46257852017879486083984375" lon="-0.2924957312643527984619140625">
        <ele>106.1999969482421875</ele>
        <time>2017-07-03T10:05:43.000Z</time>
        <extensions>
          <ns3:TrackPointExtension/>
        </extensions>
      </trkpt>
      <trkpt lat="44.462531246244907379150390625" lon="-0.29168830253183841705322265625">
        <ele>106.8000030517578125</ele>
        <time>2017-07-03T10:05:53.000Z</time>
        <extensions>
          <ns3:TrackPointExtension/>
        </extensions>
      </trkpt>
      <trkpt lat="44.4624891690909862518310546875" lon="-0.290882885456085205078125">
        <ele>106.8000030517578125</ele>
        <time>2017-07-03T10:06:03.000Z</time>
        <extensions>
          <ns3:TrackPointExtension/>
        </extensions>
      </trkpt>
      <trkpt lat="44.46244885213673114776611328125" lon="-0.2900941483676433563232421875">
        <ele>105.59999847412109375</ele>
        <time>2017-07-03T10:06:13.000Z</time>
        <extensions>
          <ns3:TrackPointExtension/>
        </extensions>
      </trkpt>
      <trkpt lat="44.462397806346416473388671875" lon="-0.28930599801242351531982421875">
        <ele>104.59999847412109375</ele>
        <time>2017-07-03T10:06:23.000Z</time>
        <extensions>
          <ns3:TrackPointExtension/>
        </extensions>
      </trkpt>
      <trkpt lat="44.462356902658939361572265625" lon="-0.2884945459663867950439453125">
        <ele>105.59999847412109375</ele>
        <time>2017-07-03T10:06:33.000Z</time>
        <extensions>
          <ns3:TrackPointExtension/>
        </extensions>
      </trkpt>
      <trkpt lat="44.46234055794775485992431640625" lon="-0.28767856769263744354248046875">
        <ele>106.40000152587890625</ele>
        <time>2017-07-03T10:06:43.000Z</time>
        <extensions>
          <ns3:TrackPointExtension/>
        </extensions>
      </trkpt>
      <trkpt lat="44.4623198546469211578369140625" lon="-0.28686082921922206878662109375">
        <ele>105.8000030517578125</ele>
        <time>2017-07-03T10:06:53.000Z</time>
        <extensions>
          <ns3:TrackPointExtension/>
        </extensions>
      </trkpt>
      <trkpt lat="44.46230283938348293304443359375" lon="-0.286043174564838409423828125">
        <ele>106.8000030517578125</ele>
        <time>2017-07-03T10:07:03.000Z</time>
        <extensions>
          <ns3:TrackPointExtension/>
        </extensions>
      </trkpt>
      <trkpt lat="44.46228641085326671600341796875" lon="-0.28521529398858547210693359375">
        <ele>108.59999847412109375</ele>
        <time>2017-07-03T10:07:13.000Z</time>
        <extensions>
          <ns3:TrackPointExtension/>
        </extensions>
      </trkpt>
      <trkpt lat="44.46227199397981166839599609375" lon="-0.28443912975490093231201171875">
        <ele>108</ele>
        <time>2017-07-03T10:07:22.000Z</time>
        <extensions>
          <ns3:TrackPointExtension/>
        </extensions>
      </trkpt>
      <trkpt lat="44.46225539781153202056884765625" lon="-0.28367101214826107025146484375">
        <ele>107.40000152587890625</ele>
        <time>2017-07-03T10:07:31.000Z</time>
        <extensions>
          <ns3:TrackPointExtension/>
        </extensions>
      </trkpt>
      <trkpt lat="44.4622464291751384735107421875" lon="-0.28291295282542705535888671875">
        <ele>108</ele>
        <time>2017-07-03T10:07:40.000Z</time>
        <extensions>
          <ns3:TrackPointExtension/>
        </extensions>
      </trkpt>
      <trkpt lat="44.462181217968463897705078125" lon="-0.28216210193932056427001953125">
        <ele>109.59999847412109375</ele>
        <time>2017-07-03T10:07:49.000Z</time>
        <extensions>
          <ns3:TrackPointExtension/>
        </extensions>
      </trkpt>
      <trkpt lat="44.46203277446329593658447265625" lon="-0.281352661550045013427734375">
        <ele>110</ele>
        <time>2017-07-03T10:07:59.000Z</time>
        <extensions>
          <ns3:TrackPointExtension/>
        </extensions>
      </trkpt>
      <trkpt lat="44.46182842366397380828857421875" lon="-0.2805612422525882720947265625">
        <ele>110.40000152587890625</ele>
        <time>2017-07-03T10:08:09.000Z</time>
        <extensions>
          <ns3:TrackPointExtension/>
        </extensions>
      </trkpt>
      <trkpt lat="44.4616322033107280731201171875" lon="-0.2798122353851795196533203125">
        <ele>110.8000030517578125</ele>
        <time>2017-07-03T10:08:18.000Z</time>
        <extensions>
          <ns3:TrackPointExtension/>
        </extensions>
      </trkpt>
      <trkpt lat="44.461435563862323760986328125" lon="-0.2790568582713603973388671875">
        <ele>112</ele>
        <time>2017-07-03T10:08:27.000Z</time>
        <extensions>
          <ns3:TrackPointExtension/>
        </extensions>
      </trkpt>
      <trkpt lat="44.4612436182796955108642578125" lon="-0.27831732295453548431396484375">
        <ele>111.8000030517578125</ele>
        <time>2017-07-03T10:08:36.000Z</time>
        <extensions>
          <ns3:TrackPointExtension/>
        </extensions>
      </trkpt>
      <trkpt lat="44.46105242706835269927978515625" lon="-0.277564711868762969970703125">
        <ele>110.8000030517578125</ele>
        <time>2017-07-03T10:08:45.000Z</time>
        <extensions>
          <ns3:TrackPointExtension/>
        </extensions>
      </trkpt>
      <trkpt lat="44.4608231820166110992431640625" lon="-0.27681008912622928619384765625">
        <ele>111.59999847412109375</ele>
        <time>2017-07-03T10:08:54.000Z</time>
        <extensions>
          <ns3:TrackPointExtension/>
        </extensions>
      </trkpt>
      <trkpt lat="44.46052922867238521575927734375" lon="-0.2760896645486354827880859375">
        <ele>113.8000030517578125</ele>
        <time>2017-07-03T10:09:03.000Z</time>
        <extensions>
          <ns3:TrackPointExtension/>
        </extensions>
      </trkpt>
      <trkpt lat="44.4602201879024505615234375" lon="-0.275409556925296783447265625">
        <ele>116.1999969482421875</ele>
        <time>2017-07-03T10:09:12.000Z</time>
        <extensions>
          <ns3:TrackPointExtension/>
        </extensions>
      </trkpt>
      <trkpt lat="44.45990628562867641448974609375" lon="-0.274729616940021514892578125">
        <ele>116.59999847412109375</ele>
        <time>2017-07-03T10:09:21.000Z</time>
        <extensions>
          <ns3:TrackPointExtension/>
        </extensions>
      </trkpt>
      <trkpt lat="44.4595871865749359130859375" lon="-0.274039618670940399169921875">
        <ele>115.59999847412109375</ele>
        <time>2017-07-03T10:09:30.000Z</time>
        <extensions>
          <ns3:TrackPointExtension/>
        </extensions>
      </trkpt>
      <trkpt lat="44.45928317494690418243408203125" lon="-0.27336177416145801544189453125">
        <ele>114.8000030517578125</ele>
        <time>2017-07-03T10:09:39.000Z</time>
        <extensions>
          <ns3:TrackPointExtension/>
        </extensions>
      </trkpt>
      <trkpt lat="44.4589590467512607574462890625" lon="-0.27265752665698528289794921875">
        <ele>113.40000152587890625</ele>
        <time>2017-07-03T10:09:48.000Z</time>
        <extensions>
          <ns3:TrackPointExtension/>
        </extensions>
      </trkpt>
      <trkpt lat="44.4586658477783203125" lon="-0.272023938596248626708984375">
        <ele>115</ele>
        <time>2017-07-03T10:09:57.000Z</time>
        <extensions>
          <ns3:TrackPointExtension/>
        </extensions>
      </trkpt>
      <trkpt lat="44.458371140062808990478515625" lon="-0.2713820524513721466064453125">
        <ele>114.59999847412109375</ele>
        <time>2017-07-03T10:10:06.000Z</time>
        <extensions>
          <ns3:TrackPointExtension/>
        </extensions>
      </trkpt>
      <trkpt lat="44.4580796174705028533935546875" lon="-0.2706880308687686920166015625">
        <ele>113.59999847412109375</ele>
        <time>2017-07-03T10:10:16.000Z</time>
        <extensions>
          <ns3:TrackPointExtension/>
        </extensions>
      </trkpt>
      <trkpt lat="44.45779002271592617034912109375" lon="-0.27001806534826755523681640625">
        <ele>113.59999847412109375</ele>
        <time>2017-07-03T10:10:26.000Z</time>
        <extensions>
          <ns3:TrackPointExtension/>
        </extensions>
      </trkpt>
      <trkpt lat="44.4577010907232761383056640625" lon="-0.26974900625646114349365234375">
        <ele>113.8000030517578125</ele>
        <time>2017-07-03T10:10:30.000Z</time>
        <extensions>
          <ns3:TrackPointExtension/>
        </extensions>
      </trkpt>
      <trkpt lat="44.45787752978503704071044921875" lon="-0.26954750530421733856201171875">
        <ele>114</ele>
        <time>2017-07-03T10:10:36.000Z</time>
        <extensions>
          <ns3:TrackPointExtension/>
        </extensions>
      </trkpt>
      <trkpt lat="44.45847834460437297821044921875" lon="-0.26955052278935909271240234375">
        <ele>114</ele>
        <time>2017-07-03T10:10:46.000Z</time>
        <extensions>
          <ns3:TrackPointExtension/>
        </extensions>
      </trkpt>
      <trkpt lat="44.45906122215092182159423828125" lon="-0.26952319778501987457275390625">
        <ele>115</ele>
        <time>2017-07-03T10:10:55.000Z</time>
        <extensions>
          <ns3:TrackPointExtension/>
        </extensions>
      </trkpt>
      <trkpt lat="44.4596440158784389495849609375" lon="-0.2694666199386119842529296875">
        <ele>115.59999847412109375</ele>
        <time>2017-07-03T10:11:04.000Z</time>
        <extensions>
          <ns3:TrackPointExtension/>
        </extensions>
      </trkpt>
      <trkpt lat="44.46021951735019683837890625" lon="-0.26941725052893161773681640625">
        <ele>114.8000030517578125</ele>
        <time>2017-07-03T10:11:13.000Z</time>
        <extensions>
          <ns3:TrackPointExtension/>
        </extensions>
      </trkpt>
      <trkpt lat="44.46078353561460971832275390625" lon="-0.26936109177768230438232421875">
        <ele>114</ele>
        <time>2017-07-03T10:11:22.000Z</time>
        <extensions>
          <ns3:TrackPointExtension/>
        </extensions>
      </trkpt>
      <trkpt lat="44.46134646423161029815673828125" lon="-0.26932253502309322357177734375">
        <ele>113.40000152587890625</ele>
        <time>2017-07-03T10:11:31.000Z</time>
        <extensions>
          <ns3:TrackPointExtension/>
        </extensions>
      </trkpt>
      <trkpt lat="44.461927749216556549072265625" lon="-0.2692870795726776123046875">
        <ele>115.40000152587890625</ele>
        <time>2017-07-03T10:11:40.000Z</time>
        <extensions>
          <ns3:TrackPointExtension/>
        </extensions>
      </trkpt>
      <trkpt lat="44.4625206850469112396240234375" lon="-0.26926101185381412506103515625">
        <ele>115.1999969482421875</ele>
        <time>2017-07-03T10:11:49.000Z</time>
        <extensions>
          <ns3:TrackPointExtension/>
        </extensions>
      </trkpt>
      <trkpt lat="44.46306668221950531005859375" lon="-0.269315578043460845947265625">
        <ele>113.59999847412109375</ele>
        <time>2017-07-03T10:11:57.000Z</time>
        <extensions>
          <ns3:TrackPointExtension/>
        </extensions>
      </trkpt>
      <trkpt lat="44.46361511014401912689208984375" lon="-0.26942982338368892669677734375">
        <ele>112.1999969482421875</ele>
        <time>2017-07-03T10:12:05.000Z</time>
        <extensions>
          <ns3:TrackPointExtension/>
        </extensions>
      </trkpt>
      <trkpt lat="44.464206956326961517333984375" lon="-0.2695457451045513153076171875">
        <ele>112.59999847412109375</ele>
        <time>2017-07-03T10:12:14.000Z</time>
        <extensions>
          <ns3:TrackPointExtension/>
        </extensions>
      </trkpt>
      <trkpt lat="44.4647633470594882965087890625" lon="-0.26966460049152374267578125">
        <ele>113</ele>
        <time>2017-07-03T10:12:23.000Z</time>
        <extensions>
          <ns3:TrackPointExtension/>
        </extensions>
      </trkpt>
      <trkpt lat="44.46534513495862483978271484375" lon="-0.269795022904872894287109375">
        <ele>113.1999969482421875</ele>
        <time>2017-07-03T10:12:32.000Z</time>
        <extensions>
          <ns3:TrackPointExtension/>
        </extensions>
      </trkpt>
      <trkpt lat="44.465921558439731597900390625" lon="-0.26983894407749176025390625">
        <ele>114</ele>
        <time>2017-07-03T10:12:41.000Z</time>
        <extensions>
          <ns3:TrackPointExtension/>
        </extensions>
      </trkpt>
      <trkpt lat="44.46649194695055484771728515625" lon="-0.26993541978299617767333984375">
        <ele>113.1999969482421875</ele>
        <time>2017-07-03T10:12:50.000Z</time>
        <extensions>
          <ns3:TrackPointExtension/>
        </extensions>
      </trkpt>
      <trkpt lat="44.4665510393679141998291015625" lon="-0.2699702046811580657958984375">
        <ele>113.1999969482421875</ele>
        <time>2017-07-03T10:12:51.000Z</time>
        <extensions>
          <ns3:TrackPointExtension/>
        </extensions>
      </trkpt>
      <trkpt lat="44.46709611453115940093994140625" lon="-0.270283855497837066650390625">
        <ele>112.40000152587890625</ele>
        <time>2017-07-03T10:13:00.000Z</time>
        <extensions>
          <ns3:TrackPointExtension/>
        </extensions>
      </trkpt>
      <trkpt lat="44.4676282815635204315185546875" lon="-0.27045811526477336883544921875">
        <ele>112.8000030517578125</ele>
        <time>2017-07-03T10:13:08.000Z</time>
        <extensions>
          <ns3:TrackPointExtension/>
        </extensions>
      </trkpt>
      <trkpt lat="44.46820185519754886627197265625" lon="-0.2704779803752899169921875">
        <ele>112</ele>
        <time>2017-07-03T10:13:16.000Z</time>
        <extensions>
          <ns3:TrackPointExtension/>
        </extensions>
      </trkpt>
      <trkpt lat="44.46879998780786991119384765625" lon="-0.27043347246944904327392578125">
        <ele>111</ele>
        <time>2017-07-03T10:13:25.000Z</time>
        <extensions>
          <ns3:TrackPointExtension/>
        </extensions>
      </trkpt>
      <trkpt lat="44.46934975683689117431640625" lon="-0.27035384438931941986083984375">
        <ele>110.40000152587890625</ele>
        <time>2017-07-03T10:13:33.000Z</time>
        <extensions>
          <ns3:TrackPointExtension/>
        </extensions>
      </trkpt>
      <trkpt lat="44.4699115119874477386474609375" lon="-0.2701827697455883026123046875">
        <ele>109.1999969482421875</ele>
        <time>2017-07-03T10:13:41.000Z</time>
        <extensions>
          <ns3:TrackPointExtension/>
        </extensions>
      </trkpt>
      <trkpt lat="44.470466561615467071533203125" lon="-0.2700610645115375518798828125">
        <ele>107.8000030517578125</ele>
        <time>2017-07-03T10:13:49.000Z</time>
        <extensions>
          <ns3:TrackPointExtension/>
        </extensions>
      </trkpt>
      <trkpt lat="44.47103091515600681304931640625" lon="-0.27000012807548046112060546875">
        <ele>108.1999969482421875</ele>
        <time>2017-07-03T10:13:57.000Z</time>
        <extensions>
          <ns3:TrackPointExtension/>
        </extensions>
      </trkpt>
      <trkpt lat="44.471635334193706512451171875" lon="-0.26985780335962772369384765625">
        <ele>107.1999969482421875</ele>
        <time>2017-07-03T10:14:05.000Z</time>
        <extensions>
          <ns3:TrackPointExtension/>
        </extensions>
      </trkpt>
      <trkpt lat="44.4721625559031963348388671875" lon="-0.26954658329486846923828125">
        <ele>105.59999847412109375</ele>
        <time>2017-07-03T10:14:12.000Z</time>
        <extensions>
          <ns3:TrackPointExtension/>
        </extensions>
      </trkpt>
      <trkpt lat="44.4726922921836376190185546875" lon="-0.26922496967017650604248046875">
        <ele>104.40000152587890625</ele>
        <time>2017-07-03T10:14:19.000Z</time>
        <extensions>
          <ns3:TrackPointExtension/>
        </extensions>
      </trkpt>
      <trkpt lat="44.47318657301366329193115234375" lon="-0.268832780420780181884765625">
        <ele>104</ele>
        <time>2017-07-03T10:14:27.000Z</time>
        <extensions>
          <ns3:TrackPointExtension/>
        </extensions>
      </trkpt>
      <trkpt lat="44.473335184156894683837890625" lon="-0.268726162612438201904296875">
        <ele>104.1999969482421875</ele>
        <time>2017-07-03T10:14:30.000Z</time>
        <extensions>
          <ns3:TrackPointExtension/>
        </extensions>
      </trkpt>
      <trkpt lat="44.47343769483268260955810546875" lon="-0.268684923648834228515625">
        <ele>104.40000152587890625</ele>
        <time>2017-07-03T10:14:32.000Z</time>
        <extensions>
          <ns3:TrackPointExtension/>
        </extensions>
      </trkpt>
      <trkpt lat="44.4736411236226558685302734375" lon="-0.268672518432140350341796875">
        <ele>104.40000152587890625</ele>
        <time>2017-07-03T10:14:36.000Z</time>
        <extensions>
          <ns3:TrackPointExtension/>
        </extensions>
      </trkpt>
      <trkpt lat="44.47422207333147525787353515625" lon="-0.2687452733516693115234375">
        <ele>104.59999847412109375</ele>
        <time>2017-07-03T10:14:47.000Z</time>
        <extensions>
          <ns3:TrackPointExtension/>
        </extensions>
      </trkpt>
      <trkpt lat="44.47478097863495349884033203125" lon="-0.2687665633857250213623046875">
        <ele>104.40000152587890625</ele>
        <time>2017-07-03T10:14:57.000Z</time>
        <extensions>
          <ns3:TrackPointExtension/>
        </extensions>
      </trkpt>
      <trkpt lat="44.47535044513642787933349609375" lon="-0.2690314315259456634521484375">
        <ele>102.8000030517578125</ele>
        <time>2017-07-03T10:15:07.000Z</time>
        <extensions>
          <ns3:TrackPointExtension/>
        </extensions>
      </trkpt>
      <trkpt lat="44.4758842885494232177734375" lon="-0.26927056722342967987060546875">
        <ele>103</ele>
        <time>2017-07-03T10:15:16.000Z</time>
        <extensions>
          <ns3:TrackPointExtension/>
        </extensions>
      </trkpt>
      <trkpt lat="44.47645149193704128265380859375" lon="-0.269442982971668243408203125">
        <ele>103.8000030517578125</ele>
        <time>2017-07-03T10:15:26.000Z</time>
        <extensions>
          <ns3:TrackPointExtension/>
        </extensions>
      </trkpt>
      <trkpt lat="44.4770140014588832855224609375" lon="-0.2696060948073863983154296875">
        <ele>103</ele>
        <time>2017-07-03T10:15:36.000Z</time>
        <extensions>
          <ns3:TrackPointExtension/>
        </extensions>
      </trkpt>
      <trkpt lat="44.4774666242301464080810546875" lon="-0.26965613476932048797607421875">
        <ele>105.1999969482421875</ele>
        <time>2017-07-03T10:15:44.000Z</time>
        <extensions>
          <ns3:TrackPointExtension/>
        </extensions>
      </trkpt>
      <trkpt lat="44.47802477516233921051025390625" lon="-0.26956535875797271728515625">
        <ele>106.1999969482421875</ele>
        <time>2017-07-03T10:15:53.000Z</time>
        <extensions>
          <ns3:TrackPointExtension/>
        </extensions>
      </trkpt>
      <trkpt lat="44.47858217172324657440185546875" lon="-0.26951766572892665863037109375">
        <ele>103.59999847412109375</ele>
        <time>2017-07-03T10:16:00.000Z</time>
        <extensions>
          <ns3:TrackPointExtension/>
        </extensions>
      </trkpt>
      <trkpt lat="44.479181729257106781005859375" lon="-0.2696426399052143096923828125">
        <ele>102.40000152587890625</ele>
        <time>2017-07-03T10:16:06.000Z</time>
        <extensions>
          <ns3:TrackPointExtension/>
        </extensions>
      </trkpt>
      <trkpt lat="44.479798972606658935546875" lon="-0.26986987330019474029541015625">
        <ele>99.1999969482421875</ele>
        <time>2017-07-03T10:16:12.000Z</time>
        <extensions>
          <ns3:TrackPointExtension/>
        </extensions>
      </trkpt>
      <trkpt lat="44.48021815158426761627197265625" lon="-0.269931145012378692626953125">
        <ele>95.8000030517578125</ele>
        <time>2017-07-03T10:16:16.000Z</time>
        <extensions>
          <ns3:TrackPointExtension/>
        </extensions>
      </trkpt>
      <trkpt lat="44.4807291962206363677978515625" lon="-0.26986685581505298614501953125">
        <ele>92.8000030517578125</ele>
        <time>2017-07-03T10:16:21.000Z</time>
        <extensions>
          <ns3:TrackPointExtension/>
        </extensions>
      </trkpt>
      <trkpt lat="44.48136026971042156219482421875" lon="-0.26992636732757091522216796875">
        <ele>90.59999847412109375</ele>
        <time>2017-07-03T10:16:27.000Z</time>
        <extensions>
          <ns3:TrackPointExtension/>
        </extensions>
      </trkpt>
      <trkpt lat="44.4819760881364345550537109375" lon="-0.2701254375278949737548828125">
        <ele>89</ele>
        <time>2017-07-03T10:16:33.000Z</time>
        <extensions>
          <ns3:TrackPointExtension/>
        </extensions>
      </trkpt>
      <trkpt lat="44.48256944306194782257080078125" lon="-0.2704028785228729248046875">
        <ele>86.8000030517578125</ele>
        <time>2017-07-03T10:16:39.000Z</time>
        <extensions>
          <ns3:TrackPointExtension/>
        </extensions>
      </trkpt>
      <trkpt lat="44.4831289350986480712890625" lon="-0.27066112495958805084228515625">
        <ele>86.40000152587890625</ele>
        <time>2017-07-03T10:16:45.000Z</time>
        <extensions>
          <ns3:TrackPointExtension/>
        </extensions>
      </trkpt>
      <trkpt lat="44.48347133584320545196533203125" lon="-0.270806215703487396240234375">
        <ele>86.8000030517578125</ele>
        <time>2017-07-03T10:16:49.000Z</time>
        <extensions>
          <ns3:TrackPointExtension/>
        </extensions>
      </trkpt>
      <trkpt lat="44.48402068577706813812255859375" lon="-0.27060060761868953704833984375">
        <ele>83.8000030517578125</ele>
        <time>2017-07-03T10:16:56.000Z</time>
        <extensions>
          <ns3:TrackPointExtension/>
        </extensions>
      </trkpt>
      <trkpt lat="44.48451622389256954193115234375" lon="-0.2701641619205474853515625">
        <ele>79.59999847412109375</ele>
        <time>2017-07-03T10:17:04.000Z</time>
        <extensions>
          <ns3:TrackPointExtension/>
        </extensions>
      </trkpt>
      <trkpt lat="44.48477673344314098358154296875" lon="-0.270025022327899932861328125">
        <ele>79.1999969482421875</ele>
        <time>2017-07-03T10:17:08.000Z</time>
        <extensions>
          <ns3:TrackPointExtension/>
        </extensions>
      </trkpt>
      <trkpt lat="44.4851330481469631195068359375" lon="-0.26996643282473087310791015625">
        <ele>78.40000152587890625</ele>
        <time>2017-07-03T10:17:13.000Z</time>
        <extensions>
          <ns3:TrackPointExtension/>
        </extensions>
      </trkpt>
      <trkpt lat="44.48564543388783931732177734375" lon="-0.26968664489686489105224609375">
        <ele>77.59999847412109375</ele>
        <time>2017-07-03T10:17:20.000Z</time>
        <extensions>
          <ns3:TrackPointExtension/>
        </extensions>
      </trkpt>
      <trkpt lat="44.48614885099232196807861328125" lon="-0.26937081478536128997802734375">
        <ele>77.40000152587890625</ele>
        <time>2017-07-03T10:17:26.000Z</time>
        <extensions>
          <ns3:TrackPointExtension/>
        </extensions>
      </trkpt>
      <trkpt lat="44.48638790287077426910400390625" lon="-0.2692564018070697784423828125">
        <ele>76.1999969482421875</ele>
        <time>2017-07-03T10:17:29.000Z</time>
        <extensions>
          <ns3:TrackPointExtension/>
        </extensions>
      </trkpt>
      <trkpt lat="44.48697027750313282012939453125" lon="-0.269430577754974365234375">
        <ele>75.40000152587890625</ele>
        <time>2017-07-03T10:17:37.000Z</time>
        <extensions>
          <ns3:TrackPointExtension/>
        </extensions>
      </trkpt>
      <trkpt lat="44.4871473871171474456787109375" lon="-0.26963886804878711700439453125">
        <ele>75.59999847412109375</ele>
        <time>2017-07-03T10:17:40.000Z</time>
        <extensions>
          <ns3:TrackPointExtension/>
        </extensions>
      </trkpt>
      <trkpt lat="44.48755298741161823272705078125" lon="-0.27022124268114566802978515625">
        <ele>74</ele>
        <time>2017-07-03T10:17:47.000Z</time>
        <extensions>
          <ns3:TrackPointExtension/>
        </extensions>
      </trkpt>
      <trkpt lat="44.4879855774343013763427734375" lon="-0.270821638405323028564453125">
        <ele>69.1999969482421875</ele>
        <time>2017-07-03T10:17:54.000Z</time>
        <extensions>
          <ns3:TrackPointExtension/>
        </extensions>
      </trkpt>
      <trkpt lat="44.4884264655411243438720703125" lon="-0.271415412425994873046875">
        <ele>63.59999847412109375</ele>
        <time>2017-07-03T10:18:01.000Z</time>
        <extensions>
          <ns3:TrackPointExtension/>
        </extensions>
      </trkpt>
      <trkpt lat="44.48872192762792110443115234375" lon="-0.27181447483599185943603515625">
        <ele>61.59999847412109375</ele>
        <time>2017-07-03T10:18:06.000Z</time>
        <extensions>
          <ns3:TrackPointExtension/>
        </extensions>
      </trkpt>
      <trkpt lat="44.4891987740993499755859375" lon="-0.27182067744433879852294921875">
        <ele>59</ele>
        <time>2017-07-03T10:18:13.000Z</time>
        <extensions>
          <ns3:TrackPointExtension/>
        </extensions>
      </trkpt>
      <trkpt lat="44.4892928190529346466064453125" lon="-0.271749012172222137451171875">
        <ele>58.59999847412109375</ele>
        <time>2017-07-03T10:18:14.000Z</time>
        <extensions>
          <ns3:TrackPointExtension/>
        </extensions>
      </trkpt>
      <trkpt lat="44.48968668468296527862548828125" lon="-0.2711487002670764923095703125">
        <ele>55.200000762939453125</ele>
        <time>2017-07-03T10:18:19.000Z</time>
        <extensions>
          <ns3:TrackPointExtension/>
        </extensions>
      </trkpt>
      <trkpt lat="44.49006856419146060943603515625" lon="-0.270498096942901611328125">
        <ele>51.59999847412109375</ele>
        <time>2017-07-03T10:18:25.000Z</time>
        <extensions>
          <ns3:TrackPointExtension/>
        </extensions>
      </trkpt>
      <trkpt lat="44.490432925522327423095703125" lon="-0.26996090076863765716552734375">
        <ele>49.200000762939453125</ele>
        <time>2017-07-03T10:18:32.000Z</time>
        <extensions>
          <ns3:TrackPointExtension/>
        </extensions>
      </trkpt>
      <trkpt lat="44.49055421166121959686279296875" lon="-0.2698642574250698089599609375">
        <ele>49.200000762939453125</ele>
        <time>2017-07-03T10:18:35.000Z</time>
        <extensions>
          <ns3:TrackPointExtension/>
        </extensions>
      </trkpt>
      <trkpt lat="44.491056539118289947509765625" lon="-0.26960081420838832855224609375">
        <ele>50</ele>
        <time>2017-07-03T10:18:53.000Z</time>
        <extensions>
          <ns3:TrackPointExtension/>
        </extensions>
      </trkpt>
      <trkpt lat="44.4914127700030803680419921875" lon="-0.269013158977031707763671875">
        <ele>56.59999847412109375</ele>
        <time>2017-07-03T10:19:16.000Z</time>
        <extensions>
          <ns3:TrackPointExtension/>
        </extensions>
      </trkpt>
      <trkpt lat="44.49142961762845516204833984375" lon="-0.2682732045650482177734375">
        <ele>60.799999237060546875</ele>
        <time>2017-07-03T10:19:37.000Z</time>
        <extensions>
          <ns3:TrackPointExtension/>
        </extensions>
      </trkpt>
      <trkpt lat="44.49170152656733989715576171875" lon="-0.26768236421048641204833984375">
        <ele>66.59999847412109375</ele>
        <time>2017-07-03T10:19:58.000Z</time>
        <extensions>
          <ns3:TrackPointExtension/>
        </extensions>
      </trkpt>
      <trkpt lat="44.4921872578561305999755859375" lon="-0.26732110418379306793212890625">
        <ele>71.59999847412109375</ele>
        <time>2017-07-03T10:20:16.000Z</time>
        <extensions>
          <ns3:TrackPointExtension/>
        </extensions>
      </trkpt>
      <trkpt lat="44.49267114512622356414794921875" lon="-0.26697459630668163299560546875">
        <ele>73.8000030517578125</ele>
        <time>2017-07-03T10:20:30.000Z</time>
        <extensions>
          <ns3:TrackPointExtension/>
        </extensions>
      </trkpt>
      <trkpt lat="44.4931521825492382049560546875" lon="-0.26661115698516368865966796875">
        <ele>76</ele>
        <time>2017-07-03T10:20:42.000Z</time>
        <extensions>
          <ns3:TrackPointExtension/>
        </extensions>
      </trkpt>
      <trkpt lat="44.4936512410640716552734375" lon="-0.26623799465596675872802734375">
        <ele>77.8000030517578125</ele>
        <time>2017-07-03T10:20:54.000Z</time>
        <extensions>
          <ns3:TrackPointExtension/>
        </extensions>
      </trkpt>
      <trkpt lat="44.494084082543849945068359375" lon="-0.26591042988002300262451171875">
        <ele>77</ele>
        <time>2017-07-03T10:21:05.000Z</time>
        <extensions>
          <ns3:TrackPointExtension/>
        </extensions>
      </trkpt>
      <trkpt lat="44.4941006787121295928955078125" lon="-0.26552201248705387115478515625">
        <ele>76.1999969482421875</ele>
        <time>2017-07-03T10:21:13.000Z</time>
        <extensions>
          <ns3:TrackPointExtension/>
        </extensions>
      </trkpt>
      <trkpt lat="44.4938619621098041534423828125" lon="-0.26480485685169696807861328125">
        <ele>77</ele>
        <time>2017-07-03T10:21:26.000Z</time>
        <extensions>
          <ns3:TrackPointExtension/>
        </extensions>
      </trkpt>
      <trkpt lat="44.49363640509545803070068359375" lon="-0.26405719108879566192626953125">
        <ele>79</ele>
        <time>2017-07-03T10:21:39.000Z</time>
        <extensions>
          <ns3:TrackPointExtension/>
        </extensions>
      </trkpt>
      <trkpt lat="44.49341118335723876953125" lon="-0.26333081535995006561279296875">
        <ele>81</ele>
        <time>2017-07-03T10:21:52.000Z</time>
        <extensions>
          <ns3:TrackPointExtension/>
        </extensions>
      </trkpt>
      <trkpt lat="44.49318378232419490814208984375" lon="-0.26259304024279117584228515625">
        <ele>83.1999969482421875</ele>
        <time>2017-07-03T10:22:05.000Z</time>
        <extensions>
          <ns3:TrackPointExtension/>
        </extensions>
      </trkpt>
      <trkpt lat="44.4931049086153507232666015625" lon="-0.26229078881442546844482421875">
        <ele>84</ele>
        <time>2017-07-03T10:22:10.000Z</time>
        <extensions>
          <ns3:TrackPointExtension/>
        </extensions>
      </trkpt>
      <trkpt lat="44.49333867989480495452880859375" lon="-0.26173121295869350433349609375">
        <ele>85.59999847412109375</ele>
        <time>2017-07-03T10:22:22.000Z</time>
        <extensions>
          <ns3:TrackPointExtension/>
        </extensions>
      </trkpt>
      <trkpt lat="44.493420906364917755126953125" lon="-0.26167036034166812896728515625">
        <ele>86</ele>
        <time>2017-07-03T10:22:24.000Z</time>
        <extensions>
          <ns3:TrackPointExtension/>
        </extensions>
      </trkpt>
      <trkpt lat="44.493687786161899566650390625" lon="-0.26133977808058261871337890625">
        <ele>87</ele>
        <time>2017-07-03T10:22:32.000Z</time>
        <extensions>
          <ns3:TrackPointExtension/>
        </extensions>
      </trkpt>
      <trkpt lat="44.49408198706805706024169921875" lon="-0.2608392946422100067138671875">
        <ele>88</ele>
        <time>2017-07-03T10:22:45.000Z</time>
        <extensions>
          <ns3:TrackPointExtension/>
        </extensions>
      </trkpt>
      <trkpt lat="44.49420050717890262603759765625" lon="-0.260771401226520538330078125">
        <ele>88.1999969482421875</ele>
        <time>2017-07-03T10:22:48.000Z</time>
        <extensions>
          <ns3:TrackPointExtension/>
        </extensions>
      </trkpt>
      <trkpt lat="44.49427393265068531036376953125" lon="-0.26071541011333465576171875">
        <ele>88.40000152587890625</ele>
        <time>2017-07-03T10:22:50.000Z</time>
        <extensions>
          <ns3:TrackPointExtension/>
        </extensions>
      </trkpt>
      <trkpt lat="44.4944356195628643035888671875" lon="-0.26002784259617328643798828125">
        <ele>89</ele>
        <time>2017-07-03T10:23:02.000Z</time>
        <extensions>
          <ns3:TrackPointExtension/>
        </extensions>
      </trkpt>
      <trkpt lat="44.4944198615849018096923828125" lon="-0.25996506214141845703125">
        <ele>89</ele>
        <time>2017-07-03T10:23:03.000Z</time>
        <extensions>
          <ns3:TrackPointExtension/>
        </extensions>
      </trkpt>
      <trkpt lat="44.49436965398490428924560546875" lon="-0.2595632337033748626708984375">
        <ele>88.8000030517578125</ele>
        <time>2017-07-03T10:23:09.000Z</time>
        <extensions>
          <ns3:TrackPointExtension/>
        </extensions>
      </trkpt>
      <trkpt lat="44.49456729926168918609619140625" lon="-0.25904816575348377227783203125">
        <ele>89</ele>
        <time>2017-07-03T10:23:17.000Z</time>
        <extensions>
          <ns3:TrackPointExtension/>
        </extensions>
      </trkpt>
      <trkpt lat="44.4946170039474964141845703125" lon="-0.2590003050863742828369140625">
        <ele>89.1999969482421875</ele>
        <time>2017-07-03T10:23:18.000Z</time>
        <extensions>
          <ns3:TrackPointExtension/>
        </extensions>
      </trkpt>
      <trkpt lat="44.49482965283095836639404296875" lon="-0.2588635124266147613525390625">
        <ele>89.40000152587890625</ele>
        <time>2017-07-03T10:23:22.000Z</time>
        <extensions>
          <ns3:TrackPointExtension/>
        </extensions>
      </trkpt>
      <trkpt lat="44.49537388980388641357421875" lon="-0.25855983607470989227294921875">
        <ele>89.59999847412109375</ele>
        <time>2017-07-03T10:23:32.000Z</time>
        <extensions>
          <ns3:TrackPointExtension/>
        </extensions>
      </trkpt>
      <trkpt lat="44.4955460540950298309326171875" lon="-0.25846160016953945159912109375">
        <ele>89</ele>
        <time>2017-07-03T10:23:35.000Z</time>
        <extensions>
          <ns3:TrackPointExtension/>
        </extensions>
      </trkpt>
      <trkpt lat="44.4960774667561054229736328125" lon="-0.2581513859331607818603515625">
        <ele>87</ele>
        <time>2017-07-03T10:23:44.000Z</time>
        <extensions>
          <ns3:TrackPointExtension/>
        </extensions>
      </trkpt>
      <trkpt lat="44.496628828346729278564453125" lon="-0.2578318677842617034912109375">
        <ele>86.1999969482421875</ele>
        <time>2017-07-03T10:23:54.000Z</time>
        <extensions>
          <ns3:TrackPointExtension/>
        </extensions>
      </trkpt>
      <trkpt lat="44.4971355982124805450439453125" lon="-0.257497094571590423583984375">
        <ele>85.59999847412109375</ele>
        <time>2017-07-03T10:24:04.000Z</time>
        <extensions>
          <ns3:TrackPointExtension/>
        </extensions>
      </trkpt>
      <trkpt lat="44.49762434698641300201416015625" lon="-0.25702737271785736083984375">
        <ele>85.1999969482421875</ele>
        <time>2017-07-03T10:24:15.000Z</time>
        <extensions>
          <ns3:TrackPointExtension/>
        </extensions>
      </trkpt>
      <trkpt lat="44.4980742037296295166015625" lon="-0.256569720804691314697265625">
        <ele>85.8000030517578125</ele>
        <time>2017-07-03T10:24:24.000Z</time>
        <extensions>
          <ns3:TrackPointExtension/>
        </extensions>
      </trkpt>
      <trkpt lat="44.4985328614711761474609375" lon="-0.2561192773282527923583984375">
        <ele>86</ele>
        <time>2017-07-03T10:24:34.000Z</time>
        <extensions>
          <ns3:TrackPointExtension/>
        </extensions>
      </trkpt>
      <trkpt lat="44.49899814091622829437255859375" lon="-0.25563874281942844390869140625">
        <ele>83.59999847412109375</ele>
        <time>2017-07-03T10:24:42.000Z</time>
        <extensions>
          <ns3:TrackPointExtension/>
        </extensions>
      </trkpt>
      <trkpt lat="44.4994892366230487823486328125" lon="-0.25514789856970310211181640625">
        <ele>81.40000152587890625</ele>
        <time>2017-07-03T10:24:50.000Z</time>
        <extensions>
          <ns3:TrackPointExtension/>
        </extensions>
      </trkpt>
      <trkpt lat="44.49994345195591449737548828125" lon="-0.2546950243413448333740234375">
        <ele>81.40000152587890625</ele>
        <time>2017-07-03T10:24:58.000Z</time>
        <extensions>
          <ns3:TrackPointExtension/>
        </extensions>
      </trkpt>
      <trkpt lat="44.500430859625339508056640625" lon="-0.25420895777642726898193359375">
        <ele>81.8000030517578125</ele>
        <time>2017-07-03T10:25:07.000Z</time>
        <extensions>
          <ns3:TrackPointExtension/>
        </extensions>
      </trkpt>
      <trkpt lat="44.5008756034076213836669921875" lon="-0.2537659741938114166259765625">
        <ele>81.8000030517578125</ele>
        <time>2017-07-03T10:25:16.000Z</time>
        <extensions>
          <ns3:TrackPointExtension/>
        </extensions>
      </trkpt>
      <trkpt lat="44.50132705271244049072265625" lon="-0.25332458317279815673828125">
        <ele>82.59999847412109375</ele>
        <time>2017-07-03T10:25:25.000Z</time>
        <extensions>
          <ns3:TrackPointExtension/>
        </extensions>
      </trkpt>
      <trkpt lat="44.5018458925187587738037109375" lon="-0.25302476249635219573974609375">
        <ele>83.8000030517578125</ele>
        <time>2017-07-03T10:25:35.000Z</time>
        <extensions>
          <ns3:TrackPointExtension/>
        </extensions>
      </trkpt>
      <trkpt lat="44.50238795019686222076416015625" lon="-0.252781771123409271240234375">
        <ele>83.1999969482421875</ele>
        <time>2017-07-03T10:25:45.000Z</time>
        <extensions>
          <ns3:TrackPointExtension/>
        </extensions>
      </trkpt>
      <trkpt lat="44.502913914620876312255859375" lon="-0.25253727100789546966552734375">
        <ele>82.40000152587890625</ele>
        <time>2017-07-03T10:25:54.000Z</time>
        <extensions>
          <ns3:TrackPointExtension/>
        </extensions>
      </trkpt>
      <trkpt lat="44.50333862565457820892333984375" lon="-0.25206419639289379119873046875">
        <ele>81.8000030517578125</ele>
        <time>2017-07-03T10:26:03.000Z</time>
        <extensions>
          <ns3:TrackPointExtension/>
        </extensions>
      </trkpt>
      <trkpt lat="44.50375176966190338134765625" lon="-0.251568742096424102783203125">
        <ele>80.8000030517578125</ele>
        <time>2017-07-03T10:26:11.000Z</time>
        <extensions>
          <ns3:TrackPointExtension/>
        </extensions>
      </trkpt>
      <trkpt lat="44.50421252287924289703369140625" lon="-0.2510861121118068695068359375">
        <ele>80.8000030517578125</ele>
        <time>2017-07-03T10:26:19.000Z</time>
        <extensions>
          <ns3:TrackPointExtension/>
        </extensions>
      </trkpt>
      <trkpt lat="44.5046756230294704437255859375" lon="-0.25058294646441936492919921875">
        <ele>81.40000152587890625</ele>
        <time>2017-07-03T10:26:29.000Z</time>
        <extensions>
          <ns3:TrackPointExtension/>
        </extensions>
      </trkpt>
      <trkpt lat="44.50500394217669963836669921875" lon="-0.2499139867722988128662109375">
        <ele>82.8000030517578125</ele>
        <time>2017-07-03T10:26:39.000Z</time>
        <extensions>
          <ns3:TrackPointExtension/>
        </extensions>
      </trkpt>
      <trkpt lat="44.50515531934797763824462890625" lon="-0.24957242421805858612060546875">
        <ele>83.8000030517578125</ele>
        <time>2017-07-03T10:26:44.000Z</time>
        <extensions>
          <ns3:TrackPointExtension/>
        </extensions>
      </trkpt>
      <trkpt lat="44.505363442003726959228515625" lon="-0.24929054081439971923828125">
        <ele>84.59999847412109375</ele>
        <time>2017-07-03T10:26:49.000Z</time>
        <extensions>
          <ns3:TrackPointExtension/>
        </extensions>
      </trkpt>
      <trkpt lat="44.5058997161686420440673828125" lon="-0.24895124137401580810546875">
        <ele>87.59999847412109375</ele>
        <time>2017-07-03T10:26:59.000Z</time>
        <extensions>
          <ns3:TrackPointExtension/>
        </extensions>
      </trkpt>
      <trkpt lat="44.5061038993299007415771484375" lon="-0.24888426996767520904541015625">
        <ele>88.59999847412109375</ele>
        <time>2017-07-03T10:27:03.000Z</time>
        <extensions>
          <ns3:TrackPointExtension/>
        </extensions>
      </trkpt>
      <trkpt lat="44.5062537677586078643798828125" lon="-0.24889332242310047149658203125">
        <ele>88.59999847412109375</ele>
        <time>2017-07-03T10:27:06.000Z</time>
        <extensions>
          <ns3:TrackPointExtension/>
        </extensions>
      </trkpt>
      <trkpt lat="44.506599269807338714599609375" lon="-0.2489819191396236419677734375">
        <ele>87.8000030517578125</ele>
        <time>2017-07-03T10:27:13.000Z</time>
        <extensions>
          <ns3:TrackPointExtension/>
        </extensions>
      </trkpt>
      <trkpt lat="44.5068428479135036468505859375" lon="-0.2489398419857025146484375">
        <ele>87.1999969482421875</ele>
        <time>2017-07-03T10:27:18.000Z</time>
        <extensions>
          <ns3:TrackPointExtension/>
        </extensions>
      </trkpt>
      <trkpt lat="44.50700939632952213287353515625" lon="-0.24893053807318210601806640625">
        <ele>86.8000030517578125</ele>
        <time>2017-07-03T10:27:22.000Z</time>
        <extensions>
          <ns3:TrackPointExtension/>
        </extensions>
      </trkpt>
      <trkpt lat="44.50724006630480289459228515625" lon="-0.24929297156631946563720703125">
        <ele>86.59999847412109375</ele>
        <time>2017-07-03T10:27:29.000Z</time>
        <extensions>
          <ns3:TrackPointExtension/>
        </extensions>
      </trkpt>
      <trkpt lat="44.5074748434126377105712890625" lon="-0.24997852742671966552734375">
        <ele>86.8000030517578125</ele>
        <time>2017-07-03T10:27:38.000Z</time>
        <extensions>
          <ns3:TrackPointExtension/>
        </extensions>
      </trkpt>
      <trkpt lat="44.507738538086414337158203125" lon="-0.250640027225017547607421875">
        <ele>86.1999969482421875</ele>
        <time>2017-07-03T10:27:47.000Z</time>
        <extensions>
          <ns3:TrackPointExtension/>
        </extensions>
      </trkpt>
      <trkpt lat="44.50801589526236057281494140625" lon="-0.25131854228675365447998046875">
        <ele>85.59999847412109375</ele>
        <time>2017-07-03T10:27:56.000Z</time>
        <extensions>
          <ns3:TrackPointExtension/>
        </extensions>
      </trkpt>
      <trkpt lat="44.50852744281291961669921875" lon="-0.2513586916029453277587890625">
        <ele>87.59999847412109375</ele>
        <time>2017-07-03T10:28:05.000Z</time>
        <extensions>
          <ns3:TrackPointExtension/>
        </extensions>
      </trkpt>
      <trkpt lat="44.5086325518786907196044921875" lon="-0.2512651495635509490966796875">
        <ele>88</ele>
        <time>2017-07-03T10:28:07.000Z</time>
        <extensions>
          <ns3:TrackPointExtension/>
        </extensions>
      </trkpt>
      <trkpt lat="44.50868703424930572509765625" lon="-0.2512239105999469757080078125">
        <ele>88.1999969482421875</ele>
        <time>2017-07-03T10:28:08.000Z</time>
        <extensions>
          <ns3:TrackPointExtension/>
        </extensions>
      </trkpt>
      <trkpt lat="44.5090710930526256561279296875" lon="-0.2512089908123016357421875">
        <ele>87.8000030517578125</ele>
        <time>2017-07-03T10:28:14.000Z</time>
        <extensions>
          <ns3:TrackPointExtension/>
        </extensions>
      </trkpt>
      <trkpt lat="44.5096531324088573455810546875" lon="-0.2513593621551990509033203125">
        <ele>87</ele>
        <time>2017-07-03T10:28:23.000Z</time>
        <extensions>
          <ns3:TrackPointExtension/>
        </extensions>
      </trkpt>
      <trkpt lat="44.5102143846452236175537109375" lon="-0.25151669047772884368896484375">
        <ele>86.8000030517578125</ele>
        <time>2017-07-03T10:28:32.000Z</time>
        <extensions>
          <ns3:TrackPointExtension/>
        </extensions>
      </trkpt>
      <trkpt lat="44.51077111065387725830078125" lon="-0.251670666038990020751953125">
        <ele>86.59999847412109375</ele>
        <time>2017-07-03T10:28:41.000Z</time>
        <extensions>
          <ns3:TrackPointExtension/>
        </extensions>
      </trkpt>
      <trkpt lat="44.5113583467900753021240234375" lon="-0.2517368830740451812744140625">
        <ele>85.1999969482421875</ele>
        <time>2017-07-03T10:28:50.000Z</time>
        <extensions>
          <ns3:TrackPointExtension/>
        </extensions>
      </trkpt>
      <trkpt lat="44.51192756183445453643798828125" lon="-0.25166588835418224334716796875">
        <ele>84.8000030517578125</ele>
        <time>2017-07-03T10:28:58.000Z</time>
        <extensions>
          <ns3:TrackPointExtension/>
        </extensions>
      </trkpt>
      <trkpt lat="44.51249686069786548614501953125" lon="-0.251604281365871429443359375">
        <ele>83.59999847412109375</ele>
        <time>2017-07-03T10:29:06.000Z</time>
        <extensions>
          <ns3:TrackPointExtension/>
        </extensions>
      </trkpt>
      <trkpt lat="44.51304587535560131072998046875" lon="-0.25161526165902614593505859375">
        <ele>82.40000152587890625</ele>
        <time>2017-07-03T10:29:14.000Z</time>
        <extensions>
          <ns3:TrackPointExtension/>
        </extensions>
      </trkpt>
      <trkpt lat="44.51361567713320255279541015625" lon="-0.25168030522763729095458984375">
        <ele>81.40000152587890625</ele>
        <time>2017-07-03T10:29:22.000Z</time>
        <extensions>
          <ns3:TrackPointExtension/>
        </extensions>
      </trkpt>
      <trkpt lat="44.5141927711665630340576171875" lon="-0.251623056828975677490234375">
        <ele>80.1999969482421875</ele>
        <time>2017-07-03T10:29:30.000Z</time>
        <extensions>
          <ns3:TrackPointExtension/>
        </extensions>
      </trkpt>
      <trkpt lat="44.51474723406136035919189453125" lon="-0.251537226140499114990234375">
        <ele>79.1999969482421875</ele>
        <time>2017-07-03T10:29:38.000Z</time>
        <extensions>
          <ns3:TrackPointExtension/>
        </extensions>
      </trkpt>
      <trkpt lat="44.51529155485332012176513671875" lon="-0.251446701586246490478515625">
        <ele>79.59999847412109375</ele>
        <time>2017-07-03T10:29:46.000Z</time>
        <extensions>
          <ns3:TrackPointExtension/>
        </extensions>
      </trkpt>
      <trkpt lat="44.51583445072174072265625" lon="-0.2513546682894229888916015625">
        <ele>77.40000152587890625</ele>
        <time>2017-07-03T10:29:54.000Z</time>
        <extensions>
          <ns3:TrackPointExtension/>
        </extensions>
      </trkpt>
      <trkpt lat="44.5164096169173717498779296875" lon="-0.25127344764769077301025390625">
        <ele>75.8000030517578125</ele>
        <time>2017-07-03T10:30:02.000Z</time>
        <extensions>
          <ns3:TrackPointExtension/>
        </extensions>
      </trkpt>
      <trkpt lat="44.5169658400118350982666015625" lon="-0.2511058934032917022705078125">
        <ele>75.40000152587890625</ele>
        <time>2017-07-03T10:30:09.000Z</time>
        <extensions>
          <ns3:TrackPointExtension/>
        </extensions>
      </trkpt>
      <trkpt lat="44.51751024462282657623291015625" lon="-0.2507830224931240081787109375">
        <ele>74.40000152587890625</ele>
        <time>2017-07-03T10:30:16.000Z</time>
        <extensions>
          <ns3:TrackPointExtension/>
        </extensions>
      </trkpt>
      <trkpt lat="44.5180727541446685791015625" lon="-0.2504749037325382232666015625">
        <ele>72.8000030517578125</ele>
        <time>2017-07-03T10:30:23.000Z</time>
        <extensions>
          <ns3:TrackPointExtension/>
        </extensions>
      </trkpt>
      <trkpt lat="44.51861514709889888763427734375" lon="-0.25030684657394886016845703125">
        <ele>71</ele>
        <time>2017-07-03T10:30:29.000Z</time>
        <extensions>
          <ns3:TrackPointExtension/>
        </extensions>
      </trkpt>
      <trkpt lat="44.5191642455756664276123046875" lon="-0.25018027983605861663818359375">
        <ele>67.59999847412109375</ele>
        <time>2017-07-03T10:30:35.000Z</time>
        <extensions>
          <ns3:TrackPointExtension/>
        </extensions>
      </trkpt>
      <trkpt lat="44.51976849697530269622802734375" lon="-0.2500293217599391937255859375">
        <ele>64.8000030517578125</ele>
        <time>2017-07-03T10:30:42.000Z</time>
        <extensions>
          <ns3:TrackPointExtension/>
        </extensions>
      </trkpt>
      <trkpt lat="44.52032572589814662933349609375" lon="-0.24983771145343780517578125">
        <ele>61.799999237060546875</ele>
        <time>2017-07-03T10:30:49.000Z</time>
        <extensions>
          <ns3:TrackPointExtension/>
        </extensions>
      </trkpt>
      <trkpt lat="44.5208381116390228271484375" lon="-0.2495864219963550567626953125">
        <ele>60.200000762939453125</ele>
        <time>2017-07-03T10:30:56.000Z</time>
        <extensions>
          <ns3:TrackPointExtension/>
        </extensions>
      </trkpt>
      <trkpt lat="44.52109551988542079925537109375" lon="-0.2493825741112232208251953125">
        <ele>59.200000762939453125</ele>
        <time>2017-07-03T10:31:00.000Z</time>
        <extensions>
          <ns3:TrackPointExtension/>
        </extensions>
      </trkpt>
      <trkpt lat="44.5214416086673736572265625" lon="-0.2486738003790378570556640625">
        <ele>58.200000762939453125</ele>
        <time>2017-07-03T10:31:08.000Z</time>
        <extensions>
          <ns3:TrackPointExtension/>
        </extensions>
      </trkpt>
      <trkpt lat="44.521757103502750396728515625" lon="-0.247996039688587188720703125">
        <ele>58</ele>
        <time>2017-07-03T10:31:15.000Z</time>
        <extensions>
          <ns3:TrackPointExtension/>
        </extensions>
      </trkpt>
      <trkpt lat="44.52207067050039768218994140625" lon="-0.24734593927860260009765625">
        <ele>58.200000762939453125</ele>
        <time>2017-07-03T10:31:22.000Z</time>
        <extensions>
          <ns3:TrackPointExtension/>
        </extensions>
      </trkpt>
      <trkpt lat="44.52233118005096912384033203125" lon="-0.2468767203390598297119140625">
        <ele>57.799999237060546875</ele>
        <time>2017-07-03T10:31:28.000Z</time>
        <extensions>
          <ns3:TrackPointExtension/>
        </extensions>
      </trkpt>
      <trkpt lat="44.52280257828533649444580078125" lon="-0.24669592268764972686767578125">
        <ele>55.59999847412109375</ele>
        <time>2017-07-03T10:31:35.000Z</time>
        <extensions>
          <ns3:TrackPointExtension/>
        </extensions>
      </trkpt>
      <trkpt lat="44.52324061654508113861083984375" lon="-0.2466705255210399627685546875">
        <ele>53.59999847412109375</ele>
        <time>2017-07-03T10:31:41.000Z</time>
        <extensions>
          <ns3:TrackPointExtension/>
        </extensions>
      </trkpt>
      <trkpt lat="44.52379382215440273284912109375" lon="-0.24643172509968280792236328125">
        <ele>52.200000762939453125</ele>
        <time>2017-07-03T10:31:49.000Z</time>
        <extensions>
          <ns3:TrackPointExtension/>
        </extensions>
      </trkpt>
      <trkpt lat="44.5242701657116413116455078125" lon="-0.2460606582462787628173828125">
        <ele>53</ele>
        <time>2017-07-03T10:31:57.000Z</time>
        <extensions>
          <ns3:TrackPointExtension/>
        </extensions>
      </trkpt>
      <trkpt lat="44.52448164112865924835205078125" lon="-0.2458876557648181915283203125">
        <ele>53.40000152587890625</ele>
        <time>2017-07-03T10:32:00.000Z</time>
        <extensions>
          <ns3:TrackPointExtension/>
        </extensions>
      </trkpt>
      <trkpt lat="44.525000564754009246826171875" lon="-0.24575027637183666229248046875">
        <ele>50.59999847412109375</ele>
        <time>2017-07-03T10:32:06.000Z</time>
        <extensions>
          <ns3:TrackPointExtension/>
        </extensions>
      </trkpt>
      <trkpt lat="44.525596015155315399169921875" lon="-0.24591020308434963226318359375">
        <ele>48.40000152587890625</ele>
        <time>2017-07-03T10:32:12.000Z</time>
        <extensions>
          <ns3:TrackPointExtension/>
        </extensions>
      </trkpt>
      <trkpt lat="44.5261462032794952392578125" lon="-0.24609846062958240509033203125">
        <ele>43.59999847412109375</ele>
        <time>2017-07-03T10:32:18.000Z</time>
        <extensions>
          <ns3:TrackPointExtension/>
        </extensions>
      </trkpt>
      <trkpt lat="44.5267377980053424835205078125" lon="-0.246077589690685272216796875">
        <ele>45</ele>
        <time>2017-07-03T10:32:27.000Z</time>
        <extensions>
          <ns3:TrackPointExtension/>
        </extensions>
      </trkpt>
      <trkpt lat="44.5272759161889553070068359375" lon="-0.246004164218902587890625">
        <ele>45</ele>
        <time>2017-07-03T10:32:38.000Z</time>
        <extensions>
          <ns3:TrackPointExtension/>
        </extensions>
      </trkpt>
      <trkpt lat="44.52776835300028324127197265625" lon="-0.2456563152372837066650390625">
        <ele>46.40000152587890625</ele>
        <time>2017-07-03T10:32:49.000Z</time>
        <extensions>
          <ns3:TrackPointExtension/>
        </extensions>
      </trkpt>
      <trkpt lat="44.52794319950044155120849609375" lon="-0.2453644573688507080078125">
        <ele>47.40000152587890625</ele>
        <time>2017-07-03T10:32:54.000Z</time>
        <extensions>
          <ns3:TrackPointExtension/>
        </extensions>
      </trkpt>
      <trkpt lat="44.52802433632314205169677734375" lon="-0.24515767581760883331298828125">
        <ele>48</ele>
        <time>2017-07-03T10:32:57.000Z</time>
        <extensions>
          <ns3:TrackPointExtension/>
        </extensions>
      </trkpt>
      <trkpt lat="44.52811771072447299957275390625" lon="-0.2447716891765594482421875">
        <ele>49.40000152587890625</ele>
        <time>2017-07-03T10:33:02.000Z</time>
        <extensions>
          <ns3:TrackPointExtension/>
        </extensions>
      </trkpt>
      <trkpt lat="44.5281526632606983184814453125" lon="-0.2439879812300205230712890625">
        <ele>50.799999237060546875</ele>
        <time>2017-07-03T10:33:12.000Z</time>
        <extensions>
          <ns3:TrackPointExtension/>
        </extensions>
      </trkpt>
      <trkpt lat="44.528164900839328765869140625" lon="-0.2431689016520977020263671875">
        <ele>51.59999847412109375</ele>
        <time>2017-07-03T10:33:22.000Z</time>
        <extensions>
          <ns3:TrackPointExtension/>
        </extensions>
      </trkpt>
      <trkpt lat="44.52818292193114757537841796875" lon="-0.24233984760940074920654296875">
        <ele>51.200000762939453125</ele>
        <time>2017-07-03T10:33:32.000Z</time>
        <extensions>
          <ns3:TrackPointExtension/>
        </extensions>
      </trkpt>
      <trkpt lat="44.528201110661029815673828125" lon="-0.24157407693564891815185546875">
        <ele>50.40000152587890625</ele>
        <time>2017-07-03T10:33:41.000Z</time>
        <extensions>
          <ns3:TrackPointExtension/>
        </extensions>
      </trkpt>
      <trkpt lat="44.528224579989910125732421875" lon="-0.24083714000880718231201171875">
        <ele>50</ele>
        <time>2017-07-03T10:33:57.000Z</time>
        <extensions>
          <ns3:TrackPointExtension/>
        </extensions>
      </trkpt>
      <trkpt lat="44.5282383263111114501953125" lon="-0.2407881058752536773681640625">
        <ele>50</ele>
        <time>2017-07-03T10:34:19.000Z</time>
        <extensions>
          <ns3:TrackPointExtension/>
        </extensions>
      </trkpt>
      <trkpt lat="44.5284125022590160369873046875" lon="-0.24071895517408847808837890625">
        <ele>50</ele>
        <time>2017-07-03T10:34:26.000Z</time>
        <extensions>
          <ns3:TrackPointExtension/>
        </extensions>
      </trkpt>
      <trkpt lat="44.528994373977184295654296875" lon="-0.24075482971966266632080078125">
        <ele>50</ele>
        <time>2017-07-03T10:34:38.000Z</time>
        <extensions>
          <ns3:TrackPointExtension/>
        </extensions>
      </trkpt>
      <trkpt lat="44.52953542582690715789794921875" lon="-0.24074594490230083465576171875">
        <ele>49.799999237060546875</ele>
        <time>2017-07-03T10:34:47.000Z</time>
        <extensions>
          <ns3:TrackPointExtension/>
        </extensions>
      </trkpt>
      <trkpt lat="44.53010941855609416961669921875" lon="-0.2407009340822696685791015625">
        <ele>51.200000762939453125</ele>
        <time>2017-07-03T10:34:57.000Z</time>
        <extensions>
          <ns3:TrackPointExtension/>
        </extensions>
      </trkpt>
      <trkpt lat="44.53069397248327732086181640625" lon="-0.24064033292233943939208984375">
        <ele>50.799999237060546875</ele>
        <time>2017-07-03T10:35:08.000Z</time>
        <extensions>
          <ns3:TrackPointExtension/>
        </extensions>
      </trkpt>
      <trkpt lat="44.53123443759977817535400390625" lon="-0.2406196296215057373046875">
        <ele>49.59999847412109375</ele>
        <time>2017-07-03T10:35:18.000Z</time>
        <extensions>
          <ns3:TrackPointExtension/>
        </extensions>
      </trkpt>
      <trkpt lat="44.53180742450058460235595703125" lon="-0.2406503073871135711669921875">
        <ele>48.200000762939453125</ele>
        <time>2017-07-03T10:35:28.000Z</time>
        <extensions>
          <ns3:TrackPointExtension/>
        </extensions>
      </trkpt>
      <trkpt lat="44.53237756155431270599365234375" lon="-0.2407456934452056884765625">
        <ele>47.200000762939453125</ele>
        <time>2017-07-03T10:35:38.000Z</time>
        <extensions>
          <ns3:TrackPointExtension/>
        </extensions>
      </trkpt>
      <trkpt lat="44.5329735986888408660888671875" lon="-0.24089380167424678802490234375">
        <ele>47.59999847412109375</ele>
        <time>2017-07-03T10:35:47.000Z</time>
        <extensions>
          <ns3:TrackPointExtension/>
        </extensions>
      </trkpt>
      <trkpt lat="44.5335603319108486175537109375" lon="-0.24108071811497211456298828125">
        <ele>48.40000152587890625</ele>
        <time>2017-07-03T10:35:55.000Z</time>
        <extensions>
          <ns3:TrackPointExtension/>
        </extensions>
      </trkpt>
      <trkpt lat="44.53414195217192173004150390625" lon="-0.241249613463878631591796875">
        <ele>47.40000152587890625</ele>
        <time>2017-07-03T10:36:02.000Z</time>
        <extensions>
          <ns3:TrackPointExtension/>
        </extensions>
      </trkpt>
      <trkpt lat="44.53475835733115673065185546875" lon="-0.2414081990718841552734375">
        <ele>46.799999237060546875</ele>
        <time>2017-07-03T10:36:09.000Z</time>
        <extensions>
          <ns3:TrackPointExtension/>
        </extensions>
      </trkpt>
      <trkpt lat="44.5353155024349689483642578125" lon="-0.2415089495480060577392578125">
        <ele>47.799999237060546875</ele>
        <time>2017-07-03T10:36:16.000Z</time>
        <extensions>
          <ns3:TrackPointExtension/>
        </extensions>
      </trkpt>
      <trkpt lat="44.5359055884182453155517578125" lon="-0.24158564396202564239501953125">
        <ele>47.59999847412109375</ele>
        <time>2017-07-03T10:36:24.000Z</time>
        <extensions>
          <ns3:TrackPointExtension/>
        </extensions>
      </trkpt>
      <trkpt lat="44.5364812575280666351318359375" lon="-0.241618417203426361083984375">
        <ele>46.200000762939453125</ele>
        <time>2017-07-03T10:36:32.000Z</time>
        <extensions>
          <ns3:TrackPointExtension/>
        </extensions>
      </trkpt>
      <trkpt lat="44.53702415339648723602294921875" lon="-0.24165923707187175750732421875">
        <ele>44.799999237060546875</ele>
        <time>2017-07-03T10:36:40.000Z</time>
        <extensions>
          <ns3:TrackPointExtension/>
        </extensions>
      </trkpt>
      <trkpt lat="44.5376180112361907958984375" lon="-0.24164197035133838653564453125">
        <ele>44.200000762939453125</ele>
        <time>2017-07-03T10:36:49.000Z</time>
        <extensions>
          <ns3:TrackPointExtension/>
        </extensions>
      </trkpt>
      <trkpt lat="44.53768196515738964080810546875" lon="-0.24162000976502895355224609375">
        <ele>44</ele>
        <time>2017-07-03T10:36:50.000Z</time>
        <extensions>
          <ns3:TrackPointExtension/>
        </extensions>
      </trkpt>
      <trkpt lat="44.53789302147924900054931640625" lon="-0.2414224483072757720947265625">
        <ele>43.40000152587890625</ele>
        <time>2017-07-03T10:36:54.000Z</time>
        <extensions>
          <ns3:TrackPointExtension/>
        </extensions>
      </trkpt>
      <trkpt lat="44.53794683329761028289794921875" lon="-0.2413835562765598297119140625">
        <ele>43.40000152587890625</ele>
        <time>2017-07-03T10:36:55.000Z</time>
        <extensions>
          <ns3:TrackPointExtension/>
        </extensions>
      </trkpt>
      <trkpt lat="44.538384117186069488525390625" lon="-0.24162881076335906982421875">
        <ele>45</ele>
        <time>2017-07-03T10:37:03.000Z</time>
        <extensions>
          <ns3:TrackPointExtension/>
        </extensions>
      </trkpt>
      <trkpt lat="44.5384872145950794219970703125" lon="-0.24173718877136707305908203125">
        <ele>45</ele>
        <time>2017-07-03T10:37:05.000Z</time>
        <extensions>
          <ns3:TrackPointExtension/>
        </extensions>
      </trkpt>
      <trkpt lat="44.53875057399272918701171875" lon="-0.24182871915400028228759765625">
        <ele>44.799999237060546875</ele>
        <time>2017-07-03T10:37:09.000Z</time>
        <extensions>
          <ns3:TrackPointExtension/>
        </extensions>
      </trkpt>
      <trkpt lat="44.5392959006130695343017578125" lon="-0.24194397032260894775390625">
        <ele>43.799999237060546875</ele>
        <time>2017-07-03T10:37:17.000Z</time>
        <extensions>
          <ns3:TrackPointExtension/>
        </extensions>
      </trkpt>
      <trkpt lat="44.53988724388182163238525390625" lon="-0.24199401028454303741455078125">
        <ele>42</ele>
        <time>2017-07-03T10:37:25.000Z</time>
        <extensions>
          <ns3:TrackPointExtension/>
        </extensions>
      </trkpt>
      <trkpt lat="44.54042695462703704833984375" lon="-0.24203759618103504180908203125">
        <ele>39.59999847412109375</ele>
        <time>2017-07-03T10:37:32.000Z</time>
        <extensions>
          <ns3:TrackPointExtension/>
        </extensions>
      </trkpt>
      <trkpt lat="44.5409752987325191497802734375" lon="-0.24210096336901187896728515625">
        <ele>37.59999847412109375</ele>
        <time>2017-07-03T10:37:39.000Z</time>
        <extensions>
          <ns3:TrackPointExtension/>
        </extensions>
      </trkpt>
      <trkpt lat="44.54151953570544719696044921875" lon="-0.2421741373836994171142578125">
        <ele>36.200000762939453125</ele>
        <time>2017-07-03T10:37:46.000Z</time>
        <extensions>
          <ns3:TrackPointExtension/>
        </extensions>
      </trkpt>
      <trkpt lat="44.54208062030375003814697265625" lon="-0.24227731861174106597900390625">
        <ele>34.799999237060546875</ele>
        <time>2017-07-03T10:37:54.000Z</time>
        <extensions>
          <ns3:TrackPointExtension/>
        </extensions>
      </trkpt>
      <trkpt lat="44.54264019615948200225830078125" lon="-0.2424597926437854766845703125">
        <ele>33.200000762939453125</ele>
        <time>2017-07-03T10:38:03.000Z</time>
        <extensions>
          <ns3:TrackPointExtension/>
        </extensions>
      </trkpt>
      <trkpt lat="44.54288830049335956573486328125" lon="-0.24250865913927555084228515625">
        <ele>32</ele>
        <time>2017-07-03T10:38:07.000Z</time>
        <extensions>
          <ns3:TrackPointExtension/>
        </extensions>
      </trkpt>
      <trkpt lat="44.54323229379951953887939453125" lon="-0.24261720478534698486328125">
        <ele>31.799999237060546875</ele>
        <time>2017-07-03T10:38:13.000Z</time>
        <extensions>
          <ns3:TrackPointExtension/>
        </extensions>
      </trkpt>
      <trkpt lat="44.54334813170135021209716796875" lon="-0.24267017841339111328125">
        <ele>31.6000003814697265625</ele>
        <time>2017-07-03T10:38:15.000Z</time>
        <extensions>
          <ns3:TrackPointExtension/>
        </extensions>
      </trkpt>
      <trkpt lat="44.54388289712369441986083984375" lon="-0.2428534068167209625244140625">
        <ele>31.3999996185302734375</ele>
        <time>2017-07-03T10:38:24.000Z</time>
        <extensions>
          <ns3:TrackPointExtension/>
        </extensions>
      </trkpt>
      <trkpt lat="44.54442587681114673614501953125" lon="-0.24303185753524303436279296875">
        <ele>31.799999237060546875</ele>
        <time>2017-07-03T10:38:33.000Z</time>
        <extensions>
          <ns3:TrackPointExtension/>
        </extensions>
      </trkpt>
      <trkpt lat="44.5449565351009368896484375" lon="-0.24319195188581943511962890625">
        <ele>30.3999996185302734375</ele>
        <time>2017-07-03T10:38:41.000Z</time>
        <extensions>
          <ns3:TrackPointExtension/>
        </extensions>
      </trkpt>
      <trkpt lat="44.5455434359610080718994140625" lon="-0.2433707378804683685302734375">
        <ele>29.799999237060546875</ele>
        <time>2017-07-03T10:38:49.000Z</time>
        <extensions>
          <ns3:TrackPointExtension/>
        </extensions>
      </trkpt>
      <trkpt lat="44.546169228851795196533203125" lon="-0.2435554750263690948486328125">
        <ele>28.6000003814697265625</ele>
        <time>2017-07-03T10:38:56.000Z</time>
        <extensions>
          <ns3:TrackPointExtension/>
        </extensions>
      </trkpt>
      <trkpt lat="44.54671447165310382843017578125" lon="-0.24372487328946590423583984375">
        <ele>25.6000003814697265625</ele>
        <time>2017-07-03T10:39:02.000Z</time>
        <extensions>
          <ns3:TrackPointExtension/>
        </extensions>
      </trkpt>
      <trkpt lat="44.5472900569438934326171875" lon="-0.24390826933085918426513671875">
        <ele>21.200000762939453125</ele>
        <time>2017-07-03T10:39:08.000Z</time>
        <extensions>
          <ns3:TrackPointExtension/>
        </extensions>
      </trkpt>
      <trkpt lat="44.5478578470647335052490234375" lon="-0.24408110417425632476806640625">
        <ele>16.799999237060546875</ele>
        <time>2017-07-03T10:39:14.000Z</time>
        <extensions>
          <ns3:TrackPointExtension/>
        </extensions>
      </trkpt>
      <trkpt lat="44.54841784201562404632568359375" lon="-0.24423399008810520172119140625">
        <ele>13.19999980926513671875</ele>
        <time>2017-07-03T10:39:22.000Z</time>
        <extensions>
          <ns3:TrackPointExtension/>
        </extensions>
      </trkpt>
      <trkpt lat="44.548983536660671234130859375" lon="-0.24441470392048358917236328125">
        <ele>13</ele>
        <time>2017-07-03T10:39:31.000Z</time>
        <extensions>
          <ns3:TrackPointExtension/>
        </extensions>
      </trkpt>
      <trkpt lat="44.54925117082893848419189453125" lon="-0.244458876550197601318359375">
        <ele>13</ele>
        <time>2017-07-03T10:39:35.000Z</time>
        <extensions>
          <ns3:TrackPointExtension/>
        </extensions>
      </trkpt>
      <trkpt lat="44.5495221577584743499755859375" lon="-0.2443691901862621307373046875">
        <ele>13</ele>
        <time>2017-07-03T10:39:40.000Z</time>
        <extensions>
          <ns3:TrackPointExtension/>
        </extensions>
      </trkpt>
      <trkpt lat="44.549564234912395477294921875" lon="-0.24469952099025249481201171875">
        <ele>13.3999996185302734375</ele>
        <time>2017-07-03T10:39:46.000Z</time>
        <extensions>
          <ns3:TrackPointExtension/>
        </extensions>
      </trkpt>
      <trkpt lat="44.54955744557082653045654296875" lon="-0.24476456455886363983154296875">
        <ele>13.6000003814697265625</ele>
        <time>2017-07-03T10:39:47.000Z</time>
        <extensions>
          <ns3:TrackPointExtension/>
        </extensions>
      </trkpt>
      <trkpt lat="44.549675881862640380859375" lon="-0.245567299425601959228515625">
        <ele>16.3999996185302734375</ele>
        <time>2017-07-03T10:39:59.000Z</time>
        <extensions>
          <ns3:TrackPointExtension/>
        </extensions>
      </trkpt>
      <trkpt lat="44.54984846524894237518310546875" lon="-0.24634036235511302947998046875">
        <ele>17.6000003814697265625</ele>
        <time>2017-07-03T10:40:13.000Z</time>
        <extensions>
          <ns3:TrackPointExtension/>
        </extensions>
      </trkpt>
      <trkpt lat="44.5499848388135433197021484375" lon="-0.24693966843187808990478515625">
        <ele>18.200000762939453125</ele>
        <time>2017-07-03T10:40:30.000Z</time>
        <extensions>
          <ns3:TrackPointExtension/>
        </extensions>
      </trkpt>
      <trkpt lat="44.54999112524092197418212890625" lon="-0.2469739504158496856689453125">
        <ele>18.200000762939453125</ele>
        <time>2017-07-03T10:40:42.000Z</time>
        <extensions>
          <ns3:TrackPointExtension/>
        </extensions>
      </trkpt>
      <trkpt lat="44.550020210444927215576171875" lon="-0.24703337810933589935302734375">
        <ele>18.200000762939453125</ele>
        <time>2017-07-03T10:40:45.000Z</time>
        <extensions>
          <ns3:TrackPointExtension/>
        </extensions>
      </trkpt>
      <trkpt lat="44.55008349381387233734130859375" lon="-0.247267149388790130615234375">
        <ele>18.3999996185302734375</ele>
        <time>2017-07-03T10:40:51.000Z</time>
        <extensions>
          <ns3:TrackPointExtension/>
        </extensions>
      </trkpt>
      <trkpt lat="44.55033025704324245452880859375" lon="-0.2479512803256511688232421875">
        <ele>19</ele>
        <time>2017-07-03T10:41:03.000Z</time>
        <extensions>
          <ns3:TrackPointExtension/>
        </extensions>
      </trkpt>
      <trkpt lat="44.55058758147060871124267578125" lon="-0.2486171387135982513427734375">
        <ele>20.6000003814697265625</ele>
        <time>2017-07-03T10:41:14.000Z</time>
        <extensions>
          <ns3:TrackPointExtension/>
        </extensions>
      </trkpt>
      <trkpt lat="44.5508652739226818084716796875" lon="-0.2492940612137317657470703125">
        <ele>21.6000003814697265625</ele>
        <time>2017-07-03T10:41:25.000Z</time>
        <extensions>
          <ns3:TrackPointExtension/>
        </extensions>
      </trkpt>
      <trkpt lat="44.5511626638472080230712890625" lon="-0.249958075582981109619140625">
        <ele>22</ele>
        <time>2017-07-03T10:41:44.000Z</time>
        <extensions>
          <ns3:TrackPointExtension/>
        </extensions>
      </trkpt>
      <trkpt lat="44.5512528531253337860107421875" lon="-0.25016921572387218475341796875">
        <ele>22</ele>
        <time>2017-07-03T10:41:49.000Z</time>
        <extensions>
          <ns3:TrackPointExtension/>
        </extensions>
      </trkpt>
      <trkpt lat="44.55166197381913661956787109375" lon="-0.250669531524181365966796875">
        <ele>22.200000762939453125</ele>
        <time>2017-07-03T10:42:00.000Z</time>
        <extensions>
          <ns3:TrackPointExtension/>
        </extensions>
      </trkpt>
      <trkpt lat="44.55208785831928253173828125" lon="-0.251171775162220001220703125">
        <ele>22</ele>
        <time>2017-07-03T10:42:11.000Z</time>
        <extensions>
          <ns3:TrackPointExtension/>
        </extensions>
      </trkpt>
      <trkpt lat="44.55252195708453655242919921875" lon="-0.2516500465571880340576171875">
        <ele>22.799999237060546875</ele>
        <time>2017-07-03T10:42:21.000Z</time>
        <extensions>
          <ns3:TrackPointExtension/>
        </extensions>
      </trkpt>
      <trkpt lat="44.552950523793697357177734375" lon="-0.2521370351314544677734375">
        <ele>22.799999237060546875</ele>
        <time>2017-07-03T10:42:31.000Z</time>
        <extensions>
          <ns3:TrackPointExtension/>
        </extensions>
      </trkpt>
      <trkpt lat="44.5533818565309047698974609375" lon="-0.25264891795814037322998046875">
        <ele>23</ele>
        <time>2017-07-03T10:42:42.000Z</time>
        <extensions>
          <ns3:TrackPointExtension/>
        </extensions>
      </trkpt>
      <trkpt lat="44.55381209962069988250732421875" lon="-0.25313741527497768402099609375">
        <ele>21.799999237060546875</ele>
        <time>2017-07-03T10:42:54.000Z</time>
        <extensions>
          <ns3:TrackPointExtension/>
        </extensions>
      </trkpt>
      <trkpt lat="44.55388267524540424346923828125" lon="-0.25322475470602512359619140625">
        <ele>21.6000003814697265625</ele>
        <time>2017-07-03T10:42:56.000Z</time>
        <extensions>
          <ns3:TrackPointExtension/>
        </extensions>
      </trkpt>
      <trkpt lat="44.5542780496180057525634765625" lon="-0.25374895893037319183349609375">
        <ele>20.799999237060546875</ele>
        <time>2017-07-03T10:43:07.000Z</time>
        <extensions>
          <ns3:TrackPointExtension/>
        </extensions>
      </trkpt>
      <trkpt lat="44.554702676832675933837890625" lon="-0.254240222275257110595703125">
        <ele>21</ele>
        <time>2017-07-03T10:43:21.000Z</time>
        <extensions>
          <ns3:TrackPointExtension/>
        </extensions>
      </trkpt>
      <trkpt lat="44.55489336512982845306396484375" lon="-0.2543211914598941802978515625">
        <ele>21.200000762939453125</ele>
        <time>2017-07-03T10:43:28.000Z</time>
        <extensions>
          <ns3:TrackPointExtension/>
        </extensions>
      </trkpt>
      <trkpt lat="44.55479999072849750518798828125" lon="-0.25489593856036663055419921875">
        <ele>22</ele>
        <time>2017-07-03T10:43:38.000Z</time>
        <extensions>
          <ns3:TrackPointExtension/>
        </extensions>
      </trkpt>
      <trkpt lat="44.55475355498492717742919921875" lon="-0.2549394406378269195556640625">
        <ele>22</ele>
        <time>2017-07-03T10:43:39.000Z</time>
        <extensions>
          <ns3:TrackPointExtension/>
        </extensions>
      </trkpt>
      <trkpt lat="44.55458440817892551422119140625" lon="-0.25538175366818904876708984375">
        <ele>22</ele>
        <time>2017-07-03T10:43:45.000Z</time>
        <extensions>
          <ns3:TrackPointExtension/>
        </extensions>
      </trkpt>
      <trkpt lat="44.5544386468827724456787109375" lon="-0.25611340999603271484375">
        <ele>22</ele>
        <time>2017-07-03T10:43:55.000Z</time>
        <extensions>
          <ns3:TrackPointExtension/>
        </extensions>
      </trkpt>
      <trkpt lat="44.55436237156391143798828125" lon="-0.2563952095806598663330078125">
        <ele>22.200000762939453125</ele>
        <time>2017-07-03T10:43:59.000Z</time>
        <extensions>
          <ns3:TrackPointExtension/>
        </extensions>
      </trkpt>
      <trkpt lat="44.55408610403537750244140625" lon="-0.25707405991852283477783203125">
        <ele>23.3999996185302734375</ele>
        <time>2017-07-03T10:44:09.000Z</time>
        <extensions>
          <ns3:TrackPointExtension/>
        </extensions>
      </trkpt>
      <trkpt lat="44.55389508046209812164306640625" lon="-0.25777981616556644439697265625">
        <ele>24.6000003814697265625</ele>
        <time>2017-07-03T10:44:19.000Z</time>
        <extensions>
          <ns3:TrackPointExtension/>
        </extensions>
      </trkpt>
      <trkpt lat="44.55373498611152172088623046875" lon="-0.25850837118923664093017578125">
        <ele>25.6000003814697265625</ele>
        <time>2017-07-03T10:44:29.000Z</time>
        <extensions>
          <ns3:TrackPointExtension/>
        </extensions>
      </trkpt>
      <trkpt lat="44.55355745740234851837158203125" lon="-0.259253941476345062255859375">
        <ele>26.200000762939453125</ele>
        <time>2017-07-03T10:44:39.000Z</time>
        <extensions>
          <ns3:TrackPointExtension/>
        </extensions>
      </trkpt>
      <trkpt lat="44.55336467362940311431884765625" lon="-0.26000604964792728424072265625">
        <ele>26.799999237060546875</ele>
        <time>2017-07-03T10:44:49.000Z</time>
        <extensions>
          <ns3:TrackPointExtension/>
        </extensions>
      </trkpt>
      <trkpt lat="44.55316384322941303253173828125" lon="-0.26071214117109775543212890625">
        <ele>27</ele>
        <time>2017-07-03T10:44:59.000Z</time>
        <extensions>
          <ns3:TrackPointExtension/>
        </extensions>
      </trkpt>
      <trkpt lat="44.55298681743443012237548828125" lon="-0.26150557212531566619873046875">
        <ele>26.6000003814697265625</ele>
        <time>2017-07-03T10:45:10.000Z</time>
        <extensions>
          <ns3:TrackPointExtension/>
        </extensions>
      </trkpt>
      <trkpt lat="44.55283124931156635284423828125" lon="-0.26226916350424289703369140625">
        <ele>27.3999996185302734375</ele>
        <time>2017-07-03T10:45:20.000Z</time>
        <extensions>
          <ns3:TrackPointExtension/>
        </extensions>
      </trkpt>
      <trkpt lat="44.552671909332275390625" lon="-0.2630373649299144744873046875">
        <ele>29.200000762939453125</ele>
        <time>2017-07-03T10:45:30.000Z</time>
        <extensions>
          <ns3:TrackPointExtension/>
        </extensions>
      </trkpt>
      <trkpt lat="44.552454985678195953369140625" lon="-0.26377170346677303314208984375">
        <ele>30.3999996185302734375</ele>
        <time>2017-07-03T10:45:40.000Z</time>
        <extensions>
          <ns3:TrackPointExtension/>
        </extensions>
      </trkpt>
      <trkpt lat="44.55223009921610355377197265625" lon="-0.2645229734480381011962890625">
        <ele>30.3999996185302734375</ele>
        <time>2017-07-03T10:45:51.000Z</time>
        <extensions>
          <ns3:TrackPointExtension/>
        </extensions>
      </trkpt>
      <trkpt lat="44.552203528583049774169921875" lon="-0.264647193253040313720703125">
        <ele>30.200000762939453125</ele>
        <time>2017-07-03T10:45:53.000Z</time>
        <extensions>
          <ns3:TrackPointExtension/>
        </extensions>
      </trkpt>
      <trkpt lat="44.55228541977703571319580078125" lon="-0.26536501944065093994140625">
        <ele>29.200000762939453125</ele>
        <time>2017-07-03T10:46:05.000Z</time>
        <extensions>
          <ns3:TrackPointExtension/>
        </extensions>
      </trkpt>
      <trkpt lat="44.552123732864856719970703125" lon="-0.26576978154480457305908203125">
        <ele>29.6000003814697265625</ele>
        <time>2017-07-03T10:46:11.000Z</time>
        <extensions>
          <ns3:TrackPointExtension/>
        </extensions>
      </trkpt>
      <trkpt lat="44.55201652832329273223876953125" lon="-0.2665624581277370452880859375">
        <ele>30.6000003814697265625</ele>
        <time>2017-07-03T10:46:21.000Z</time>
        <extensions>
          <ns3:TrackPointExtension/>
        </extensions>
      </trkpt>
      <trkpt lat="44.55193673260509967803955078125" lon="-0.26739067398011684417724609375">
        <ele>32</ele>
        <time>2017-07-03T10:46:31.000Z</time>
        <extensions>
          <ns3:TrackPointExtension/>
        </extensions>
      </trkpt>
      <trkpt lat="44.5520005188882350921630859375" lon="-0.26817597448825836181640625">
        <ele>32.200000762939453125</ele>
        <time>2017-07-03T10:46:40.000Z</time>
        <extensions>
          <ns3:TrackPointExtension/>
        </extensions>
      </trkpt>
      <trkpt lat="44.5521336235105991363525390625" lon="-0.2689747698605060577392578125">
        <ele>32.200000762939453125</ele>
        <time>2017-07-03T10:46:49.000Z</time>
        <extensions>
          <ns3:TrackPointExtension/>
        </extensions>
      </trkpt>
      <trkpt lat="44.5522065460681915283203125" lon="-0.26979158632457256317138671875">
        <ele>30.6000003814697265625</ele>
        <time>2017-07-03T10:46:58.000Z</time>
        <extensions>
          <ns3:TrackPointExtension/>
        </extensions>
      </trkpt>
      <trkpt lat="44.55222825519740581512451171875" lon="-0.270609073340892791748046875">
        <ele>29.3999996185302734375</ele>
        <time>2017-07-03T10:47:08.000Z</time>
        <extensions>
          <ns3:TrackPointExtension/>
        </extensions>
      </trkpt>
      <trkpt lat="44.552223645150661468505859375" lon="-0.27081199921667575836181640625">
        <ele>29</ele>
        <time>2017-07-03T10:47:11.000Z</time>
        <extensions>
          <ns3:TrackPointExtension/>
        </extensions>
      </trkpt>
      <trkpt lat="44.5520092360675334930419921875" lon="-0.27096723206341266632080078125">
        <ele>28.3999996185302734375</ele>
        <time>2017-07-03T10:47:16.000Z</time>
        <extensions>
          <ns3:TrackPointExtension/>
        </extensions>
      </trkpt>
      <trkpt lat="44.551504813134670257568359375" lon="-0.271167643368244171142578125">
        <ele>31.200000762939453125</ele>
        <time>2017-07-03T10:47:25.000Z</time>
        <extensions>
          <ns3:TrackPointExtension/>
        </extensions>
      </trkpt>
      <trkpt lat="44.55141655169427394866943359375" lon="-0.27156092226505279541015625">
        <ele>31.200000762939453125</ele>
        <time>2017-07-03T10:47:31.000Z</time>
        <extensions>
          <ns3:TrackPointExtension/>
        </extensions>
      </trkpt>
      <trkpt lat="44.5514394342899322509765625" lon="-0.27168966829776763916015625">
        <ele>31</ele>
        <time>2017-07-03T10:47:33.000Z</time>
        <extensions>
          <ns3:TrackPointExtension/>
        </extensions>
      </trkpt>
      <trkpt lat="44.55149701796472072601318359375" lon="-0.27185873128473758697509765625">
        <ele>30.6000003814697265625</ele>
        <time>2017-07-03T10:47:40.000Z</time>
        <extensions>
          <ns3:TrackPointExtension/>
        </extensions>
      </trkpt>
    </trkseg>
  </trk>
</gpx>
